GFSSW_sfc_wetblb_000.txt.gz
Wetbulb
59.85 59.74 59.82 59.83 59.79 60.12 60.33 60.27 60.49 60.53 60.04 60.14 59.81 59.16 58.59 57.95 58.49 61.43 58.53 64.11 65.85 73.82 74.10 69.11 68.69 69.15 71.14 67.28 68.29 67.39 58.94 56.15 57.03 58.36 62.60 66.95 65.16 68.54 69.25 68.80 69.60 70.10 68.95 71.71 73.04
59.36 59.35 59.25 59.40 59.60 60.04 60.28 60.17 59.90 60.05 59.57 59.30 59.30 58.76 58.02 57.81 61.63 59.17 67.57 69.60 72.15 73.93 65.73 64.09 64.71 67.70 65.22 64.04 65.92 62.20 58.22 57.30 61.56 62.32 63.95 65.68 66.12 67.43 67.34 68.60 68.47 69.46 71.97 72.65 72.45
58.53 58.75 58.64 59.04 59.23 59.53 59.84 59.75 59.44 59.14 58.73 58.61 58.52 57.94 57.33 59.15 60.00 57.22 71.65 70.97 73.82 73.59 63.66 62.59 67.35 65.80 60.85 60.55 61.66 60.09 57.56 62.87 64.54 65.63 66.76 66.18 66.50 67.68 66.00 65.08 68.87 68.22 69.98 71.18 71.29
57.85 58.03 58.23 57.91 58.20 58.90 58.88 59.06 58.55 58.27 58.23 58.10 58.00 57.15 56.95 61.95 50.44 61.30 71.33 72.16 73.90 69.27 63.31 61.71 65.35 60.70 58.20 57.68 59.49 58.56 64.96 65.34 66.75 67.06 66.17 65.14 67.12 67.56 68.32 68.15 71.26 71.16 71.69 71.52 70.77
57.13 57.75 57.77 57.64 57.59 58.17 58.48 58.32 57.66 57.54 57.64 57.77 57.00 56.28 59.58 57.87 56.28 67.53 72.93 71.38 68.21 65.73 60.86 63.81 62.49 59.75 57.31 58.34 59.61 62.31 65.46 67.24 67.82 66.79 66.36 65.82 65.66 67.56 68.39 70.76 72.04 72.08 71.95 71.58 71.31
56.90 57.36 57.39 57.36 57.58 57.79 57.84 57.46 56.70 57.02 56.83 57.04 56.13 56.02 60.62 53.50 62.66 68.50 69.03 63.19 65.66 63.29 60.56 65.20 60.47 60.57 58.49 58.27 59.13 64.89 66.09 66.20 66.07 64.45 64.67 63.53 64.97 65.58 69.43 71.68 71.09 71.26 71.38 72.01 71.90
56.74 56.76 56.86 57.01 56.88 56.80 56.86 56.38 56.79 56.45 56.06 55.99 56.05 60.17 58.64 55.77 66.94 67.05 69.18 61.62 62.46 61.82 61.15 64.26 62.60 59.53 59.60 60.70 64.99 66.57 63.94 65.71 64.84 65.80 63.35 63.99 62.00 64.29 70.25 71.49 70.27 70.54 71.53 72.08 72.70
56.27 56.27 56.37 56.50 56.19 56.11 55.87 55.64 57.63 56.09 55.74 56.50 58.28 62.66 57.10 62.27 68.25 63.78 63.30 62.23 63.47 65.19 64.83 64.98 62.70 59.71 59.06 63.62 64.62 62.09 62.38 59.11 63.80 65.36 64.52 66.04 58.75 65.64 69.39 69.64 69.05 70.03 70.97 71.52 72.47
55.84 55.70 55.84 55.98 55.97 55.52 54.85 55.54 56.88 57.16 57.46 59.07 63.07 62.48 58.81 65.64 63.92 63.81 63.08 60.45 62.46 64.54 64.72 61.70 61.04 59.06 60.89 58.20 57.42 60.05 55.48 56.66 60.36 65.82 64.30 63.98 60.42 65.64 68.37 67.83 67.86 69.30 70.36 71.06 72.04
55.49 55.21 55.16 55.18 55.02 54.38 53.90 55.56 59.69 60.23 61.16 62.90 64.09 60.44 61.25 58.92 61.94 61.99 63.24 61.62 61.76 61.96 60.25 59.73 58.97 56.41 56.97 56.32 51.30 53.70 54.75 56.73 57.08 62.44 63.78 61.59 62.59 64.69 66.98 66.60 66.67 68.40 69.35 70.30 70.73
55.12 54.79 54.69 54.61 54.06 53.67 55.41 61.76 62.05 60.70 62.05 60.08 60.26 58.48 58.81 61.45 63.61 60.94 62.47 61.04 61.24 59.03 55.40 58.55 55.90 53.38 54.71 56.30 55.94 55.14 54.50 55.59 58.05 61.48 61.40 61.07 63.24 63.55 65.60 66.24 65.76 66.26 68.52 69.31 70.17
54.83 54.55 54.32 53.99 53.41 53.02 57.79 62.02 62.03 62.33 57.38 60.73 60.71 60.65 61.79 61.53 57.39 59.84 63.46 58.13 57.25 53.83 55.89 54.66 52.86 55.77 56.55 55.96 54.86 54.40 53.47 54.07 58.65 61.48 61.87 62.80 62.60 65.03 65.52 64.45 66.16 66.27 67.83 68.79 70.27
54.38 54.10 53.87 53.12 52.66 56.42 59.05 57.90 64.54 63.49 57.56 58.37 59.99 59.51 59.79 60.68 56.46 56.98 60.79 58.65 55.64 53.96 53.92 51.94 53.65 57.04 55.54 54.81 54.18 54.78 53.72 54.17 55.65 61.24 62.60 62.54 61.06 63.84 65.94 66.92 67.11 68.23 69.02 70.11 70.29
54.20 54.06 53.30 51.71 53.96 57.25 56.50 64.59 63.13 64.42 54.07 54.49 55.32 58.20 59.74 58.49 54.98 59.49 61.04 58.22 55.48 53.40 54.19 55.27 56.36 54.80 54.61 54.15 55.72 53.37 56.81 55.83 56.01 58.97 53.99 61.93 52.20 62.38 64.63 65.29 66.52 67.16 68.91 69.65 70.70
54.14 53.77 52.26 51.44 55.20 54.59 60.58 60.76 63.98 61.88 45.34 54.31 56.55 61.91 59.71 56.30 56.79 57.33 61.72 58.65 54.25 54.94 55.35 54.20 54.15 54.24 53.84 54.61 56.64 55.08 59.13 58.31 58.35 58.69 58.18 59.50 55.51 57.42 64.14 63.16 64.92 66.92 67.88 68.91 70.53
53.50 53.10 51.85 56.00 56.42 57.84 58.89 61.61 63.63 52.02 44.16 52.01 54.90 55.14 55.01 56.14 56.20 58.17 58.01 59.62 58.22 55.78 56.05 56.05 57.84 57.05 56.27 56.34 56.62 60.49 59.98 59.26 59.16 56.44 51.41 54.29 54.94 53.11 57.64 62.23 64.24 66.98 68.41 69.23 69.99
52.20 51.45 51.01 55.05 54.01 60.11 60.54 63.24 53.68 47.08 53.76 50.90 51.46 54.42 54.24 53.21 54.09 55.20 55.19 54.68 52.92 51.54 52.38 54.51 54.79 56.88 57.89 55.62 58.18 58.13 55.39 49.62 48.45 48.44 47.91 54.96 53.33 54.25 57.92 63.24 64.60 65.62 68.19 69.66 70.06
50.65 49.78 54.44 55.84 59.70 57.65 56.24 56.27 48.85 50.84 51.43 55.06 52.54 53.27 51.91 53.67 53.34 54.53 54.17 53.02 55.50 55.20 53.22 51.45 49.79 54.91 57.35 56.29 54.69 55.02 54.00 49.82 44.46 45.61 47.95 54.78 49.45 54.55 61.76 63.70 64.60 66.71 68.64 69.79 69.60
49.90 57.44 56.72 59.88 58.45 59.71 55.15 50.83 51.24 52.13 55.21 53.82 52.73 50.48 51.46 52.72 52.99 53.54 54.00 53.83 55.04 55.62 52.44 51.64 51.46 56.51 57.00 57.68 57.53 54.69 52.35 55.13 50.20 51.24 48.03 50.70 54.62 58.97 62.13 62.46 63.49 65.78 67.64 69.08 68.46
53.06 54.08 54.83 61.19 61.96 56.44 53.92 48.97 53.47 55.82 56.38 55.00 51.68 52.00 49.98 51.46 51.36 52.41 53.29 55.48 54.65 56.16 57.39 54.85 51.32 55.46 55.86 57.52 56.85 56.85 57.51 51.16 51.78 46.12 45.11 48.90 49.58 53.05 56.81 58.47 62.71 63.81 66.44 69.15 68.39
52.98 49.62 59.13 62.00 61.47 52.47 50.91 53.22 54.69 56.33 56.10 54.43 53.28 52.76 52.21 51.46 52.39 52.25 52.98 54.92 55.96 55.30 56.91 55.86 54.17 53.98 56.20 54.79 53.80 54.39 53.88 55.05 54.35 52.39 47.71 46.60 50.48 58.00 57.22 58.91 60.25 64.51 66.93 68.93 67.99
53.96 47.69 60.54 60.94 53.06 53.60 52.51 55.19 53.26 54.87 55.88 54.80 55.46 54.87 53.69 53.24 52.39 52.66 52.60 54.75 56.47 56.63 53.39 56.10 54.37 51.76 52.78 56.78 57.86 57.04 55.30 55.65 51.31 51.75 51.96 50.66 49.95 59.34 59.18 59.95 61.14 62.70 67.10 68.91 69.77
52.24 51.95 61.63 60.07 50.96 53.38 56.12 54.97 55.26 53.85 54.24 53.80 54.25 55.31 55.53 54.63 52.79 53.63 54.32 56.58 56.57 56.20 55.60 56.63 53.06 49.74 51.61 54.73 56.42 55.14 56.42 56.61 56.16 55.39 52.13 48.95 51.64 61.17 60.73 61.66 63.17 63.56 66.68 68.74 69.81
53.67 51.16 57.09 58.02 58.23 54.77 54.15 53.76 52.99 54.37 54.21 54.32 54.81 56.36 55.47 54.87 56.82 54.98 55.26 57.35 58.65 58.07 59.62 60.54 54.78 52.86 48.77 52.00 54.38 53.52 54.79 56.19 55.25 52.29 52.62 52.57 53.96 56.94 59.15 60.37 61.72 64.03 66.41 67.86 69.00
56.17 53.27 52.77 52.88 54.07 54.20 53.65 53.28 52.57 52.08 54.76 55.60 54.85 54.32 55.03 54.17 54.65 54.43 56.34 57.62 58.58 58.81 59.07 58.03 54.55 55.26 54.47 54.42 54.58 54.17 54.49 55.03 54.54 55.04 52.68 53.86 54.38 57.67 59.25 60.00 62.08 62.83 64.15 66.49 66.89
51.13 50.96 55.42 55.87 52.17 52.12 48.85 52.54 51.04 52.12 53.44 52.62 53.77 55.09 56.18 55.20 56.53 54.24 55.90 57.34 57.00 59.15 59.12 59.78 55.76 56.85 53.33 54.59 54.25 52.66 54.27 55.08 55.31 55.23 55.50 55.05 54.55 58.38 59.05 60.30 59.63 60.83 62.72 64.49 66.32
52.93 54.25 51.56 47.26 51.74 51.85 52.10 51.85 51.17 53.22 54.38 54.97 55.16 56.20 54.64 56.39 57.18 58.54 58.97 59.40 58.62 58.88 58.70 58.72 57.21 55.92 51.72 54.65 54.11 51.62 54.58 55.26 55.94 57.04 56.17 52.64 56.27 58.59 57.84 58.83 60.05 62.52 63.24 63.71 65.47

GFSSW_sfc_wetblb_003.txt.gz
Wetbulb
59.91 59.86 59.71 59.72 59.70 60.00 60.50 60.42 60.65 60.82 60.94 60.87 60.59 60.66 60.22 59.33 58.68 63.13 61.19 67.36 68.18 72.17 74.05 67.72 70.11 69.78 71.54 69.56 67.98 67.31 59.30 56.10 58.25 58.74 61.58 65.51 65.24 68.47 70.03 67.64 68.29 69.16 68.47 71.25 72.85
59.42 59.37 59.33 59.26 59.60 59.86 60.10 60.14 60.06 60.26 60.02 59.79 59.57 59.94 59.39 58.60 62.80 61.85 70.90 73.56 74.93 74.34 66.11 65.03 64.00 66.32 66.59 65.49 64.72 62.49 58.60 57.73 61.70 62.56 62.69 65.14 66.08 67.44 68.61 68.94 67.83 69.11 70.87 72.10 72.57
58.47 58.68 58.55 58.76 59.15 59.32 59.61 59.55 59.36 59.35 59.30 59.22 59.27 59.42 58.49 59.52 61.88 59.87 72.84 72.90 74.15 74.32 66.01 64.39 65.26 66.28 63.98 63.24 62.28 61.60 57.68 61.05 62.00 64.06 65.06 64.41 64.11 65.85 64.79 67.03 68.19 68.13 69.16 70.89 71.58
57.62 57.77 58.05 57.84 58.06 58.42 58.65 58.88 58.61 58.65 58.61 58.79 58.84 58.88 57.95 63.19 53.30 64.95 73.03 73.54 74.01 69.33 65.71 61.66 63.84 63.85 61.57 59.34 61.21 59.99 61.90 63.44 63.31 63.98 64.63 63.19 65.92 65.90 68.95 69.19 71.23 70.39 70.52 70.90 70.78
57.00 57.29 57.62 57.59 57.56 57.79 58.26 58.05 57.58 58.18 58.44 58.54 58.73 57.84 59.90 59.63 59.14 67.71 72.04 72.11 68.63 67.22 62.76 60.98 62.74 63.05 59.06 59.97 59.69 61.98 62.79 63.83 64.07 64.76 64.15 64.89 65.44 67.61 68.36 70.40 71.28 71.24 70.74 70.25 70.56
56.74 57.02 57.15 57.13 57.22 57.65 57.72 57.21 56.87 58.44 58.43 58.33 57.90 56.85 61.46 56.60 63.61 67.17 66.47 62.39 62.24 64.03 61.51 62.66 64.67 63.57 60.92 59.50 60.60 63.42 63.62 63.14 64.07 63.50 64.15 64.22 64.90 68.22 69.25 70.83 70.38 70.61 70.68 71.11 70.94
56.64 56.68 56.64 56.78 56.83 56.76 56.62 56.18 57.00 58.73 57.81 57.53 57.40 60.75 60.15 58.25 65.62 66.81 66.99 60.85 62.67 62.67 60.37 64.84 64.99 61.27 61.72 59.20 63.05 63.37 61.20 62.35 62.92 63.70 62.31 63.73 61.79 65.03 70.30 70.67 69.92 70.56 71.40 71.94 72.35
56.39 56.51 56.49 56.51 56.25 56.10 56.05 55.40 57.10 57.88 57.09 57.28 58.08 63.25 61.10 62.68 67.22 65.03 66.92 60.96 63.84 63.59 63.05 67.00 64.59 61.83 61.41 63.01 63.29 60.56 60.82 58.15 62.47 63.01 64.14 59.70 59.26 66.05 69.87 69.90 69.36 70.38 71.28 71.71 72.70
55.79 55.81 56.02 55.81 55.77 55.42 54.87 54.85 58.65 57.92 58.33 59.10 63.45 65.37 61.65 66.80 64.64 64.20 64.33 59.66 61.06 63.01 65.96 64.38 62.91 60.50 60.72 58.68 59.05 59.33 55.92 56.96 59.34 63.01 63.45 59.18 60.69 65.82 68.03 68.03 68.33 69.53 69.97 70.46 71.20
55.37 55.32 55.32 55.20 55.03 54.44 53.94 54.91 59.93 59.48 60.88 64.35 64.51 61.81 63.26 59.40 63.15 62.29 63.24 61.76 59.79 61.77 62.54 60.55 59.77 58.00 58.72 57.03 52.79 55.47 56.17 57.59 57.81 60.85 61.14 59.92 60.29 65.27 66.64 66.06 67.18 68.23 69.04 69.45 70.17
55.26 55.08 54.87 54.66 54.30 53.53 55.13 63.61 63.44 62.68 64.57 61.04 61.34 58.90 59.21 62.62 63.53 61.21 62.27 60.67 60.62 60.53 57.28 59.43 55.93 54.26 55.97 57.75 57.88 57.88 56.15 56.54 57.83 61.11 60.30 59.81 61.09 64.06 66.29 65.81 65.56 67.03 68.44 68.56 69.31
54.89 54.62 54.58 54.32 53.55 52.89 56.65 62.30 63.12 64.19 58.40 61.03 60.76 62.05 62.18 62.63 57.48 59.31 62.50 57.36 57.69 55.37 57.41 57.16 54.49 57.25 57.65 57.18 56.74 55.23 54.95 55.91 58.43 60.36 59.70 59.27 61.28 63.25 64.94 65.58 65.80 66.00 67.15 67.71 68.71
54.57 54.38 54.12 53.30 52.76 56.77 61.33 62.02 64.30 65.16 58.75 58.66 59.97 60.12 61.15 61.01 57.08 57.19 59.43 58.19 56.61 54.95 54.85 54.20 56.20 58.38 56.72 55.77 54.71 54.91 53.98 54.35 55.26 58.28 59.57 59.52 58.91 62.16 63.79 65.34 66.18 66.21 67.14 67.86 68.36
54.32 54.11 53.36 52.03 53.49 59.72 57.70 65.09 65.92 65.22 55.09 55.25 57.32 59.14 60.73 59.97 56.70 60.61 60.64 58.36 56.43 54.36 54.99 54.87 56.59 55.45 54.90 54.36 55.33 53.02 56.24 55.64 54.85 55.97 53.29 58.57 51.95 60.44 63.61 62.65 63.67 65.45 66.24 66.89 67.98
54.09 53.89 52.58 51.41 55.73 54.48 60.12 62.08 63.98 64.30 46.51 55.66 57.11 62.42 61.11 56.67 57.64 57.65 61.01 59.01 55.15 54.70 55.52 53.43 54.74 54.86 54.25 55.02 56.51 55.34 57.53 55.72 55.38 55.02 55.45 55.68 54.23 58.84 59.49 62.52 63.39 64.03 66.06 67.68 68.71
53.62 53.21 52.39 56.76 58.58 59.04 61.11 60.07 63.25 53.34 45.81 52.85 56.83 56.30 56.27 56.16 56.39 57.73 57.10 60.08 59.00 55.63 56.01 56.15 59.21 57.36 56.70 57.55 57.45 59.34 57.55 57.08 57.13 55.44 50.97 55.54 54.51 55.17 59.43 63.21 64.86 65.88 65.35 66.65 68.47
52.31 51.62 51.62 56.22 53.43 60.39 61.94 60.36 54.33 48.66 54.77 52.21 53.60 55.70 55.14 53.30 54.86 54.97 54.17 54.80 53.60 52.19 52.32 55.49 55.71 57.56 58.28 55.90 57.94 57.52 55.30 50.38 49.43 49.62 49.75 55.29 53.19 55.88 58.29 61.68 61.49 64.83 66.47 67.05 68.08
50.88 49.98 55.13 57.67 59.74 59.43 57.02 53.85 48.83 52.85 52.89 55.30 54.40 54.76 52.58 54.17 54.75 54.32 53.67 53.02 56.33 55.78 53.26 52.14 50.08 55.45 57.91 56.42 54.84 55.41 55.07 50.86 46.45 47.51 49.85 54.99 50.77 53.60 58.10 61.79 63.97 65.22 66.58 68.13 68.87
50.02 58.41 58.90 60.29 61.08 58.91 55.06 49.03 51.34 54.01 55.28 53.58 53.70 52.01 52.23 53.89 54.32 54.51 53.79 53.55 55.72 56.68 53.46 52.88 52.25 57.09 57.46 58.20 57.88 55.23 52.61 56.38 51.92 52.73 50.28 52.28 55.10 57.61 61.22 60.56 62.36 63.44 65.29 67.86 68.93
53.32 56.00 56.33 61.51 63.12 56.91 52.97 47.98 54.23 56.97 57.20 56.71 53.02 52.71 50.91 52.62 52.19 53.43 53.83 56.20 55.49 57.46 58.73 56.54 52.59 56.31 56.82 58.01 58.38 57.20 57.48 51.69 52.35 47.10 46.83 50.48 51.18 52.41 57.85 58.48 60.27 61.71 63.65 66.52 69.56
55.11 53.24 59.26 62.57 62.72 54.29 50.17 52.78 55.42 57.86 57.39 55.60 54.92 53.83 52.75 52.47 53.14 52.88 54.02 56.18 57.27 56.82 58.01 56.64 55.35 54.44 56.50 54.92 54.40 54.65 54.37 55.64 55.07 53.79 49.35 48.03 51.32 58.60 57.80 59.02 59.13 60.92 62.82 66.21 68.83
54.85 50.07 62.15 63.75 52.90 54.40 51.66 54.36 53.60 56.57 57.86 56.99 57.34 56.66 54.68 53.92 53.32 52.92 53.01 55.65 58.19 58.28 54.67 56.70 54.90 52.30 53.52 57.12 57.55 56.86 55.25 55.54 51.68 51.92 53.12 52.07 51.54 59.10 59.01 59.65 60.43 61.31 63.07 66.16 70.16
53.45 53.99 60.99 61.39 49.82 52.03 54.65 53.73 56.02 56.00 56.16 56.16 55.64 57.44 57.84 54.70 52.94 53.92 54.73 57.38 57.82 56.92 56.19 57.02 53.44 50.49 51.81 55.15 56.70 54.55 55.96 56.43 56.17 55.54 53.78 50.92 52.44 60.86 60.16 60.76 61.88 62.34 63.09 66.36 69.67
54.22 51.42 53.36 58.13 56.57 55.63 54.81 53.52 54.56 57.61 56.31 56.60 56.26 57.79 56.93 55.61 56.45 54.31 54.00 56.38 57.37 57.28 62.45 61.55 54.61 52.69 49.23 52.63 55.54 53.55 54.06 55.60 55.20 52.96 53.33 53.81 54.86 58.95 59.85 60.49 61.70 62.75 64.40 65.46 68.45
56.24 53.97 57.35 53.20 53.19 55.82 57.30 55.95 53.94 54.09 56.34 57.20 55.89 55.72 56.81 55.10 55.05 54.88 55.83 56.80 58.00 59.78 58.92 57.38 54.24 54.89 54.67 54.35 55.14 54.51 54.13 54.21 54.41 55.31 52.91 54.50 54.51 57.92 59.66 60.03 61.73 61.91 62.88 64.37 66.91
51.10 52.23 55.82 55.35 56.10 55.17 51.84 55.18 53.99 54.95 55.11 54.67 54.67 55.88 56.89 56.79 57.14 55.37 56.92 57.60 57.10 59.14 58.11 59.06 54.75 55.90 53.50 54.90 54.00 53.11 54.60 55.07 55.04 55.33 55.12 55.33 55.71 60.10 60.56 60.81 60.60 61.02 61.44 62.07 64.31
53.73 55.63 53.32 52.15 54.28 53.62 53.62 54.65 54.81 55.47 56.04 56.82 56.93 56.96 56.11 58.09 59.75 60.46 60.63 61.01 60.79 59.76 58.50 58.83 56.24 55.17 52.08 54.91 54.27 51.40 54.00 54.71 55.60 57.00 56.48 54.00 57.74 60.59 59.64 59.86 60.68 61.95 62.32 62.72 63.56

GFSSW_sfc_wetblb_006.txt.gz
Wetbulb
59.59 59.52 59.34 59.53 59.58 59.98 60.27 60.15 60.09 60.41 60.67 60.87 60.84 60.51 60.70 60.37 59.19 62.75 60.02 66.49 69.52 74.08 74.15 67.73 66.04 67.48 67.90 67.37 69.13 68.61 59.37 57.04 57.38 58.80 61.08 65.00 63.45 65.65 67.07 66.27 67.69 69.04 68.14 70.12 71.58
58.97 59.03 58.80 58.94 59.36 59.50 59.71 60.00 59.80 59.61 59.74 60.00 60.11 59.83 60.34 59.73 60.87 60.40 67.70 74.25 74.00 73.94 64.81 62.14 62.29 64.00 64.03 65.29 64.85 61.30 57.76 58.31 61.03 62.17 61.29 60.66 63.35 65.54 65.75 66.09 66.11 66.24 69.85 71.08 71.49
57.89 58.34 58.44 58.47 58.75 58.96 59.12 59.42 59.35 58.69 59.09 59.22 59.31 59.51 59.94 59.45 60.69 59.17 72.10 73.81 74.60 72.88 63.11 63.78 63.85 63.80 63.18 64.16 62.14 60.87 57.47 60.40 62.70 64.26 64.56 61.46 65.17 65.36 64.45 63.94 66.32 65.53 67.92 69.66 70.30
57.30 57.41 57.82 57.63 57.87 58.08 58.27 58.41 58.41 58.08 58.62 59.17 59.13 59.54 59.43 60.85 53.67 62.97 74.33 74.30 75.14 65.64 63.21 63.40 61.26 61.35 62.13 59.33 61.16 59.09 62.63 62.08 62.11 64.65 63.18 62.70 66.19 63.02 63.45 63.51 69.52 68.56 69.49 69.70 69.47
57.12 57.45 57.64 57.52 57.42 57.71 58.07 57.93 57.46 57.54 58.91 59.30 59.43 59.18 59.37 58.34 58.31 68.29 73.75 73.30 64.68 62.15 61.16 61.74 59.00 62.57 60.42 59.66 59.38 60.63 61.80 62.37 64.17 64.16 63.78 65.36 65.05 64.98 62.53 68.41 69.17 68.93 69.53 69.31 69.51
56.81 57.08 57.08 57.23 57.35 57.53 57.64 57.22 56.79 57.15 59.49 59.34 59.25 57.55 58.91 55.51 63.36 65.90 63.51 62.28 61.62 61.28 61.76 61.63 60.79 64.38 61.27 59.38 58.88 62.47 62.30 61.74 63.11 62.30 64.04 63.46 64.84 66.09 67.61 69.30 68.39 68.50 68.54 69.22 69.67
56.54 56.66 56.73 56.96 57.08 56.81 56.82 56.40 56.08 57.02 59.36 58.75 58.59 59.84 60.40 57.05 63.93 65.63 63.89 60.57 61.90 62.16 60.79 61.92 63.62 63.41 61.74 58.91 63.78 62.56 59.77 61.37 61.31 62.98 62.72 63.62 62.31 63.79 68.14 69.21 68.20 68.57 69.30 69.58 70.08
56.25 56.43 56.41 56.51 56.64 56.48 56.03 55.60 55.71 58.06 59.06 58.39 58.86 61.37 58.57 64.68 64.61 64.64 64.16 60.76 61.10 62.60 62.22 63.04 66.28 62.69 61.06 61.94 61.33 59.80 60.11 56.35 61.49 62.99 62.26 63.03 58.93 65.62 68.24 68.46 68.06 68.80 69.45 69.88 70.69
55.62 55.76 56.04 56.05 56.01 55.54 55.01 55.03 56.00 59.89 59.88 59.49 60.77 61.45 60.21 65.53 60.42 65.08 64.16 58.93 59.69 61.54 62.25 63.58 65.16 60.41 60.12 57.49 58.18 58.50 54.86 56.66 59.02 62.68 61.40 61.45 60.08 65.65 67.98 67.28 66.71 68.32 68.72 69.79 70.31
55.23 55.33 55.43 55.44 55.07 54.56 54.04 54.91 59.76 60.31 61.47 63.54 63.05 60.28 63.90 61.64 60.48 63.39 64.28 60.78 59.39 59.47 59.16 61.85 61.18 57.15 56.98 56.58 52.65 54.69 55.62 57.60 57.75 60.82 62.17 60.47 60.55 64.40 65.94 66.15 66.13 67.15 67.69 68.50 69.17
55.06 54.76 54.65 54.52 54.26 53.67 53.87 58.08 62.37 62.09 63.74 60.92 59.70 58.43 60.53 64.28 63.72 60.57 62.30 59.31 58.69 57.43 55.84 60.16 55.64 53.12 55.22 57.40 58.37 58.42 56.92 56.81 58.82 62.10 61.26 60.14 60.47 62.85 64.17 65.15 65.76 66.48 66.90 67.30 67.83
54.76 54.45 54.46 54.08 53.60 53.15 53.68 55.79 60.76 61.94 57.67 61.51 62.06 62.07 62.73 61.98 57.77 58.43 61.29 56.35 55.60 53.67 56.99 56.57 53.38 56.60 57.89 58.03 56.86 56.62 55.44 55.44 58.67 60.71 60.41 60.61 60.00 63.04 63.63 63.97 65.67 66.53 66.89 67.23 68.33
54.39 54.22 53.85 53.50 52.80 55.75 57.87 60.69 63.95 62.86 57.52 58.46 60.19 59.04 60.65 61.25 57.77 56.86 58.94 57.08 54.49 54.38 55.32 54.00 55.46 57.79 56.78 55.73 54.85 55.50 53.84 54.35 56.22 58.70 59.25 58.22 58.57 58.48 63.24 64.52 65.24 66.20 67.65 67.86 67.96
54.16 53.91 53.38 52.14 53.48 56.45 56.43 62.29 65.50 64.24 53.30 54.09 56.63 59.08 60.13 60.32 56.73 59.91 60.01 57.71 55.67 54.18 55.52 55.11 57.60 56.44 55.68 54.49 55.09 52.46 55.92 55.33 54.81 55.21 51.85 58.33 50.74 58.10 60.89 61.62 63.65 64.40 65.57 66.64 67.56
53.97 53.63 52.66 51.60 52.47 53.67 57.59 60.31 61.95 61.58 43.90 55.42 56.02 62.09 60.31 58.11 57.66 56.80 60.53 57.43 54.70 54.79 55.28 53.08 54.69 54.90 54.47 55.14 56.31 53.71 56.60 55.15 54.93 53.49 53.16 53.81 52.33 57.03 61.49 59.70 61.22 63.46 64.82 65.95 67.27
53.54 52.94 52.35 54.38 55.33 58.35 60.76 61.18 59.62 52.16 44.44 53.20 56.68 55.42 55.79 57.06 56.45 57.89 56.98 58.41 58.33 55.37 55.75 54.93 57.62 56.02 55.26 56.45 56.52 56.97 57.12 55.85 54.82 53.31 49.39 52.79 53.79 54.13 57.66 62.12 61.68 63.22 64.54 66.07 66.90
52.33 51.45 51.28 53.81 51.88 57.70 57.35 57.48 50.33 46.94 54.65 51.99 53.23 55.17 54.90 54.35 54.05 55.61 54.07 52.86 51.90 50.86 50.70 53.38 54.07 56.99 57.34 54.78 56.96 56.35 54.80 50.01 48.49 48.44 47.94 54.36 52.93 56.97 60.90 62.16 63.89 63.48 63.85 66.01 67.48
50.87 49.95 53.70 55.86 57.19 56.26 56.59 51.73 46.27 52.36 52.42 55.53 55.10 54.92 52.61 54.57 53.19 54.08 53.08 50.86 54.31 53.55 51.36 49.59 48.53 54.93 56.98 55.70 54.52 54.55 54.44 50.18 46.57 47.12 49.33 55.36 51.80 56.20 60.99 64.30 65.92 67.17 67.23 66.51 66.58
50.16 56.31 55.96 60.40 60.28 58.28 52.93 47.05 49.06 52.08 55.91 53.64 55.01 51.88 52.05 53.89 52.70 53.15 52.48 51.22 53.78 54.68 51.90 50.61 51.31 57.14 56.80 57.71 57.31 54.72 52.59 55.86 52.02 52.58 49.55 52.11 55.46 57.99 59.55 59.39 59.56 61.60 61.97 65.54 65.89
51.39 53.96 55.30 58.47 62.19 57.16 49.75 46.02 51.50 54.53 55.71 56.49 52.38 53.62 50.38 51.79 51.06 52.36 51.84 53.95 53.64 56.19 57.42 55.29 52.06 55.45 56.25 57.70 57.60 56.16 57.35 51.29 52.04 48.03 46.62 50.07 51.56 52.41 58.72 58.51 59.66 59.59 60.60 63.75 67.52
53.55 54.72 58.27 59.10 61.65 53.13 46.21 49.35 52.49 55.25 56.50 55.62 54.79 54.15 52.42 51.90 52.25 52.22 52.36 54.16 55.42 55.99 57.51 56.55 55.25 54.07 55.85 54.20 53.24 54.45 53.63 54.34 53.75 52.41 48.37 47.36 49.90 59.41 60.94 60.82 59.22 60.27 61.78 62.54 64.19
52.97 49.11 59.42 61.71 53.46 52.11 48.44 51.74 52.51 53.87 57.31 57.01 56.78 55.83 55.05 55.06 52.40 52.18 52.50 54.59 56.98 56.97 54.43 56.82 54.88 52.33 53.26 56.85 57.52 56.19 55.05 55.68 51.34 51.95 53.47 52.92 50.91 59.62 59.88 59.58 59.95 61.02 61.52 64.03 66.16
49.88 52.80 59.15 60.49 49.21 49.89 52.48 52.41 54.00 53.30 55.47 55.78 54.58 56.19 57.19 55.87 52.92 53.38 53.81 56.99 57.98 56.95 56.46 57.32 54.45 50.51 51.90 54.22 56.22 54.08 55.49 55.13 54.89 54.64 53.93 50.29 51.88 62.13 60.15 60.45 61.81 61.40 62.86 67.40 68.36
50.08 49.14 53.10 56.72 55.50 52.36 51.52 52.27 52.10 54.87 54.82 56.98 55.74 56.54 55.12 55.21 56.89 54.17 53.86 55.92 57.88 57.71 63.64 61.33 54.20 53.96 48.50 52.71 54.95 53.57 53.72 54.24 53.62 52.38 52.42 52.89 55.63 58.20 59.57 61.11 63.83 63.58 65.24 65.77 69.30
52.42 50.82 55.42 51.97 51.73 52.65 53.47 54.17 53.65 51.62 55.86 57.58 55.57 55.28 55.34 54.13 54.62 53.92 54.89 55.23 56.54 61.67 58.20 57.11 55.88 54.06 53.39 53.65 53.86 54.06 53.83 53.88 52.95 54.71 52.24 54.59 55.28 59.05 59.06 61.08 61.91 62.63 63.58 64.40 67.64
50.61 48.17 52.58 51.43 54.75 55.90 51.35 53.42 54.43 54.20 54.55 54.36 54.13 55.17 55.97 55.05 57.51 56.53 57.55 58.32 55.73 57.17 56.26 57.50 55.04 54.62 52.22 53.93 53.66 52.18 53.53 54.83 54.47 53.95 53.80 54.75 56.17 59.91 62.45 63.32 61.75 60.92 61.77 63.95 65.47
53.63 51.15 50.48 50.04 52.63 53.01 53.92 54.80 55.23 56.58 56.19 56.77 56.23 56.18 55.22 56.47 59.84 60.89 60.17 60.02 59.99 59.32 57.24 58.18 54.75 54.85 50.73 53.53 53.32 50.81 53.50 53.59 54.79 56.23 55.64 54.18 59.02 61.99 60.79 60.76 60.53 62.14 62.45 64.05 65.46

GFSSW_sfc_wetblb_009.txt.gz
Wetbulb
59.19 59.16 59.17 59.19 59.04 59.24 59.56 59.80 59.86 59.99 59.81 59.98 59.70 59.50 60.08 60.55 59.63 59.29 58.05 62.61 66.23 72.45 74.03 65.20 64.49 65.19 66.16 64.65 67.34 67.12 55.89 54.91 55.66 56.37 57.01 63.07 61.13 65.03 67.27 65.65 67.12 67.84 67.60 68.89 73.04
58.57 58.58 58.74 58.67 59.07 59.18 59.16 59.43 59.31 59.04 59.09 59.56 59.47 59.56 59.99 60.32 57.88 57.01 65.90 73.39 72.70 74.79 62.75 58.75 58.56 60.35 59.05 60.91 64.12 62.32 57.17 56.36 61.08 61.59 59.80 63.50 64.31 64.23 64.34 64.72 64.60 66.17 68.39 70.62 71.41
57.68 57.70 58.17 58.34 58.64 58.72 58.83 58.85 58.57 58.58 58.62 59.09 59.85 60.07 60.38 58.94 57.08 57.11 72.36 71.86 73.57 73.22 62.03 58.42 59.13 59.20 56.64 59.38 61.61 63.92 58.28 61.74 62.08 62.76 64.01 63.07 63.80 65.11 64.49 61.81 64.56 64.38 66.08 68.17 69.91
57.03 57.12 57.19 57.52 57.77 57.93 58.19 58.31 58.05 57.87 58.18 58.84 60.03 60.31 59.87 57.19 49.36 58.28 74.68 74.21 73.09 66.75 60.51 58.22 58.85 55.77 54.43 56.17 59.48 58.22 62.12 63.05 62.93 64.20 63.64 61.34 62.64 61.01 63.25 63.89 67.89 67.76 68.04 68.00 67.34
56.34 56.67 56.87 57.03 57.24 57.52 57.92 58.01 57.59 57.20 57.65 59.61 60.10 59.85 57.43 54.49 55.75 66.08 73.79 73.60 67.12 60.46 57.08 57.03 57.49 55.82 53.69 58.21 57.13 58.29 59.41 61.82 63.08 63.29 63.78 64.53 60.99 61.21 62.35 64.86 68.51 68.47 68.45 67.47 67.04
56.34 56.69 56.88 57.02 57.19 57.44 57.51 57.22 57.03 56.93 57.42 59.96 59.71 58.91 54.23 50.84 60.93 62.71 63.14 62.84 59.83 56.72 56.19 57.54 57.93 57.34 56.29 58.38 56.75 60.93 59.06 61.41 61.48 62.58 64.64 63.50 61.26 62.08 63.15 66.16 66.93 67.26 66.84 67.20 67.26
56.28 56.40 56.42 56.68 56.90 56.73 56.96 56.55 56.11 56.45 57.41 59.77 59.28 58.86 56.58 53.05 60.60 63.66 60.00 57.45 58.39 56.75 55.37 58.87 60.40 56.22 56.57 56.46 61.67 61.27 56.73 59.41 60.91 61.67 62.76 64.64 61.37 62.50 65.85 66.34 65.66 66.30 66.84 67.52 67.78
56.01 56.10 56.05 56.23 56.43 56.31 55.88 55.65 55.70 56.67 57.61 59.85 59.37 57.60 51.70 61.24 61.46 60.59 60.61 57.83 58.04 57.72 57.82 59.63 60.24 56.85 56.40 57.43 59.76 56.68 55.42 51.40 58.63 60.48 63.00 62.55 56.71 64.08 66.28 65.36 64.66 66.05 66.98 67.45 67.31
55.70 55.73 55.64 55.62 55.55 55.18 54.63 54.87 56.43 58.36 59.42 59.99 56.80 55.20 56.07 66.03 60.21 60.59 61.13 57.59 55.09 54.89 57.20 61.11 58.28 55.88 57.82 52.28 50.76 53.34 49.10 53.44 56.11 59.50 59.70 59.40 58.53 64.04 66.52 65.95 65.26 66.09 66.70 67.52 67.65
55.15 55.13 54.98 54.90 54.79 54.16 53.86 54.79 57.94 59.51 60.42 62.08 60.80 54.79 59.12 60.42 58.34 59.62 61.48 60.06 54.43 54.18 54.85 54.69 53.95 53.13 52.13 48.36 45.67 49.29 50.56 54.82 54.84 58.10 58.59 57.72 59.11 63.15 65.30 65.56 65.29 66.13 66.98 67.72 68.03
55.19 54.84 54.61 54.37 53.89 53.30 51.92 51.11 54.36 57.45 60.34 58.39 56.44 57.05 58.36 61.55 61.78 57.84 60.60 58.37 53.71 51.44 48.84 52.17 50.80 48.89 51.27 52.20 52.82 55.29 54.16 54.86 57.96 59.42 57.87 56.54 59.32 61.79 63.54 63.48 62.66 63.46 64.61 65.83 67.08
54.72 54.53 54.20 53.98 53.24 52.76 51.08 49.70 52.50 55.90 52.89 58.13 60.68 61.34 62.49 62.58 57.75 57.96 60.01 54.48 50.81 48.69 50.69 49.84 49.84 54.85 56.44 55.32 54.34 53.52 55.38 54.25 57.37 60.27 57.77 56.71 57.58 60.75 61.91 61.79 63.50 63.79 63.95 64.91 65.18
54.19 54.12 53.83 53.32 52.48 52.69 53.65 55.06 59.98 59.61 51.83 55.36 58.36 58.07 57.79 59.66 56.60 54.91 55.82 54.40 49.90 48.50 49.50 48.77 53.52 57.65 55.67 53.15 52.63 51.72 49.77 53.28 55.11 59.24 59.67 58.23 54.87 56.99 61.52 62.42 64.13 65.20 65.18 65.42 66.29
54.00 53.90 53.26 52.36 50.91 51.13 49.58 55.29 58.34 58.51 46.12 50.44 53.84 57.17 58.14 58.39 54.12 59.03 57.09 54.31 51.23 48.65 50.38 51.02 55.63 55.11 53.35 52.17 52.74 46.52 53.84 53.53 53.54 55.36 49.35 57.49 46.96 53.72 57.33 57.86 62.09 63.85 64.55 64.71 65.97
53.98 53.69 52.48 51.93 48.14 49.50 53.35 57.03 57.80 55.80 38.45 54.56 54.50 59.01 57.51 54.89 55.60 55.00 57.64 54.33 50.05 50.51 50.26 50.67 52.59 52.63 51.93 52.72 53.81 50.13 54.17 52.11 51.54 48.72 48.10 51.28 45.81 52.28 56.23 54.79 58.81 61.53 64.34 65.00 65.94
53.53 53.05 52.41 50.81 49.82 52.43 55.72 55.26 53.82 44.45 41.22 51.98 54.36 53.45 53.54 54.47 55.47 56.41 54.58 55.26 55.25 51.92 52.29 52.42 55.92 53.99 53.69 55.51 55.00 55.27 51.34 51.03 48.94 45.44 40.41 46.09 46.67 49.02 53.64 56.57 59.19 61.73 63.72 64.91 65.85
52.25 51.47 50.61 51.17 46.75 52.16 52.18 51.49 43.79 40.64 52.76 50.82 50.55 52.89 52.03 51.39 53.43 53.92 51.07 49.62 47.65 44.31 46.05 51.07 51.76 53.45 54.22 50.44 52.65 51.03 47.68 41.91 40.44 40.24 40.39 46.05 45.83 49.76 58.05 60.31 59.92 60.27 61.75 62.07 65.70
50.79 50.04 50.60 52.60 51.20 51.36 50.33 45.50 39.81 48.60 48.39 53.18 52.58 52.32 49.94 52.17 52.15 52.22 49.90 47.91 50.44 48.78 46.22 45.22 44.45 50.74 53.52 49.83 48.22 48.34 47.46 43.29 38.91 39.87 44.29 50.37 46.12 50.58 60.98 62.10 62.86 62.76 62.24 63.01 62.13
50.22 52.34 51.97 55.45 54.83 53.67 47.51 40.48 42.76 47.96 51.97 51.53 52.58 50.92 49.09 52.13 51.82 50.42 49.48 48.68 49.76 50.09 45.08 45.15 46.20 53.36 54.15 54.12 52.59 49.31 46.47 50.20 44.68 47.22 42.72 47.33 50.51 55.88 59.45 59.56 61.77 62.31 61.70 61.63 62.38
48.51 49.99 52.11 55.35 57.70 52.86 45.39 41.37 46.82 51.19 52.24 52.04 47.25 50.29 49.03 49.84 49.84 48.42 48.63 51.61 50.80 52.39 52.32 48.63 44.49 51.39 53.48 53.75 53.69 50.99 52.75 46.01 43.99 38.90 38.50 44.60 48.93 48.24 51.82 54.46 56.67 60.78 60.33 61.36 62.02
49.08 49.64 56.61 57.47 58.44 50.52 41.76 43.59 48.21 51.66 52.21 49.59 48.25 48.36 50.81 51.08 50.05 48.11 48.39 51.96 52.82 51.98 52.89 51.02 46.97 49.40 52.15 48.95 48.47 49.03 47.49 48.31 46.66 44.88 39.82 40.40 45.31 53.73 55.63 55.75 55.10 55.45 59.24 60.65 62.73
48.64 44.62 56.16 55.98 49.31 49.98 45.63 46.55 48.19 50.27 52.47 51.54 51.91 50.86 51.65 53.06 51.60 49.05 48.44 51.16 54.36 53.01 49.53 51.92 47.70 47.15 48.95 52.87 54.38 51.49 48.96 49.22 44.08 42.79 45.33 44.94 47.09 57.76 57.50 57.01 57.18 57.84 59.24 59.27 61.38
44.17 47.19 55.02 56.02 46.16 47.53 49.83 48.08 48.89 49.21 50.11 50.59 50.75 52.16 54.18 51.69 49.12 52.93 51.91 55.01 54.80 52.81 50.45 52.05 48.95 44.52 47.65 50.24 52.35 50.39 50.69 49.46 49.87 46.55 43.06 43.56 46.90 57.14 56.71 55.63 57.38 57.43 59.39 60.43 60.69
46.00 45.62 51.69 52.49 53.03 49.97 48.56 49.12 48.75 52.42 51.25 52.25 51.82 54.44 53.64 50.95 52.58 51.22 53.29 55.77 55.35 54.08 60.35 57.71 48.16 47.05 43.78 48.28 50.86 48.65 51.05 50.67 46.98 42.91 43.76 46.28 50.70 53.25 55.42 57.46 58.74 58.80 58.31 61.61 61.82
48.41 47.72 50.17 45.46 47.36 47.12 49.83 51.09 48.33 48.83 53.01 53.14 51.02 53.12 52.20 49.42 51.04 51.27 54.73 56.86 55.81 59.01 57.23 53.51 46.92 48.35 49.38 51.45 51.31 52.23 51.72 50.81 47.35 47.02 45.69 47.96 51.82 52.69 55.12 56.50 57.35 58.40 58.41 58.39 60.23
48.22 45.20 46.49 43.52 47.29 49.64 49.71 49.95 51.17 50.01 53.09 53.33 51.80 53.86 53.54 51.61 53.40 51.81 54.23 54.28 55.18 53.90 53.71 53.61 48.30 49.64 47.15 51.77 51.23 49.74 52.10 52.80 52.59 51.06 49.37 49.69 51.46 57.01 58.27 58.07 57.73 58.14 57.97 58.00 58.24
49.86 51.74 45.91 43.60 44.57 45.37 48.25 48.54 51.86 51.95 55.27 56.14 54.90 54.00 53.05 55.27 56.80 55.40 55.78 56.78 54.41 54.80 52.41 51.34 50.73 46.78 43.14 48.70 49.03 45.97 49.85 50.95 51.92 53.24 52.28 48.02 52.82 57.06 56.42 57.35 57.05 57.01 57.93 57.79 59.04

GFSSW_sfc_wetblb_012.txt.gz
Wetbulb
58.18 58.18 58.23 58.27 58.71 58.91 59.16 59.29 59.34 59.49 59.34 59.41 59.35 60.05 59.90 60.06 59.84 58.25 54.64 60.47 62.94 73.34 73.27 63.72 67.02 65.08 63.30 63.27 66.02 65.12 54.52 53.00 55.41 55.18 55.60 60.98 61.82 65.82 68.22 67.21 67.92 68.64 67.90 69.75 71.76
57.63 57.62 57.63 57.91 58.16 58.45 58.66 58.91 59.14 58.84 58.75 58.97 59.08 59.81 60.46 60.36 56.93 55.50 64.29 70.99 72.55 74.46 62.10 58.18 56.11 58.53 58.09 59.14 61.76 61.24 55.92 56.51 60.15 59.96 58.41 62.34 63.09 63.46 64.24 64.91 64.85 66.20 69.47 71.68 72.14
57.06 57.09 57.51 57.48 57.75 58.03 58.28 58.53 58.36 58.26 58.26 58.68 59.16 60.29 60.45 59.09 55.19 55.34 72.20 70.62 74.63 72.52 59.79 57.75 56.22 55.60 53.37 56.80 59.03 61.35 58.32 60.37 60.74 62.11 63.25 62.12 63.14 65.17 63.35 61.60 64.69 64.68 68.12 70.36 70.78
56.42 56.46 56.75 56.92 57.30 57.57 57.72 57.80 57.70 57.71 57.75 58.27 59.46 60.67 60.32 55.88 43.86 57.12 73.45 74.43 74.85 65.16 59.56 56.29 55.23 53.40 52.29 52.05 59.46 58.45 61.16 62.17 61.80 64.86 61.80 61.42 62.68 59.59 63.71 63.95 67.10 68.87 70.01 70.24 69.56
55.93 56.17 56.17 56.39 56.62 56.90 57.13 57.19 56.94 56.96 57.32 58.08 59.89 60.33 56.06 52.32 53.05 63.10 74.96 74.42 68.66 60.28 57.12 54.73 54.11 54.44 51.97 52.54 59.39 58.88 60.56 63.10 64.16 62.74 61.70 62.13 60.05 60.72 63.20 66.49 67.57 68.72 69.17 68.78 68.94
56.25 56.41 56.55 56.55 56.66 57.03 57.10 56.90 56.76 56.49 56.91 57.87 60.13 59.80 52.38 46.73 56.56 60.19 63.56 62.81 60.02 56.27 54.90 54.66 54.71 56.72 53.38 52.46 55.26 61.81 61.42 61.80 63.55 62.07 61.94 59.67 59.85 61.50 64.49 67.03 66.46 66.53 66.48 67.34 68.70
55.78 56.28 56.16 56.32 56.01 56.01 56.54 56.23 55.61 56.14 56.66 57.77 59.88 58.37 54.77 49.95 57.06 57.60 58.79 56.81 57.09 55.45 53.02 55.41 56.07 54.48 53.71 52.05 57.47 62.02 58.42 61.46 62.24 62.65 62.43 63.55 60.33 60.47 64.31 66.35 65.19 65.61 65.87 66.27 66.57
55.59 55.97 55.95 55.97 55.93 55.86 55.56 55.17 55.48 56.47 57.58 57.99 59.68 56.36 48.66 59.40 59.49 58.44 55.76 56.37 56.86 54.49 54.68 55.20 57.11 54.87 52.35 54.12 55.54 56.03 56.51 51.92 58.19 62.74 63.22 61.68 55.98 61.89 64.85 64.49 63.62 65.23 65.92 66.22 66.03
55.46 55.42 55.40 55.40 55.25 54.80 54.29 54.61 55.95 58.87 58.33 60.19 54.86 53.55 51.35 64.54 59.11 58.87 58.04 56.76 55.03 52.72 53.49 58.22 55.72 51.89 52.06 50.70 47.58 50.35 48.02 52.81 55.39 60.25 61.40 59.35 57.17 62.16 64.11 63.83 63.08 64.27 65.13 65.89 65.79
55.07 54.83 54.70 54.68 54.53 53.73 53.55 54.04 55.31 58.67 59.71 60.50 60.19 51.11 54.08 56.76 59.60 59.57 57.94 57.74 52.17 51.45 52.17 51.16 50.02 48.33 48.58 47.20 42.69 46.86 49.47 54.09 53.59 57.22 58.80 58.92 58.20 62.06 63.43 63.04 63.07 63.89 64.68 65.19 65.51
54.79 54.31 54.23 54.17 53.67 52.81 51.23 47.82 47.23 51.75 57.23 54.51 55.09 54.82 56.83 58.55 61.15 57.37 58.07 54.95 51.12 48.31 45.16 48.52 45.70 44.33 47.90 50.36 50.82 51.30 53.41 52.89 56.15 58.10 58.89 58.57 58.80 61.37 63.17 63.33 62.99 63.46 64.19 64.91 65.63
54.34 54.00 53.92 53.61 53.01 52.50 49.89 44.05 46.99 50.78 47.83 55.62 58.23 58.88 60.05 58.70 57.72 58.13 56.04 53.43 47.81 44.59 46.83 45.84 44.42 49.96 54.12 53.98 51.94 49.98 52.42 53.35 55.50 57.92 55.84 57.87 58.34 61.39 62.88 63.31 64.18 64.13 64.84 65.45 66.02
53.96 53.88 53.63 53.12 52.28 50.53 48.84 50.91 54.64 50.55 45.33 51.21 54.77 55.14 55.86 58.09 56.87 56.36 53.83 52.83 47.32 45.25 46.26 43.93 47.68 54.21 54.39 52.61 51.48 49.33 52.55 53.91 52.96 56.71 56.99 58.20 54.32 56.55 61.36 63.58 62.69 65.19 66.24 66.63 66.45
53.88 53.82 53.14 51.67 46.46 47.14 46.32 48.98 52.30 51.84 41.66 47.35 49.86 54.15 55.79 56.75 52.99 59.05 56.84 53.42 47.63 46.05 46.84 46.17 50.98 52.29 52.67 51.82 51.82 44.67 53.09 56.46 55.91 54.31 48.76 55.66 47.17 52.95 57.82 58.78 59.60 61.99 64.02 64.99 66.87
53.84 53.51 52.36 51.45 45.51 45.64 49.01 51.24 51.51 49.76 35.26 51.60 52.00 58.15 55.19 53.01 52.54 53.41 56.99 51.90 48.24 47.41 46.56 45.93 49.14 49.41 49.87 52.46 53.05 49.40 52.48 51.15 56.03 53.63 49.46 51.78 47.64 54.18 54.72 54.80 57.18 59.39 62.97 63.99 67.37
53.41 52.97 52.01 47.92 45.61 48.27 50.77 49.38 47.53 42.06 36.81 50.17 53.54 50.42 50.76 51.85 52.85 54.18 52.78 51.92 52.58 48.45 47.41 47.79 53.08 51.75 51.69 54.08 53.20 53.93 49.78 48.04 46.27 44.10 40.94 49.52 49.23 44.80 52.44 55.36 57.02 58.85 63.34 64.04 66.45
52.34 51.18 50.28 50.11 42.05 46.39 47.00 45.74 40.28 36.30 49.08 48.65 46.82 49.89 48.17 48.52 50.71 51.37 49.10 46.96 46.26 41.80 40.89 46.76 48.80 51.76 53.93 48.43 51.21 49.24 43.16 38.47 38.82 37.48 37.94 42.34 49.51 51.76 55.87 59.13 58.83 58.61 62.88 64.15 65.91
50.95 50.10 49.48 49.81 48.76 48.31 44.04 41.27 34.99 44.84 45.09 49.93 49.78 50.26 47.14 48.76 48.71 50.55 47.02 45.63 47.69 44.71 42.58 40.99 42.35 49.25 51.45 49.44 47.25 45.72 44.31 39.06 35.84 37.09 40.39 45.17 41.99 47.45 57.39 60.80 60.57 61.47 64.19 64.67 65.02
50.39 45.92 46.61 48.00 50.45 46.88 42.99 34.85 37.61 42.94 48.98 48.89 48.05 46.24 45.95 48.91 49.14 49.08 45.76 46.53 48.34 46.31 42.98 40.24 42.95 50.68 51.51 52.15 49.69 46.34 43.41 47.33 42.36 42.01 40.55 43.10 47.79 53.48 56.74 58.48 59.60 59.72 63.01 62.67 64.49
46.16 43.28 45.26 50.67 51.77 44.93 39.12 37.67 40.63 47.54 48.90 48.40 43.08 46.52 43.17 45.28 45.87 45.99 47.01 48.51 48.71 49.08 47.01 44.04 40.67 47.32 50.79 50.64 50.48 48.58 48.90 43.06 40.48 36.91 35.21 40.90 44.15 45.95 52.66 55.82 58.08 58.71 59.74 60.43 64.18
42.07 41.32 48.70 52.47 50.14 42.37 35.05 36.70 42.86 47.18 47.90 47.13 45.55 45.44 45.60 45.30 46.06 46.44 48.00 49.61 51.03 50.23 47.58 46.13 42.83 45.35 48.05 45.98 46.45 47.02 44.71 43.48 44.00 41.00 38.13 36.76 42.81 50.96 52.37 56.92 57.65 59.65 60.69 59.47 60.75
40.71 35.61 49.46 52.79 42.64 41.05 38.03 41.50 45.96 45.07 47.20 46.71 48.20 47.40 46.21 47.65 46.01 46.99 46.72 48.93 52.68 51.83 46.96 46.14 42.09 42.39 45.00 49.67 51.02 48.69 47.09 45.16 41.45 39.66 40.85 41.17 43.46 53.67 54.99 56.84 58.93 59.40 60.78 59.68 60.51
38.30 39.68 48.35 47.43 37.23 39.16 43.35 46.71 48.42 46.85 45.94 45.57 45.92 48.53 49.08 47.21 44.52 48.85 50.64 53.18 52.58 51.62 49.19 48.10 41.06 40.59 41.86 44.60 47.08 47.30 47.54 45.99 43.94 41.96 40.84 40.18 42.90 53.97 53.67 53.98 55.45 55.96 56.75 58.59 60.54
40.17 37.42 43.68 45.01 43.09 41.70 41.28 44.22 45.99 51.42 48.29 48.55 47.27 48.77 47.68 46.25 48.91 47.76 49.33 53.73 53.63 52.74 58.75 54.31 41.58 42.02 41.50 42.56 46.14 44.80 47.87 47.73 45.85 40.66 41.07 43.01 46.50 50.82 52.94 54.13 54.72 56.18 57.28 58.23 60.59
41.39 40.90 40.91 37.24 39.55 39.41 40.00 45.07 47.22 46.49 50.46 51.32 48.16 50.05 49.80 45.29 48.44 51.47 52.57 53.61 55.46 56.32 55.51 48.30 41.81 44.11 45.53 49.14 49.87 49.28 49.40 47.76 44.68 44.90 44.65 44.93 48.76 50.73 53.55 55.07 55.91 56.37 57.50 59.05 58.93
42.12 40.59 42.05 38.25 38.72 40.47 41.04 42.72 45.26 47.03 48.98 48.59 49.28 52.68 51.06 47.39 51.06 48.49 49.93 47.80 48.42 51.93 48.56 46.02 43.03 45.13 45.81 49.45 49.72 48.04 49.46 50.31 49.92 49.13 49.05 48.91 49.00 53.46 56.25 54.90 54.91 56.65 56.44 56.23 57.25
43.12 44.79 41.30 38.08 38.08 39.53 40.97 43.14 44.05 46.37 51.71 53.26 52.02 51.69 50.55 50.96 52.72 52.94 52.37 51.40 51.82 48.38 48.58 45.38 45.35 42.39 42.11 46.85 47.74 45.68 47.86 48.83 51.05 52.61 51.24 47.62 50.65 54.36 53.61 54.89 54.36 54.64 55.39 56.15 57.03

GFSSW_sfc_wetblb_015.txt.gz
Wetbulb
57.43 57.45 57.48 57.71 58.17 58.47 58.73 58.88 59.03 59.05 59.13 59.23 59.38 59.60 59.41 60.43 59.64 57.74 53.64 59.89 60.88 72.50 73.40 63.42 63.99 63.93 62.46 62.80 65.42 64.62 52.37 50.85 53.43 53.58 56.10 62.45 62.22 67.01 68.31 65.83 66.30 67.66 66.95 68.83 71.79
57.13 57.09 57.07 57.27 57.57 57.77 58.06 58.38 58.51 58.42 58.59 58.69 58.99 59.67 60.33 60.57 56.10 54.20 63.30 70.04 71.31 74.47 60.59 58.00 54.49 57.57 55.94 59.03 62.54 59.43 53.06 54.75 58.37 58.47 58.36 61.04 63.74 63.77 63.72 64.39 64.72 65.97 68.44 70.03 71.16
56.73 56.62 56.62 56.71 57.08 57.34 57.58 57.86 57.96 57.94 58.01 58.23 58.69 59.43 60.82 59.23 52.77 53.63 69.90 69.97 72.54 72.47 59.57 57.08 55.16 54.46 51.86 54.88 59.71 59.48 56.02 59.53 59.80 61.08 61.89 61.86 62.43 64.35 63.49 61.10 64.55 64.93 66.58 68.81 69.55
56.22 56.12 56.21 56.46 56.67 56.84 57.04 57.02 57.03 57.16 57.30 57.85 58.62 60.27 60.60 54.91 43.03 52.59 73.25 74.53 72.54 68.15 58.19 55.28 53.01 51.16 50.86 51.65 55.59 57.86 60.06 60.36 60.55 63.59 61.47 61.01 62.70 62.32 63.70 62.91 67.36 68.38 69.18 69.19 68.93
55.77 55.78 55.71 56.06 56.22 56.31 56.39 56.59 56.47 56.68 56.89 57.61 58.30 60.26 54.78 49.26 50.83 60.35 73.28 73.68 69.64 60.74 56.70 53.47 53.25 53.16 51.53 51.63 54.51 56.29 59.06 60.93 62.69 61.89 61.76 61.51 60.07 62.14 62.57 66.16 68.35 69.60 69.67 69.04 68.88
55.83 56.21 56.23 56.05 55.87 55.88 56.36 56.37 56.22 56.02 56.33 57.33 58.25 59.95 51.04 44.89 54.20 57.63 63.45 67.01 63.46 57.59 55.26 54.10 52.62 55.14 53.08 52.04 54.03 59.60 59.73 60.96 61.28 60.27 60.51 59.67 61.11 62.36 63.96 68.21 68.17 68.69 68.36 69.11 69.07
55.63 55.80 55.88 55.94 55.63 55.42 55.67 55.75 55.31 55.65 56.45 57.80 58.47 58.22 53.34 50.66 55.33 55.53 56.76 57.37 56.74 56.73 52.41 54.78 54.28 52.30 52.50 51.08 56.03 61.02 57.45 60.73 60.63 59.49 58.15 62.06 58.39 60.05 64.38 67.51 66.85 67.62 68.07 68.71 68.78
55.58 55.56 55.60 55.41 55.47 55.38 55.10 54.75 55.22 56.16 58.72 58.20 59.89 55.44 47.99 57.28 58.90 59.55 55.20 53.44 55.38 53.87 53.50 53.94 55.46 52.73 51.62 52.89 57.89 56.79 55.67 53.77 58.25 60.80 61.09 60.16 54.26 61.60 64.50 64.38 64.24 65.65 67.22 67.59 67.94
55.08 55.08 55.22 55.10 55.01 54.42 54.07 54.13 55.52 59.75 58.74 59.69 53.93 52.00 49.93 61.44 59.18 60.53 56.78 54.92 54.49 52.61 53.13 57.40 54.08 50.67 50.59 48.33 48.28 50.80 52.07 51.32 56.15 60.70 60.56 58.35 55.38 61.46 64.23 63.42 62.54 63.54 65.16 65.23 65.83
54.69 54.67 54.60 54.46 54.21 53.68 53.36 54.09 54.37 56.72 59.50 59.76 59.34 50.73 52.62 52.34 57.93 58.37 56.75 56.77 53.67 51.50 51.51 49.58 48.51 45.99 46.47 45.15 41.62 50.46 49.84 52.95 54.19 59.58 59.15 57.45 56.55 60.67 62.98 62.62 62.29 63.19 63.88 64.36 64.34
54.65 54.36 54.27 54.13 53.52 52.87 51.03 45.76 45.24 48.02 54.27 51.96 51.36 53.19 55.14 57.74 58.73 58.60 56.71 53.75 49.64 47.13 44.71 46.68 44.38 42.66 45.47 48.87 49.50 50.71 51.49 53.61 56.78 58.64 57.97 57.00 56.73 59.23 61.92 61.94 61.54 62.31 62.93 63.65 64.25
54.44 54.09 53.89 53.64 52.89 52.36 47.96 43.82 45.64 47.40 42.88 51.21 53.82 55.29 57.23 56.88 54.74 56.74 56.52 51.26 47.71 43.58 44.87 43.54 42.43 47.31 49.40 51.16 50.33 49.39 51.36 52.36 55.01 58.41 57.64 56.25 56.61 59.45 60.77 61.20 62.07 62.28 62.78 63.45 64.13
54.21 53.93 53.70 53.03 52.01 48.50 44.15 46.05 50.37 47.69 41.72 47.83 51.50 51.93 53.11 56.80 53.91 54.67 55.25 51.01 46.69 43.60 43.85 41.34 44.85 50.47 51.31 50.88 50.46 47.14 47.48 51.08 51.74 56.24 57.49 56.81 53.82 57.03 60.69 61.83 62.49 63.29 64.04 64.40 64.23
54.05 53.70 53.23 51.14 44.29 45.37 45.16 46.54 47.93 48.32 39.76 45.20 47.92 51.81 53.53 55.60 52.08 58.81 56.44 51.86 47.43 45.76 44.57 44.15 48.31 49.66 50.19 50.09 50.71 43.87 51.10 53.49 53.90 53.00 47.98 56.81 46.85 52.69 57.59 59.45 61.32 62.66 63.39 64.26 64.94
53.72 53.50 52.48 50.96 44.97 43.89 46.72 46.98 46.73 46.77 33.32 48.59 49.67 55.79 51.90 51.32 51.97 53.44 56.42 51.42 47.72 45.71 44.75 43.54 46.68 46.91 48.10 50.45 52.29 49.59 51.49 50.45 53.53 51.80 49.31 50.48 46.96 50.31 56.05 54.61 59.20 61.50 63.03 64.86 65.65
53.29 52.91 52.09 47.21 45.36 46.53 48.30 46.79 45.10 40.74 35.21 47.30 52.21 49.32 48.83 49.11 51.58 52.40 52.38 51.97 52.19 46.14 45.07 45.85 49.41 48.88 48.46 50.79 53.00 53.19 49.07 46.09 44.93 46.08 42.75 50.25 48.55 45.92 51.85 56.52 58.80 61.22 61.66 64.80 65.67
51.80 51.16 50.50 49.42 41.69 44.45 44.37 43.86 38.54 34.55 46.70 45.95 45.05 47.77 46.04 45.38 49.05 50.24 47.50 46.19 45.61 41.97 38.34 44.02 46.10 47.48 51.57 47.09 49.48 47.85 42.81 37.01 37.48 39.75 40.46 46.09 47.91 49.96 54.87 59.63 60.83 60.34 60.18 63.81 65.46
50.37 49.94 49.14 49.10 48.48 47.05 42.45 38.89 32.66 42.31 43.56 46.97 47.26 47.94 45.60 47.21 46.58 48.84 45.50 44.96 45.62 43.32 40.11 38.46 39.36 45.46 48.57 47.97 45.85 44.61 43.43 37.69 33.54 34.11 39.68 42.66 44.10 51.36 57.16 59.13 62.09 62.21 61.36 63.18 63.89
50.00 43.79 43.96 46.18 48.64 44.57 40.01 32.01 35.58 40.96 47.22 46.68 45.66 43.68 43.04 46.83 46.76 46.66 43.49 45.55 47.90 44.64 41.06 38.38 39.82 47.92 49.26 49.97 49.25 44.38 41.05 44.89 38.98 37.74 37.58 40.18 44.65 50.25 54.99 54.85 59.65 60.78 59.45 61.54 63.09
45.87 41.24 42.74 48.95 49.06 41.58 36.65 34.05 38.19 45.60 47.00 45.76 40.77 44.01 40.77 43.18 44.04 43.63 43.26 46.95 46.35 47.11 46.11 42.86 38.08 44.68 48.97 49.13 48.54 47.77 46.93 40.38 38.27 34.81 34.00 38.76 40.99 43.44 48.87 52.88 56.16 58.49 58.05 61.36 63.34
40.00 37.39 43.90 48.92 44.88 39.23 32.13 34.00 39.85 44.65 45.10 44.16 43.36 42.54 42.39 42.39 43.31 41.78 43.66 47.60 49.45 48.37 47.95 42.52 40.91 42.02 45.69 44.29 45.58 44.57 41.62 40.40 41.06 38.63 36.44 35.59 40.37 48.01 50.91 53.51 55.37 57.62 59.55 61.29 62.92
39.79 32.13 45.42 47.45 38.95 35.75 34.37 38.44 44.34 43.48 44.71 43.97 44.69 43.70 42.65 44.38 42.44 41.87 43.24 46.26 51.20 50.04 43.76 44.35 41.23 40.72 42.70 46.26 47.48 45.45 44.66 43.51 41.52 37.24 37.16 38.49 40.67 51.09 53.27 55.09 57.52 57.71 59.66 61.92 63.48
39.50 36.72 46.15 44.36 34.08 36.70 40.86 44.47 45.85 43.74 44.21 44.02 43.03 44.94 46.15 44.07 40.90 44.11 45.96 50.81 52.85 50.79 47.17 44.05 38.06 36.67 38.86 40.85 44.03 43.90 44.81 41.94 40.70 39.63 39.16 39.43 41.89 52.15 51.83 53.47 57.02 57.28 57.86 58.56 60.37
40.13 35.60 41.18 42.14 39.38 37.61 37.69 41.40 44.26 49.87 46.97 46.73 44.41 45.53 45.70 43.13 44.61 43.17 46.71 51.06 54.55 50.86 57.81 52.05 37.78 42.41 40.28 40.63 43.62 43.22 45.70 45.47 44.09 39.36 39.17 41.27 44.37 49.40 50.81 52.18 53.65 55.93 57.03 58.64 59.58
40.99 39.53 39.26 35.68 38.26 37.83 36.82 41.29 44.12 43.39 47.36 48.80 44.64 47.47 47.22 42.17 44.14 44.97 49.30 51.69 54.41 56.24 54.01 47.19 40.29 40.11 44.93 46.14 45.81 46.11 46.89 46.00 44.35 45.09 44.24 45.62 45.96 49.96 51.19 52.34 54.33 56.83 56.65 57.36 58.76
40.68 39.15 41.69 38.96 37.36 37.42 38.49 39.48 41.31 43.06 43.37 46.47 44.89 48.39 49.28 44.79 48.26 47.33 49.12 47.62 48.74 50.74 45.36 44.26 40.41 42.55 41.54 45.32 46.36 45.55 47.20 48.03 47.90 45.57 45.37 44.78 46.97 50.83 54.21 52.54 53.50 55.79 56.76 57.00 57.25
41.78 42.06 41.56 40.60 36.70 36.55 38.45 39.90 42.14 43.41 45.41 46.97 50.79 48.10 47.87 49.12 51.93 52.18 52.33 52.07 50.21 48.27 46.46 42.35 44.23 38.63 41.29 43.34 44.44 41.61 45.97 46.56 47.74 49.52 49.17 45.72 48.58 51.83 51.50 53.10 54.30 53.87 55.80 57.54 57.73

GFSSW_sfc_wetblb_018.txt.gz
Wetbulb
57.21 57.23 57.28 57.27 57.69 57.80 58.10 58.24 58.57 58.74 58.79 58.80 58.94 59.48 59.46 60.17 59.42 56.59 51.79 59.35 60.43 71.03 74.24 66.20 64.63 63.74 62.61 60.74 63.70 61.21 51.23 49.40 52.79 54.29 55.88 62.95 62.52 65.40 67.34 64.74 65.86 67.20 65.90 68.39 70.86
56.97 56.86 56.86 57.02 57.21 57.37 57.56 57.79 57.86 57.99 58.12 58.28 58.55 59.08 59.60 60.69 55.24 52.89 61.88 69.84 71.11 74.13 59.58 56.80 53.59 56.89 55.13 58.34 60.96 57.17 51.35 52.91 57.02 57.51 58.14 61.35 63.35 63.60 63.06 62.97 63.94 65.23 68.98 70.49 70.91
56.49 56.33 56.26 56.36 56.94 57.09 57.15 57.37 57.34 57.34 57.49 57.74 58.01 58.89 60.40 59.21 50.44 49.81 68.48 69.99 71.88 70.81 58.83 58.16 53.90 53.67 51.36 54.27 58.90 58.12 54.50 58.40 58.55 59.16 62.44 60.43 62.81 63.79 62.01 60.66 63.58 63.69 66.83 69.26 69.40
55.95 56.06 56.01 56.18 56.36 56.63 56.76 56.90 56.72 56.73 56.88 57.25 57.77 58.49 60.49 54.08 44.42 52.14 73.63 73.19 72.90 65.55 56.52 54.42 51.95 50.51 50.39 50.31 56.12 56.35 59.88 59.56 59.56 61.75 60.63 61.18 62.41 62.22 63.39 62.23 66.48 66.87 68.42 69.06 68.54
55.34 55.31 55.49 55.66 55.87 56.09 56.09 56.08 56.25 56.13 56.53 57.06 57.62 58.36 53.83 47.25 50.15 55.49 71.93 72.88 69.26 61.59 55.46 52.55 50.65 51.54 50.43 50.90 53.27 54.19 57.09 59.35 61.97 60.40 60.97 62.35 60.37 62.07 62.91 65.54 67.60 67.79 68.37 68.02 68.38
54.87 55.07 55.12 55.22 55.52 55.53 56.04 56.12 56.07 55.62 56.22 57.14 57.77 58.40 49.66 44.83 54.59 55.68 66.49 65.04 62.32 56.48 54.46 52.70 52.90 54.27 52.14 51.03 53.18 57.40 58.53 59.99 60.28 59.81 59.81 59.53 60.46 62.15 63.09 67.17 67.03 67.07 66.91 67.83 68.30
54.80 54.71 54.87 55.12 55.02 55.19 55.44 55.60 55.08 55.39 56.60 58.21 57.99 57.86 51.41 49.89 55.19 56.02 57.13 59.76 59.91 54.84 53.03 53.79 53.59 52.80 51.39 49.80 52.81 59.89 56.98 59.10 58.78 58.03 58.53 61.96 57.61 58.87 64.58 66.83 66.26 66.82 67.45 68.24 68.73
55.31 55.11 55.06 54.86 54.80 55.10 55.17 54.74 54.52 55.96 59.41 58.62 59.21 54.65 46.01 56.61 57.04 58.83 55.89 52.70 56.15 53.40 53.69 53.50 53.75 50.77 50.02 51.72 57.68 56.14 55.31 51.82 57.24 57.88 59.88 59.13 52.89 60.54 65.89 65.55 65.33 66.58 67.20 67.93 68.39
54.73 54.95 55.09 55.17 54.86 54.53 53.94 54.09 55.29 58.63 58.90 59.91 53.25 49.95 48.46 60.84 55.66 58.32 55.84 53.26 53.25 51.13 52.62 56.27 52.58 48.29 49.84 50.36 50.22 50.71 48.89 50.81 55.29 58.93 58.62 57.49 53.80 60.76 65.52 65.08 64.81 65.95 66.72 67.61 67.71
54.64 54.64 54.66 54.64 54.37 53.52 53.23 53.92 54.28 55.53 59.03 59.05 58.74 50.37 52.60 51.29 55.12 57.79 56.09 55.08 52.07 51.72 51.46 48.96 46.96 45.00 44.91 46.58 45.17 47.95 50.29 50.20 53.27 57.56 58.53 56.38 55.25 60.32 62.74 63.84 63.78 64.97 66.05 66.43 66.59
54.60 54.33 54.23 54.11 53.47 52.62 50.61 43.96 45.23 45.88 50.53 49.50 50.12 52.10 52.79 54.65 56.91 56.72 55.70 52.39 48.61 46.89 44.43 45.32 43.31 41.48 45.49 47.15 51.52 52.37 53.05 53.10 54.94 58.39 56.16 55.50 55.77 59.06 61.21 61.70 61.53 62.00 63.13 64.79 64.93
54.31 54.04 53.96 53.45 52.51 52.11 46.80 42.40 44.99 44.72 40.53 47.61 49.44 50.90 53.89 54.50 52.06 54.58 55.58 50.88 46.84 42.78 43.62 42.78 41.47 46.09 48.90 49.52 50.38 52.90 51.43 52.78 54.15 57.48 56.52 55.37 55.47 58.34 60.75 61.00 61.47 61.60 61.85 62.93 63.88
53.74 53.66 53.39 52.02 51.75 46.71 42.30 41.82 47.22 46.11 39.08 45.02 47.83 48.90 49.95 53.31 50.34 52.10 54.57 49.58 46.54 43.63 42.27 40.51 44.14 48.44 49.18 48.02 48.11 48.02 51.83 50.10 53.80 56.00 56.78 55.83 53.22 54.83 59.35 61.29 61.91 62.48 63.12 63.69 63.51
53.45 53.41 52.52 50.99 43.50 44.31 43.55 45.37 45.39 45.64 38.09 43.77 45.96 50.37 51.96 53.13 49.53 56.68 56.33 51.88 45.74 44.65 43.11 42.50 47.03 47.92 47.72 48.30 49.01 43.90 50.07 53.55 53.27 53.03 48.18 55.01 44.48 51.99 56.40 57.98 59.75 61.18 61.96 62.80 63.65
52.91 52.75 51.55 50.66 44.10 42.59 44.59 44.47 44.91 43.73 32.07 46.95 47.31 54.01 50.63 49.28 49.46 52.30 55.49 50.83 46.25 45.40 43.62 42.56 44.22 45.89 46.68 48.58 50.77 48.23 50.97 51.14 53.39 51.40 49.51 50.37 46.39 49.37 55.77 54.99 57.69 60.21 61.61 62.93 64.02
52.25 51.91 51.54 46.02 45.40 45.67 47.29 44.51 43.40 39.16 33.28 45.25 50.39 47.31 47.42 47.88 49.01 51.54 51.93 52.06 50.99 46.31 43.76 46.01 47.52 47.49 47.21 50.96 52.52 51.24 47.10 45.46 44.92 46.36 41.79 48.61 49.32 46.57 50.88 56.40 58.73 60.99 62.52 63.27 64.04
51.00 50.52 49.93 49.37 40.99 43.58 42.75 41.74 35.89 32.72 44.74 43.63 43.86 45.06 44.43 44.81 47.00 47.87 46.95 45.73 44.34 39.93 37.92 42.49 44.21 46.63 49.37 46.46 48.17 45.99 42.47 37.00 37.34 38.73 39.48 46.28 47.21 51.19 53.14 57.87 60.34 60.42 61.93 63.81 64.79
49.59 49.46 47.69 48.62 46.12 46.48 40.48 36.66 29.91 39.99 41.65 44.69 45.06 45.24 42.63 44.58 44.95 46.28 45.12 43.84 44.36 43.41 38.42 36.94 37.64 44.21 47.03 46.47 44.60 44.01 43.20 37.45 33.58 34.29 40.27 44.08 45.12 51.04 58.02 58.65 60.37 61.76 62.16 63.51 63.72
49.45 43.20 41.81 44.62 48.36 43.37 36.49 29.60 32.93 38.82 45.33 44.66 43.59 41.69 40.70 44.78 44.66 45.08 42.32 43.56 45.47 43.94 41.01 36.96 37.73 45.56 47.30 48.72 48.18 42.65 40.70 43.75 37.65 34.52 36.24 39.35 44.17 50.44 52.55 53.86 56.29 58.46 60.03 60.78 62.46
45.19 41.05 40.10 47.98 47.53 39.62 32.78 31.76 35.08 43.19 44.88 43.94 39.54 42.12 38.46 41.02 42.05 41.43 41.11 45.27 45.32 46.10 44.66 41.76 36.44 43.16 45.70 47.95 46.95 45.60 45.52 40.71 36.69 33.07 32.23 37.41 39.86 42.97 48.10 51.55 53.79 55.06 59.02 60.57 61.95
39.23 34.83 40.87 47.22 42.48 36.84 29.58 31.22 37.01 42.76 44.02 42.60 41.82 40.76 40.45 40.04 40.84 40.11 41.82 45.87 47.91 46.49 45.07 41.21 39.03 39.92 43.50 42.71 43.30 42.38 40.30 38.97 39.50 37.02 34.78 33.66 38.21 46.05 48.81 50.63 52.89 55.11 58.77 59.95 61.01
39.96 30.34 42.88 44.87 36.65 32.64 31.88 35.96 42.15 41.64 42.97 42.11 42.23 41.38 40.47 42.44 40.46 40.91 41.70 45.05 49.31 46.84 42.62 42.91 40.96 39.05 40.75 44.00 45.97 45.63 42.87 42.43 40.37 35.40 36.00 36.79 39.58 50.02 50.73 52.09 54.51 55.76 58.56 58.93 60.75
38.39 37.17 43.46 42.66 32.25 34.02 38.17 42.08 43.73 41.97 41.12 41.57 40.95 42.90 42.26 40.34 37.75 41.30 43.47 48.26 49.12 47.25 44.49 42.82 36.89 37.31 36.99 39.92 42.10 41.78 42.75 40.18 38.91 38.07 36.54 38.00 40.09 49.76 51.12 52.33 54.30 55.89 56.75 58.02 59.81
40.03 33.52 39.06 39.20 36.74 34.55 34.60 38.04 41.47 48.64 44.87 44.84 43.05 43.14 41.47 39.52 40.61 40.12 42.70 49.61 50.73 50.57 58.45 53.31 37.86 39.63 39.04 40.05 42.17 41.33 43.99 42.77 41.65 36.94 37.73 39.68 43.48 46.69 51.77 52.10 53.58 55.90 56.93 57.73 60.10
42.01 37.24 38.84 35.05 36.63 37.15 34.05 37.71 40.77 42.14 44.92 45.31 42.77 42.80 41.62 38.28 39.97 40.52 43.57 45.94 50.62 55.87 51.04 43.77 39.23 39.26 44.43 43.51 44.00 44.14 44.58 43.81 42.01 41.87 41.36 43.87 44.20 48.33 50.56 52.35 53.38 56.65 57.81 57.53 58.01
39.70 38.39 40.51 38.69 38.53 35.77 36.21 36.51 40.32 41.78 41.82 41.90 42.61 46.28 45.07 41.58 44.15 42.16 44.42 44.89 46.51 48.42 46.46 42.99 39.57 39.66 42.89 44.60 44.43 43.88 44.62 45.23 45.40 44.86 43.66 44.35 44.18 49.38 51.58 53.18 53.70 55.81 56.85 57.66 57.89
40.13 42.41 40.77 37.96 36.39 32.80 34.83 38.46 40.25 41.93 43.71 44.75 45.05 43.53 45.70 47.66 48.90 49.23 48.27 50.60 48.64 45.96 45.35 41.15 39.74 36.44 39.87 41.18 41.09 38.43 44.28 44.80 45.47 46.50 46.78 43.53 49.05 50.63 51.45 52.63 53.31 53.97 56.44 58.02 59.04

GFSSW_sfc_wetblb_021.txt.gz
Wetbulb
57.18 57.19 57.06 57.08 57.43 57.68 57.94 58.09 58.41 58.55 58.52 58.67 58.92 59.20 59.80 60.04 59.47 58.83 56.29 61.22 63.23 71.25 73.96 70.94 68.41 71.06 69.74 68.10 66.66 64.47 59.16 57.13 58.35 59.11 60.00 65.81 64.39 67.38 69.17 66.49 66.73 68.37 67.54 69.19 71.51
56.73 56.70 56.67 56.80 57.14 57.25 57.47 57.68 57.77 57.97 58.05 58.15 58.37 58.74 59.55 60.38 57.30 56.43 64.66 68.72 71.34 73.55 65.74 63.50 61.18 65.47 64.76 62.18 65.39 63.37 58.49 58.46 62.35 63.51 62.47 65.27 65.58 65.94 65.43 64.79 65.07 67.12 69.71 70.98 70.99
56.35 56.32 56.31 56.39 56.78 57.01 57.12 57.23 57.24 57.28 57.25 57.58 57.94 58.40 59.31 60.36 55.48 54.55 71.73 70.94 71.53 72.99 60.84 59.85 58.14 59.68 57.54 61.97 63.54 63.09 59.11 60.94 61.49 64.45 65.77 65.30 65.40 66.94 64.19 62.49 65.47 65.94 67.87 69.58 70.07
55.77 55.78 55.81 56.09 56.43 56.48 56.69 56.66 56.76 56.72 56.89 57.03 57.76 58.27 59.27 58.28 49.16 54.89 73.46 71.58 72.10 68.33 59.86 58.53 56.23 55.39 56.32 57.40 61.35 59.57 62.70 62.36 62.90 64.95 65.31 64.70 66.64 64.26 64.44 64.67 68.18 69.27 69.71 69.88 69.50
55.53 55.50 55.47 55.57 55.97 56.10 56.12 56.33 56.40 56.23 56.57 56.95 57.63 58.36 57.13 52.88 53.97 58.86 71.35 73.01 70.24 63.33 58.04 56.74 54.70 55.60 55.26 57.54 57.12 57.79 60.40 62.49 63.54 64.38 65.42 66.28 64.34 63.53 64.08 67.65 69.58 69.89 69.79 69.48 69.87
55.19 55.12 55.07 55.32 55.48 56.02 56.47 56.35 56.02 55.79 56.33 57.08 58.10 58.22 55.15 49.17 57.61 60.50 66.82 67.05 65.58 60.65 57.73 57.15 55.70 58.07 57.08 56.16 57.30 59.83 61.63 62.98 63.51 63.89 65.18 63.70 64.08 64.72 65.36 68.45 68.26 68.76 68.82 69.50 70.00
54.57 54.80 55.06 55.22 55.21 55.33 56.04 55.80 55.24 55.31 56.47 58.25 59.13 57.50 53.50 52.75 57.89 58.39 61.12 63.40 63.57 59.95 56.92 57.42 57.69 57.84 57.60 55.25 59.71 62.50 60.38 62.26 62.46 63.68 62.90 64.87 61.22 62.32 66.71 67.84 66.94 67.64 68.72 69.40 70.27
54.48 54.72 54.96 54.90 55.02 55.18 55.27 54.78 54.58 55.91 58.06 59.68 59.49 58.10 52.64 58.01 59.92 59.88 60.61 58.33 61.67 59.17 59.33 58.70 57.70 55.83 55.91 59.47 62.32 60.20 60.46 56.89 61.36 62.70 63.18 63.20 57.82 63.80 67.44 66.93 65.87 66.72 67.81 68.72 69.92
54.28 54.37 54.71 55.11 55.11 54.70 53.91 53.84 55.60 58.42 59.09 60.38 57.55 54.83 53.38 63.39 59.17 61.18 61.15 56.55 59.71 58.95 58.35 57.40 57.64 54.03 54.84 58.35 57.89 58.08 54.97 56.52 58.41 62.81 62.13 62.21 59.10 63.80 67.23 66.89 66.29 66.78 67.53 68.52 69.72
54.46 54.42 54.25 54.52 54.13 53.19 52.90 53.82 54.73 57.39 59.80 60.12 59.53 54.46 58.09 56.18 58.00 59.95 60.45 57.78 56.03 55.86 55.22 53.99 53.65 51.41 52.87 55.36 50.37 54.38 55.26 56.89 57.52 60.49 61.52 60.42 60.49 63.18 66.23 66.48 66.49 67.20 67.42 68.52 69.35
54.17 53.92 53.74 53.66 52.90 52.16 51.88 50.54 52.17 51.82 53.79 54.64 55.23 55.76 55.54 57.66 58.91 58.68 58.72 55.36 55.38 54.44 50.53 51.94 49.25 47.20 51.45 56.50 57.53 58.14 57.31 56.80 59.28 61.77 60.27 59.81 60.41 62.08 65.43 66.10 66.04 67.06 67.65 68.13 69.23
53.80 53.49 53.20 52.87 52.18 51.88 49.24 47.37 47.73 47.53 43.61 48.65 49.13 51.74 54.71 57.10 53.01 56.63 58.91 54.96 52.46 49.85 49.69 49.38 46.95 50.65 52.71 54.79 56.49 58.01 57.06 56.92 59.21 61.55 60.56 59.62 59.08 62.64 64.02 65.18 66.35 66.58 67.32 68.15 69.37
53.51 53.02 52.69 51.65 51.48 49.51 45.97 48.04 49.80 49.94 43.76 47.34 49.16 49.44 51.15 53.01 51.15 52.67 57.37 54.91 52.58 49.45 48.44 47.79 49.10 51.19 51.03 51.51 51.64 56.60 56.69 57.22 57.09 59.62 61.02 59.54 57.65 60.24 63.09 64.72 65.84 66.89 67.60 68.17 68.79
53.33 52.73 52.17 50.19 47.78 46.86 47.89 50.28 50.23 49.53 44.39 48.13 49.60 52.65 53.88 54.11 50.51 55.38 57.96 56.27 51.29 50.90 48.13 48.12 50.50 49.33 49.91 50.60 52.82 51.38 58.09 58.94 58.21 57.13 53.33 59.89 51.62 58.30 61.61 62.15 63.67 64.93 65.89 66.54 67.51
52.71 52.34 51.23 50.16 47.41 45.93 48.28 49.82 50.14 49.64 37.62 49.27 50.69 56.67 55.30 52.87 52.81 53.06 58.37 55.85 52.26 50.41 49.77 49.14 47.67 48.52 48.18 50.45 53.40 52.83 56.79 57.42 58.50 57.17 56.18 55.75 53.87 57.09 60.53 59.87 62.23 64.26 65.68 66.43 67.41
52.21 51.57 51.06 48.61 48.00 49.11 50.28 49.39 49.56 44.97 37.11 47.27 52.75 51.53 50.95 52.36 52.15 54.45 54.57 56.94 55.75 52.09 49.48 51.40 50.91 51.16 50.97 52.94 54.24 54.81 54.33 54.24 56.42 55.89 49.60 54.50 54.46 54.04 57.77 60.31 62.57 64.42 65.60 66.52 67.34
50.98 50.00 49.75 49.65 45.83 48.95 49.27 47.35 42.19 38.57 47.74 46.30 48.36 49.44 49.31 49.77 50.52 51.86 51.31 51.08 50.03 47.35 47.08 49.73 49.69 51.44 52.12 50.81 54.46 54.02 52.64 47.26 46.40 47.36 46.67 54.33 53.87 55.92 59.90 62.28 63.59 64.33 65.07 66.47 67.49
49.24 49.00 49.46 49.91 50.69 50.38 47.25 42.78 36.26 42.37 44.96 48.55 48.30 48.72 46.70 49.12 49.80 50.06 50.27 48.59 52.86 51.95 48.71 45.76 43.85 49.11 51.85 51.20 50.79 51.68 51.83 47.72 42.78 43.92 46.87 51.09 50.09 54.91 61.83 63.26 63.89 65.46 66.39 66.92 67.08
49.01 48.08 46.07 48.93 49.97 48.79 42.30 35.83 38.88 42.47 47.70 46.40 47.94 45.79 46.40 48.01 48.35 49.16 49.30 48.83 51.18 53.03 47.48 46.12 46.04 49.20 50.95 52.45 54.27 51.36 48.68 54.13 49.02 46.61 47.64 50.57 53.64 56.45 59.85 60.38 61.97 63.31 64.48 65.74 67.03
46.04 43.63 43.76 50.79 50.98 45.40 39.38 37.28 39.66 45.96 48.66 48.32 44.81 46.76 44.48 46.04 46.09 47.51 47.93 50.70 50.69 52.61 54.79 49.06 44.99 49.09 49.67 52.35 52.33 52.06 53.52 47.16 48.28 44.42 42.21 46.34 48.35 50.20 56.13 58.29 61.28 62.09 62.83 65.07 67.02
44.50 39.91 46.75 50.75 47.21 42.57 36.59 37.00 40.05 44.34 47.70 46.02 45.99 45.71 46.43 45.59 46.24 45.56 46.09 49.30 50.71 50.95 54.02 51.92 48.43 46.77 49.33 48.18 48.38 48.87 48.50 49.33 51.05 49.41 46.13 44.21 47.48 56.64 58.17 60.38 60.52 61.45 62.96 63.89 65.93
42.35 35.80 47.98 49.30 41.76 40.14 38.15 40.07 42.11 43.58 44.98 45.66 46.05 46.97 46.55 46.36 45.52 45.24 45.49 48.48 51.35 50.66 48.49 51.56 50.11 46.08 46.98 50.72 51.31 50.98 50.07 50.82 47.65 46.51 47.49 48.24 48.56 56.52 58.22 60.14 61.11 61.18 62.39 63.86 65.74
38.72 39.43 47.75 47.05 38.25 39.72 42.81 43.44 46.03 43.66 44.63 44.02 43.36 46.05 46.98 45.19 43.43 45.52 46.51 50.17 51.40 50.44 50.56 49.60 47.78 44.19 46.05 49.05 49.97 48.21 49.80 50.96 50.95 50.87 49.79 45.69 48.12 58.44 57.53 58.72 60.19 60.12 63.31 64.74 65.50
40.00 35.65 44.25 44.61 43.10 40.62 39.69 41.23 42.35 48.60 47.86 45.75 45.53 46.90 45.49 44.10 46.63 44.98 46.06 49.56 51.44 50.76 58.43 54.84 49.36 47.77 44.14 47.17 49.74 47.63 48.00 49.26 49.02 47.16 47.58 48.10 50.61 54.66 56.91 58.93 61.59 62.15 63.25 64.54 65.32
40.93 38.71 41.90 39.20 41.42 41.55 40.66 40.37 39.89 41.12 47.79 47.92 47.43 45.67 45.53 43.49 45.03 44.96 47.97 48.67 50.88 55.15 55.17 54.68 49.56 49.92 50.97 51.16 50.05 48.89 47.82 48.34 48.10 49.86 47.90 49.74 50.59 54.90 58.12 59.48 62.36 64.94 64.84 64.10 64.31
38.67 38.92 40.40 39.12 40.78 40.23 39.89 39.69 40.86 42.70 43.76 45.07 45.81 48.67 49.16 46.32 48.20 46.10 48.55 49.41 49.05 52.98 52.19 52.01 49.32 49.74 49.02 51.48 49.97 47.97 49.33 49.21 49.17 49.38 49.99 50.86 52.32 57.92 60.18 60.66 59.96 62.06 63.13 63.87 64.80
43.45 43.51 39.67 37.13 37.73 37.81 38.98 39.89 40.71 41.97 44.78 45.99 44.97 43.75 44.60 48.63 51.80 52.16 52.85 52.31 52.95 52.94 54.12 52.99 49.63 47.01 45.02 49.77 48.05 45.01 48.81 49.47 50.36 51.73 51.18 49.30 53.95 59.40 57.16 58.12 60.49 63.18 63.59 64.44 65.82

GFSSW_sfc_wetblb_024.txt.gz
Wetbulb
57.15 57.10 57.06 57.22 57.61 57.95 58.17 58.26 58.39 58.45 58.54 58.60 58.93 59.47 59.85 60.07 60.14 62.86 60.03 66.44 66.68 75.84 75.97 71.22 72.25 71.59 73.26 69.90 70.29 67.97 61.10 59.02 58.61 58.10 61.18 66.10 65.03 68.32 69.86 68.15 68.34 68.96 67.97 70.53 72.41
56.68 56.83 56.82 56.97 57.18 57.54 57.55 57.72 57.85 57.90 57.96 58.12 58.39 58.79 59.64 59.83 61.76 59.70 67.71 70.16 74.14 75.17 70.84 68.54 66.94 70.04 68.42 68.09 67.16 64.96 61.06 58.98 62.61 62.77 62.90 65.34 65.46 67.31 66.68 66.46 66.69 68.38 70.18 71.46 71.80
56.49 56.48 56.52 56.54 56.80 56.99 57.14 57.30 57.49 57.36 57.57 57.72 58.08 58.49 59.44 60.41 59.19 57.42 70.06 72.24 73.35 74.52 67.61 67.38 65.78 67.87 63.93 63.98 65.98 65.32 61.62 62.36 63.11 64.75 65.42 65.83 65.55 67.26 65.07 64.00 66.95 67.49 69.06 70.45 70.67
56.02 56.05 56.04 56.28 56.60 56.62 56.92 57.03 57.16 56.82 57.06 57.41 57.94 58.35 59.31 61.93 50.35 59.05 72.20 71.51 72.86 70.41 63.14 62.15 59.23 60.03 57.52 58.88 65.23 62.24 63.00 62.17 63.51 65.86 65.05 65.25 66.83 64.77 65.36 65.21 68.64 70.12 70.92 70.44 70.01
55.39 55.44 55.61 55.75 55.96 56.31 56.60 56.90 56.71 56.44 56.66 57.11 57.88 58.56 60.37 57.27 56.41 62.98 72.05 72.80 67.99 63.13 59.91 58.66 57.38 56.95 55.41 59.71 62.50 62.54 61.55 63.12 63.43 65.74 66.10 66.99 65.69 64.23 65.44 68.63 69.53 70.75 70.63 70.03 70.36
55.06 55.38 55.70 55.74 56.09 56.39 56.66 56.50 56.34 55.74 56.29 57.17 58.16 58.80 59.15 51.88 60.28 61.63 65.35 66.51 65.58 62.33 59.74 59.06 57.58 58.50 57.46 59.29 61.23 63.06 61.91 62.71 63.45 64.95 66.62 65.40 65.64 64.99 66.24 69.89 69.05 69.71 69.80 70.33 70.49
54.70 54.92 55.36 55.40 55.11 55.83 56.24 55.86 55.01 55.24 56.32 57.71 59.04 59.71 56.75 55.06 60.39 61.79 61.29 61.82 64.15 62.44 58.95 59.35 59.96 57.59 58.97 58.44 61.41 61.57 60.21 62.82 63.52 65.32 65.40 66.23 63.60 64.26 67.93 69.67 68.45 69.08 69.83 70.13 70.63
54.44 54.67 54.48 54.50 54.70 55.13 55.00 54.57 54.43 56.46 58.19 59.88 60.71 60.58 55.59 60.69 62.33 61.36 62.24 61.44 63.00 64.19 61.23 60.81 60.75 58.88 59.12 61.56 61.28 59.55 60.05 58.24 63.63 65.25 65.71 65.34 60.02 65.31 68.79 68.61 67.78 68.29 69.01 69.22 70.49
54.42 54.24 54.30 54.46 54.60 54.16 53.51 53.59 55.46 59.72 59.38 60.37 61.66 59.95 55.49 63.17 61.47 63.77 64.00 60.18 61.46 61.29 61.52 60.09 59.91 57.20 58.32 57.86 57.53 59.22 55.84 57.17 60.86 65.11 64.39 64.10 60.62 65.77 68.80 68.42 67.94 68.11 68.31 68.93 70.37
54.50 54.37 54.13 53.98 53.61 52.83 52.62 54.12 57.40 59.03 61.67 62.81 62.35 57.51 60.17 58.24 61.53 61.71 64.14 61.22 60.10 58.69 57.65 56.85 56.63 54.25 55.21 56.03 52.76 55.72 56.07 57.18 58.62 62.70 63.99 62.60 62.25 64.83 68.02 68.02 67.95 68.46 68.31 68.69 69.73
54.39 54.19 53.76 53.30 52.62 51.84 53.11 56.00 56.74 57.56 60.18 57.28 58.03 58.03 57.65 60.19 61.36 60.89 61.99 59.27 59.06 56.74 52.25 54.46 52.02 50.47 53.76 56.61 58.54 58.57 57.61 56.84 59.83 63.96 62.77 61.97 62.25 64.40 67.22 67.44 67.30 68.20 68.54 68.70 69.86
53.84 53.61 53.20 52.72 51.81 51.64 53.54 51.60 50.45 50.05 47.99 53.46 53.02 54.27 58.16 58.98 55.08 59.43 61.90 56.09 56.02 51.69 53.34 51.91 49.67 54.48 56.17 56.32 56.78 57.24 56.94 56.95 60.67 63.44 62.89 61.97 61.74 64.14 65.68 67.18 67.62 67.65 68.50 69.22 70.07
53.47 53.20 52.81 52.05 51.19 54.36 52.22 52.93 54.32 52.96 48.45 51.70 53.37 52.64 53.76 55.24 53.80 56.13 59.79 57.52 54.65 52.69 51.86 50.38 51.49 54.78 54.02 54.66 55.21 57.13 56.96 57.24 58.46 62.13 63.26 61.23 60.02 61.93 64.18 66.41 68.47 68.82 69.09 69.73 70.25
53.24 52.93 52.23 50.86 51.27 52.20 52.50 55.06 54.95 53.33 46.79 50.89 51.87 54.37 55.40 55.47 52.18 57.58 60.30 57.93 55.07 52.49 52.36 51.68 53.57 52.39 51.94 52.26 55.58 54.92 59.00 58.71 59.00 59.24 55.65 62.08 53.62 59.61 62.88 64.09 66.24 68.11 68.18 68.92 70.21
52.93 52.49 51.28 50.09 50.54 50.90 52.45 54.60 54.20 53.13 41.16 51.92 52.99 59.01 57.59 55.15 55.12 54.86 58.77 58.08 53.40 52.98 53.47 50.61 50.92 50.68 50.50 51.61 55.71 55.20 58.75 58.37 59.10 58.74 58.20 58.66 56.26 58.47 61.94 61.99 64.39 67.06 67.91 68.09 69.19
52.41 51.92 50.98 52.43 52.78 53.20 54.46 53.94 53.72 46.78 40.67 49.36 54.08 53.28 53.42 54.98 54.97 55.97 54.81 58.74 57.70 53.94 54.13 53.05 54.88 52.82 52.19 53.55 54.41 57.32 56.64 57.42 58.16 57.51 52.78 56.90 56.52 56.41 59.47 62.60 63.92 66.45 68.09 68.05 68.09
51.22 50.04 49.97 52.17 50.08 54.41 54.11 50.04 44.50 41.78 49.92 48.26 50.35 53.28 52.18 52.18 53.45 54.06 52.14 52.09 51.32 49.59 49.92 51.68 51.73 52.92 53.24 51.38 53.69 55.01 54.53 50.97 50.05 50.55 50.40 57.95 55.21 57.21 60.51 62.08 63.98 63.96 67.18 68.75 69.01
49.89 48.54 52.33 52.35 55.22 54.21 51.47 44.36 39.82 45.15 47.33 51.42 51.10 51.98 49.84 51.62 52.10 52.89 51.82 49.94 53.03 52.71 50.79 48.21 45.94 51.60 52.92 52.02 51.43 52.43 54.25 51.08 46.41 47.84 50.92 56.75 52.38 56.28 62.64 63.83 64.11 64.30 65.98 68.33 69.37
48.85 51.72 51.03 54.49 54.31 53.50 47.38 39.15 42.14 45.48 48.65 48.08 50.61 49.06 49.87 51.36 50.77 52.14 51.81 50.84 52.11 53.74 49.75 48.96 48.64 53.34 53.51 53.43 53.85 52.69 51.86 56.50 53.28 54.05 51.24 53.14 56.44 59.37 60.99 61.96 62.80 63.42 64.65 66.27 68.76
48.37 48.72 49.52 54.05 55.43 51.88 43.71 39.73 44.38 47.04 48.22 50.09 46.38 49.50 48.19 50.21 49.36 50.48 51.16 52.84 52.04 53.85 55.96 53.07 48.56 52.75 53.15 53.99 53.71 54.03 56.19 51.40 53.29 48.19 46.66 50.68 52.75 53.83 58.18 59.58 61.13 61.51 63.02 65.35 67.61
48.45 44.48 52.29 55.66 54.40 48.13 41.53 42.22 44.07 47.04 47.54 47.69 47.59 48.27 49.05 48.84 50.10 49.73 50.37 52.86 53.87 53.38 55.61 54.51 51.91 50.96 52.97 50.99 50.15 50.95 51.76 54.05 54.32 52.62 48.81 47.55 50.79 58.50 58.64 60.06 59.93 60.78 62.37 63.64 65.48
46.20 40.68 52.94 54.34 44.78 45.88 42.99 45.50 44.48 44.64 47.09 46.66 48.22 48.55 48.21 49.15 48.86 49.39 49.24 51.40 53.60 55.16 51.86 54.85 52.95 48.83 49.47 52.96 53.88 53.35 52.65 54.40 50.93 51.08 52.66 51.75 51.83 59.51 60.40 60.38 60.87 61.27 62.20 63.29 65.01
43.19 43.40 51.75 50.73 39.40 42.11 45.45 44.67 46.14 45.50 45.35 45.18 44.77 47.28 48.61 47.85 47.09 49.43 50.42 52.93 52.73 53.13 54.11 55.41 52.07 47.92 48.54 49.94 52.19 50.59 52.93 53.81 54.78 54.62 53.36 49.46 51.54 60.45 60.03 60.63 61.89 62.20 63.66 64.83 68.45
43.77 39.08 46.23 48.80 47.95 44.01 43.38 44.21 44.55 47.89 47.59 47.29 46.86 47.38 46.65 46.62 49.73 48.56 48.89 51.09 52.01 52.23 59.87 57.10 53.41 50.85 47.37 49.26 50.65 48.67 49.80 52.08 52.36 51.33 51.47 52.07 54.59 57.46 58.68 59.25 60.91 62.23 63.47 64.73 66.82
44.56 41.54 44.06 39.76 43.39 44.05 45.01 45.13 42.91 43.78 48.41 50.08 48.37 46.27 46.01 44.59 46.07 46.46 49.00 50.59 52.56 55.77 54.13 52.94 50.61 52.56 52.59 52.67 52.51 51.38 49.87 49.78 49.52 51.09 49.72 52.36 53.44 57.03 59.05 59.74 60.91 61.92 62.38 63.33 67.54
40.17 40.49 43.38 40.76 42.04 40.90 40.26 41.05 42.35 44.27 46.40 46.45 47.41 48.40 47.19 46.22 47.35 46.39 48.46 49.63 49.66 52.60 52.97 55.76 51.97 54.00 51.73 52.90 52.45 50.85 51.91 51.62 50.88 50.75 51.09 51.82 52.84 58.39 59.87 60.58 60.63 61.20 61.83 63.22 66.44
45.57 46.00 41.66 39.46 37.70 37.49 39.38 41.14 41.30 44.87 46.29 47.83 48.21 47.29 48.13 49.97 52.77 54.16 55.08 54.76 52.84 52.28 52.85 53.10 51.93 51.88 49.01 53.02 52.55 49.50 52.24 52.59 52.89 53.03 51.83 49.74 54.17 57.37 57.37 58.82 60.57 63.46 63.13 63.90 64.93

GFSSW_sfc_wetblb_027.txt.gz
Wetbulb
57.43 57.45 57.44 57.55 57.79 58.07 58.22 58.18 58.55 58.91 58.93 59.09 59.15 59.65 59.75 60.02 59.63 63.54 62.10 68.03 69.25 76.61 76.70 72.29 71.92 72.17 72.40 72.09 71.49 69.69 61.15 58.97 58.05 59.21 60.53 64.32 63.28 66.73 69.02 67.43 67.78 68.76 69.83 71.68 73.40
57.05 57.06 57.12 57.14 57.44 57.57 57.91 58.02 58.13 58.09 58.32 58.46 58.88 58.99 59.64 59.91 61.39 60.36 70.96 73.38 76.17 76.70 72.15 69.22 67.46 69.06 67.52 68.97 69.19 66.13 58.34 60.07 62.80 63.21 62.88 63.39 63.72 65.76 65.59 66.05 66.45 67.22 71.06 72.59 72.92
56.62 56.68 56.52 56.77 57.00 57.23 57.42 57.87 57.87 57.67 57.75 58.09 58.34 58.82 59.52 60.32 60.16 59.58 71.75 73.69 76.02 76.24 68.20 68.14 68.11 67.14 64.86 66.79 66.60 65.41 60.15 63.50 63.04 64.37 65.31 63.88 63.37 66.09 64.93 63.49 66.52 66.61 69.17 71.16 71.67
56.30 56.06 55.97 56.18 56.45 56.72 56.95 57.33 57.36 57.16 57.28 57.52 57.98 58.57 59.86 61.89 52.97 64.58 72.27 72.95 75.15 72.16 68.51 65.59 64.43 64.17 62.89 62.00 64.88 62.87 64.62 62.81 64.21 64.04 64.76 63.73 64.32 62.92 64.53 64.93 68.24 69.41 70.61 70.74 70.71
55.45 55.42 55.46 55.48 55.59 55.97 56.48 56.84 56.63 56.28 56.63 57.17 57.84 58.55 60.98 58.00 57.32 67.58 72.99 72.55 69.16 67.51 66.28 62.60 61.70 60.99 60.61 60.12 62.52 63.80 63.26 63.08 63.71 64.38 65.05 66.13 63.38 62.60 63.99 66.58 68.49 70.04 70.65 70.10 70.55
55.05 55.20 55.30 55.16 55.65 55.89 56.05 56.10 56.12 55.71 56.25 57.27 57.99 58.41 59.53 53.30 61.74 65.35 64.31 67.98 64.78 63.34 61.62 61.19 59.86 61.23 59.49 59.62 61.04 64.30 63.79 62.65 63.37 64.19 64.83 63.55 64.07 64.17 65.96 67.78 68.01 69.25 69.63 70.07 70.01
55.07 55.53 55.64 55.63 55.10 54.77 55.45 55.32 54.72 55.19 56.27 58.40 58.70 60.15 57.77 57.15 61.51 62.36 64.34 63.64 64.04 63.52 59.96 60.62 61.03 59.23 59.99 58.34 62.20 63.75 60.69 62.45 62.70 63.87 63.57 65.41 62.56 62.02 67.16 68.06 67.37 68.35 68.90 69.30 69.97
54.81 55.15 55.39 55.53 55.23 55.00 54.69 54.27 54.17 55.67 58.69 60.53 60.07 61.88 56.28 62.64 63.91 61.45 62.00 61.01 62.99 64.44 62.26 62.18 61.31 59.84 59.24 60.82 61.47 60.31 61.26 58.45 62.16 62.91 64.84 64.26 59.51 65.02 68.47 67.33 66.25 67.63 68.40 68.82 69.89
54.47 54.73 54.55 54.71 54.48 53.93 53.26 53.49 54.97 57.99 60.89 60.63 62.82 61.90 57.27 64.05 60.19 61.21 61.83 59.52 61.62 61.89 63.17 61.98 60.16 57.75 58.76 56.33 57.25 58.98 56.37 57.34 59.32 63.35 64.50 63.52 58.73 65.30 68.43 67.50 66.28 66.98 67.89 68.65 69.43
54.40 54.29 54.11 53.93 53.63 52.93 52.47 53.63 58.37 59.54 61.83 64.51 64.32 59.72 60.17 58.60 62.07 63.05 64.44 62.78 59.79 59.78 59.00 58.32 56.83 54.86 56.31 55.79 52.63 56.36 56.59 58.21 59.47 61.02 63.87 61.97 62.59 65.70 67.45 67.32 66.33 66.87 67.47 68.37 68.83
54.20 53.94 53.80 53.34 52.91 51.93 53.28 58.55 58.08 59.25 61.49 59.31 59.97 58.15 58.74 61.52 62.87 60.74 63.14 60.81 59.89 57.99 53.69 55.82 52.46 51.31 55.13 57.35 58.67 59.43 58.80 56.87 60.57 61.41 62.28 61.82 61.98 64.21 67.06 67.42 66.34 66.54 67.05 67.54 68.60
53.88 53.57 53.45 52.97 52.16 51.35 54.55 54.67 52.26 52.57 48.96 54.57 55.85 57.06 61.15 61.14 57.37 59.77 62.77 56.86 56.79 53.31 54.82 53.35 50.53 54.64 57.46 57.53 57.65 58.12 58.02 57.93 59.55 61.55 61.90 61.76 61.61 63.83 66.43 67.02 67.43 67.09 67.11 67.30 68.10
53.51 53.37 53.01 52.21 51.35 56.05 53.44 55.46 56.84 55.29 49.34 52.15 55.30 54.74 55.93 57.57 56.11 57.07 60.65 57.25 55.17 53.65 52.84 51.24 52.49 55.14 56.14 56.15 56.21 57.01 57.45 58.10 57.04 62.19 62.95 61.52 59.81 61.99 64.62 67.03 68.23 68.25 68.44 68.67 68.23
53.51 53.16 52.54 51.06 51.62 53.95 53.78 57.17 56.88 55.39 47.00 50.99 52.89 54.70 56.12 56.56 53.23 58.96 61.04 58.04 55.38 53.37 53.36 52.73 55.03 53.59 54.48 54.62 56.68 54.50 58.88 58.60 58.00 57.82 55.98 61.01 54.38 60.43 62.67 63.69 66.01 67.68 68.43 68.02 68.79
53.61 52.99 51.84 50.08 51.44 52.47 53.96 56.05 55.67 54.80 42.04 54.32 54.57 59.61 57.47 54.54 56.57 55.73 60.05 58.96 54.32 54.01 54.48 51.98 52.43 52.63 52.53 54.44 57.29 55.83 59.34 58.81 58.75 57.32 58.20 57.37 55.45 57.50 61.88 61.28 63.00 66.36 68.43 68.92 69.21
52.97 52.43 51.58 52.55 54.50 55.69 56.36 56.01 53.98 46.67 42.39 51.60 55.11 53.97 54.26 54.74 56.13 57.27 56.08 59.77 58.60 55.47 55.10 54.32 56.41 54.64 54.34 56.10 56.96 58.32 57.88 58.75 58.44 57.27 52.32 57.49 55.81 56.94 58.60 61.93 63.43 65.84 67.88 69.24 68.91
51.74 51.02 50.81 52.82 50.58 56.38 55.31 52.09 44.19 42.29 52.53 50.97 52.11 54.04 54.18 53.88 54.73 55.35 53.18 53.24 52.46 50.12 50.82 53.00 53.41 54.66 55.47 53.22 56.03 55.86 55.21 51.04 50.22 50.68 50.51 58.13 56.55 57.95 61.62 62.99 64.20 64.11 66.03 68.73 69.91
50.51 49.08 52.92 54.66 56.90 56.66 52.88 46.34 40.23 47.67 49.12 53.43 53.41 54.10 51.77 54.00 54.08 54.42 52.92 50.97 54.29 53.99 51.76 49.45 47.86 53.12 54.50 53.30 52.94 53.83 54.39 51.05 46.95 48.22 50.85 56.89 54.13 57.44 63.37 64.23 64.56 64.42 65.48 67.54 69.56
49.39 53.44 53.11 55.24 56.76 55.40 49.58 40.13 43.26 47.64 51.57 51.24 52.57 50.79 51.70 52.62 52.95 53.85 53.41 52.05 53.32 54.61 51.03 50.77 50.29 55.10 54.92 54.85 54.05 53.33 52.15 56.30 53.17 54.38 51.82 54.16 57.37 60.04 62.58 62.57 63.85 64.21 64.44 64.60 68.17
50.10 51.36 52.35 56.14 57.16 53.34 45.74 41.34 46.41 49.50 51.36 51.01 48.55 51.53 49.92 51.47 51.11 51.91 52.65 54.78 53.32 55.08 56.22 53.85 50.47 54.67 54.47 55.21 54.11 53.16 56.16 51.45 53.65 49.01 48.79 51.92 53.75 55.34 59.72 60.53 62.48 62.92 62.83 63.74 65.51
49.85 46.80 54.83 57.31 56.27 49.79 42.69 44.24 46.67 49.24 49.50 48.16 48.27 49.72 51.07 51.15 52.27 51.54 51.57 54.50 55.35 54.98 55.69 54.34 53.17 52.57 54.80 52.33 51.08 50.99 51.64 53.88 54.03 53.33 49.95 48.90 52.80 60.38 60.77 61.79 61.22 62.29 63.18 63.66 64.24
49.36 43.56 54.96 56.25 46.22 47.23 44.45 47.15 47.59 49.24 50.75 48.64 48.77 49.26 50.21 51.48 51.14 52.20 51.69 53.49 56.25 55.89 53.01 54.89 53.08 50.45 52.25 55.14 55.36 53.87 51.91 52.99 53.26 51.67 53.21 53.26 52.71 61.02 61.15 62.02 62.31 62.56 63.16 63.83 64.62
45.84 47.48 53.20 52.11 40.67 42.38 46.30 46.65 48.12 47.59 48.56 48.38 46.69 48.42 50.21 49.78 49.56 51.79 52.61 55.41 55.19 54.78 54.38 55.21 52.25 48.87 50.54 53.18 54.93 52.21 52.91 52.87 53.44 54.91 54.30 51.41 52.47 61.28 61.21 61.74 62.35 62.25 63.11 64.54 64.71
45.65 42.28 47.75 49.03 48.68 44.16 43.43 44.41 44.97 49.74 47.82 48.65 48.13 48.96 47.56 47.36 50.86 49.97 51.05 53.76 54.96 54.23 62.14 58.58 53.09 51.14 48.56 51.24 53.31 51.14 51.51 52.45 52.10 51.33 52.87 53.04 55.19 58.37 60.01 60.88 62.05 62.50 63.33 63.80 65.09
45.62 43.34 44.29 41.49 43.40 43.29 44.74 45.11 43.13 43.18 47.92 50.27 48.00 47.78 46.91 45.46 46.75 47.46 50.22 52.70 53.89 58.38 55.57 54.69 51.78 52.98 52.79 53.94 54.02 52.09 50.97 50.96 50.73 52.34 51.15 54.04 54.80 58.19 60.14 60.92 62.52 63.19 63.58 63.75 63.97
40.64 42.70 45.65 43.50 44.33 42.30 41.53 41.81 40.76 42.18 44.25 44.13 45.34 47.92 48.85 46.73 47.90 46.84 49.39 51.15 51.63 53.88 52.96 54.94 51.53 53.91 52.48 53.79 53.68 52.40 51.67 51.20 51.27 51.86 52.69 53.46 54.19 60.02 61.34 62.34 62.65 62.50 62.64 63.06 63.50
47.96 47.86 43.18 41.00 41.28 39.91 39.56 41.83 41.68 43.47 44.85 46.33 44.90 44.92 46.08 49.22 51.69 53.32 54.24 53.43 53.48 53.43 53.19 53.27 51.95 51.19 48.90 52.86 52.66 49.63 52.85 53.08 52.84 53.25 52.48 50.54 55.18 58.58 58.34 60.04 61.96 65.50 63.81 63.44 64.03

GFSSW_sfc_wetblb_030.txt.gz
Wetbulb
57.30 57.32 57.31 57.31 57.65 57.75 58.05 58.30 58.41 58.56 58.70 58.98 59.37 59.66 59.74 59.90 59.47 61.88 60.86 65.22 68.20 75.75 75.86 69.46 70.91 70.85 71.04 69.66 71.18 70.18 59.84 58.51 58.69 58.23 58.79 63.75 62.09 67.39 67.76 65.81 68.08 68.93 68.54 70.58 71.67
57.04 57.08 56.78 56.78 56.90 57.13 57.78 57.91 57.91 58.12 58.29 58.39 58.91 59.38 59.57 59.86 58.97 57.42 65.23 74.24 75.54 75.70 67.15 65.90 66.41 67.91 66.07 66.79 68.45 60.54 56.41 58.90 62.19 62.70 60.71 62.81 63.18 64.05 64.45 64.32 66.09 67.52 70.28 70.70 71.70
56.40 56.57 56.28 56.29 56.41 56.59 56.75 57.04 57.27 57.58 57.49 57.72 58.13 58.66 59.50 59.52 57.32 59.05 74.41 76.45 75.70 74.37 63.86 65.55 67.82 66.24 64.05 65.30 65.61 59.72 57.23 61.70 62.84 64.18 63.70 62.22 63.11 64.66 63.69 62.61 64.84 66.27 68.07 69.57 70.24
56.10 56.11 56.10 56.13 56.07 55.87 56.11 56.28 56.83 56.51 56.80 57.01 57.79 58.30 59.59 59.82 50.96 61.19 72.59 75.54 76.16 69.08 63.47 63.31 64.39 63.07 62.16 61.52 65.27 58.57 59.67 61.50 63.80 64.80 63.48 61.99 63.27 63.57 63.75 64.74 67.70 69.35 70.07 70.07 69.12
55.46 55.54 55.71 56.02 55.97 56.08 56.27 56.47 56.48 56.12 56.07 56.78 57.75 58.54 59.76 56.83 57.06 64.14 73.51 74.13 69.52 65.05 62.43 62.51 61.71 62.05 60.00 62.19 62.83 62.62 62.40 65.15 63.73 63.19 63.90 64.21 61.84 61.38 63.48 66.39 68.59 69.96 70.16 69.64 69.44
54.85 55.18 55.55 55.85 55.96 56.04 56.18 55.81 55.85 55.67 55.88 56.87 58.14 58.42 57.93 50.51 61.16 64.57 64.16 65.80 63.24 63.12 62.54 63.96 62.17 62.63 61.14 61.38 60.15 61.16 64.23 63.70 63.05 62.94 64.37 63.29 61.96 61.56 63.48 66.61 67.74 68.64 68.59 69.26 69.39
55.00 55.26 55.11 55.25 55.45 55.27 55.54 55.25 55.37 55.39 56.03 57.64 60.07 58.95 56.25 54.51 62.66 65.19 63.51 64.17 63.62 63.05 60.26 61.87 63.43 60.30 61.43 58.23 60.89 60.47 60.44 62.22 62.22 62.52 62.61 63.71 60.49 60.47 64.38 65.55 66.30 67.37 68.09 68.55 69.26
55.13 55.07 55.11 55.13 55.23 55.00 54.50 54.38 54.46 55.03 56.84 60.05 60.71 59.90 54.14 60.29 62.46 61.27 61.89 61.76 63.99 63.98 62.05 61.91 61.31 58.90 58.22 60.03 58.66 57.01 59.29 57.82 61.30 61.52 62.75 62.00 57.61 61.92 65.78 63.96 65.03 66.39 67.26 67.95 68.80
54.80 54.76 54.86 54.75 54.58 53.97 53.42 53.53 55.12 56.99 59.25 61.07 60.67 60.89 56.34 65.62 60.51 62.02 61.44 59.00 60.21 60.53 62.72 62.16 60.27 56.48 57.19 54.77 53.76 56.07 54.19 56.81 58.40 62.15 62.21 61.34 57.82 63.52 66.31 63.60 64.16 65.63 66.34 67.07 68.39
54.52 54.26 54.38 54.33 53.80 53.11 52.70 53.74 58.07 58.27 61.13 63.62 63.35 59.56 61.87 58.42 61.25 61.27 61.35 60.03 57.89 58.81 58.34 58.36 56.81 53.93 53.70 53.42 48.76 52.05 54.68 56.58 57.63 60.94 61.17 60.37 56.74 61.08 63.46 64.81 63.63 64.53 66.11 66.96 67.35
54.32 53.99 53.86 53.47 53.07 52.16 51.72 56.51 57.31 56.53 59.63 59.27 58.74 56.52 57.88 62.21 62.99 61.44 60.92 58.53 59.09 57.63 52.75 55.93 52.21 50.56 52.24 54.53 55.65 55.58 56.71 56.21 59.43 59.94 59.96 61.42 60.00 59.84 62.46 65.04 63.81 63.93 65.19 65.84 67.08
53.97 53.73 53.71 53.26 52.51 51.89 53.22 54.75 54.41 53.92 48.36 53.08 54.55 58.58 61.91 62.24 57.90 59.46 62.12 57.77 56.53 52.95 54.52 53.26 50.00 53.19 55.01 55.46 55.60 55.54 55.55 57.06 59.77 61.41 61.19 60.07 60.41 62.24 63.37 64.79 64.88 64.69 64.96 65.71 66.93
53.82 53.49 53.26 52.78 51.91 54.49 54.69 53.38 58.57 56.30 48.34 50.48 53.27 52.75 56.12 60.86 57.65 57.89 59.73 57.78 54.77 52.77 53.02 50.69 52.19 54.18 53.62 53.83 54.42 54.91 55.01 56.61 57.32 60.64 61.16 59.67 57.99 60.96 64.70 65.77 65.76 66.12 66.84 66.49 67.00
53.55 53.22 52.70 51.60 52.56 52.71 52.87 57.50 56.63 55.65 44.86 49.34 52.66 53.62 54.85 56.06 53.59 59.94 60.88 58.22 54.51 52.77 53.59 52.61 54.42 52.78 51.94 52.52 54.86 52.37 57.04 57.37 58.11 57.51 54.07 59.75 52.30 60.07 62.10 64.14 64.77 65.11 65.94 66.59 67.22
53.44 53.16 51.94 51.26 49.78 51.32 55.58 56.59 56.16 53.73 39.61 54.14 54.19 59.63 56.65 52.91 54.99 54.68 59.63 58.67 53.46 53.05 53.81 51.81 52.11 51.81 50.75 51.77 55.39 54.47 57.92 57.14 57.16 56.53 57.73 57.37 54.39 58.30 62.54 60.96 63.64 64.63 65.99 66.72 68.22
53.05 52.60 51.98 52.05 53.03 54.65 56.56 56.02 54.26 44.47 40.12 51.92 55.09 53.49 52.72 53.27 53.36 56.79 54.86 57.79 58.50 54.08 54.29 53.73 56.26 53.89 53.28 53.95 55.14 57.17 56.29 56.48 56.67 55.68 51.81 56.35 53.42 55.05 59.22 61.36 62.79 64.93 65.11 68.11 67.71
52.09 51.10 50.73 52.19 49.15 55.13 55.52 52.27 43.01 40.56 52.77 51.22 52.55 54.17 53.27 51.29 51.64 54.91 52.37 51.63 51.50 50.02 49.66 52.55 52.79 54.92 54.96 52.22 54.45 54.65 53.36 49.72 49.02 50.12 49.22 56.81 55.30 57.08 61.74 63.03 63.28 62.60 65.28 68.41 69.54
50.49 49.54 51.70 53.99 56.14 55.90 53.58 45.82 38.87 47.20 47.17 54.39 54.04 53.88 51.32 53.52 52.03 52.26 53.04 50.06 52.83 53.31 50.58 48.57 47.40 52.45 54.99 52.50 51.61 52.29 52.68 50.39 45.77 47.77 50.23 56.15 52.86 57.42 63.62 63.87 63.01 63.99 64.30 67.41 68.82
49.96 53.09 52.99 54.47 56.50 55.63 48.62 39.65 42.42 46.86 51.30 51.29 52.59 50.95 51.65 52.99 53.69 52.76 52.85 51.57 52.33 53.65 50.54 50.13 49.39 54.99 54.78 55.01 53.61 51.78 50.21 54.39 51.36 52.91 50.84 53.48 56.49 60.30 63.08 61.98 63.97 64.57 64.55 64.71 66.20
48.79 49.91 52.58 57.01 56.78 53.38 45.09 40.17 45.62 48.91 50.61 50.75 47.68 50.98 49.55 51.95 51.69 52.22 52.48 54.71 52.54 54.35 55.79 53.24 49.47 54.04 54.74 55.33 54.31 52.56 54.90 49.25 50.50 46.72 46.81 51.43 53.50 54.84 60.73 60.26 62.97 62.45 63.89 65.21 65.44
48.93 47.65 53.28 56.68 55.79 49.51 41.29 43.03 46.19 49.53 49.76 47.12 46.02 46.14 48.06 50.45 52.28 51.73 51.72 54.52 55.63 54.17 54.94 53.64 52.73 51.85 54.79 52.65 50.94 50.81 49.60 51.03 51.98 51.94 48.75 48.14 52.16 60.67 60.88 63.37 63.45 63.53 64.33 65.26 64.61
48.40 42.01 54.50 56.43 45.86 46.59 43.21 46.17 46.96 48.35 50.81 49.49 49.80 48.21 46.83 47.94 49.79 51.43 51.79 53.44 56.76 56.37 52.76 54.17 52.24 50.07 51.10 55.51 55.64 53.42 51.86 51.20 47.92 50.26 51.93 51.48 52.63 60.07 64.42 63.85 64.65 64.11 65.08 65.74 65.86
44.04 45.65 52.59 51.98 40.71 41.86 45.41 45.16 46.79 47.07 47.90 48.21 47.90 49.49 49.93 47.21 46.58 49.39 51.85 55.98 56.39 55.47 54.20 55.94 51.30 48.29 48.99 52.12 55.03 52.65 52.62 51.59 50.98 51.07 51.42 49.25 51.13 60.40 62.21 61.69 63.20 63.74 64.26 65.89 67.24
43.67 40.11 46.25 48.51 48.05 44.00 42.54 43.71 43.91 48.14 47.31 49.08 48.94 49.85 48.46 47.34 49.23 48.48 49.54 53.14 55.50 55.96 62.75 58.79 52.60 50.82 47.58 50.55 52.90 52.11 52.16 52.57 50.98 48.40 49.71 52.00 54.17 57.58 60.82 61.51 62.98 64.11 65.21 66.32 69.09
43.96 41.51 45.02 39.37 41.90 44.27 42.84 41.71 40.65 42.38 47.70 48.97 47.12 47.62 44.97 44.62 45.75 45.86 48.63 50.37 53.17 59.80 55.85 54.85 50.98 52.01 52.35 51.98 53.02 52.65 52.18 51.68 51.10 52.12 49.98 51.91 55.13 57.22 59.59 62.16 63.07 67.56 66.42 67.05 68.65
39.53 40.48 44.63 41.84 43.18 40.88 40.09 39.78 39.48 41.43 40.90 40.73 43.17 45.52 46.14 44.18 45.93 41.46 46.11 49.80 50.85 54.20 53.53 55.36 51.43 51.97 50.46 52.08 52.01 51.42 52.92 52.98 52.95 52.45 52.38 53.12 52.95 58.83 61.34 62.72 64.46 62.15 63.03 65.70 67.03
47.09 46.50 43.36 39.89 40.31 39.67 39.88 40.78 39.86 41.44 43.35 45.34 43.03 41.55 41.97 43.73 46.88 47.82 49.03 49.74 51.24 52.79 54.24 53.83 51.89 51.63 48.14 51.90 51.41 48.68 52.82 53.41 53.02 54.05 53.09 50.88 55.29 59.44 59.12 60.47 63.67 65.16 63.19 66.25 66.04

GFSSW_sfc_wetblb_033.txt.gz
Wetbulb
57.18 57.11 57.24 57.09 57.17 57.22 57.20 57.43 57.72 57.83 58.08 58.48 58.77 59.07 59.50 59.53 59.20 58.24 56.80 60.89 64.89 74.36 75.30 71.72 70.54 69.53 70.40 70.54 65.94 64.59 57.31 54.51 56.88 55.38 56.54 63.20 62.23 66.61 68.85 66.36 67.24 68.11 67.76 69.21 71.19
56.76 56.84 56.79 56.87 56.95 56.98 57.02 56.96 56.96 57.34 57.32 57.69 58.01 58.37 59.19 59.60 56.33 53.99 62.11 69.78 71.54 75.02 67.18 64.63 63.28 65.60 62.84 63.92 62.79 60.44 55.76 56.15 61.50 60.51 56.93 63.54 63.64 64.38 64.96 64.58 64.64 66.67 69.50 70.70 70.92
55.96 55.89 55.83 55.98 56.32 56.49 56.95 57.24 56.82 56.66 56.87 57.22 57.46 58.12 59.10 58.67 53.84 53.82 74.13 70.31 72.15 74.57 64.74 62.33 61.49 63.36 60.73 61.93 61.83 60.45 57.04 61.10 60.92 62.78 62.59 60.49 61.63 64.03 63.66 62.62 65.01 64.85 66.89 69.31 69.43
55.35 55.08 55.18 55.22 55.64 55.74 56.04 56.43 56.73 56.39 56.24 56.64 57.31 58.06 59.11 56.13 45.97 57.65 74.92 75.52 75.20 70.52 63.88 58.49 57.10 56.74 58.42 58.02 62.59 58.41 61.80 62.11 61.56 63.63 62.95 59.76 61.31 62.20 62.96 64.54 68.27 68.21 68.80 68.95 67.64
55.39 55.33 55.34 55.36 55.53 55.71 56.15 56.33 56.46 56.38 55.85 56.45 57.26 58.17 56.59 53.31 53.46 61.10 73.12 74.79 71.32 66.40 60.88 58.28 55.29 56.73 56.38 58.94 61.69 59.36 59.89 61.55 62.56 62.40 61.89 61.66 61.28 61.88 63.26 67.82 68.62 68.29 67.85 67.90 67.36
55.61 55.78 55.72 55.66 55.88 56.09 56.21 55.84 55.80 55.75 55.64 56.36 57.63 58.49 54.63 46.25 55.64 58.05 65.68 67.18 64.94 61.57 58.78 58.49 57.49 59.47 58.10 58.21 60.03 62.86 61.60 62.12 62.73 61.77 61.98 59.95 59.32 62.23 64.12 67.91 67.47 67.53 66.71 66.90 66.50
55.67 55.61 55.32 55.51 55.68 55.76 55.61 55.17 55.48 55.36 55.32 56.63 58.12 58.44 53.94 50.23 57.74 61.64 62.10 61.86 62.98 60.35 57.47 59.34 60.49 59.18 58.05 56.13 59.24 58.47 58.94 61.76 61.39 60.26 60.68 61.49 56.77 59.02 64.66 67.06 66.45 66.83 67.22 67.53 67.15
55.32 55.40 55.12 55.00 55.16 55.12 54.76 54.45 54.56 55.18 56.18 57.45 59.63 57.21 49.93 57.95 58.24 57.23 57.09 59.65 62.90 60.22 59.37 59.62 60.26 57.34 55.12 55.20 54.64 53.40 51.95 49.53 59.14 58.85 61.16 59.57 54.37 60.42 62.41 65.25 64.75 66.07 66.89 67.39 67.25
54.95 55.01 54.93 54.60 54.29 53.98 53.62 53.73 55.35 57.16 57.94 60.16 57.54 54.80 52.72 63.96 57.50 58.13 57.40 56.56 58.10 59.83 59.16 61.48 57.29 53.49 53.21 49.77 47.25 48.79 46.16 48.70 56.44 60.15 60.52 59.45 55.92 61.24 64.06 64.11 63.80 64.86 65.60 66.22 66.39
54.72 54.37 54.31 54.12 53.75 52.88 52.88 53.80 56.04 58.06 58.55 61.33 60.70 53.99 58.97 55.90 58.66 59.46 59.21 58.52 56.55 56.25 54.71 54.46 52.84 49.85 48.91 46.36 42.21 45.07 46.26 49.32 54.41 57.83 60.16 57.40 57.03 60.69 62.61 61.48 62.71 64.07 64.76 65.05 65.48
54.41 54.04 53.83 53.46 52.92 52.21 50.46 48.38 50.77 50.18 55.41 55.78 54.85 55.58 54.85 58.90 61.12 59.20 59.45 56.61 54.56 51.38 47.98 51.67 47.53 46.19 47.81 49.01 50.06 50.60 49.91 49.68 55.84 59.65 58.37 58.04 57.25 58.43 59.47 59.11 59.77 62.71 63.51 64.18 64.97
54.12 53.75 53.60 53.19 52.52 51.65 50.43 48.96 50.68 50.99 45.98 51.13 51.32 53.79 58.89 59.50 56.69 58.32 58.75 52.33 50.76 47.42 49.86 48.80 46.40 50.36 52.40 51.93 50.48 50.28 49.33 49.81 57.78 59.59 57.59 58.05 57.50 58.64 60.22 60.27 60.58 62.13 62.93 63.72 64.58
53.97 53.33 53.12 52.61 51.56 51.87 48.31 48.90 53.41 52.42 43.77 46.89 49.80 49.66 50.37 53.35 53.17 56.06 56.31 53.13 50.67 48.87 50.01 47.38 48.43 53.07 51.79 50.18 49.69 49.54 48.57 50.15 55.44 58.63 58.96 57.12 55.48 56.16 59.23 61.50 62.46 62.70 63.93 64.37 64.47
53.78 53.14 52.71 51.70 50.07 48.10 48.61 54.96 54.71 52.87 38.73 44.74 47.61 50.02 50.87 51.42 50.92 58.38 58.45 55.53 53.14 50.11 50.93 49.21 52.23 51.77 50.21 48.68 50.12 46.61 52.55 53.59 56.38 54.51 49.69 57.68 49.70 55.02 57.94 59.86 61.37 62.19 62.23 63.39 64.33
53.78 53.12 52.01 51.34 46.82 46.84 52.18 54.00 53.53 50.17 32.63 51.43 50.48 54.96 51.28 48.31 52.16 54.55 60.08 55.73 51.41 50.76 49.84 48.20 50.28 49.69 48.64 49.08 50.71 49.01 53.82 53.34 52.96 53.10 53.72 53.98 50.67 53.29 58.88 58.46 59.60 61.97 62.29 63.09 64.11
53.48 52.67 51.83 49.06 48.37 50.38 52.64 52.84 50.92 38.25 33.89 47.92 52.50 49.22 47.73 48.46 49.95 53.26 55.00 55.85 56.08 51.84 50.89 50.49 54.16 52.18 50.56 51.80 51.34 52.24 51.52 51.61 51.39 50.24 44.55 52.44 51.41 50.30 53.11 59.28 61.02 62.25 63.31 63.73 64.12
52.17 50.95 49.91 50.19 44.60 52.04 51.34 49.01 36.49 34.08 49.12 49.02 48.75 50.66 48.44 46.27 47.72 49.03 49.35 49.06 47.52 45.76 45.76 48.91 49.86 52.34 53.36 48.26 50.19 49.40 45.73 42.77 41.82 43.18 41.68 52.30 51.14 52.63 56.75 59.44 63.13 62.82 63.06 64.23 65.11
50.92 49.42 49.95 51.85 52.76 51.41 49.23 41.25 32.90 44.26 43.73 49.80 50.07 51.44 48.18 49.74 47.75 48.20 46.93 46.33 49.62 48.91 45.95 44.45 42.80 49.50 52.56 49.51 46.26 46.77 45.59 42.77 36.28 40.51 43.64 49.25 48.02 52.44 60.17 61.46 62.71 64.08 63.63 63.56 63.94
50.07 48.34 48.10 51.18 53.70 52.06 44.97 35.25 37.74 42.90 47.16 45.62 45.82 45.52 47.81 50.84 50.13 47.94 47.02 47.15 48.60 49.49 44.85 44.83 45.27 52.34 52.57 52.81 50.14 45.56 44.52 47.70 42.06 45.71 42.67 46.71 49.82 55.60 60.07 59.27 60.73 60.82 61.88 62.19 63.66
46.48 45.29 46.69 53.52 55.21 49.98 41.97 36.68 41.49 46.55 46.27 44.78 39.57 44.75 41.90 43.80 44.87 48.39 46.74 49.46 49.88 50.96 50.93 48.18 43.05 50.66 52.37 52.88 51.70 48.18 47.87 43.50 44.96 38.65 39.25 45.22 46.21 48.85 55.89 56.82 59.57 60.25 60.96 61.92 62.55
45.69 42.84 49.61 52.68 52.72 46.50 37.32 39.10 42.84 47.05 47.30 44.12 43.13 42.44 43.08 43.06 44.23 43.64 45.97 51.01 52.33 51.87 51.65 49.36 47.20 47.68 51.28 48.55 47.15 45.76 45.68 44.27 44.28 45.33 39.93 39.61 45.39 51.91 55.97 58.57 59.48 61.04 62.03 63.63 64.27
44.05 36.81 49.83 51.30 41.36 43.64 39.70 42.94 44.49 45.09 47.55 45.83 46.17 44.60 43.43 44.45 43.10 43.90 43.59 46.39 54.01 54.39 49.28 50.49 47.39 44.08 46.66 51.88 52.47 50.54 46.43 44.09 41.98 38.53 42.85 43.64 44.76 54.79 57.67 60.71 61.47 61.49 61.99 63.47 64.57
39.68 40.35 48.62 48.07 35.03 37.86 42.54 43.10 44.40 43.46 44.27 44.03 43.37 45.59 46.55 43.97 41.17 44.79 46.33 50.33 50.76 49.60 51.62 50.83 47.35 41.62 43.75 47.53 50.78 48.51 49.30 47.35 45.97 42.63 41.98 39.57 44.80 54.37 55.50 59.70 61.78 61.33 61.59 63.14 62.90
41.23 34.78 42.00 44.68 43.90 40.34 38.54 39.78 40.13 45.17 43.38 44.78 42.61 45.28 44.73 43.23 45.72 43.34 45.13 49.55 50.61 49.90 59.43 56.79 48.60 45.41 42.13 44.71 47.24 46.76 48.85 49.07 46.51 42.88 41.32 43.66 43.96 50.04 54.50 56.99 59.05 60.01 61.27 61.54 62.80
42.62 37.05 40.53 34.38 37.81 38.18 39.79 38.66 37.14 36.89 42.73 43.42 40.61 41.05 40.54 38.85 40.95 41.89 45.17 44.46 47.86 52.02 51.21 46.53 44.67 48.03 48.10 49.60 50.08 49.22 49.61 49.24 46.89 46.69 43.12 44.34 45.49 48.61 51.78 57.46 59.07 59.36 58.94 60.15 62.23
39.27 37.61 40.02 37.13 38.77 37.30 37.86 37.23 36.69 38.57 39.58 37.86 37.89 40.80 41.46 38.11 39.32 36.59 39.47 40.22 40.83 45.92 43.89 44.78 44.57 47.90 46.39 49.78 49.27 48.01 49.80 49.95 49.42 49.06 48.07 48.03 47.68 51.26 52.83 59.91 59.53 60.51 60.19 59.87 62.03
46.06 46.15 41.45 37.04 36.29 35.02 35.43 37.49 37.49 39.74 40.94 42.24 40.85 39.39 38.34 40.88 43.04 43.08 43.45 43.20 43.17 41.67 41.95 42.23 42.38 44.04 41.92 47.83 47.14 44.30 47.88 48.96 50.35 51.22 50.07 46.56 48.71 51.88 52.09 54.60 57.74 60.08 59.51 59.73 60.32

GFSSW_sfc_wetblb_039.txt.gz
Wetbulb
56.55 56.38 56.25 56.22 56.40 56.66 56.93 56.95 57.06 57.19 57.32 57.49 57.52 57.57 58.12 58.82 58.21 56.55 48.35 55.14 60.01 76.86 76.53 72.33 70.40 69.78 69.65 65.47 67.41 65.42 57.14 53.59 55.96 56.86 59.48 64.65 62.97 65.97 67.13 64.17 65.28 66.66 65.01 66.99 69.38
56.38 56.15 55.92 55.98 56.03 56.24 56.24 56.40 56.80 56.99 56.89 56.92 57.03 57.19 57.79 58.70 54.72 51.89 59.34 67.92 70.87 75.74 71.07 68.37 66.55 67.70 65.21 62.16 62.16 60.17 54.41 55.24 60.21 60.43 61.35 64.20 63.57 63.78 63.20 62.91 64.15 64.44 66.97 68.52 68.97
56.11 55.79 55.70 55.62 55.77 55.88 55.98 56.06 56.12 56.29 56.33 56.41 56.69 57.07 57.79 58.13 48.74 48.16 70.71 68.66 73.11 74.11 70.78 70.25 69.05 67.92 61.29 61.62 60.76 60.41 55.84 58.99 59.98 61.54 63.42 63.89 63.24 65.25 62.14 60.27 63.56 62.49 64.90 67.26 67.87
55.54 55.41 55.34 55.51 55.56 55.68 55.78 55.84 55.81 55.72 55.83 56.16 56.46 57.01 58.03 54.28 41.20 51.42 74.93 72.21 72.22 69.43 68.59 66.18 66.81 61.65 58.02 58.90 61.63 57.01 60.79 60.81 60.52 61.40 63.47 62.80 64.55 63.42 63.01 62.88 66.45 66.16 66.94 67.34 67.08
55.32 55.16 55.13 55.17 55.12 55.23 55.35 55.48 55.34 55.28 55.50 55.90 56.24 56.66 53.69 48.62 47.59 53.10 73.15 71.79 69.01 62.85 61.04 58.24 61.30 57.75 51.31 55.79 60.64 58.65 60.53 62.05 63.28 61.52 61.79 65.25 63.25 63.24 63.31 66.34 67.61 67.40 67.60 66.83 67.27
55.33 55.67 55.89 55.89 55.59 55.51 55.68 55.63 55.44 54.93 55.31 55.96 56.26 56.47 49.59 39.33 50.78 55.25 63.48 65.03 64.43 60.82 56.78 57.27 55.59 55.07 52.19 52.23 57.86 60.54 61.04 61.35 62.80 61.84 62.62 63.26 63.32 63.44 64.29 67.21 66.55 66.43 66.46 66.93 67.41
55.97 55.69 55.54 55.60 55.75 55.51 55.20 54.79 54.85 54.84 55.45 56.50 56.74 54.94 51.70 44.51 52.23 53.10 59.54 59.94 63.18 59.64 56.81 58.36 57.12 54.85 52.01 51.55 60.01 59.88 56.58 59.54 60.61 60.54 59.48 61.73 58.66 61.01 65.06 66.57 65.39 65.36 65.91 66.81 67.45
55.84 55.56 55.51 55.37 55.31 55.02 54.40 54.10 54.30 55.40 56.81 58.30 57.98 54.32 44.99 55.56 55.02 53.26 53.53 51.03 60.54 59.11 54.77 58.40 57.71 53.55 51.91 53.36 52.67 49.66 51.13 46.88 52.70 59.05 60.25 59.08 52.11 61.95 65.31 64.88 64.38 65.04 65.66 66.27 66.74
55.55 55.36 55.20 55.01 54.69 54.01 53.33 53.51 54.94 56.44 58.28 58.62 53.98 50.74 44.59 59.24 55.92 56.50 52.92 52.12 54.77 56.42 55.83 60.59 55.45 51.02 50.70 48.02 43.57 43.34 41.79 45.04 47.82 58.20 57.55 56.85 53.41 61.94 64.98 64.39 64.06 64.60 64.94 65.77 65.84
54.99 54.78 54.58 54.42 53.86 52.95 52.66 53.60 54.15 55.93 58.49 58.22 58.23 47.96 51.22 50.55 57.49 56.10 53.32 54.52 53.50 55.04 55.32 53.27 50.19 46.27 44.03 42.83 39.73 40.98 41.49 41.85 45.54 55.48 56.74 53.78 53.47 61.88 63.58 63.59 63.80 64.39 64.99 65.47 65.12
54.89 54.33 54.00 53.68 53.06 52.06 50.44 46.31 44.47 43.23 46.84 48.84 50.08 50.40 51.71 54.78 58.15 56.65 54.03 52.11 51.30 50.90 47.07 48.56 45.56 42.91 44.65 45.34 45.97 45.92 44.01 43.76 47.30 50.61 54.71 54.53 54.81 60.30 62.53 62.56 62.77 63.54 64.22 64.70 64.66
54.42 54.07 53.78 53.41 52.10 52.01 46.38 43.84 44.97 43.75 38.43 46.73 46.84 47.66 52.09 53.24 50.35 53.18 54.14 49.43 47.75 44.36 46.64 43.55 43.99 47.45 49.07 47.71 46.48 44.98 43.53 43.06 47.84 55.57 54.38 54.19 54.30 60.38 61.69 61.83 62.33 62.61 63.27 64.15 64.27
54.09 53.76 53.31 52.47 51.76 46.30 43.61 44.06 48.11 44.49 36.60 42.74 46.38 46.41 47.14 50.17 48.60 50.17 51.99 49.67 46.88 44.28 44.04 43.70 44.67 49.06 48.28 46.45 45.39 43.44 42.97 43.38 44.52 52.87 55.52 54.25 51.68 56.27 61.10 61.39 63.11 63.83 64.26 64.52 64.41
53.90 53.57 52.85 51.67 44.21 44.36 43.38 47.08 47.19 46.68 33.84 40.54 42.23 45.40 47.51 49.93 46.63 54.17 55.16 51.10 46.91 45.84 44.46 43.15 47.62 47.40 45.86 45.94 46.94 40.95 47.14 47.49 46.87 46.26 43.76 53.67 44.17 52.24 56.68 57.84 60.20 62.28 63.38 64.01 64.47
53.59 53.23 52.01 51.22 42.67 41.92 45.09 46.97 48.39 40.96 30.71 47.96 44.38 49.55 45.77 45.63 46.27 48.82 55.20 50.12 46.30 45.95 44.59 43.03 44.79 45.13 44.90 46.64 47.87 45.63 48.77 46.95 46.76 43.80 42.31 47.27 44.76 48.75 55.58 54.26 56.43 59.15 62.55 63.84 64.85
52.92 52.22 51.54 46.37 42.97 44.52 46.66 46.36 41.62 35.09 30.17 43.66 46.88 43.50 42.63 43.50 45.30 49.56 50.23 51.07 50.56 46.61 45.74 46.59 49.27 47.69 46.98 49.03 49.29 49.41 46.32 44.04 42.84 41.35 38.96 44.67 47.21 48.50 50.85 54.93 56.75 58.11 60.81 63.58 64.44
51.55 50.39 49.58 48.63 40.74 44.56 46.03 41.57 32.38 28.74 42.86 42.36 40.78 43.78 42.36 40.32 43.38 46.98 46.34 45.89 44.74 39.87 41.25 44.13 45.56 47.49 49.30 45.07 46.44 45.50 39.86 35.24 32.90 34.05 37.08 42.66 44.30 49.27 52.99 57.43 58.74 59.05 59.37 62.15 64.35
49.96 49.29 47.77 47.17 45.16 45.79 41.60 34.95 26.14 38.01 37.21 43.47 42.64 43.32 41.47 43.09 41.37 43.21 46.34 45.16 47.90 43.88 42.62 39.85 38.74 46.14 48.32 46.45 44.01 42.97 42.66 33.33 29.43 31.05 36.39 40.80 40.54 46.69 55.68 58.12 60.49 61.33 61.17 61.60 62.83
49.38 44.18 41.31 42.93 46.55 44.05 36.50 27.69 29.86 34.49 41.25 40.27 41.13 39.41 37.85 41.45 41.94 42.10 39.92 46.29 48.48 46.35 41.47 40.01 40.69 48.24 49.84 48.79 48.33 42.29 40.59 43.78 34.94 35.26 34.45 38.90 44.41 51.16 55.16 56.20 57.79 59.39 60.52 60.85 62.06
43.95 39.36 39.45 45.67 45.85 41.04 33.66 30.62 33.09 41.07 42.04 41.19 35.29 38.59 34.34 37.60 38.41 38.57 38.66 43.07 43.95 50.29 45.00 43.25 38.43 45.53 48.11 48.86 47.83 46.40 43.65 37.82 32.60 32.80 33.24 35.22 39.57 42.84 50.11 53.87 55.25 57.86 60.01 61.34 62.81
39.20 34.75 41.41 43.81 41.28 36.61 29.38 30.81 37.06 42.59 42.70 39.14 37.00 35.78 36.12 36.65 37.62 36.88 38.19 43.52 45.87 45.57 45.08 40.04 39.69 41.59 46.09 43.69 44.42 41.28 42.06 38.73 39.47 35.52 36.07 31.08 38.47 46.57 49.77 52.97 54.34 56.81 60.63 62.09 62.95
35.44 30.25 41.66 43.05 31.52 30.87 31.48 36.35 41.10 40.40 43.07 40.32 40.80 39.06 37.14 38.61 36.40 36.34 37.49 41.29 46.21 45.62 41.16 42.67 36.00 40.45 43.42 45.72 49.58 47.75 44.68 42.19 36.83 34.70 35.57 39.83 39.09 48.03 50.92 51.40 54.70 56.74 59.22 62.33 64.08
33.35 32.76 41.66 41.26 31.22 30.00 34.75 38.15 40.37 38.45 39.12 39.13 38.24 39.78 40.04 36.77 34.12 39.43 40.98 45.81 45.11 42.65 41.87 44.05 35.91 33.04 36.37 39.59 42.23 43.22 44.23 44.76 43.25 36.67 40.15 35.54 37.60 46.97 49.37 51.90 54.36 56.25 57.49 59.77 62.98
34.95 31.34 33.54 37.53 36.95 33.14 31.27 33.94 34.43 41.14 39.55 40.40 39.18 41.07 38.33 36.36 38.43 36.68 38.53 43.69 44.16 43.57 49.48 42.86 34.85 34.90 35.99 36.62 41.28 40.37 44.14 45.24 42.99 38.57 40.24 41.90 39.89 43.39 47.13 48.69 52.33 56.44 57.80 58.46 61.02
34.96 34.01 32.43 28.50 31.64 32.63 35.40 34.52 34.38 33.54 39.43 39.60 35.22 37.07 36.80 31.00 34.05 35.07 38.68 38.73 41.68 45.30 40.92 37.91 32.43 35.63 39.18 41.94 43.51 43.00 44.72 45.67 41.51 44.13 41.01 43.32 41.76 44.44 46.00 49.37 51.60 54.65 57.27 58.74 59.56
37.82 36.06 37.91 34.69 35.21 30.97 31.28 32.88 33.59 33.99 35.57 36.38 34.71 35.85 35.79 33.03 34.94 32.81 35.69 33.77 34.79 38.85 35.74 36.72 34.17 35.87 36.86 43.01 44.24 43.12 44.81 46.32 46.43 46.09 43.87 41.62 41.56 45.83 48.39 47.35 48.57 51.60 55.97 57.71 59.22
43.99 43.42 39.62 36.33 34.98 31.17 29.66 31.14 32.53 35.03 37.68 38.87 37.27 35.55 33.98 36.17 38.94 38.58 39.00 38.04 38.03 34.96 33.36 33.29 33.77 33.47 31.66 39.61 39.92 39.15 43.93 45.40 46.15 46.82 46.56 41.51 43.68 46.34 45.95 46.87 47.82 49.10 51.96 57.41 59.67

GFSSW_sfc_wetblb_042.txt.gz
Wetbulb
56.52 56.37 56.11 56.21 56.47 56.66 56.91 56.98 57.06 57.25 57.21 57.33 57.31 57.34 57.63 58.24 57.95 55.77 48.27 53.52 56.23 76.12 75.58 72.02 69.81 69.40 68.69 66.04 67.21 65.35 54.54 52.35 55.57 55.95 58.14 63.93 62.31 65.27 66.03 63.07 64.57 65.56 64.25 65.93 68.68
56.24 56.11 55.94 56.00 56.09 56.11 56.36 56.39 56.56 56.87 56.74 56.65 56.83 57.11 57.38 58.28 53.85 50.54 58.48 65.43 69.03 77.03 71.14 68.28 65.73 67.83 63.71 62.07 62.32 58.92 53.30 54.42 59.95 60.04 59.90 63.37 62.83 63.09 62.46 61.65 63.04 63.61 66.65 67.95 68.31
56.03 55.82 55.75 55.58 55.84 55.84 55.88 55.92 56.00 56.08 56.19 56.41 56.62 56.85 57.11 57.45 46.78 46.55 67.78 67.23 73.75 75.95 70.74 69.19 68.11 66.56 62.25 59.90 59.99 59.29 55.15 58.25 59.44 60.85 63.33 63.40 62.46 63.85 61.57 58.69 62.36 62.18 64.56 66.99 67.29
55.96 55.72 55.59 55.61 55.66 55.70 55.70 55.58 55.64 55.65 55.88 55.93 56.31 56.65 57.09 53.52 40.88 55.76 74.19 68.79 76.20 72.27 69.44 67.65 66.10 62.97 58.93 59.13 60.51 56.59 60.10 60.07 59.84 60.77 63.65 62.33 63.72 62.54 61.92 61.06 65.81 65.55 66.45 66.73 66.18
55.84 55.80 55.69 55.50 55.60 55.51 55.69 55.46 55.57 55.15 55.45 55.77 56.17 56.42 52.63 46.11 45.79 67.79 72.76 70.88 73.97 68.03 67.21 65.74 63.41 61.00 56.24 58.39 60.02 58.50 60.15 61.30 62.37 60.55 63.46 64.14 63.03 62.70 61.60 65.65 65.87 66.37 66.55 65.90 66.15
55.88 55.97 55.96 55.60 55.56 55.72 55.97 55.76 55.64 54.96 55.12 55.82 56.33 56.13 47.58 37.22 48.28 53.25 64.57 67.01 70.18 64.46 64.78 63.51 64.70 61.11 52.69 51.24 57.68 59.97 60.23 60.51 61.14 60.71 61.41 62.28 62.42 63.00 63.07 65.81 65.22 65.51 65.34 65.97 66.31
55.76 55.81 55.73 55.77 55.18 55.65 55.61 55.20 54.67 54.66 55.34 56.37 56.53 54.10 50.48 42.42 50.76 53.24 63.94 61.86 66.20 61.50 58.59 57.47 59.01 60.28 53.13 48.48 54.90 58.18 54.32 56.60 59.58 59.09 59.08 63.50 59.01 60.12 64.34 65.65 64.37 64.69 65.28 66.02 66.50
55.10 55.14 55.42 55.46 55.26 55.08 54.54 54.10 54.48 55.58 56.95 57.40 57.49 52.47 42.39 52.69 54.13 52.61 57.27 57.67 62.08 59.36 55.22 56.87 56.54 58.73 50.52 51.53 51.01 50.83 52.63 48.41 54.27 56.37 58.96 60.42 54.80 61.91 64.69 64.68 63.41 64.53 65.23 65.66 66.31
55.21 55.01 55.05 55.01 54.50 54.00 53.18 54.04 55.46 58.63 59.08 58.81 52.02 49.24 42.86 57.47 53.85 53.13 51.54 51.67 58.47 56.20 55.42 59.62 55.04 49.86 49.73 46.15 43.24 42.44 40.88 44.12 47.43 54.10 55.65 57.93 52.99 58.63 64.54 64.05 63.08 63.72 64.56 65.41 65.90
54.76 54.53 54.31 54.19 53.92 52.84 52.66 53.56 54.48 57.89 57.10 56.95 56.30 47.10 49.81 49.44 55.21 55.11 51.44 52.08 51.02 54.38 54.32 52.49 48.41 45.41 42.90 42.20 38.65 40.59 40.28 41.35 45.14 51.09 55.18 53.14 53.21 59.10 63.06 63.35 63.00 63.22 63.93 64.72 65.25
54.57 54.20 53.96 53.42 52.87 51.95 50.08 44.49 42.23 41.80 42.75 48.78 48.52 48.69 51.01 52.90 55.11 53.48 52.46 51.21 52.35 50.30 45.73 48.19 44.13 41.02 44.16 44.34 45.20 45.90 43.40 44.05 46.05 49.17 52.94 51.95 52.64 58.76 61.87 62.68 62.38 63.00 63.10 63.72 64.59
54.18 53.77 53.55 52.97 51.97 51.58 44.87 42.42 42.34 41.93 36.92 45.16 44.60 46.14 51.46 49.96 48.58 51.10 52.43 47.46 47.08 44.01 46.63 42.36 43.31 47.22 47.95 46.95 45.94 44.33 42.64 42.48 45.17 48.54 50.55 50.55 52.16 59.27 60.99 61.75 62.89 63.08 63.65 63.71 64.41
53.63 53.24 52.76 52.05 51.48 45.17 42.43 43.14 45.74 41.95 34.89 41.27 44.39 44.90 45.93 47.79 46.19 47.96 50.32 47.40 45.54 43.16 46.31 44.64 44.22 49.35 47.51 44.90 44.78 42.26 42.74 42.11 43.43 49.63 53.30 52.34 49.90 56.09 60.27 61.23 62.67 64.06 64.70 64.97 64.88
53.40 53.01 51.83 51.09 43.66 42.98 40.97 43.85 44.71 44.38 31.75 39.46 40.91 44.58 47.05 46.74 43.72 51.82 52.41 49.29 45.81 45.88 43.11 42.74 47.87 48.75 44.96 44.82 45.42 38.75 45.72 46.10 45.41 43.28 39.46 52.24 43.35 50.30 57.32 58.83 60.42 61.34 63.38 64.30 64.96
53.38 52.66 51.27 50.76 41.66 40.55 43.06 45.39 45.93 38.37 28.98 45.92 41.63 47.62 45.90 44.44 44.76 47.26 53.31 48.70 44.63 44.62 43.73 42.78 44.30 44.53 45.67 46.53 46.68 44.01 47.35 45.73 45.42 42.50 39.65 43.35 43.90 47.03 55.56 56.14 58.30 60.67 61.98 63.48 64.91
53.02 52.29 51.05 45.32 41.78 43.64 44.72 44.51 39.36 34.02 28.56 42.15 45.03 42.32 41.67 42.82 43.59 48.09 48.82 49.94 49.11 45.20 44.02 44.53 46.84 47.35 45.28 47.27 47.96 48.43 44.59 41.81 40.51 39.46 35.83 41.09 42.18 41.79 49.66 55.76 58.64 61.09 62.78 63.73 64.42
51.76 50.62 48.83 47.69 39.69 44.04 44.27 38.95 31.21 28.13 41.07 40.04 39.18 42.01 40.82 40.25 41.65 44.63 44.29 45.14 42.95 38.12 38.84 42.29 44.33 45.67 46.94 43.53 44.78 45.49 39.10 32.31 31.76 32.42 35.82 40.89 42.08 45.51 52.53 57.12 59.26 60.19 61.68 63.37 65.02
50.16 48.99 45.85 45.97 44.93 43.32 39.76 34.08 24.54 36.07 35.36 41.70 41.34 41.76 39.31 40.54 39.60 41.81 42.41 43.41 44.78 42.43 40.78 37.48 36.42 44.17 46.16 43.87 41.83 41.91 39.97 32.26 27.87 28.52 37.27 39.01 38.32 43.45 52.78 57.85 59.66 60.77 61.84 62.40 63.47
49.38 41.76 40.68 42.45 45.64 42.22 35.42 25.82 27.17 32.73 39.10 38.50 39.01 37.22 36.13 40.08 40.13 39.71 38.00 42.14 46.01 42.92 39.61 37.12 38.68 46.34 46.97 47.31 46.53 39.80 39.04 41.56 33.97 32.85 32.08 36.33 40.82 48.46 51.94 52.66 56.68 58.73 59.98 60.10 61.25
42.89 40.04 38.39 44.38 42.90 39.75 32.91 28.95 31.34 39.08 40.31 38.92 32.93 36.96 32.78 35.79 36.70 36.04 37.27 41.39 42.03 45.41 43.37 40.69 36.78 44.07 46.64 47.35 47.06 42.75 44.35 37.28 33.06 30.25 28.58 33.61 36.33 40.66 47.96 50.68 53.34 54.91 58.18 60.11 60.88
37.44 33.87 39.69 43.67 40.81 35.30 25.57 28.98 35.33 40.42 41.31 36.52 34.89 34.32 34.31 35.01 35.80 35.43 36.58 41.28 43.72 43.11 44.29 38.87 38.22 39.91 43.79 42.90 43.73 40.27 38.25 36.48 39.43 33.87 32.30 29.58 35.40 44.07 48.49 51.11 52.19 54.57 58.36 59.83 60.56
34.05 28.97 39.90 41.26 30.88 30.00 31.66 33.51 40.02 39.26 40.74 38.93 38.81 37.53 35.79 37.08 34.98 35.28 36.35 39.13 44.15 42.58 39.65 41.68 33.36 36.27 39.68 44.15 48.30 47.62 44.02 37.41 37.82 32.76 33.46 33.44 37.27 46.01 48.28 51.23 53.08 54.22 56.71 59.15 61.18
32.82 34.26 40.37 39.66 26.05 27.42 31.94 35.83 37.93 38.81 37.28 37.34 37.03 38.50 38.56 35.58 32.10 38.07 39.77 43.55 43.82 42.28 40.61 41.71 34.24 31.01 35.04 41.14 42.38 41.28 43.22 39.99 38.03 35.19 39.43 34.15 37.32 47.32 47.08 48.62 50.27 52.89 54.76 57.44 59.49
33.78 28.20 32.56 35.02 32.90 29.71 29.58 31.22 33.10 39.34 39.42 39.69 38.62 40.13 37.27 35.17 37.00 34.79 36.86 42.72 42.80 43.63 47.56 42.04 33.55 32.20 31.90 35.04 38.72 37.64 43.15 42.93 42.41 37.94 39.78 40.74 39.23 44.13 46.65 46.38 49.25 52.13 54.87 56.26 58.10
33.57 30.28 32.65 27.57 30.86 32.57 30.68 32.01 32.52 32.41 37.57 40.24 37.21 35.48 34.15 29.58 32.34 33.22 37.27 37.20 40.34 43.22 39.49 36.72 31.84 34.01 36.39 39.68 41.06 40.97 41.61 42.85 42.27 43.05 39.58 42.00 41.77 44.00 46.31 48.15 50.48 50.67 55.10 57.78 58.61
35.08 36.46 37.72 34.40 35.60 34.14 32.38 28.60 32.47 32.67 33.69 33.62 34.56 35.79 35.15 30.67 32.21 30.81 33.65 32.32 33.40 36.91 34.09 34.14 31.91 33.74 34.65 40.88 41.54 40.08 42.48 43.42 43.44 43.58 43.93 43.08 42.13 46.45 48.46 48.08 49.43 51.27 53.38 56.16 57.84
43.62 43.66 38.83 34.12 34.00 32.81 30.88 30.70 32.55 33.70 35.70 38.39 36.62 34.37 32.97 34.53 37.04 37.13 37.28 36.93 36.81 33.25 32.54 31.45 31.60 32.32 30.22 37.87 38.07 36.14 41.65 43.47 43.48 44.30 44.68 41.71 44.87 46.99 46.43 46.88 48.46 50.42 50.61 53.68 57.32

GFSSW_sfc_wetblb_045.txt.gz
Wetbulb
56.77 56.60 56.41 56.32 56.43 56.58 56.77 56.84 56.82 57.05 57.19 57.29 57.44 57.30 57.59 58.17 57.70 56.57 51.13 56.51 58.32 74.90 72.63 71.66 70.79 70.40 71.36 68.60 68.24 66.18 60.48 56.59 57.57 58.22 60.87 66.03 64.28 66.34 67.52 64.95 65.36 66.90 66.34 68.07 69.68
56.65 56.62 56.37 56.22 56.30 56.35 56.54 56.68 56.79 56.60 56.65 56.68 56.88 57.15 57.29 57.76 54.59 52.34 60.31 64.34 67.79 75.16 70.11 68.17 65.84 68.35 65.63 66.24 66.54 64.07 60.15 57.93 61.47 62.56 62.91 65.16 65.69 65.33 64.45 63.56 64.01 65.49 67.89 68.84 69.44
56.62 56.39 56.15 55.96 56.11 56.34 56.48 56.54 56.57 56.44 56.54 56.46 56.48 56.94 57.21 57.24 50.78 50.47 66.36 66.35 71.55 74.25 70.90 69.17 68.56 66.65 63.26 64.79 63.69 62.77 58.89 61.05 61.67 63.54 65.25 65.58 65.30 66.64 64.07 61.62 64.55 64.49 66.15 67.49 68.25
56.17 56.04 55.90 56.03 56.02 56.06 56.06 56.23 56.16 56.25 56.34 56.21 56.37 56.71 57.03 55.30 44.80 58.79 74.17 68.69 73.67 72.17 69.78 68.30 67.11 63.64 62.19 60.38 63.56 58.89 61.93 62.44 62.89 63.86 64.26 64.58 66.60 64.78 64.55 63.19 66.77 67.78 67.85 67.65 67.55
55.52 55.60 55.53 55.55 55.66 55.79 56.07 56.48 56.25 55.74 55.98 56.10 56.29 55.97 54.60 50.03 47.13 65.99 69.36 69.22 73.53 70.49 67.14 66.10 64.70 64.12 61.07 63.21 62.10 59.70 61.77 63.57 64.58 64.53 63.60 66.76 64.24 65.26 64.54 67.29 68.36 67.99 67.71 67.44 67.79
55.02 55.39 55.59 55.65 55.66 55.82 56.02 55.68 55.61 55.15 55.58 56.01 56.13 55.41 50.76 41.56 50.89 61.07 64.30 69.18 69.62 68.18 65.98 66.59 64.89 66.20 63.05 61.57 62.35 62.90 63.11 63.34 63.18 63.12 64.77 64.43 64.84 65.37 65.67 67.36 66.81 66.99 67.07 67.70 67.70
55.06 55.31 55.57 55.43 55.30 55.51 55.44 54.94 54.97 55.05 55.46 56.05 56.37 54.27 50.51 46.81 55.35 57.89 66.27 68.13 69.04 66.85 64.33 66.40 67.29 65.41 61.18 54.66 61.50 59.72 56.80 57.87 60.48 62.50 62.31 65.78 62.06 62.81 66.39 66.99 65.65 66.04 66.98 67.49 68.09
55.00 55.42 55.32 55.29 55.02 54.71 54.24 54.08 55.65 58.39 56.99 56.66 57.30 53.91 47.34 53.58 55.77 53.70 64.46 64.51 69.69 67.81 64.76 66.75 67.94 65.96 57.81 56.43 54.20 54.97 56.52 53.75 58.89 61.83 62.49 63.67 57.37 64.25 66.86 65.84 64.97 65.59 66.21 66.80 67.84
54.89 54.97 54.81 54.60 54.11 53.39 52.84 53.86 57.76 59.93 59.28 58.18 53.94 52.32 46.76 58.81 52.55 53.45 62.31 59.38 64.51 64.59 62.87 64.36 62.76 59.39 55.86 54.54 51.34 51.05 50.25 52.17 54.78 60.42 60.21 62.02 58.08 63.45 67.04 66.24 65.14 65.22 66.10 66.48 67.35
54.43 54.25 54.02 53.65 53.05 52.32 52.72 52.72 57.19 58.54 57.48 57.60 55.20 49.32 51.67 50.88 55.50 53.68 55.77 61.19 60.47 60.04 57.68 56.20 56.90 54.04 52.17 51.36 44.98 47.81 48.55 50.50 52.24 55.72 58.34 59.62 58.41 60.76 66.09 66.10 65.56 65.41 66.20 66.51 66.88
54.49 54.10 53.57 53.07 52.32 51.46 50.89 50.89 47.65 47.82 46.82 51.95 52.59 50.27 53.23 55.30 58.92 54.55 53.98 57.39 56.83 56.66 50.55 53.38 49.41 46.91 49.62 51.21 51.22 49.99 49.97 51.34 53.67 55.05 56.50 56.29 56.74 59.47 64.72 65.70 65.51 65.72 65.88 66.26 66.78
54.16 53.85 53.34 52.66 51.73 51.54 49.84 46.08 43.70 44.70 39.67 47.69 46.03 48.38 53.28 53.22 50.44 53.16 53.30 52.51 50.75 48.17 51.55 49.33 46.59 50.67 51.42 50.71 49.46 48.94 48.35 50.37 52.01 52.14 52.75 53.92 55.28 59.46 63.55 64.72 65.92 65.54 65.75 66.09 67.02
53.61 53.40 53.03 52.18 51.41 48.26 46.21 45.73 48.84 47.78 40.55 44.82 46.67 47.02 48.81 50.48 49.02 51.31 51.07 50.34 48.93 46.85 47.83 46.94 48.62 51.34 50.32 49.21 47.92 47.88 47.16 49.21 50.24 51.06 55.82 55.04 53.75 57.89 62.62 65.03 66.25 66.83 67.14 66.60 67.36
53.32 52.97 52.13 51.09 47.21 46.11 45.21 47.56 48.74 47.79 38.99 43.41 44.23 47.42 48.39 50.47 47.55 53.64 53.83 51.01 49.49 46.81 47.89 47.65 51.17 49.45 48.73 48.17 49.32 45.72 49.54 49.07 49.84 49.49 47.27 56.36 48.39 56.02 60.59 62.05 64.11 65.78 66.53 66.97 67.38
53.05 52.35 51.43 50.44 46.14 44.63 46.70 48.94 49.29 45.51 33.18 46.36 44.58 51.06 49.69 48.86 48.39 49.37 54.54 51.98 48.35 48.72 49.33 47.13 48.43 48.58 47.71 48.19 50.71 47.69 50.36 49.42 49.51 49.55 48.89 49.92 48.81 52.92 59.29 59.71 61.85 64.52 66.24 67.38 68.32
52.27 51.77 51.23 47.65 47.02 47.88 48.49 48.04 46.12 38.08 32.70 44.38 46.39 45.04 45.62 47.54 47.40 50.63 50.95 53.99 52.82 49.85 50.05 49.65 51.29 51.41 50.87 51.43 51.49 52.41 50.03 49.32 48.74 48.72 43.75 48.88 48.44 50.50 55.36 59.53 62.41 64.43 66.04 67.27 68.32
51.35 50.30 49.32 48.78 43.70 48.85 47.43 45.32 37.74 33.47 43.87 41.33 42.31 45.03 44.65 44.56 44.81 47.30 47.46 47.68 47.25 44.10 44.86 48.12 47.58 51.14 52.15 49.52 51.43 50.46 47.91 42.49 41.04 41.35 41.73 50.32 46.94 49.91 55.06 59.90 62.58 63.87 65.33 66.77 68.08
49.79 48.92 46.63 48.18 49.06 47.44 46.86 40.25 31.56 37.44 38.04 43.09 42.77 43.73 42.36 43.94 44.28 44.86 46.50 45.66 50.30 48.86 46.36 43.58 41.54 47.75 50.60 49.94 47.66 48.54 47.49 42.67 38.10 39.72 42.79 48.07 45.03 49.72 55.77 57.27 61.90 63.26 65.53 67.04 67.45
49.05 46.45 46.49 48.18 48.23 47.47 42.88 32.34 34.14 36.62 39.13 38.18 41.25 40.01 40.39 42.20 42.50 43.64 44.36 46.48 49.25 49.45 45.79 44.20 44.25 49.72 49.83 51.44 50.95 47.92 45.92 49.33 44.66 43.58 42.47 45.99 49.11 52.65 55.64 56.66 58.08 62.42 63.96 65.24 66.92
45.48 42.58 43.81 47.51 47.15 46.94 39.29 32.54 35.82 40.56 41.58 40.68 35.35 38.89 36.46 39.39 40.72 41.73 43.06 43.88 45.66 47.39 48.54 47.80 43.77 49.02 49.41 50.95 51.21 49.16 50.73 43.13 45.33 38.92 37.99 43.02 44.75 47.22 53.36 54.80 57.82 59.78 62.60 64.34 66.13
43.25 39.86 45.53 47.51 46.94 42.37 33.35 33.89 36.70 41.89 42.71 39.50 37.45 36.74 38.23 37.89 40.08 40.10 40.43 42.92 44.87 45.70 49.03 47.35 46.77 46.10 48.98 47.15 46.72 46.16 46.59 47.27 47.07 44.96 40.65 39.63 43.59 52.70 54.94 57.46 57.21 58.94 62.11 63.47 64.58
40.84 35.83 46.00 46.71 37.14 37.15 33.82 35.29 39.56 40.03 42.81 40.82 41.70 40.27 38.94 39.54 38.76 39.78 39.50 41.89 45.46 47.29 43.98 46.45 44.88 45.07 46.10 50.67 51.81 49.73 48.24 47.97 43.49 42.56 43.99 44.18 44.25 52.79 55.44 57.63 58.81 59.34 60.96 62.65 64.40
38.34 37.35 46.00 45.45 31.86 32.60 35.69 35.38 38.24 38.21 39.27 39.49 38.55 41.07 41.80 39.26 36.72 40.15 41.38 44.44 44.74 45.89 43.56 45.87 43.21 42.36 44.46 48.08 49.35 47.98 49.21 49.33 48.75 48.34 45.32 41.29 43.90 54.45 55.15 55.37 56.49 58.48 60.41 62.42 64.32
40.08 34.44 39.85 40.40 39.17 34.13 32.62 33.15 33.75 39.83 38.34 39.82 38.74 40.22 39.38 38.39 41.06 37.92 39.26 42.80 43.80 45.40 47.54 46.79 43.06 42.82 42.66 44.77 45.29 44.56 47.31 48.92 47.86 44.90 45.49 45.98 47.19 51.21 53.26 54.27 56.56 57.80 59.44 60.45 63.71
41.00 36.19 37.85 32.61 34.77 35.32 35.31 34.00 32.92 33.12 37.36 38.62 35.99 36.42 34.51 34.45 35.79 36.69 39.00 39.86 42.01 44.22 43.66 44.12 38.92 40.82 42.13 42.99 43.94 44.01 44.35 45.80 45.91 48.23 46.30 47.97 48.97 51.25 53.22 55.53 58.03 59.29 59.86 60.03 61.88
39.57 37.72 38.71 34.65 36.75 34.37 34.65 32.65 32.62 34.54 34.74 33.70 35.07 35.52 35.31 33.11 35.22 34.42 37.45 38.09 37.64 42.00 40.78 42.47 38.48 40.78 39.03 42.71 43.59 42.74 45.08 45.87 46.09 46.77 47.02 47.85 48.27 54.33 55.99 57.23 57.57 58.77 59.57 60.41 61.20
45.86 45.32 38.68 35.32 34.89 32.78 33.44 33.43 34.04 35.75 36.83 38.38 36.72 34.85 33.92 36.42 39.18 40.36 41.38 41.66 40.77 39.11 38.20 38.74 38.64 38.03 35.87 41.25 42.07 39.91 44.47 46.04 46.99 48.54 48.33 45.71 50.43 54.01 53.79 54.69 57.59 59.03 60.31 60.42 61.64

GFSSW_sfc_wetblb_048.txt.gz
Wetbulb
57.24 56.92 56.88 56.81 57.00 57.17 57.43 57.49 57.70 57.62 57.75 57.73 57.43 57.46 57.79 58.07 58.03 59.51 54.51 60.05 61.40 69.01 72.11 69.62 69.25 70.69 72.23 70.29 70.49 69.71 62.60 59.78 59.91 61.05 63.33 68.12 66.34 68.27 69.03 67.01 67.51 68.66 68.84 70.49 71.72
56.69 56.62 56.60 56.55 56.75 56.75 56.85 57.04 57.13 57.13 57.34 57.29 57.23 57.23 57.49 57.87 57.47 55.18 63.74 68.14 66.92 71.14 66.77 67.54 66.57 68.99 68.16 68.01 68.59 66.75 63.31 60.58 64.13 65.18 65.02 67.35 67.04 67.53 66.13 65.76 66.02 67.50 70.35 71.21 71.73
56.24 56.30 56.29 56.19 56.37 56.35 56.43 56.47 56.54 56.61 56.80 57.07 57.07 57.14 57.39 58.14 54.73 53.70 68.12 67.73 71.12 73.20 66.06 69.28 67.86 68.31 64.77 67.28 67.08 66.16 62.64 63.70 63.75 65.39 66.75 67.41 67.13 68.67 65.93 63.73 66.80 66.50 68.42 70.01 70.83
55.92 55.89 55.87 55.72 55.88 55.86 55.96 56.38 56.10 56.21 56.36 56.51 56.76 56.78 57.11 58.28 47.64 60.64 73.14 67.97 73.21 67.98 67.22 67.63 67.04 64.68 62.88 62.94 66.78 62.91 65.37 64.84 64.84 65.90 65.57 65.91 68.23 67.08 66.88 65.32 68.77 69.67 70.21 70.12 69.95
55.55 55.33 55.40 55.60 55.43 55.73 56.25 56.33 56.15 55.59 55.80 56.25 56.42 56.52 57.22 53.72 51.61 65.27 69.24 68.43 71.58 67.17 65.63 66.07 64.68 63.31 60.75 63.35 64.36 63.56 64.74 65.81 66.52 66.14 65.62 66.77 66.39 66.82 66.92 68.27 69.69 70.19 69.96 69.57 70.04
54.84 55.44 55.61 55.67 55.60 55.93 55.84 55.30 55.39 55.07 55.96 56.34 56.24 56.20 54.94 48.56 55.64 55.64 62.89 64.57 67.31 66.85 65.20 66.83 64.92 64.71 63.01 63.52 63.19 64.12 64.72 65.28 65.71 64.77 65.29 65.90 66.28 67.52 68.29 69.61 69.08 69.12 69.13 69.86 70.04
55.32 55.43 55.35 55.47 55.44 55.53 55.17 54.83 54.45 56.39 58.54 56.85 56.69 56.82 53.93 53.58 56.11 56.91 62.83 64.18 67.82 66.95 63.69 66.49 66.92 64.50 63.21 62.05 64.50 64.22 61.36 63.39 62.76 63.65 64.60 66.87 64.40 64.95 69.24 69.60 68.13 68.41 69.06 69.43 70.26
54.96 55.36 55.46 55.30 55.19 54.71 54.21 54.16 55.61 59.92 57.79 56.99 57.60 56.91 53.36 57.93 59.00 58.72 62.59 64.25 67.76 67.15 64.53 65.04 66.57 65.33 61.77 60.10 57.74 57.75 58.47 56.21 61.78 63.01 64.26 65.41 59.45 65.99 69.56 68.77 67.76 68.12 68.34 68.81 69.90
55.01 55.09 54.99 54.91 54.48 53.88 53.05 54.07 58.74 59.14 58.43 58.31 57.17 56.18 53.20 57.91 52.74 57.12 63.08 63.52 65.89 65.26 64.65 65.01 64.96 62.41 63.34 57.91 55.01 55.49 54.44 56.00 59.01 63.42 63.07 63.48 60.51 65.47 69.29 68.81 68.05 68.16 68.44 68.41 69.28
54.39 54.19 54.12 53.98 53.63 52.82 52.68 53.98 59.16 59.05 59.51 60.24 58.34 52.33 55.25 53.55 56.10 54.41 63.30 62.83 64.28 64.06 61.02 61.96 61.57 57.62 58.81 56.97 50.23 52.86 53.28 56.81 57.79 60.46 61.58 61.40 61.12 63.05 67.38 67.79 67.97 68.33 68.67 68.40 68.48
54.29 53.83 53.63 53.24 52.91 52.07 52.79 54.95 53.71 54.16 51.91 54.64 56.84 54.47 55.49 57.35 58.64 53.13 60.69 60.98 63.71 59.99 53.65 57.49 54.14 50.93 52.72 54.85 54.81 55.71 54.69 54.70 57.96 60.86 59.22 59.42 60.08 61.37 63.82 67.04 67.23 68.23 68.54 68.63 68.44
53.92 53.57 53.17 52.82 52.21 52.04 54.90 49.97 46.77 47.08 43.30 50.75 51.06 52.12 58.55 57.92 55.01 53.44 59.50 56.77 57.90 53.34 54.16 52.43 50.49 53.83 54.76 53.40 53.06 53.61 52.70 53.87 57.73 58.32 57.12 58.41 58.41 60.55 62.10 65.79 67.19 68.22 68.65 69.13 69.44
53.55 53.07 52.66 52.21 51.66 52.92 51.48 49.05 53.09 52.12 44.68 49.24 51.92 51.21 51.77 54.22 53.72 53.99 56.62 55.54 54.99 53.18 52.63 50.46 51.49 53.76 52.77 53.09 51.80 52.60 52.43 53.10 54.43 57.01 57.40 56.55 55.81 58.31 61.60 64.73 66.93 68.57 69.64 69.92 69.81
53.40 53.05 51.92 50.74 51.74 51.91 49.79 52.97 53.82 52.42 43.02 46.66 47.51 50.82 52.00 54.54 51.50 57.87 54.69 55.08 53.28 52.18 52.62 51.90 53.42 52.02 51.65 50.86 52.19 49.90 53.76 53.44 52.90 52.99 51.38 57.44 51.20 57.87 59.85 62.27 64.79 66.98 68.56 69.36 69.96
53.42 52.49 51.36 50.41 51.06 49.29 50.63 53.45 53.37 51.12 36.21 48.69 48.44 54.33 52.94 51.94 54.32 53.67 57.54 54.77 50.93 50.79 52.68 50.45 51.27 50.63 50.20 50.62 52.58 50.73 54.09 52.67 52.51 51.81 52.18 53.21 51.48 55.22 59.91 59.33 62.94 65.76 67.92 69.16 70.42
52.76 51.71 50.66 51.62 52.89 51.86 53.45 53.42 51.84 41.09 35.68 46.54 48.09 47.54 47.93 50.48 51.43 53.99 54.37 53.91 53.32 51.39 52.27 51.52 54.10 52.85 52.41 52.96 52.78 53.04 52.08 52.15 52.13 51.17 46.73 51.50 51.93 52.78 56.00 59.60 61.83 65.13 67.43 68.93 69.74
51.43 50.33 51.38 52.25 48.49 53.45 53.21 50.56 39.80 36.31 46.14 44.38 45.72 48.06 48.39 48.44 49.53 50.54 50.56 50.11 49.39 46.22 46.69 49.93 50.65 53.16 53.72 51.44 53.35 51.88 50.00 45.15 43.85 44.44 44.87 52.93 51.35 53.58 57.53 59.81 62.22 63.21 65.73 68.64 70.25
49.90 48.88 50.62 52.14 53.56 53.13 50.96 43.65 33.51 40.35 41.94 45.98 45.14 46.37 45.69 48.02 48.46 48.93 49.17 48.49 51.66 50.90 49.49 46.62 44.83 50.61 53.58 52.23 51.03 50.36 50.09 45.57 42.11 43.78 46.25 52.13 48.69 53.01 58.93 60.47 60.76 63.95 65.14 68.75 69.68
49.16 52.21 51.57 51.98 53.32 52.86 46.10 35.99 36.44 40.52 42.64 42.28 44.15 43.67 46.15 46.34 46.50 47.52 48.18 49.04 51.14 52.95 48.73 48.26 48.28 52.61 53.34 53.87 53.85 50.75 48.57 51.66 48.17 49.15 46.48 49.45 52.33 55.70 57.77 58.66 59.80 61.04 62.87 64.38 67.78
49.90 49.51 49.27 52.77 53.29 50.75 42.21 35.48 39.38 42.69 43.10 43.68 39.46 42.51 41.25 43.96 44.82 46.39 47.66 48.52 50.31 53.28 54.43 52.17 48.42 52.44 52.24 53.84 53.85 52.82 53.57 46.86 47.87 43.14 42.40 46.36 48.61 50.04 54.85 56.14 58.98 59.66 61.04 63.76 65.66
49.56 45.66 49.70 52.55 52.15 45.69 37.72 37.39 39.48 43.27 43.58 40.70 40.77 40.68 42.55 42.30 44.25 45.18 46.03 46.53 48.90 50.27 51.71 52.45 51.05 51.08 52.13 50.03 49.77 50.15 49.57 50.36 49.85 48.08 44.87 44.11 47.43 55.17 55.49 57.64 57.92 59.41 61.31 63.26 65.11
47.69 41.04 50.31 51.85 43.14 42.84 38.34 39.01 39.88 41.60 44.17 42.77 43.20 41.25 40.70 43.13 43.30 44.00 44.13 46.31 48.02 49.89 48.77 52.80 51.25 49.00 49.38 52.97 53.71 52.61 51.00 51.22 46.61 46.61 47.97 47.70 48.48 55.05 55.83 56.98 58.91 59.50 61.37 63.30 65.38
44.03 44.37 51.00 49.44 36.84 37.32 40.36 39.55 40.65 39.53 39.56 40.20 39.58 43.10 43.17 42.54 40.34 43.54 44.80 47.09 47.31 48.50 48.34 51.25 48.76 46.51 48.94 51.17 52.46 50.52 51.63 51.68 51.43 51.02 49.12 45.55 48.67 56.98 57.57 57.29 58.79 59.77 61.51 63.41 64.71
44.60 39.71 45.88 47.02 45.90 38.91 35.92 37.57 37.29 41.25 39.63 40.25 37.97 40.87 40.23 41.50 44.59 41.38 42.86 45.32 46.32 46.78 48.19 49.22 49.95 49.09 46.81 49.26 51.45 49.20 50.42 51.04 50.57 48.62 48.80 49.47 51.06 53.79 54.75 55.82 57.98 59.54 60.72 61.83 63.90
46.54 41.18 41.58 37.32 38.53 37.69 36.52 36.95 35.49 34.63 40.20 41.05 37.29 36.64 35.31 36.73 39.62 40.36 42.85 44.16 45.61 46.61 47.39 47.85 46.36 47.66 50.41 48.13 48.08 50.39 50.19 50.58 50.22 51.09 48.79 51.16 51.75 54.46 55.80 56.90 58.45 59.89 60.31 61.22 62.64
41.64 39.99 41.66 39.98 38.34 36.79 37.48 35.41 35.72 36.54 36.47 36.65 35.62 35.81 37.27 34.45 35.94 35.57 38.65 42.51 41.96 45.41 45.00 46.73 44.53 45.87 45.48 47.62 47.33 46.39 49.13 50.08 50.85 51.55 51.81 52.14 52.31 57.18 58.20 58.96 58.90 59.36 59.61 59.97 60.80
47.56 47.05 43.52 38.21 38.76 34.94 35.71 35.76 36.60 38.76 39.76 39.27 39.03 37.48 36.13 36.85 41.11 43.06 44.21 44.34 44.34 42.86 42.82 42.71 43.45 42.89 42.76 47.55 46.99 44.13 48.41 49.71 50.71 52.36 52.33 49.88 54.04 57.03 56.84 57.40 58.30 59.63 60.34 60.61 61.51

GFSSW_sfc_wetblb_051.txt.gz
Wetbulb
57.05 57.01 56.75 56.79 56.90 57.03 57.24 57.35 57.60 57.75 57.84 58.00 58.21 57.98 57.93 58.44 58.33 59.78 56.25 62.14 64.24 70.91 69.99 66.37 66.31 70.55 72.14 70.29 70.92 71.20 63.79 60.69 58.63 60.59 60.99 66.43 64.80 67.97 69.32 67.92 68.77 69.58 70.35 71.53 72.10
56.59 56.44 56.25 56.27 56.36 56.47 56.59 56.70 57.01 57.09 57.34 57.44 57.76 57.82 57.87 58.35 58.26 56.43 64.52 70.99 70.07 70.54 65.15 64.62 63.14 67.51 67.42 68.09 68.98 67.16 63.55 59.77 63.41 62.96 63.25 65.70 64.22 65.20 66.00 66.18 66.74 68.79 71.74 72.24 72.16
56.10 55.83 55.74 55.87 56.08 56.13 56.29 56.19 56.33 56.39 56.63 57.05 57.31 57.61 57.59 58.65 57.44 56.08 71.70 69.87 70.31 69.35 61.88 65.21 65.11 65.77 64.74 67.16 66.90 66.34 60.93 63.89 63.95 65.33 66.56 64.85 64.54 66.00 64.95 64.15 66.80 67.46 69.82 70.80 71.23
55.72 55.54 55.60 55.52 55.87 55.85 56.03 56.15 55.89 55.91 56.18 56.39 56.93 57.27 57.60 59.06 50.38 65.22 72.37 70.46 69.93 61.86 60.71 62.49 64.26 63.11 63.18 63.46 66.51 62.80 66.16 65.71 65.20 66.67 66.18 64.71 65.71 64.87 65.08 65.05 68.69 70.37 71.23 71.21 70.76
55.45 55.49 55.90 55.74 55.75 56.06 56.39 56.46 55.90 55.37 55.75 56.23 56.87 57.11 57.32 56.10 55.41 64.59 71.14 69.87 63.53 60.25 59.85 63.03 62.61 62.88 61.89 63.57 64.64 63.34 64.56 66.25 66.61 66.85 66.40 66.47 65.17 65.29 65.56 66.98 69.15 70.67 71.04 70.78 70.94
55.61 55.99 56.07 55.99 56.31 56.43 56.23 55.91 55.57 55.30 57.17 58.06 57.28 57.06 56.32 53.22 61.44 61.95 62.81 64.22 64.46 63.57 61.18 64.05 63.43 65.12 63.98 63.13 62.85 64.46 64.86 65.85 66.43 65.77 66.25 64.70 65.43 67.36 67.72 69.28 68.83 69.39 70.01 70.77 71.21
55.58 55.66 55.56 55.46 55.74 55.76 55.67 55.01 54.74 57.27 59.57 59.94 58.16 57.62 56.95 57.17 60.22 57.96 61.76 63.19 66.78 65.35 62.21 64.53 65.61 64.44 64.54 62.33 65.99 65.15 62.57 64.88 65.67 65.80 64.68 66.35 63.38 64.29 68.62 69.37 68.70 68.31 69.68 70.18 71.08
55.19 55.27 55.23 55.28 55.20 54.88 54.47 54.31 55.54 59.93 57.98 58.09 58.16 58.11 56.40 62.86 64.43 60.82 61.80 62.48 66.05 66.96 65.40 65.73 66.18 64.38 63.89 65.57 61.49 62.02 62.88 59.24 64.20 64.61 64.80 64.74 59.53 65.25 70.10 69.00 68.27 68.36 68.41 69.46 70.59
54.82 54.92 54.84 54.76 54.47 53.99 53.47 53.83 56.28 59.16 57.54 58.03 58.78 58.43 57.08 60.68 57.48 60.38 60.31 60.24 64.48 65.36 66.17 65.23 65.07 62.39 62.61 59.73 56.93 57.72 55.73 56.96 59.76 64.09 63.64 63.63 58.06 61.83 69.72 69.02 68.49 68.81 68.08 68.59 69.66
54.75 54.66 54.34 54.07 53.59 52.85 52.93 54.29 58.13 58.27 60.31 61.78 61.79 55.67 58.21 57.14 59.77 58.43 60.78 61.67 62.90 62.87 62.19 60.93 59.74 58.59 58.84 58.48 52.23 53.57 53.99 56.86 57.23 61.84 62.60 61.57 60.71 62.30 68.00 68.16 68.38 68.86 68.99 68.41 68.86
54.54 54.19 53.92 53.39 52.76 52.19 53.84 56.50 54.48 56.86 58.14 55.56 57.24 56.05 58.37 60.50 59.90 56.26 60.87 61.74 62.79 61.28 56.61 58.90 55.82 53.70 55.48 58.93 59.24 57.42 55.74 55.79 59.42 61.87 61.56 60.59 61.03 63.27 66.22 66.83 67.40 68.74 69.22 68.93 68.79
54.50 54.13 53.71 53.03 52.35 52.23 55.88 51.48 50.18 50.68 45.62 51.30 51.67 52.12 55.74 61.00 56.53 55.56 61.57 57.66 59.74 56.17 58.52 56.36 53.71 57.14 58.06 57.72 58.76 57.60 55.94 55.95 59.13 61.28 61.60 60.13 60.27 62.80 64.05 65.46 66.61 68.04 69.14 69.56 69.59
54.16 53.82 53.03 52.12 51.90 55.24 53.31 51.38 55.04 54.42 46.29 48.65 51.98 51.62 52.64 55.63 56.65 57.07 55.75 58.05 57.87 56.57 56.35 53.56 55.71 57.41 56.21 54.98 55.73 57.20 54.96 55.61 56.18 59.33 61.27 59.07 57.89 60.07 62.76 63.69 66.78 67.95 69.92 70.39 70.21
54.02 53.40 52.60 50.94 51.80 54.02 51.72 54.00 55.35 54.56 43.38 47.20 50.22 52.02 53.90 53.86 52.06 59.59 56.63 57.80 57.80 56.37 56.50 54.01 55.86 54.32 54.09 52.70 53.90 51.41 55.98 55.84 55.34 56.08 53.80 58.96 51.72 58.09 60.82 61.31 64.31 66.67 68.49 69.53 70.49
53.73 52.78 51.51 49.82 53.86 52.00 52.26 54.66 55.07 53.37 36.98 50.11 50.23 56.13 54.84 51.30 54.06 55.08 58.45 57.16 54.17 55.07 56.41 52.64 53.01 52.35 52.04 53.03 54.49 52.41 55.73 55.53 55.62 54.26 54.91 55.73 53.78 56.56 60.52 59.78 61.93 65.05 66.95 68.84 70.68
52.97 52.06 51.20 53.44 54.67 53.31 54.46 54.17 53.74 42.77 36.50 47.97 50.41 49.92 50.18 51.45 52.48 56.26 56.04 56.37 57.64 54.66 55.81 55.21 57.15 55.26 53.93 54.56 54.68 55.65 53.89 54.41 55.06 53.61 48.71 53.63 54.38 54.68 57.47 60.58 62.21 64.68 66.06 68.12 69.88
51.38 50.15 50.83 53.53 49.97 54.10 54.30 51.22 41.15 36.37 47.42 46.07 46.87 49.86 50.25 50.32 50.77 52.82 53.09 50.68 50.37 48.05 49.23 52.58 53.97 55.31 55.71 52.89 54.77 53.38 51.02 46.48 46.03 46.75 46.70 53.84 52.79 55.20 59.04 60.73 62.31 63.89 65.72 67.77 69.71
50.09 49.26 54.12 53.95 54.62 54.13 52.46 45.20 35.00 40.14 43.12 47.40 46.31 46.84 45.69 49.23 51.19 51.50 51.72 50.88 51.78 52.11 50.33 48.37 46.81 53.13 54.62 53.45 51.98 51.65 50.87 46.67 43.00 44.49 47.34 53.25 50.18 53.72 59.33 61.32 62.50 64.43 65.71 67.20 69.10
49.32 55.31 53.73 53.09 54.36 53.80 48.30 38.63 38.50 41.70 43.72 42.28 43.57 44.21 46.48 49.64 49.41 50.81 50.23 50.73 52.70 52.30 48.39 49.34 49.12 54.77 54.64 54.93 54.67 52.02 49.55 52.62 49.28 50.80 48.33 50.54 53.84 57.06 59.26 59.74 61.21 61.84 64.41 65.56 67.90
51.88 52.63 53.56 53.27 54.24 52.39 45.09 38.96 41.01 43.87 43.59 42.93 38.10 42.68 42.18 45.80 47.48 48.87 49.84 52.10 52.00 53.66 54.50 52.97 50.01 53.99 54.25 55.34 54.96 54.10 55.04 47.91 49.47 46.00 45.33 48.90 51.18 52.05 56.34 57.97 60.06 60.86 62.01 64.78 67.91
52.09 47.84 52.21 53.61 53.73 47.82 40.06 39.81 41.64 44.06 44.02 40.80 39.43 39.42 41.24 40.48 42.18 46.46 49.37 50.72 51.82 53.13 55.18 54.08 52.98 52.98 55.16 51.90 51.39 51.56 51.60 51.70 51.14 49.78 46.48 46.39 49.48 56.60 57.55 59.05 59.00 60.50 62.12 63.86 65.96
51.01 44.56 52.97 53.57 44.63 46.41 41.15 41.63 41.52 42.54 44.02 42.78 42.95 42.33 41.43 41.68 41.68 42.52 44.61 49.62 50.06 51.62 50.93 54.40 52.70 49.92 52.22 54.77 55.61 54.56 52.60 53.22 49.28 48.89 49.55 49.66 50.15 57.07 57.70 58.25 59.72 60.54 62.24 63.49 65.59
47.83 47.84 53.87 51.66 40.07 40.91 43.14 41.73 42.81 41.24 41.04 40.48 39.65 41.47 43.75 41.94 38.00 43.47 45.15 49.88 49.37 50.45 50.47 53.41 50.90 48.09 50.44 53.17 54.37 52.51 53.63 53.52 53.45 52.31 50.57 47.20 50.32 58.84 58.07 58.72 59.45 60.49 61.72 63.91 65.35
47.69 42.84 48.15 48.26 47.56 42.45 40.47 39.39 39.09 42.70 41.61 41.97 40.94 42.60 41.34 40.95 43.71 41.85 43.21 47.11 49.40 49.16 49.82 51.17 51.04 50.37 48.95 51.96 53.09 50.64 52.09 53.09 52.38 50.28 50.28 50.97 52.60 55.32 57.01 57.93 59.22 60.74 62.44 63.37 65.18
45.73 41.47 44.74 38.05 42.28 41.97 41.40 40.72 38.15 37.13 41.36 42.80 39.80 38.66 37.05 36.33 38.84 38.04 41.54 45.71 49.03 49.15 50.85 50.77 47.90 51.43 52.90 53.68 53.53 52.90 51.57 52.21 51.58 52.82 50.27 52.57 53.28 56.12 57.39 57.92 59.95 61.10 62.34 62.19 63.08
42.01 41.03 43.76 39.74 42.35 40.77 40.05 38.47 38.13 38.58 39.03 38.94 38.17 37.88 39.84 37.05 37.14 35.49 39.67 41.28 43.36 47.52 48.34 50.72 46.66 50.74 50.43 52.83 51.92 50.29 52.92 52.39 52.62 52.58 52.88 53.29 53.74 58.78 59.50 59.54 59.08 59.83 60.52 60.42 62.37
47.27 46.10 42.53 39.48 40.07 38.92 37.96 39.62 38.80 40.59 41.06 42.24 40.72 39.68 38.03 40.06 43.26 44.28 44.69 45.52 45.34 43.83 43.40 46.00 47.23 48.01 45.89 51.26 50.57 47.49 51.41 52.56 53.55 54.34 53.58 51.52 55.53 58.69 58.28 58.99 59.48 60.25 61.16 61.41 62.28

GFSSW_sfc_wetblb_054.txt.gz
Wetbulb
56.68 56.41 56.62 56.47 56.64 56.92 56.92 57.17 57.36 57.47 57.55 57.74 57.86 58.11 58.40 59.07 58.44 58.50 54.13 59.17 62.78 70.17 68.88 63.91 61.17 65.51 70.46 70.19 69.99 69.36 61.87 59.16 60.27 60.87 61.86 64.87 64.17 67.35 68.81 68.47 69.49 70.21 68.66 68.99 70.48
56.34 56.30 56.26 56.24 56.30 56.60 56.64 56.79 56.85 57.06 57.20 57.33 57.56 57.96 58.08 58.44 56.77 56.00 62.84 68.87 72.03 70.77 57.99 60.07 58.45 63.35 66.01 67.30 67.76 64.93 60.42 59.64 64.26 62.92 62.49 63.06 64.84 65.37 65.10 65.78 67.39 68.51 70.18 70.46 70.77
55.93 55.61 55.94 55.79 56.07 56.30 56.51 56.63 56.52 56.81 56.69 56.75 57.07 57.39 57.90 58.17 55.79 56.46 72.46 68.37 71.44 69.14 58.89 61.76 61.81 61.57 63.41 65.97 65.71 65.46 59.46 62.20 64.21 64.20 65.44 63.12 63.29 65.69 64.38 63.24 67.90 66.75 68.12 69.45 69.60
55.50 55.41 55.81 55.60 55.77 55.94 56.00 56.27 56.09 56.24 56.21 56.33 56.77 57.01 57.56 57.67 50.81 60.69 73.38 72.82 71.35 62.19 57.97 58.73 61.35 58.79 60.75 60.98 65.30 62.50 62.24 61.97 64.07 65.21 64.57 62.00 63.04 63.44 64.65 65.49 69.73 69.96 70.01 69.65 68.85
55.17 55.44 55.85 55.60 55.51 55.70 56.09 56.22 55.94 55.73 56.28 57.55 57.56 57.39 56.49 54.42 55.38 63.31 72.49 71.70 64.59 58.58 56.25 56.67 58.20 59.48 57.84 61.33 63.48 62.86 62.79 65.50 65.63 66.92 63.52 63.89 63.56 63.24 64.14 67.14 69.94 70.79 70.14 69.45 69.33
55.82 55.93 55.91 55.85 56.02 56.17 56.10 55.89 55.73 55.60 57.74 59.47 58.71 57.40 54.80 52.18 63.68 64.15 63.65 65.36 60.62 57.61 56.25 57.31 57.46 61.80 60.58 61.19 62.01 64.38 64.21 65.23 65.58 65.24 66.60 63.72 64.18 63.99 63.80 67.08 68.50 69.47 69.09 69.65 69.62
55.85 55.81 55.71 55.70 55.81 55.67 55.67 55.26 54.93 55.51 58.84 59.80 60.06 57.42 54.69 55.22 64.01 61.93 61.45 63.71 62.89 60.29 56.00 58.59 60.24 61.24 61.89 60.87 64.20 63.48 61.36 63.09 64.46 64.91 64.44 65.24 61.59 62.96 64.38 66.51 66.56 68.09 69.00 69.62 70.44
55.69 55.73 55.67 55.57 55.45 55.24 54.77 54.58 54.72 56.05 60.78 58.63 60.37 57.24 53.64 63.66 63.64 62.81 58.68 59.94 63.01 63.75 60.36 61.11 63.06 62.28 61.62 64.22 62.51 60.05 60.73 57.06 62.38 64.95 65.64 64.32 57.63 60.94 66.92 66.73 65.95 67.08 68.33 69.11 70.11
55.31 55.48 55.46 55.15 54.70 54.21 53.65 54.13 55.18 57.58 58.60 57.96 57.56 56.70 55.37 64.78 60.68 62.88 62.64 57.93 61.07 64.32 64.14 63.71 62.77 60.72 61.20 58.87 57.57 59.31 55.72 57.78 60.04 63.80 63.86 62.21 58.90 61.88 64.59 64.19 66.32 66.55 67.25 68.15 69.46
55.27 55.06 54.76 54.49 53.98 53.23 52.94 54.45 58.57 58.42 58.79 60.66 61.01 56.38 58.47 57.14 60.64 61.80 63.21 59.63 59.15 61.64 61.38 61.22 59.64 57.23 57.79 56.25 51.44 55.15 54.68 57.98 58.16 62.08 63.21 60.65 61.22 61.77 63.21 63.05 63.23 66.75 67.05 67.86 68.17
55.00 54.65 54.33 53.58 53.11 52.55 53.01 55.29 50.78 55.99 52.04 52.13 56.78 55.42 56.95 61.54 60.79 58.81 60.43 57.95 58.66 59.98 55.76 58.93 55.00 53.74 55.72 57.24 58.04 57.75 55.39 55.35 58.39 60.55 61.29 59.82 60.51 60.92 61.53 61.53 62.08 66.83 67.06 66.75 67.59
54.55 54.10 53.75 53.15 52.55 52.24 53.59 50.03 49.86 50.83 45.35 50.46 50.65 51.00 54.69 57.19 55.34 57.99 59.41 54.86 55.22 54.53 57.07 56.11 52.76 56.06 57.02 57.43 57.06 57.06 55.61 54.51 57.10 61.17 59.89 59.49 60.87 60.51 60.43 62.14 64.06 66.15 67.25 67.64 67.90
54.06 53.73 53.03 52.38 51.96 55.33 53.61 50.97 54.06 53.73 45.35 46.39 49.58 49.94 50.66 52.83 52.58 57.01 56.51 55.91 54.23 54.06 55.53 53.28 55.18 56.92 55.41 54.68 53.86 56.08 55.69 55.36 54.73 60.08 61.04 59.74 57.47 60.54 62.64 65.40 67.53 67.47 68.59 69.01 68.80
53.71 53.38 52.36 51.27 52.38 55.04 51.40 53.35 54.01 53.96 41.74 46.41 49.53 51.92 51.67 51.80 49.85 56.94 58.11 57.31 56.07 53.72 56.02 55.00 57.38 55.51 54.78 53.86 54.85 51.53 57.82 57.54 56.25 56.54 53.26 59.73 50.94 59.51 61.16 61.98 64.62 66.37 67.21 68.30 69.32
53.29 52.72 51.80 50.47 52.04 52.49 51.66 53.65 53.75 52.81 35.40 50.41 50.73 56.53 55.23 49.67 52.19 51.75 59.10 56.25 53.90 55.03 56.11 54.51 54.97 54.67 53.42 54.20 55.74 53.57 56.84 57.31 56.46 54.18 54.66 55.87 53.98 55.60 60.41 59.35 60.94 64.37 66.99 67.68 69.93
52.74 52.22 51.29 53.73 54.35 54.55 53.59 53.52 52.48 42.27 35.35 47.07 51.34 50.15 50.47 51.84 50.68 52.69 53.24 57.43 56.81 55.18 56.83 56.27 59.41 56.62 54.90 55.80 56.01 56.10 54.13 54.59 55.02 53.18 49.21 52.99 53.77 54.76 56.85 60.05 61.56 63.36 65.92 68.35 68.53
51.57 50.46 50.77 54.12 51.25 53.89 53.55 50.77 40.86 36.51 44.97 43.26 44.24 46.47 46.05 47.30 50.34 50.32 50.65 51.80 49.29 48.79 50.52 54.32 55.68 56.52 55.82 52.65 54.92 53.78 50.71 46.23 45.28 46.80 46.66 53.19 51.81 55.36 59.56 61.68 62.01 63.14 65.35 67.47 69.75
49.93 49.17 54.90 55.45 55.40 53.57 51.45 45.17 35.53 40.75 40.99 45.60 44.30 44.00 42.69 47.39 48.98 50.12 49.69 49.83 51.67 51.87 50.44 48.47 47.97 54.71 55.83 53.55 51.50 51.68 50.52 46.71 42.03 44.02 46.89 52.53 49.73 53.57 60.33 61.98 63.69 65.09 65.61 66.76 68.12
49.53 54.98 55.42 55.12 53.38 52.85 47.87 39.55 39.10 40.60 43.00 41.70 42.00 39.97 41.60 45.37 45.63 47.95 49.75 49.10 52.26 51.45 49.31 49.56 49.01 55.66 56.36 55.60 54.59 51.13 48.69 52.37 48.12 49.77 47.24 49.64 52.97 56.42 59.30 60.05 61.28 61.17 64.80 66.06 67.29
50.68 52.47 53.42 55.22 54.34 51.65 44.99 39.55 41.90 44.13 43.23 41.99 36.68 39.31 36.45 39.63 40.68 42.84 45.84 51.97 51.56 53.81 53.51 51.90 48.62 53.56 54.86 56.18 54.74 53.32 54.32 47.55 48.84 43.56 43.77 47.51 50.92 51.76 56.19 58.67 60.27 60.16 61.21 64.82 67.40
52.09 49.71 53.37 55.57 53.78 47.92 40.99 41.00 42.85 44.97 43.81 40.22 38.33 37.88 38.92 38.25 40.16 39.44 42.27 47.70 51.19 50.69 54.64 52.14 50.85 50.89 54.22 52.59 50.96 51.11 50.81 50.84 50.01 48.80 45.00 44.89 48.86 57.56 58.79 59.28 59.80 60.48 62.48 63.56 66.52
50.29 45.36 55.31 54.51 44.84 45.58 41.86 43.06 43.05 42.96 44.57 42.61 42.37 40.56 39.20 39.45 39.18 39.67 39.34 44.54 50.83 51.10 47.92 53.48 50.62 47.79 49.66 54.91 55.48 53.64 51.67 52.29 48.89 47.72 49.32 49.16 49.35 57.69 59.11 60.69 60.83 61.41 63.22 63.82 65.68
46.85 47.95 54.98 53.08 40.39 40.99 43.72 42.95 43.41 42.06 42.16 41.43 39.78 41.60 41.84 38.60 35.67 40.36 42.19 47.25 48.38 48.65 47.72 49.58 49.25 45.62 47.64 52.49 54.91 52.26 52.79 52.25 52.98 51.82 49.98 47.13 48.96 59.41 58.55 59.28 61.32 61.22 62.35 65.63 66.69
46.56 41.04 47.52 48.67 47.14 42.59 40.67 40.14 39.97 43.95 42.37 42.10 41.44 42.33 40.08 37.31 40.41 38.24 38.84 44.66 47.10 48.35 54.04 51.19 48.29 48.46 46.78 50.20 53.74 51.25 51.68 52.73 51.34 50.29 49.51 50.37 51.96 55.50 57.08 57.74 59.16 62.56 63.47 64.33 67.43
45.78 41.73 43.87 38.77 39.66 39.89 41.57 40.68 38.74 38.76 41.92 41.22 39.85 39.67 38.94 35.76 36.82 36.55 39.75 41.52 46.66 49.77 50.03 49.98 46.69 50.33 51.71 52.96 53.85 52.26 51.30 52.13 51.67 52.81 50.40 52.05 53.63 56.45 58.43 58.61 60.76 64.19 65.05 65.78 66.99
42.76 40.36 41.92 39.68 40.84 39.04 39.97 37.49 38.60 39.93 40.09 38.71 38.05 38.58 40.73 37.09 37.52 35.44 38.51 39.84 39.23 44.14 45.42 48.13 45.85 49.50 48.71 52.09 52.84 51.97 52.42 52.32 52.61 52.33 52.64 53.30 53.94 58.60 60.29 61.62 61.29 62.91 62.86 64.15 64.55
47.85 46.60 41.26 38.27 38.61 37.03 37.39 38.78 39.08 40.93 42.32 42.72 40.88 39.96 39.28 40.02 43.02 43.74 43.42 43.30 43.11 41.83 42.89 45.06 44.79 46.00 44.00 50.59 51.38 48.80 52.57 53.03 53.01 54.19 53.52 51.78 56.88 60.19 59.25 60.22 61.04 63.47 63.12 62.40 62.97

GFSSW_sfc_wetblb_057.txt.gz
Wetbulb
56.44 56.44 56.19 56.31 56.54 56.76 56.86 57.14 57.41 57.47 57.77 57.70 57.87 57.84 58.46 58.97 58.63 55.93 51.89 56.25 58.09 67.82 72.67 64.97 62.90 61.99 66.36 67.96 69.76 69.80 60.34 55.87 58.39 58.59 60.43 64.10 63.61 67.16 69.18 66.79 67.65 68.41 67.30 67.58 69.24
56.15 55.96 55.91 55.97 56.17 56.38 56.46 56.65 56.90 57.07 57.32 57.42 57.31 57.52 57.81 58.62 54.25 51.91 60.23 66.44 67.46 69.17 59.63 54.28 57.62 56.75 57.24 63.65 66.05 64.83 55.67 59.19 63.51 63.62 61.89 64.03 63.81 65.45 66.06 65.64 64.70 65.83 68.50 69.32 69.69
55.89 55.91 56.08 55.90 55.89 56.08 56.16 56.33 56.39 56.49 56.79 56.79 57.00 57.30 57.43 57.26 52.03 54.51 69.33 67.01 68.43 71.29 58.95 56.43 56.23 55.91 54.53 61.61 62.90 63.29 58.77 62.74 62.37 64.31 65.10 62.21 62.55 65.66 65.17 62.89 64.25 63.78 65.80 68.21 69.01
55.88 55.78 56.14 55.90 56.01 56.03 56.15 56.10 56.31 56.23 56.42 56.78 57.99 57.52 57.18 54.69 48.41 57.61 72.13 72.13 68.42 65.26 58.70 55.56 53.59 53.18 52.78 56.90 62.93 60.45 63.56 63.56 63.19 64.42 63.16 61.39 63.22 63.66 65.49 65.96 67.47 67.14 67.77 68.30 67.76
55.84 56.42 56.43 56.50 56.48 56.55 56.65 56.41 56.04 55.88 56.37 57.52 59.07 57.62 54.72 50.03 51.58 63.57 72.81 73.30 65.22 61.66 55.90 52.82 51.69 53.72 51.97 55.74 60.29 60.58 62.51 63.77 64.27 64.18 63.88 65.06 62.66 62.66 66.34 68.35 68.87 68.32 68.29 67.75 67.80
56.50 56.39 56.31 56.25 56.39 56.38 56.42 56.20 56.20 55.57 56.07 57.95 59.52 57.56 51.77 46.49 60.41 62.00 66.02 65.48 62.83 57.80 55.15 53.70 53.06 55.09 55.44 55.34 57.01 60.64 63.02 63.47 64.40 63.49 64.74 63.71 63.54 63.39 67.12 68.72 67.74 67.55 67.12 67.85 67.82
56.20 56.10 55.94 55.95 56.02 56.03 55.97 55.53 55.55 55.31 55.83 58.47 59.97 56.53 51.41 48.91 60.07 60.88 64.33 60.51 59.92 57.15 53.23 54.61 55.35 53.04 56.59 55.15 58.92 59.68 58.53 62.73 62.87 63.44 62.23 65.30 60.91 61.22 64.78 68.13 66.70 66.72 66.98 67.54 68.08
55.88 55.94 55.76 55.65 55.45 55.31 54.95 54.56 55.23 56.04 56.27 59.63 59.54 55.86 48.18 59.41 59.25 58.51 59.86 61.30 59.50 57.53 55.44 55.09 55.78 53.54 52.83 58.28 58.43 56.39 57.11 54.31 59.84 62.54 63.80 63.40 55.53 61.62 64.07 64.02 65.51 66.66 67.05 67.55 67.62
55.29 55.29 55.23 55.11 54.72 54.31 53.74 54.17 57.44 58.20 57.99 58.67 56.10 52.67 49.46 63.30 58.05 60.14 60.10 56.49 59.58 58.51 57.27 58.88 54.99 51.79 52.88 53.19 51.71 53.90 50.95 52.87 55.97 61.93 62.64 61.51 55.24 60.36 63.85 64.24 64.66 65.97 66.81 67.06 67.48
54.86 54.65 54.37 54.24 53.89 53.12 53.16 54.65 58.06 57.76 58.43 58.72 58.31 50.70 55.30 53.76 58.39 60.60 60.99 60.40 55.88 56.82 57.57 55.36 53.06 49.94 52.01 51.12 45.56 49.03 50.24 52.43 54.82 59.34 61.28 58.54 57.37 58.73 61.45 64.00 64.22 63.49 63.81 66.70 67.08
54.71 54.32 53.85 53.48 53.08 52.43 50.70 48.19 45.87 48.24 47.86 43.59 45.78 49.68 48.18 57.85 56.62 59.73 60.34 58.81 55.51 53.84 52.14 55.17 50.90 48.22 50.76 52.95 53.77 54.77 54.29 52.98 56.67 60.58 59.67 58.68 57.36 59.81 62.54 63.33 63.52 63.43 62.98 64.25 66.77
54.27 54.05 53.53 53.22 52.46 52.05 50.74 46.59 45.96 47.09 41.57 47.65 47.89 48.05 50.14 51.05 48.91 53.28 58.79 54.69 51.79 48.66 53.04 51.86 49.20 53.58 55.08 54.96 53.83 53.56 52.16 52.33 55.35 57.93 58.91 58.57 57.19 60.13 60.52 60.83 61.52 62.43 63.90 64.35 66.34
53.88 53.72 53.20 52.44 51.93 52.48 50.23 47.55 50.71 49.34 40.90 44.54 46.97 46.68 47.15 47.98 46.56 49.00 53.21 54.41 50.48 48.45 51.13 49.53 52.20 56.35 54.73 53.42 52.55 52.08 51.03 52.19 52.53 55.43 58.11 58.64 55.67 57.87 60.37 61.67 62.94 64.12 65.10 66.19 66.09
53.53 53.17 52.62 51.16 49.75 49.90 50.13 50.76 50.96 50.03 36.17 43.01 45.43 49.94 49.87 48.09 45.03 52.05 54.25 53.32 51.44 47.95 50.00 51.65 55.18 54.61 52.93 51.95 52.58 48.42 54.57 55.22 54.74 53.40 48.18 55.88 48.45 54.42 58.66 59.74 60.62 63.03 64.42 64.15 65.85
53.18 52.77 51.79 50.83 47.29 48.18 51.64 51.96 51.02 48.06 29.27 48.18 47.04 53.27 49.87 46.04 47.73 47.96 52.58 51.80 48.87 49.73 50.05 49.14 52.59 52.20 51.53 51.81 53.35 50.02 54.30 53.24 53.75 52.43 51.97 52.09 49.92 53.54 58.21 56.81 59.10 62.23 64.54 63.71 66.24
52.66 52.06 51.42 50.93 49.94 51.99 52.84 51.21 48.79 35.61 32.40 42.02 45.89 44.26 43.87 45.42 47.78 51.64 50.46 52.23 52.69 50.74 51.65 51.85 56.59 55.17 53.49 54.88 54.63 55.25 52.61 51.58 51.53 50.69 45.44 47.91 50.53 49.10 54.93 56.93 59.51 63.23 64.89 65.49 66.70
51.16 50.24 49.95 52.26 47.49 53.19 52.90 47.32 35.31 31.53 43.43 40.24 39.99 42.02 41.23 41.50 43.79 45.69 44.87 45.77 43.95 42.72 44.37 50.07 51.89 55.14 56.60 52.21 54.02 52.82 47.93 40.84 40.09 41.90 42.74 47.11 47.84 49.47 56.06 58.36 62.00 63.93 64.81 65.88 67.29
50.06 49.46 52.23 54.43 53.92 53.76 48.10 40.50 31.22 40.13 38.66 42.12 40.58 40.52 38.14 39.95 39.67 41.10 41.56 40.73 48.38 47.94 43.59 43.28 42.93 52.35 55.94 52.98 50.02 50.06 48.50 40.60 34.11 36.19 41.50 45.89 42.79 48.28 55.69 58.96 61.17 64.98 66.45 67.13 67.25
49.67 51.35 52.51 54.53 55.42 51.03 43.76 34.30 35.43 38.45 40.64 39.04 38.83 36.04 35.27 38.94 39.29 39.32 39.65 39.49 43.94 44.72 43.50 42.72 44.49 54.41 55.86 56.27 53.33 47.52 46.01 47.43 39.90 41.72 39.08 42.91 46.98 52.06 55.07 54.59 57.47 60.36 64.81 65.83 67.11
47.63 49.13 51.09 55.43 53.14 49.45 39.95 36.47 39.52 42.63 41.98 40.25 33.99 36.79 32.87 35.54 36.53 36.50 37.71 42.64 41.55 46.62 47.38 45.05 41.24 49.42 53.66 56.12 55.21 49.69 49.94 43.44 43.66 35.16 36.26 42.17 44.11 46.79 50.28 52.53 54.26 55.76 60.89 63.73 66.61
48.41 46.60 52.75 55.15 52.86 44.98 36.53 39.26 41.79 43.92 43.14 38.92 36.79 35.41 35.60 34.82 36.67 35.66 37.00 41.64 45.82 44.57 45.17 44.28 41.56 45.16 49.09 50.56 49.93 48.38 46.26 46.51 42.90 40.90 36.30 36.62 43.34 50.55 52.24 53.98 54.25 56.18 57.56 63.11 64.72
45.92 40.32 52.13 54.19 42.92 43.75 39.39 41.17 43.14 42.35 43.15 41.35 41.05 38.85 36.50 36.68 34.85 35.24 35.30 39.72 46.27 44.69 39.45 44.53 40.94 40.63 44.37 50.06 53.54 51.73 48.27 46.09 42.73 38.96 40.27 39.64 43.26 53.96 53.70 56.22 56.39 57.16 57.64 60.02 64.41
41.77 43.92 52.15 49.92 37.18 36.64 40.15 40.22 42.71 40.90 40.53 39.69 38.41 39.87 38.25 35.71 32.11 36.59 37.88 43.66 45.11 42.93 40.32 42.43 38.65 36.10 42.31 46.05 49.54 49.37 49.44 48.96 45.28 44.04 40.53 39.55 42.47 53.79 54.25 56.08 56.96 56.59 58.13 59.06 62.53
43.81 38.03 43.42 45.32 44.42 38.58 36.26 37.35 37.46 43.52 42.00 41.42 39.11 39.72 36.97 34.95 37.05 35.61 36.16 42.32 43.91 43.46 48.65 47.97 40.27 38.27 35.56 42.82 46.02 46.02 49.41 48.97 46.97 42.38 41.94 44.97 43.65 51.45 53.00 54.00 55.85 56.51 58.99 60.91 60.66
44.14 39.25 41.25 34.92 36.38 37.33 38.58 37.62 36.61 36.48 41.36 41.99 39.30 38.78 36.28 32.62 34.43 34.57 38.06 38.97 41.63 45.54 44.30 41.23 36.18 41.32 43.97 47.92 49.10 49.35 49.81 49.30 46.77 46.69 44.61 45.60 47.06 50.87 51.93 54.98 57.59 59.18 60.44 61.18 61.95
41.12 40.63 40.65 37.70 38.67 37.05 37.73 35.67 35.71 37.84 38.18 36.36 36.76 38.37 36.66 32.21 34.11 30.86 37.12 37.06 36.46 40.50 39.09 40.48 36.09 41.29 42.66 48.48 49.58 49.13 51.24 50.29 49.86 49.17 48.33 47.99 47.67 54.55 56.03 56.27 57.58 58.46 59.15 58.84 61.18
47.37 45.43 41.43 37.97 36.66 35.10 35.79 37.08 37.15 38.88 39.94 40.75 39.43 38.22 35.71 37.78 40.77 39.46 41.07 40.84 39.65 38.65 36.42 36.21 37.31 36.85 36.98 46.33 46.99 43.52 49.16 50.99 49.96 51.25 50.07 46.79 49.07 54.86 54.41 57.45 57.20 57.99 58.38 59.18 60.83

GFSSW_sfc_wetblb_060.txt.gz
Wetbulb
56.34 56.30 56.26 56.29 56.59 56.62 56.83 57.04 57.32 57.40 57.55 57.58 57.75 57.79 57.89 58.23 58.38 55.50 50.85 54.70 55.97 64.43 73.85 71.10 67.63 64.84 67.28 66.30 68.68 68.83 61.01 55.13 57.68 58.99 59.99 64.10 63.98 67.51 68.06 65.60 67.09 67.64 64.54 64.33 68.31
56.28 56.28 56.31 56.21 56.15 56.34 56.43 56.70 56.78 56.95 57.11 57.08 57.28 57.48 57.35 57.77 53.84 51.04 57.09 63.59 65.65 67.33 63.13 63.52 61.26 60.56 56.33 62.91 64.91 63.91 58.57 58.92 62.64 62.57 61.71 63.79 64.53 65.20 64.51 64.54 64.78 64.99 65.50 67.46 68.47
56.11 55.98 56.03 56.01 56.07 56.30 56.29 56.50 56.62 56.70 56.78 56.84 57.12 57.90 57.39 56.62 50.59 53.34 65.29 65.58 68.09 68.58 58.61 56.29 58.72 54.85 50.88 54.29 61.45 62.51 58.57 61.71 63.37 64.69 64.18 63.37 63.98 67.18 64.08 61.97 64.17 62.76 64.66 67.10 67.01
55.93 55.96 56.26 56.04 56.06 56.23 56.33 56.30 56.42 56.39 56.58 56.64 57.32 58.70 56.66 53.58 46.08 56.28 71.94 67.98 68.52 64.41 57.25 53.74 51.68 49.73 48.34 50.13 57.25 56.93 61.84 62.96 62.91 64.71 63.99 62.23 64.01 65.06 65.90 64.36 67.26 66.41 66.84 67.22 66.70
55.77 56.29 56.25 56.37 56.35 56.54 56.72 56.52 56.14 56.04 56.39 56.53 57.80 58.29 54.04 48.63 48.72 59.34 72.03 71.44 64.72 61.74 56.39 52.87 49.59 48.10 47.94 50.80 53.78 57.50 60.23 64.06 64.82 64.15 63.27 64.64 63.23 64.92 64.86 66.85 67.64 67.23 67.39 66.73 66.75
55.92 56.12 56.04 56.00 56.29 56.43 56.24 56.07 56.00 55.78 55.96 56.34 57.97 58.07 50.91 44.12 56.35 58.57 64.43 65.08 61.40 58.50 56.01 53.26 50.22 50.93 50.10 51.41 52.14 57.58 58.76 62.97 63.42 61.35 62.61 63.29 64.12 65.42 65.09 66.92 66.11 66.45 66.18 66.80 67.12
55.95 55.73 55.62 55.66 55.85 55.90 55.70 55.37 55.49 56.33 57.36 56.12 58.72 56.31 50.34 47.41 55.79 56.17 63.08 60.22 60.92 57.95 53.70 55.00 53.15 51.68 51.12 51.00 55.25 54.83 52.90 58.76 62.60 61.75 62.86 64.33 59.79 62.30 66.00 66.24 64.84 65.34 66.11 66.83 67.23
55.84 55.70 55.50 55.60 55.51 55.13 54.82 54.38 55.41 58.39 57.35 56.48 59.99 55.47 46.37 57.35 56.85 56.19 56.21 58.93 61.14 58.18 52.69 55.15 53.73 50.20 48.17 50.59 50.74 51.94 51.88 48.78 59.17 61.13 63.71 63.04 54.35 62.95 66.32 64.87 63.76 64.74 65.93 66.61 66.91
55.15 55.17 55.10 54.89 54.64 54.41 53.66 54.02 56.28 57.93 58.51 59.30 54.43 51.00 46.24 59.88 56.59 56.96 57.17 58.66 57.11 54.34 53.47 56.44 51.78 47.42 48.18 45.28 42.90 47.29 44.99 48.87 53.15 61.48 62.30 60.93 56.84 60.95 66.25 64.99 63.85 64.58 65.27 65.96 66.56
54.67 54.63 54.59 54.34 54.03 53.45 53.02 54.25 55.43 58.45 58.04 58.75 57.69 48.38 50.38 50.36 52.68 55.79 57.94 59.01 55.38 53.62 52.17 50.65 47.84 43.03 43.55 42.08 38.15 43.01 45.84 48.77 51.42 59.51 61.62 59.37 57.25 59.95 62.55 64.91 64.09 64.69 65.04 65.35 65.71
54.51 54.24 54.09 53.62 53.27 52.33 50.50 45.52 42.95 40.40 44.57 40.65 42.36 50.84 49.45 50.71 52.18 53.16 57.59 56.46 54.12 51.36 46.57 49.19 44.57 42.12 43.98 45.32 47.23 50.33 49.79 49.74 53.65 59.99 59.90 57.71 57.00 59.14 61.32 61.98 63.74 64.35 64.73 64.97 65.62
54.32 53.91 53.77 53.14 52.39 52.06 48.27 42.12 41.51 43.93 38.63 45.28 45.76 45.28 47.29 46.91 44.50 48.08 52.84 53.09 51.20 46.83 49.28 47.62 45.33 48.76 50.58 50.54 49.65 50.20 49.24 50.14 53.95 56.64 58.29 58.33 57.48 60.10 59.95 59.73 62.95 64.31 64.78 65.27 65.87
53.72 53.46 52.98 52.29 51.78 48.12 45.04 45.89 47.95 42.18 35.53 42.00 45.24 44.58 44.75 45.24 43.74 45.32 48.22 49.57 50.01 46.15 47.19 46.98 49.70 54.02 52.79 50.93 49.59 49.41 48.19 49.45 50.13 54.17 59.01 57.47 55.04 56.07 58.92 61.86 63.02 64.54 64.74 65.60 66.05
53.38 53.02 52.21 51.39 45.41 45.33 46.06 49.04 50.71 44.44 31.78 40.12 43.19 47.28 47.28 45.70 42.79 49.54 49.78 49.06 49.51 47.54 46.12 46.84 52.26 52.33 51.47 50.47 50.73 46.03 52.57 52.56 52.11 50.52 47.41 57.01 46.41 53.99 57.51 58.45 60.30 61.00 62.68 63.88 64.80
53.15 52.50 51.33 51.12 43.79 44.23 48.40 48.20 50.01 42.86 26.55 44.52 42.92 48.64 46.05 42.89 45.44 46.00 50.54 48.04 45.68 47.79 45.96 45.41 49.20 50.37 49.80 51.00 52.90 49.31 53.31 51.77 51.73 47.67 45.82 52.09 48.75 51.48 57.31 55.23 57.67 60.19 62.18 63.87 65.22
52.54 51.68 51.37 47.57 44.95 47.30 48.68 49.36 42.71 33.77 28.88 39.37 42.59 41.27 40.36 41.17 42.28 44.82 45.57 48.01 49.10 46.23 48.12 47.46 51.55 52.15 51.97 53.91 54.12 54.19 50.27 49.14 46.72 44.28 40.19 46.29 48.93 47.10 53.02 55.68 57.68 59.90 61.94 63.97 65.18
51.37 50.09 49.74 50.24 43.29 47.46 48.18 40.98 31.86 27.57 40.87 37.11 36.14 38.73 37.09 37.14 39.26 41.27 40.97 39.84 39.37 34.80 38.98 44.18 47.20 50.80 53.16 50.23 52.82 51.52 43.51 38.79 35.65 37.79 38.35 45.46 44.48 49.35 57.09 59.11 59.95 59.94 61.19 63.53 65.70
50.10 49.46 49.19 51.31 48.69 48.70 42.66 36.26 26.24 37.44 34.86 38.62 37.74 37.42 35.00 37.90 36.08 39.04 38.05 36.18 43.10 41.73 37.40 37.77 38.80 47.03 52.09 50.80 48.60 47.55 47.14 39.77 33.94 33.50 39.99 43.19 42.06 48.18 56.48 61.73 62.22 62.52 62.64 63.54 65.66
49.85 46.17 46.06 49.30 51.22 46.09 38.13 28.30 29.31 34.48 38.38 37.11 35.97 33.49 32.39 37.44 36.95 37.55 35.76 36.64 40.81 41.73 35.49 34.94 39.03 50.29 51.90 52.95 52.68 46.97 44.36 48.41 38.36 36.22 35.97 40.07 44.96 49.50 51.73 54.54 57.27 61.37 62.74 63.05 65.42
45.70 42.52 44.78 51.74 51.68 42.66 34.60 31.57 34.58 40.76 39.97 37.55 31.10 34.48 30.05 32.53 33.77 32.99 33.99 39.65 40.62 43.64 44.30 38.58 33.05 44.71 48.67 51.44 53.58 51.48 48.84 41.05 37.04 36.96 33.13 37.26 40.34 45.44 47.84 49.86 51.39 59.68 62.00 63.66 65.69
40.44 38.92 46.16 51.58 46.40 38.30 29.61 31.32 38.85 42.72 41.89 36.52 33.78 31.84 31.64 31.93 31.95 31.45 33.73 38.98 42.29 42.26 43.92 39.29 35.76 39.35 44.75 44.22 45.49 49.06 47.31 42.25 43.09 37.86 37.21 33.27 40.70 47.25 48.71 50.53 51.12 56.09 63.15 64.53 65.67
39.00 34.03 45.75 49.81 36.32 35.11 32.43 36.25 41.04 40.96 42.36 38.45 38.22 36.00 33.07 33.46 30.92 30.60 31.86 37.16 43.77 43.49 38.14 41.86 38.40 32.97 38.68 46.62 48.49 49.96 46.62 44.96 41.41 36.81 36.47 37.53 42.22 49.73 51.07 52.23 52.63 53.49 62.43 65.70 66.48
37.76 36.85 45.09 43.57 30.49 31.30 35.51 37.46 40.84 39.67 39.39 38.83 37.37 38.15 36.21 32.05 29.05 32.53 35.71 42.09 44.18 41.77 39.45 41.39 38.58 33.04 36.48 40.66 45.34 43.35 45.13 42.91 40.06 40.31 37.23 39.02 42.12 49.37 49.55 51.41 53.30 54.62 55.63 64.04 66.23
37.78 32.20 36.83 37.68 36.26 31.88 32.99 34.83 35.35 42.27 40.09 40.68 39.06 39.23 35.33 32.08 31.63 31.32 34.91 40.80 43.86 42.52 46.04 44.47 37.44 35.27 31.03 34.70 39.78 39.64 43.14 46.00 42.63 39.53 39.05 41.88 44.65 46.01 49.28 50.34 53.94 53.49 55.43 61.52 65.57
37.43 32.79 35.27 30.16 33.34 34.93 35.04 35.02 34.91 34.76 40.47 40.39 37.87 37.54 34.41 29.16 31.01 31.17 35.00 36.22 40.87 43.64 42.90 40.92 33.02 34.06 35.14 38.39 41.26 42.39 43.10 46.87 43.72 44.79 42.18 43.69 42.86 45.83 47.81 50.43 54.28 53.84 55.93 59.52 64.27
35.78 38.03 36.73 37.46 37.55 35.74 34.16 32.35 35.18 36.77 36.71 35.24 35.22 36.89 34.91 29.38 31.42 29.29 33.20 31.99 33.44 40.20 38.67 38.89 33.12 33.19 31.05 39.95 42.77 43.27 47.21 48.67 48.33 46.78 44.71 44.86 44.46 49.77 50.54 53.49 54.39 56.02 58.21 58.79 64.09
41.49 41.91 41.33 37.81 36.65 35.04 32.26 35.37 35.50 38.18 38.45 39.78 37.96 36.31 34.45 36.03 38.95 37.86 38.83 37.78 36.86 37.19 35.67 34.62 33.18 30.59 29.10 40.92 43.33 40.94 44.14 48.08 48.18 48.05 46.10 44.84 46.83 51.16 51.82 54.47 55.57 55.88 57.89 57.60 59.72

GFSSW_sfc_wetblb_063.txt.gz
Wetbulb
56.37 56.40 56.37 56.28 56.45 56.65 56.90 57.01 57.13 57.23 57.34 57.55 57.46 57.45 57.36 57.24 57.44 54.74 48.31 53.41 55.81 63.33 69.24 65.17 69.00 66.23 68.04 66.08 68.42 68.32 58.88 53.96 56.25 58.26 60.02 64.02 62.63 66.79 67.95 64.81 66.60 66.18 63.16 65.05 66.27
56.04 56.06 56.13 56.11 56.27 56.29 56.42 56.51 56.85 56.97 57.12 57.07 57.06 57.12 57.67 57.10 53.16 50.37 56.45 62.67 64.19 67.47 68.86 66.11 61.95 61.77 61.36 62.51 64.31 62.36 56.82 58.13 61.87 62.79 60.71 63.46 65.08 64.42 64.10 64.09 63.35 61.56 64.07 65.79 66.51
55.93 55.95 55.81 55.96 56.20 56.29 56.29 56.49 56.51 56.67 56.80 56.96 56.85 57.57 57.87 56.12 49.37 50.84 64.55 63.11 66.50 68.24 68.72 64.98 61.45 57.85 52.27 56.42 61.00 62.60 58.29 61.68 62.04 63.96 63.96 62.17 63.22 66.39 63.77 61.71 63.16 59.43 62.04 65.49 66.29
55.76 55.73 55.74 55.85 56.07 56.14 56.30 56.38 56.23 56.31 56.43 56.55 56.68 57.82 57.07 52.62 42.37 56.33 71.51 65.36 67.83 62.32 59.20 56.52 54.92 49.87 47.70 49.35 56.57 55.82 61.67 63.40 63.44 63.71 64.23 62.36 64.46 64.39 65.00 64.34 66.04 63.19 65.81 66.26 65.70
55.60 55.71 55.86 55.93 55.88 56.09 56.46 56.25 56.14 55.93 56.16 56.25 56.40 57.97 52.90 46.44 46.71 55.64 70.28 65.68 64.41 58.34 55.06 51.61 49.30 48.16 46.44 48.52 52.22 54.36 57.20 60.75 63.49 62.81 62.66 64.53 62.32 64.30 64.58 66.67 64.96 64.46 66.47 65.78 65.85
55.56 56.12 56.10 56.29 56.37 56.45 56.47 56.03 55.99 55.63 56.41 56.60 56.23 57.82 49.77 41.65 52.60 57.26 65.41 62.31 61.41 56.47 52.43 51.21 49.45 49.61 47.94 48.63 51.12 54.37 55.93 57.45 60.32 62.03 62.87 63.18 64.25 64.02 64.97 66.57 63.97 64.07 64.79 65.64 66.23
55.89 55.83 55.83 55.86 56.08 56.08 55.96 55.57 55.26 56.21 58.98 57.46 57.18 55.42 49.26 46.88 55.08 55.44 57.89 59.01 60.30 56.17 52.77 53.34 51.61 50.05 48.69 47.73 52.52 52.29 49.61 52.53 55.45 61.75 62.83 64.11 59.75 61.64 65.13 65.67 63.75 63.80 64.42 65.58 66.71
55.70 55.54 55.56 55.32 55.54 55.18 54.88 54.80 55.36 58.21 56.75 57.39 59.01 55.01 46.54 55.89 56.10 56.92 54.35 57.32 60.13 57.01 52.28 54.00 52.54 48.83 46.60 48.86 48.80 48.29 48.00 43.76 51.74 61.02 63.17 61.74 53.65 62.68 64.96 64.25 63.00 64.28 64.87 65.28 65.96
55.07 55.04 54.77 54.74 54.64 54.19 53.75 54.44 56.24 58.88 59.26 59.59 53.60 49.57 45.62 58.75 54.66 55.97 55.44 57.13 57.80 54.48 52.45 56.74 50.73 45.54 46.51 43.62 40.71 42.41 41.00 45.54 49.72 61.18 61.57 61.10 56.81 63.01 64.59 63.70 62.75 63.58 64.25 64.93 65.41
54.58 54.25 54.25 53.95 53.57 53.17 53.09 54.70 55.08 58.52 58.27 58.01 56.69 46.82 48.56 48.59 48.57 49.80 53.74 58.00 54.40 52.81 51.00 48.54 45.56 41.41 39.75 39.63 38.10 38.43 42.89 45.10 47.91 55.26 60.04 59.02 56.67 62.15 63.31 63.07 62.67 63.30 64.08 64.72 65.05
54.35 54.04 53.75 53.28 52.86 52.15 50.62 42.55 40.37 38.45 40.42 38.96 41.25 46.32 45.53 47.32 49.10 49.95 52.67 55.21 52.53 48.40 42.90 45.35 40.28 39.55 42.28 42.50 44.59 46.31 46.93 46.51 50.76 55.97 58.30 57.80 56.65 59.44 63.10 62.83 62.26 62.62 63.35 64.25 64.82
54.06 53.53 53.26 52.78 52.23 52.08 47.30 42.04 42.48 44.09 35.59 43.62 44.37 43.95 45.39 44.26 42.73 46.33 50.20 51.28 49.23 44.62 46.83 43.03 40.18 44.44 45.95 45.16 44.46 43.94 43.35 44.77 50.27 58.74 57.24 57.35 56.62 58.55 62.21 62.81 63.02 62.89 63.29 64.20 64.91
53.59 53.11 52.53 51.75 51.65 46.87 43.37 43.51 46.19 42.35 34.13 40.48 43.54 44.11 43.69 43.45 41.93 44.09 47.29 47.65 48.43 45.54 46.26 43.60 46.04 49.11 47.51 45.46 44.20 43.72 43.35 45.38 47.11 56.17 58.56 56.71 55.70 56.49 59.87 61.36 63.77 64.63 64.82 65.08 64.85
53.38 52.91 51.78 51.18 45.08 43.69 44.16 45.82 45.74 43.21 30.93 39.02 40.70 44.85 44.26 43.75 41.60 47.38 47.39 45.27 46.34 46.33 45.92 45.04 50.35 49.48 47.57 46.82 47.44 41.66 49.25 50.12 49.73 48.86 47.42 55.87 44.31 52.62 57.15 57.99 58.85 61.46 64.30 64.61 65.34
53.19 52.40 51.36 51.02 42.43 42.25 46.27 45.94 45.48 41.40 25.21 42.43 40.56 47.13 42.76 39.24 41.55 43.42 47.84 45.94 42.25 45.03 45.03 44.64 46.06 46.50 47.18 48.58 51.02 46.66 51.09 49.68 49.26 47.17 45.93 51.96 46.76 50.65 55.85 55.35 56.83 60.05 63.27 65.14 65.99
52.71 51.93 51.33 46.79 43.72 45.73 46.63 44.93 41.63 32.93 26.78 37.37 41.02 39.23 38.46 38.82 40.81 43.75 45.57 48.76 48.08 44.60 44.27 45.41 50.49 48.60 48.97 51.97 52.33 53.10 49.18 47.58 44.99 46.92 41.56 45.01 48.43 45.02 51.54 54.80 57.36 60.10 62.20 63.65 65.57
51.52 50.45 49.53 49.50 43.58 46.94 45.44 40.05 31.01 26.37 38.49 35.26 34.67 36.72 35.04 35.45 38.00 40.44 42.02 40.35 38.02 35.51 35.54 41.67 44.30 47.80 50.27 47.14 50.75 50.32 41.66 36.94 34.54 36.88 38.25 43.01 42.85 47.73 54.44 58.29 59.46 59.50 61.42 63.20 64.66
50.24 49.38 47.52 50.12 49.05 46.94 41.26 35.74 24.96 35.27 32.82 37.13 36.42 35.55 33.99 35.96 34.73 37.51 36.10 35.76 41.19 39.22 35.84 33.47 35.59 43.64 48.33 47.06 45.43 46.76 45.67 36.99 30.56 31.84 39.01 42.38 38.71 46.04 54.66 60.06 61.44 62.11 62.40 63.24 63.95
49.95 43.76 44.72 46.38 50.10 43.28 37.79 27.13 27.43 33.32 36.89 35.67 34.28 31.59 30.84 35.83 35.72 35.14 34.02 34.59 39.95 39.55 33.22 33.96 35.44 44.53 46.93 47.62 48.54 44.79 43.25 46.76 37.41 35.18 34.05 39.09 42.40 48.87 52.14 53.84 59.14 60.55 60.94 61.32 62.95
44.64 39.95 42.15 49.38 47.75 40.76 34.20 30.23 31.74 38.88 39.33 36.14 29.47 32.88 27.91 31.26 32.00 30.67 32.10 38.57 39.16 41.96 39.93 37.17 31.62 40.77 43.99 46.62 48.73 47.70 47.09 40.67 36.55 35.89 32.34 35.62 38.20 43.90 47.11 48.60 56.69 58.61 60.31 61.28 62.42
39.22 37.17 44.91 49.02 43.65 37.93 28.73 29.68 36.46 41.37 41.43 35.34 32.57 30.58 29.85 30.33 30.00 29.43 31.40 37.33 41.25 40.56 40.32 35.27 34.63 36.87 41.33 40.78 40.43 42.84 44.63 40.54 42.66 38.41 37.85 32.78 39.78 44.28 47.91 50.22 50.82 56.18 60.20 61.45 62.45
37.31 33.63 44.84 44.59 35.07 32.22 31.17 34.78 39.54 39.20 41.08 38.44 36.78 34.45 31.76 32.44 29.61 29.32 30.74 35.37 43.54 41.69 36.19 38.07 34.61 32.82 35.65 43.67 45.01 43.62 41.12 45.06 39.95 36.43 35.03 36.19 42.33 49.11 48.95 50.01 50.84 51.45 56.16 59.99 63.42
35.97 34.76 43.25 41.63 28.54 29.18 33.56 36.14 38.84 37.92 38.05 37.92 37.41 38.11 35.79 31.18 27.26 31.39 34.63 40.99 43.05 39.85 37.17 36.81 36.89 29.56 33.74 36.83 40.74 37.77 40.20 40.44 41.02 37.92 37.14 37.20 42.00 47.93 47.37 48.56 50.94 51.12 53.32 61.48 62.88
36.77 31.79 35.29 36.04 34.49 30.95 32.24 33.08 34.32 40.76 39.72 39.64 37.99 38.27 36.11 33.37 33.25 30.26 33.00 40.33 42.16 41.11 46.37 42.89 34.00 31.05 29.66 32.38 35.82 33.55 36.77 38.15 36.99 35.65 43.27 41.36 40.90 45.19 46.56 46.94 48.56 49.78 52.10 55.02 63.05
35.57 31.62 33.68 28.91 31.35 31.40 32.90 33.05 34.13 35.03 39.62 39.90 36.38 36.12 34.62 30.44 30.24 29.33 33.51 34.16 39.15 44.34 41.32 37.23 31.95 34.62 34.70 35.55 36.19 35.30 35.43 37.39 36.98 40.41 37.84 44.64 41.73 44.98 45.60 47.44 48.80 52.02 54.37 53.79 57.23
35.12 34.14 34.87 36.70 36.34 34.99 31.69 30.96 34.43 35.14 35.49 34.72 34.97 36.68 36.17 30.18 30.57 29.30 30.90 29.74 31.10 36.17 34.49 34.99 31.44 33.03 31.81 36.55 36.42 34.99 37.89 40.84 42.60 43.63 43.84 43.93 43.12 46.51 51.40 55.34 56.68 54.66 53.79 54.20 60.17
40.07 41.89 41.22 37.38 36.06 34.68 32.80 36.05 36.04 37.76 38.66 39.64 37.05 35.49 33.82 35.39 37.63 36.05 35.38 33.94 32.92 33.48 31.79 32.70 33.93 31.49 26.75 34.31 34.22 36.54 41.41 44.87 45.58 45.93 44.71 41.73 45.14 50.64 55.16 57.08 57.79 58.50 58.85 56.65 61.54

GFSSW_sfc_wetblb_069.txt.gz
Wetbulb
57.10 57.06 56.91 56.90 57.19 57.46 57.46 57.65 57.59 57.74 57.76 57.89 57.92 57.75 57.48 58.01 57.06 55.01 50.32 55.62 57.28 63.93 70.70 72.41 70.37 69.31 68.87 67.01 68.82 69.12 60.58 57.91 58.11 59.20 60.86 64.99 64.10 67.31 68.29 64.39 65.70 65.97 65.22 67.10 69.24
56.85 56.62 56.57 56.53 56.81 57.00 57.16 57.33 57.39 57.56 57.56 57.67 57.64 57.51 57.16 57.26 53.65 51.18 58.46 60.46 63.08 67.69 70.56 67.80 65.22 66.66 63.66 64.09 65.85 64.37 59.63 59.81 62.60 63.91 62.09 64.79 65.42 66.13 65.53 64.42 63.60 64.34 66.63 67.99 69.66
56.28 56.28 56.04 56.20 56.36 56.59 56.73 56.96 57.02 57.21 57.23 57.16 57.10 57.00 57.13 56.19 49.83 50.53 61.52 64.05 64.57 67.75 69.85 68.23 66.67 63.98 59.35 63.13 63.20 63.53 59.88 63.16 63.97 65.58 65.12 65.53 65.70 67.29 65.45 63.38 64.78 63.56 64.72 66.95 68.54
56.06 55.85 55.72 55.84 56.02 56.18 56.57 56.56 56.62 56.63 57.04 57.17 56.87 56.29 56.78 54.09 43.45 53.56 67.64 69.16 66.22 65.79 67.63 64.55 63.26 58.00 55.68 57.20 61.59 60.10 63.23 64.71 64.70 65.86 64.77 64.15 66.98 65.46 66.39 66.02 68.43 66.95 66.65 67.20 67.36
55.57 55.51 55.59 55.62 55.56 55.95 56.12 56.08 56.03 56.22 56.70 57.27 56.72 56.63 54.58 48.69 48.55 60.62 65.56 65.45 64.32 64.44 63.15 59.74 58.88 56.18 52.18 54.94 56.89 58.78 60.81 62.03 64.59 64.34 63.71 64.71 64.99 65.11 66.01 67.74 67.81 67.23 66.60 66.75 67.30
55.75 56.06 55.76 55.97 55.82 55.87 55.55 55.28 55.39 55.79 57.26 58.24 57.28 57.45 52.21 44.02 56.12 62.70 62.32 63.40 62.63 64.15 60.97 60.67 58.59 57.94 54.66 54.00 54.05 56.86 58.90 60.27 61.15 60.03 62.41 61.21 63.58 66.08 65.51 66.90 65.93 66.00 65.84 66.76 67.31
55.45 55.53 55.47 55.45 55.12 55.03 55.01 54.65 55.02 56.23 58.31 58.95 57.93 55.26 50.10 48.20 56.51 58.15 62.81 62.23 65.45 63.13 58.68 60.50 61.43 56.42 54.58 51.46 54.78 56.94 53.23 55.05 56.42 58.01 58.96 64.19 61.75 62.86 65.59 66.25 64.81 65.10 65.81 66.44 67.48
55.46 55.32 55.26 55.26 55.33 54.72 54.24 54.25 55.80 57.28 58.17 58.34 59.05 55.23 49.18 56.76 58.95 58.61 60.37 60.79 63.64 59.23 60.10 56.64 58.42 55.61 52.50 52.97 50.88 49.85 51.29 51.17 56.86 58.26 59.07 63.82 57.97 64.16 65.37 64.90 63.85 64.43 65.20 65.86 67.27
55.09 54.84 54.99 54.86 54.67 54.43 53.90 55.24 58.47 58.79 58.85 59.08 56.24 52.90 48.20 59.82 52.18 53.09 57.53 57.92 59.77 58.60 57.21 58.29 55.30 52.60 51.14 48.88 47.21 48.93 44.81 48.96 53.29 57.30 60.58 63.04 58.95 64.36 65.03 64.82 63.72 64.38 65.01 65.65 66.73
54.57 54.47 54.26 54.32 53.94 53.60 53.45 55.96 60.57 59.33 58.86 58.66 56.59 49.38 50.52 46.50 49.40 50.34 52.54 60.16 56.28 54.75 53.04 52.56 52.03 48.48 48.43 47.05 41.29 44.49 45.00 49.34 52.20 56.94 59.66 60.84 60.39 63.86 64.12 64.19 64.39 64.71 65.18 65.48 66.20
54.36 54.15 53.99 53.64 53.37 52.85 51.97 50.26 47.77 46.77 47.67 43.72 44.78 44.26 46.76 48.91 49.59 49.32 56.92 57.17 55.82 51.94 46.73 49.66 46.34 43.84 45.88 47.81 48.04 48.62 47.89 48.10 53.16 57.84 57.13 57.92 60.20 62.71 64.46 63.70 63.56 64.52 64.82 65.53 65.93
54.15 53.98 53.74 53.16 52.90 52.59 50.31 48.13 47.57 48.26 42.64 45.45 44.78 45.04 46.85 47.46 45.57 47.87 54.02 53.06 51.28 46.49 47.97 45.70 43.10 47.36 48.47 47.29 46.91 47.30 47.06 48.70 52.64 54.26 56.79 57.02 57.21 62.26 64.05 64.14 64.38 63.69 64.00 65.24 66.40
53.88 53.64 53.08 52.49 52.35 50.47 48.83 48.60 50.79 47.85 41.68 44.14 45.95 46.02 46.21 47.22 44.93 45.36 51.37 50.14 51.17 47.50 46.27 44.99 46.95 48.54 46.38 45.54 45.18 45.86 45.61 47.57 48.77 52.83 56.15 56.99 55.66 58.98 63.42 65.07 65.63 66.00 66.13 65.80 66.27
53.70 53.53 52.61 51.18 49.91 47.97 47.34 49.80 50.72 48.45 40.42 41.29 43.28 45.22 46.49 44.93 43.81 47.93 52.45 48.70 48.88 48.69 47.60 47.34 49.73 46.80 45.87 44.73 46.06 43.39 47.86 47.96 47.86 47.80 48.60 58.14 49.64 57.50 60.94 62.31 63.70 65.13 65.95 66.41 66.88
53.64 53.02 52.04 50.82 49.39 48.64 49.80 50.63 48.60 45.48 31.69 41.51 42.94 48.44 46.27 43.73 44.15 45.60 52.83 49.76 45.65 49.43 49.39 47.24 48.06 46.65 44.97 45.25 47.01 44.72 47.57 46.47 47.04 47.08 48.25 49.61 51.82 55.89 60.45 59.87 62.35 64.55 65.91 66.93 67.72
53.13 52.37 51.65 49.93 49.00 50.59 50.66 48.92 46.89 39.10 30.30 38.44 42.47 40.83 41.71 42.12 43.43 46.13 48.08 50.61 49.80 46.87 47.27 50.10 50.76 51.12 49.07 49.64 48.56 48.92 48.42 47.16 46.85 45.94 41.70 47.82 48.99 52.14 55.51 58.89 61.84 64.98 66.11 66.88 67.75
51.82 51.00 50.14 50.85 47.15 51.36 49.04 47.30 38.65 33.62 39.85 36.57 37.80 39.64 39.19 38.91 40.61 42.67 43.13 41.96 42.34 41.31 41.57 44.74 46.86 49.17 51.16 48.65 50.50 49.00 46.45 41.92 39.38 39.42 39.69 50.22 47.27 50.94 56.84 60.83 61.52 63.42 65.89 67.38 68.01
50.39 48.44 48.92 51.01 50.78 49.35 48.04 43.49 32.49 35.24 35.95 40.37 39.15 38.51 36.68 39.04 38.98 40.53 40.05 39.97 42.10 41.20 42.14 40.35 39.61 46.49 49.13 48.50 47.45 47.79 48.13 42.12 36.90 38.13 40.81 49.44 45.53 50.91 57.44 59.69 62.70 64.37 66.01 67.38 68.08
49.24 47.61 49.58 50.56 49.78 47.72 46.56 36.92 34.41 35.71 39.07 37.85 38.68 35.41 35.41 38.01 38.26 38.32 39.06 39.66 40.08 41.21 38.52 39.33 39.92 45.08 47.27 48.62 49.70 47.87 45.76 50.38 44.90 44.80 42.64 45.93 50.00 54.26 56.04 57.48 58.93 60.34 63.52 65.10 66.70
45.99 44.62 47.75 50.31 48.46 47.92 42.14 34.16 37.31 40.93 41.11 39.59 33.79 36.11 33.30 35.54 35.96 36.64 36.97 41.87 39.33 42.05 44.37 40.28 34.68 41.90 45.23 47.66 49.15 48.90 51.48 45.00 46.03 37.79 37.94 43.57 45.78 48.19 53.92 55.17 57.43 59.27 61.16 63.36 66.09
45.26 45.65 49.02 49.04 49.64 45.02 37.04 35.77 38.17 42.25 42.44 38.49 35.84 35.20 35.33 34.78 35.59 35.56 36.28 40.24 42.12 40.47 43.70 40.91 36.83 37.51 42.08 44.00 45.54 45.51 45.65 47.06 47.93 46.06 40.87 40.39 44.25 53.28 54.64 57.38 57.65 59.00 61.87 64.07 65.75
43.57 42.33 48.79 47.75 41.47 38.69 36.30 36.46 38.95 40.04 42.97 40.71 39.92 37.35 35.42 35.68 34.54 34.99 34.91 37.81 43.79 42.42 37.52 41.56 39.18 34.07 36.80 44.49 46.05 43.97 44.72 46.77 42.79 43.20 45.72 45.11 45.53 55.36 56.19 56.64 57.13 58.34 60.10 63.05 66.00
40.12 40.56 47.97 47.65 36.14 35.01 37.03 37.44 39.41 39.13 39.56 39.02 38.17 38.86 39.38 36.05 33.09 35.10 36.77 42.34 43.85 41.70 39.32 42.06 37.24 31.94 34.43 40.78 43.98 42.12 42.54 43.02 42.32 43.66 43.93 42.57 45.24 56.33 56.76 57.16 58.23 57.28 58.97 61.35 65.47
42.14 39.38 42.27 41.88 40.06 35.82 34.03 35.07 35.67 41.72 39.90 39.67 38.44 39.60 37.65 35.34 37.65 34.15 35.61 40.09 41.80 42.37 44.47 43.97 37.53 35.03 32.67 35.23 38.15 37.29 39.62 41.24 41.57 41.47 43.54 45.20 48.21 52.59 54.85 56.03 57.33 57.54 57.61 58.17 59.96
41.53 37.58 38.43 35.47 36.88 37.35 36.67 35.52 34.31 34.75 39.12 39.94 37.30 36.54 35.53 32.59 34.05 34.08 36.54 37.87 40.24 43.69 43.30 41.95 33.63 35.65 36.32 36.79 36.71 36.34 37.06 39.35 39.15 42.08 41.58 46.30 47.22 51.56 54.46 54.21 59.21 60.65 62.23 63.06 63.90
41.33 40.94 41.00 38.41 37.96 37.03 36.22 34.01 34.13 35.92 37.04 35.84 35.21 37.16 37.47 34.58 35.31 33.37 36.15 36.65 36.00 40.18 39.79 40.22 34.11 35.63 33.43 36.49 38.16 35.76 37.98 39.04 40.27 41.69 42.34 43.91 45.22 52.18 55.17 59.96 58.35 58.24 59.06 60.87 63.04
45.35 45.75 43.31 38.45 37.37 36.77 36.16 36.44 36.16 38.13 38.87 40.09 39.00 37.49 35.95 37.97 40.40 41.43 41.75 41.33 40.10 37.78 38.36 36.78 35.22 32.55 29.48 35.77 36.69 33.86 39.10 39.95 41.66 45.32 46.10 43.99 48.34 51.12 55.39 57.05 56.79 57.45 58.51 59.69 61.68

GFSSW_sfc_wetblb_075.txt.gz
Wetbulb
57.60 57.74 57.69 57.31 57.55 57.74 57.89 58.33 58.46 58.65 58.80 58.82 58.95 58.69 58.54 58.25 58.12 59.23 56.36 60.72 62.81 65.81 65.83 64.45 67.86 68.94 70.36 68.49 69.61 69.51 63.24 60.98 60.69 62.85 62.68 68.03 65.63 69.23 69.36 69.31 69.88 70.60 70.91 71.29 72.80
57.19 56.90 57.02 57.12 57.23 57.52 57.75 57.88 58.05 58.30 58.37 58.49 58.62 58.43 58.31 57.82 58.27 57.50 64.73 62.23 61.28 65.99 64.94 65.13 65.68 67.46 66.48 66.26 67.26 65.40 61.78 61.50 63.80 65.09 62.78 67.64 67.09 66.39 68.24 68.14 68.10 68.94 71.58 71.89 72.10
56.73 56.75 57.09 56.86 56.97 57.28 57.61 57.63 57.72 57.93 58.06 58.08 58.31 58.33 57.97 58.43 57.86 58.54 66.83 63.20 63.64 64.89 67.19 68.28 67.89 66.54 63.80 64.84 65.37 64.63 61.31 63.96 66.13 67.68 68.60 67.27 66.31 70.02 66.49 65.17 68.44 67.79 69.47 70.15 71.01
56.47 56.38 56.42 56.62 56.84 57.20 57.28 57.34 57.45 57.27 57.45 57.58 58.23 58.16 57.70 59.94 51.54 62.91 67.14 67.91 66.96 64.84 67.59 66.59 65.57 63.23 61.25 60.60 63.91 61.41 63.23 65.36 65.26 67.79 65.63 66.11 68.04 67.01 68.40 65.49 70.72 70.86 70.91 70.46 70.21
56.28 56.45 56.34 56.29 56.65 56.91 56.97 56.92 56.78 56.80 57.05 57.50 58.56 58.27 58.36 57.26 54.48 62.49 67.79 69.18 67.61 62.69 65.86 64.99 63.52 63.03 59.07 59.69 61.02 60.12 62.96 64.42 68.39 68.13 67.60 68.27 67.06 65.54 67.98 70.74 71.57 71.52 70.98 70.29 70.54
56.61 56.65 56.71 56.67 56.33 56.55 56.63 56.40 56.38 57.28 57.41 58.03 59.16 58.06 59.33 52.68 59.30 61.01 64.45 68.01 63.50 62.14 65.13 65.51 63.45 64.10 59.79 58.18 57.84 59.94 61.38 63.09 66.19 67.17 67.78 64.82 66.24 67.28 68.98 71.36 70.54 70.47 70.28 70.56 70.61
56.32 56.44 56.32 56.49 56.19 56.17 56.02 55.77 57.64 58.24 59.40 59.69 59.66 59.84 57.38 54.96 58.46 61.12 64.27 64.24 63.06 63.43 63.77 65.62 64.35 62.32 59.27 56.05 58.37 58.45 55.96 58.62 61.80 64.72 64.91 67.11 63.51 65.13 69.88 70.76 69.85 69.69 70.16 70.49 70.64
56.07 56.23 56.31 56.41 56.23 55.70 55.31 55.20 58.41 59.13 59.13 59.95 59.73 61.81 55.83 58.77 60.94 60.80 63.97 63.50 64.71 63.95 64.84 65.81 63.82 60.80 59.04 58.03 54.51 54.14 55.04 53.40 58.31 60.55 63.62 65.24 60.41 66.47 70.55 69.75 69.11 69.42 69.53 69.94 70.31
55.68 55.86 55.94 55.94 55.59 55.24 54.71 55.10 59.68 59.37 59.41 59.87 61.28 61.05 53.19 58.75 56.39 57.16 63.64 61.83 63.73 64.80 64.50 63.81 61.77 58.22 58.08 53.28 51.40 51.67 49.18 51.72 55.28 59.90 62.19 63.38 61.31 65.20 69.93 69.43 69.07 69.46 69.31 69.79 69.95
55.47 55.42 55.24 55.26 54.64 54.20 54.34 54.97 60.22 59.69 60.63 62.56 61.30 56.49 53.05 51.26 54.23 55.64 58.51 61.77 62.87 60.65 61.08 58.79 56.96 54.29 54.89 52.59 46.53 48.33 48.73 51.89 53.29 59.17 61.97 62.02 61.94 64.33 68.65 68.89 69.09 69.45 69.25 69.61 69.79
55.16 54.93 54.75 54.48 53.91 53.26 55.15 58.24 58.17 56.71 56.75 50.64 51.04 50.63 51.09 54.57 56.51 55.52 57.82 61.16 62.66 58.63 54.06 56.63 51.99 49.88 52.53 53.83 52.43 52.08 50.93 50.31 54.34 60.80 60.96 60.85 62.02 63.32 67.95 68.39 68.43 69.05 69.28 69.27 69.96
55.02 54.71 54.44 54.11 53.56 53.04 56.01 54.23 52.92 54.23 50.70 52.15 51.12 51.63 52.49 53.98 51.77 55.66 60.62 56.51 56.34 54.26 55.40 52.79 49.43 53.30 53.85 53.61 52.11 51.38 50.49 50.63 53.15 56.19 60.99 60.52 60.17 65.76 67.10 67.76 68.67 68.96 69.33 69.16 70.19
54.73 54.38 53.87 53.40 52.81 54.87 56.13 54.55 57.36 56.41 50.60 50.86 51.87 50.38 50.88 52.73 49.95 51.98 58.39 56.41 53.73 52.92 53.72 51.31 51.77 53.61 52.63 51.52 50.49 50.89 50.27 50.67 51.18 54.83 58.45 60.03 58.94 62.66 64.70 68.54 69.10 69.79 70.42 70.02 69.72
54.34 53.97 53.15 51.97 52.59 58.05 56.05 57.71 57.71 56.62 47.85 47.28 48.49 50.14 51.56 51.47 49.00 53.72 56.46 57.28 54.29 50.99 52.56 52.17 54.32 52.27 51.25 50.59 51.44 48.69 52.08 51.42 51.12 51.31 51.38 58.96 52.51 59.44 64.15 63.13 66.96 68.21 69.74 69.69 69.01
53.89 53.42 52.21 50.63 57.25 56.32 56.07 58.56 57.14 55.12 39.64 46.43 48.33 53.06 51.21 49.50 50.14 51.05 54.94 54.56 51.79 52.76 52.35 49.98 51.86 51.67 50.99 51.35 52.34 50.60 52.96 51.16 50.70 50.37 51.71 54.21 52.88 56.54 62.45 61.11 65.06 67.16 68.86 70.04 70.15
53.11 52.65 51.95 57.15 58.62 57.48 58.55 57.99 54.67 44.48 38.32 44.06 47.53 46.68 47.49 48.25 48.56 50.47 51.56 54.11 54.62 51.73 52.63 53.04 54.83 53.27 53.07 54.15 54.01 54.32 51.86 51.38 51.08 49.38 44.82 50.85 52.81 54.37 57.25 61.26 63.78 67.23 68.43 69.68 70.62
51.91 51.10 52.36 57.19 55.50 58.71 58.42 55.03 44.95 40.63 46.96 43.47 44.68 46.13 45.98 46.03 46.78 47.45 48.13 48.75 47.41 45.72 45.92 49.99 52.09 54.19 54.51 52.22 54.33 53.30 50.47 44.82 43.17 43.38 42.79 49.57 50.01 56.11 60.05 62.70 63.63 66.53 68.12 69.60 70.68
50.45 49.21 56.12 57.55 59.08 58.16 56.35 50.02 40.92 44.48 44.78 46.80 45.36 45.76 43.71 45.47 46.49 45.92 46.16 45.20 48.70 47.25 45.37 45.27 44.56 51.15 54.74 52.55 51.33 51.54 50.49 45.68 41.26 42.53 44.28 49.21 46.53 52.37 60.44 63.81 64.61 67.13 68.17 69.78 70.50
49.83 57.65 58.34 58.82 58.51 57.33 52.55 45.33 45.71 45.87 46.34 44.96 46.27 43.61 44.49 44.65 44.45 44.66 45.42 46.02 48.01 48.03 43.82 44.27 45.08 52.41 53.66 54.94 53.84 51.46 48.62 52.44 48.17 49.84 46.79 47.91 49.79 53.77 57.40 59.90 63.41 62.90 66.94 68.23 70.28
54.87 56.75 56.92 58.79 59.00 55.84 50.11 43.23 46.27 47.95 47.33 46.93 43.20 44.39 42.59 44.25 42.98 44.70 45.08 47.52 45.60 46.63 48.55 46.55 42.89 50.34 52.11 54.29 54.13 52.35 54.67 47.92 48.83 43.38 42.98 47.90 49.12 48.00 53.48 56.85 60.35 62.21 65.08 67.13 69.82
54.79 53.36 56.96 58.95 57.99 53.57 47.67 46.61 46.11 48.46 48.01 45.67 44.40 43.78 44.28 43.21 44.14 43.87 44.36 46.47 47.08 46.93 47.79 47.13 44.87 45.30 49.04 49.01 48.95 50.23 49.45 51.07 51.47 49.25 45.22 44.80 48.86 56.20 54.67 57.70 59.30 61.09 64.07 65.75 66.97
55.86 52.11 57.36 58.38 51.36 51.83 47.84 46.74 42.89 46.47 48.48 46.97 46.69 45.28 43.56 43.94 42.88 43.60 43.12 45.10 47.54 47.41 44.28 47.76 44.93 41.84 44.11 48.96 50.99 50.87 50.47 50.67 47.42 47.56 49.59 49.23 49.60 57.80 57.39 57.59 59.64 61.72 63.44 64.97 66.11
53.58 53.16 57.06 56.92 48.01 46.73 47.41 45.93 46.88 46.11 45.74 45.07 44.39 45.46 46.14 43.60 40.18 43.38 43.61 47.08 46.77 46.27 44.81 47.48 43.41 39.30 40.99 44.78 47.71 47.54 50.20 51.72 51.23 51.78 49.72 47.15 49.54 59.10 58.80 58.81 60.44 61.12 62.52 64.14 65.24
53.78 50.67 52.03 52.96 51.76 48.20 45.98 44.20 43.86 46.31 45.15 45.72 44.73 45.63 44.04 42.65 44.34 41.44 42.05 45.12 46.25 46.34 46.98 46.86 43.42 41.55 39.15 42.39 45.33 44.61 46.06 49.82 50.34 47.28 48.34 50.12 51.59 56.34 57.70 58.71 61.50 63.58 65.20 65.62 65.96
53.38 48.22 49.50 45.80 47.33 47.39 46.94 45.09 42.27 42.51 45.68 45.81 43.17 43.01 41.93 39.91 40.99 40.56 42.77 43.57 44.78 47.14 45.79 45.02 39.58 42.79 43.72 44.36 44.42 43.71 44.47 46.81 48.18 49.92 46.96 50.14 52.06 55.74 57.72 58.44 62.27 64.02 64.24 64.41 64.93
52.37 52.23 51.17 48.44 47.20 47.11 43.05 43.59 41.23 41.46 43.17 40.84 41.10 41.57 43.08 40.07 41.10 39.69 42.09 42.43 40.94 44.12 42.71 44.72 39.33 41.36 40.38 43.28 43.81 41.93 43.52 44.18 45.16 46.65 47.84 50.47 50.78 57.15 56.66 59.87 60.29 61.18 63.59 63.99 65.17
54.73 54.80 52.28 44.18 46.20 46.45 43.80 43.01 40.79 43.20 43.55 43.83 42.66 42.89 42.20 43.28 45.12 46.54 46.42 46.33 45.10 42.78 41.62 42.39 40.80 38.79 35.81 41.33 42.09 38.80 42.83 43.52 44.74 46.78 47.28 46.20 52.35 56.67 56.45 57.53 60.86 63.01 62.97 63.30 64.68

GFSSW_sfc_wetblb_078.txt.gz
Wetbulb
58.42 58.48 58.13 57.67 57.93 58.25 58.39 58.69 58.71 58.85 59.02 58.95 59.17 59.33 59.27 59.04 58.50 57.90 55.27 61.13 63.35 67.75 67.66 61.13 64.72 65.77 67.98 68.19 68.87 68.89 60.45 57.45 60.30 60.16 61.32 67.60 66.57 68.16 68.11 67.02 68.97 70.07 69.75 70.35 71.56
57.91 58.03 57.66 57.45 57.52 57.98 58.15 58.38 58.36 58.65 58.67 58.71 58.71 59.01 59.21 58.74 57.30 56.61 66.23 67.37 65.08 66.01 56.62 58.55 60.58 64.97 64.09 65.36 66.28 64.06 60.31 61.18 63.37 64.02 61.10 64.06 66.71 63.54 66.25 67.01 67.68 69.24 70.95 71.45 71.61
57.11 57.52 57.60 57.43 57.53 57.80 58.10 58.18 58.38 58.36 58.31 58.40 58.56 58.92 58.95 58.71 57.30 59.16 66.84 65.45 66.15 65.01 58.09 61.92 63.07 64.37 62.51 64.85 64.30 64.21 59.97 61.90 62.01 63.53 65.18 64.93 65.89 69.56 66.26 65.11 67.40 67.15 68.73 70.22 70.35
56.90 56.90 56.91 57.13 57.39 57.60 57.72 57.96 57.85 57.83 57.90 58.10 58.30 58.97 58.71 58.31 53.00 63.42 69.90 68.33 66.57 60.05 58.25 62.35 64.51 62.25 60.99 60.72 63.62 60.74 63.33 64.32 63.25 64.05 65.10 65.52 67.37 65.53 66.87 67.03 69.54 70.26 70.44 70.39 69.42
56.50 56.70 56.65 56.84 56.96 57.13 57.37 57.36 57.16 57.39 58.21 58.01 58.26 59.28 57.38 57.82 56.20 65.43 70.15 68.81 65.29 59.26 59.09 63.63 62.74 62.18 59.37 60.83 61.93 60.30 61.81 62.97 64.71 64.68 67.94 65.86 63.23 64.34 64.21 69.30 70.04 70.79 70.21 69.69 69.70
56.60 56.99 57.11 56.97 56.95 56.92 57.17 56.97 56.69 58.16 58.91 58.62 58.70 59.03 56.23 54.37 59.54 60.88 63.58 67.50 62.60 58.91 60.73 65.31 63.30 64.10 61.60 60.10 58.30 60.63 60.67 61.08 64.03 65.30 67.90 64.85 64.49 65.60 66.47 70.07 70.18 69.78 68.94 69.68 69.50
56.48 56.80 56.86 56.84 56.42 56.38 56.35 56.05 56.75 59.20 60.42 60.36 60.18 59.11 58.13 56.65 59.80 59.98 62.19 65.12 64.55 59.82 60.16 66.27 65.61 63.21 62.50 58.11 59.09 58.06 56.62 58.18 61.15 63.51 64.90 67.31 63.03 63.80 67.69 69.87 68.91 68.77 68.93 69.46 69.88
56.42 56.56 56.68 56.75 56.58 56.09 55.70 55.33 56.78 60.37 60.27 60.16 60.66 59.56 58.66 58.48 60.23 59.46 62.22 63.00 64.44 61.34 61.74 66.27 66.08 62.16 61.04 60.94 56.46 53.86 54.67 52.43 57.68 60.23 63.80 64.77 59.89 65.61 68.79 68.00 67.83 68.70 68.69 69.09 69.61
56.02 56.10 56.18 55.90 55.75 55.43 54.89 55.11 57.18 61.24 60.80 60.21 60.52 61.05 56.64 59.12 56.86 58.36 63.06 60.86 62.83 61.89 63.96 65.59 64.20 59.89 57.73 55.58 51.35 52.27 48.21 51.13 54.06 59.88 60.03 61.73 60.87 66.70 66.05 66.58 67.47 67.93 68.58 68.66 68.87
55.64 55.55 55.49 55.41 55.04 54.34 54.10 54.56 58.77 60.80 61.61 62.29 62.15 56.74 55.99 51.85 54.90 56.51 59.84 62.27 60.93 60.93 60.28 60.14 59.04 54.97 54.81 53.05 46.39 48.26 48.35 49.86 51.91 56.83 58.47 57.64 61.33 63.30 62.89 62.76 64.63 67.84 68.25 68.26 68.32
55.61 55.12 55.02 54.69 54.22 53.51 54.26 58.46 57.42 58.01 58.87 53.85 51.90 51.29 51.75 55.26 57.12 55.16 56.02 58.92 61.34 59.70 55.39 58.08 53.36 50.25 52.71 53.18 53.51 51.80 50.46 49.48 52.23 56.39 56.69 57.09 60.11 60.78 61.29 60.83 61.90 65.86 67.74 68.18 68.40
55.28 54.79 54.51 54.10 53.55 53.00 54.68 54.91 53.67 54.46 49.81 53.05 51.94 52.29 53.37 54.70 52.10 55.98 58.48 56.75 57.35 53.32 54.21 54.57 50.55 54.57 53.66 53.95 52.99 52.34 50.02 49.84 52.31 54.32 56.01 59.17 60.16 59.90 59.99 59.70 60.94 63.64 67.43 68.10 69.13
54.67 54.35 53.79 53.32 52.90 55.18 56.18 55.33 58.23 56.79 49.42 51.84 52.59 51.32 51.65 53.14 50.88 53.56 57.66 56.63 54.57 53.10 53.45 50.05 52.52 55.12 53.46 51.93 51.29 51.16 49.69 49.83 50.19 53.17 54.68 57.24 58.74 57.28 59.69 63.06 65.30 67.09 69.31 69.09 69.74
54.20 53.88 53.13 52.03 52.74 58.34 56.86 58.42 57.97 56.79 46.73 47.97 49.22 50.74 51.78 52.07 49.17 54.38 56.25 56.51 54.28 51.15 52.27 53.00 54.84 53.31 51.50 50.87 51.74 48.40 52.45 51.31 50.81 50.03 47.36 54.05 47.94 58.81 60.58 61.76 65.24 66.30 65.47 68.20 68.78
53.96 53.51 52.33 51.27 55.24 56.67 57.09 59.03 57.09 55.27 39.22 48.74 48.98 53.73 51.92 49.80 51.11 51.21 54.86 53.41 51.67 52.70 52.14 50.01 52.12 51.71 50.75 51.08 52.60 50.34 53.25 51.64 50.55 49.38 49.34 50.28 50.64 54.97 63.04 60.93 60.15 61.40 64.76 67.98 68.07
53.44 53.01 52.15 57.79 57.42 59.31 59.07 58.92 55.49 44.30 38.28 44.96 48.66 47.64 47.74 48.94 49.04 51.32 51.54 53.90 54.67 51.34 52.21 52.12 55.24 53.32 52.63 53.99 54.12 54.08 51.86 51.69 51.00 48.68 44.01 48.49 49.12 51.90 59.35 58.53 57.41 62.78 66.53 67.80 68.26
52.37 51.35 51.24 57.02 56.20 59.56 59.18 55.74 44.63 39.95 48.90 44.73 45.53 46.82 46.68 47.13 47.02 47.78 47.88 48.39 46.56 44.80 45.18 48.03 49.65 53.91 53.77 50.92 53.45 53.03 49.56 43.67 42.71 42.65 41.86 48.58 47.56 52.26 59.88 64.51 62.54 61.82 67.11 69.00 68.97
50.96 49.62 54.83 58.28 60.34 59.24 56.71 50.45 41.23 46.77 45.83 48.13 46.29 46.24 44.00 46.94 46.43 46.69 45.93 44.81 48.01 47.56 44.73 43.32 43.38 49.26 53.97 51.78 49.97 50.89 50.03 44.87 39.79 40.97 43.42 48.98 45.84 49.26 56.71 59.41 67.39 68.60 67.83 69.80 70.37
50.21 58.51 57.23 59.76 59.57 58.00 52.58 45.43 45.74 46.74 48.38 46.57 47.08 44.72 45.09 45.98 45.09 45.80 45.69 45.76 48.02 48.84 43.81 43.14 42.81 50.02 52.58 54.02 53.24 50.57 48.45 52.21 47.36 48.60 45.18 47.25 50.06 52.74 55.66 58.03 63.31 64.08 65.70 67.03 65.31
53.29 57.48 58.15 59.74 59.47 56.31 50.06 45.49 47.73 49.22 48.57 48.42 43.57 46.11 44.19 45.64 44.35 45.13 45.54 48.20 47.07 48.47 48.98 45.74 40.87 47.77 50.78 53.68 53.56 51.70 53.71 47.29 48.52 42.10 41.86 46.00 49.09 48.81 53.05 55.34 61.92 63.77 62.16 64.01 64.26
54.46 54.51 58.15 59.68 58.49 53.59 47.43 47.27 48.24 49.88 49.39 46.83 46.18 45.20 45.52 44.95 45.80 44.70 45.09 47.68 48.51 47.89 49.01 46.83 44.03 43.92 47.82 47.94 48.89 50.25 49.12 50.07 50.03 48.19 43.23 42.83 46.87 56.04 55.43 56.51 57.48 63.98 63.65 63.31 65.15
57.22 51.27 58.00 59.39 51.33 52.65 47.67 48.19 44.08 48.27 49.88 48.29 47.79 46.42 45.16 45.85 44.30 44.28 43.81 46.03 48.38 48.10 44.14 47.24 44.09 40.53 43.53 49.06 51.04 51.45 49.78 49.94 45.96 45.65 48.46 48.29 48.44 58.47 58.26 56.63 57.70 59.79 64.83 65.48 65.42
54.26 53.35 57.91 57.43 47.75 47.80 48.64 47.13 48.21 47.80 46.95 46.67 45.91 46.73 47.14 44.21 41.52 44.13 44.84 47.95 47.87 46.15 44.71 46.10 43.17 38.70 40.54 44.94 47.81 46.34 47.86 49.05 49.51 50.28 47.39 45.60 47.99 58.19 59.00 58.36 58.58 59.10 61.37 66.12 67.67
54.25 50.04 53.38 53.84 52.97 49.58 47.18 45.63 45.60 47.48 46.76 46.97 45.81 46.49 44.92 43.54 45.39 42.27 42.89 45.80 46.92 46.16 47.78 46.63 42.22 39.84 37.27 42.10 44.84 43.63 45.27 47.51 47.91 46.12 47.13 48.43 51.16 55.50 57.68 58.42 62.89 64.17 65.58 65.50 67.84
54.31 49.31 50.97 46.53 48.07 48.35 48.38 46.57 44.10 43.78 46.93 47.34 44.80 44.67 42.61 41.44 42.33 41.58 43.55 44.14 45.31 47.38 45.81 44.86 38.30 40.87 42.29 43.61 43.75 44.02 44.48 45.42 44.91 47.60 46.12 48.49 51.23 50.39 53.79 57.37 57.93 64.22 64.74 64.83 65.88
51.94 51.14 52.13 49.59 49.72 48.49 44.57 44.89 43.12 43.59 44.80 42.88 42.61 42.72 43.69 41.35 42.43 40.18 42.40 43.11 42.35 45.20 44.55 45.54 39.20 41.04 38.75 42.50 43.11 42.17 44.44 44.99 45.40 47.17 48.99 50.17 49.53 54.45 56.08 56.81 60.38 61.96 64.18 64.44 65.33
56.93 55.42 52.90 46.15 48.24 46.76 44.53 44.69 43.02 45.25 45.34 45.66 44.39 43.38 43.65 44.88 46.44 46.75 47.08 46.36 45.38 43.62 42.22 42.22 39.77 38.44 34.44 40.71 41.02 37.35 42.94 44.49 45.22 47.29 47.53 45.01 50.02 54.36 55.15 56.75 55.60 59.77 61.57 61.77 63.08

GFSSW_sfc_wetblb_081.txt.gz
Wetbulb
57.50 57.79 57.89 57.84 57.95 58.38 58.61 58.89 58.91 59.11 59.06 59.17 59.06 59.32 59.37 59.69 59.17 56.21 52.18 57.65 58.53 67.09 69.52 60.51 60.08 60.91 62.28 65.72 68.33 67.15 57.23 56.17 57.96 59.12 57.43 62.82 63.68 67.92 69.13 67.10 68.07 68.96 67.31 68.77 70.70
57.39 57.72 57.71 57.64 57.88 57.97 58.33 58.45 58.71 58.90 58.92 58.90 58.82 58.82 59.10 59.48 55.06 53.00 61.97 68.64 69.45 68.87 56.27 55.43 55.55 60.59 57.92 61.07 64.27 62.33 57.15 59.00 63.26 63.40 60.48 64.62 65.09 65.12 65.83 65.33 66.58 66.89 69.05 70.16 70.74
57.27 57.47 57.33 57.33 57.68 57.83 58.04 58.17 58.29 58.31 58.29 58.40 58.45 58.67 59.19 58.18 53.18 57.16 68.44 69.91 69.73 66.35 57.92 55.41 57.42 58.99 57.60 60.14 60.91 61.53 57.28 62.52 62.59 63.76 63.50 62.50 63.48 65.50 65.30 63.15 66.76 64.91 66.66 68.58 68.83
57.03 57.12 57.08 57.19 57.50 57.50 57.80 57.92 57.59 57.57 58.14 58.48 58.32 58.40 59.20 55.76 50.29 60.26 69.91 69.46 69.03 60.12 56.22 53.63 54.33 55.03 56.29 56.52 61.31 57.99 61.86 62.78 62.66 63.93 64.26 62.91 65.44 65.14 65.77 66.03 68.62 68.03 68.15 68.17 67.70
56.77 56.71 56.74 56.93 57.07 57.20 57.40 57.19 57.06 57.08 58.62 59.47 58.44 58.60 56.20 53.28 54.33 66.10 71.68 69.89 63.80 56.02 53.54 52.75 54.52 56.54 56.09 57.99 59.58 58.74 59.64 63.25 63.64 64.39 65.25 65.37 64.83 63.33 62.13 66.59 69.23 69.13 68.13 67.78 67.71
56.48 56.98 57.05 56.94 56.71 56.91 57.30 57.18 56.63 56.94 59.66 60.71 58.63 59.04 52.18 48.92 58.29 65.95 65.76 64.50 59.38 54.26 54.22 54.83 59.32 61.53 58.86 58.31 56.97 59.20 59.85 60.39 63.48 63.82 65.73 64.08 64.47 64.28 64.65 67.37 68.58 68.13 67.35 67.85 67.53
56.38 56.55 56.71 56.71 56.36 56.30 56.26 55.98 56.13 57.20 60.12 60.85 59.75 58.26 53.70 54.28 60.50 56.66 58.17 63.54 61.99 56.57 54.02 58.59 61.76 60.71 59.57 56.89 59.80 55.19 52.20 54.17 58.95 62.46 64.65 65.67 61.09 60.63 64.83 67.30 67.39 67.24 67.46 67.61 67.70
56.19 56.36 56.54 56.18 56.06 56.02 55.67 55.32 55.70 57.14 61.00 60.18 60.37 56.74 53.12 61.92 55.56 57.44 57.12 59.13 63.94 59.05 56.09 58.69 63.79 62.00 57.61 58.44 57.57 51.57 49.03 45.83 53.28 57.39 62.60 64.57 57.77 64.24 66.35 66.06 66.09 66.63 67.46 67.46 67.45
56.10 56.18 56.09 56.01 55.77 55.28 54.77 54.62 56.20 57.57 61.30 60.58 56.77 54.99 54.42 59.50 54.14 56.50 58.85 59.14 61.32 59.14 56.33 59.28 59.13 57.60 57.09 50.46 48.07 48.95 41.21 45.14 49.45 54.83 57.34 60.39 59.37 63.81 66.97 66.32 66.02 65.83 66.59 67.03 67.18
55.71 55.58 55.48 55.32 54.77 54.17 53.97 55.10 57.70 57.55 60.34 61.34 59.38 52.87 56.69 50.19 51.94 54.55 57.40 60.06 58.96 57.00 55.96 56.01 55.68 51.76 50.13 45.46 40.21 43.96 42.61 43.88 46.06 52.06 55.11 55.22 60.82 63.75 65.17 65.48 64.98 65.18 66.39 66.61 66.26
55.50 55.10 54.75 54.32 53.89 53.24 51.75 51.50 52.03 52.34 54.85 54.44 52.34 55.79 50.48 52.32 53.89 53.19 54.92 55.69 57.18 55.25 49.61 53.70 48.05 45.25 48.11 49.86 50.17 49.91 48.24 45.83 48.07 51.23 52.36 54.28 60.63 62.61 64.17 61.84 63.46 65.02 65.36 65.66 66.36
55.20 54.77 54.34 53.93 53.38 52.97 51.18 48.71 50.38 50.12 44.94 52.11 54.60 49.93 51.02 50.22 49.73 54.07 53.45 51.44 54.13 49.91 53.07 50.56 47.11 52.05 53.91 52.53 50.95 48.80 47.24 46.89 48.80 51.32 50.28 57.43 58.74 60.47 61.43 60.00 63.09 62.13 62.17 64.31 66.44
54.67 54.30 53.85 53.29 52.77 52.58 51.48 52.81 54.95 51.70 43.59 48.77 50.64 49.39 48.40 47.95 48.48 52.70 53.83 53.82 53.00 50.80 50.30 45.94 50.83 54.97 52.85 50.76 48.52 47.44 45.22 46.12 46.30 49.69 49.33 56.23 55.02 54.71 59.11 61.00 61.29 64.22 64.08 63.96 65.58
54.44 54.18 53.46 52.33 50.51 54.46 54.03 54.68 54.68 52.91 39.56 46.10 46.69 48.45 48.78 48.62 46.24 53.81 53.53 51.92 51.21 48.37 50.36 49.05 52.81 51.60 50.33 49.68 49.70 41.99 49.97 49.97 48.55 45.13 39.97 47.40 44.51 54.06 56.76 58.56 60.45 62.91 63.76 64.23 64.59
54.28 53.81 52.80 51.47 48.78 51.64 54.44 55.43 52.79 50.21 32.94 47.62 46.86 50.89 47.82 44.58 48.24 48.71 53.42 50.12 47.35 49.88 47.68 46.25 48.99 49.41 49.25 49.77 50.57 46.98 51.17 48.84 48.02 44.22 40.78 44.81 39.58 51.85 56.82 56.63 59.11 60.99 59.69 62.94 64.83
53.85 53.21 52.16 54.09 51.76 54.78 58.05 55.60 52.53 38.10 35.81 44.33 47.46 45.49 44.74 45.82 46.63 50.66 50.01 49.81 51.04 48.25 48.23 47.90 52.38 50.37 49.27 52.33 51.63 52.17 48.68 47.17 45.43 41.81 35.42 41.58 40.07 47.40 54.39 56.55 58.06 62.77 62.96 64.48 66.92
52.46 51.39 50.22 53.88 52.54 57.52 56.17 51.89 38.65 34.51 46.64 43.15 43.24 44.45 44.18 43.47 45.44 46.70 45.63 43.32 41.17 36.86 38.69 44.93 46.47 49.53 51.58 47.33 49.73 48.24 43.23 35.83 34.23 35.33 35.35 41.47 40.69 43.03 59.29 61.52 60.82 62.58 64.74 65.39 66.33
50.95 50.03 53.03 54.28 56.65 57.39 53.19 45.14 36.36 44.99 43.73 47.07 45.59 44.82 42.62 44.18 42.76 44.89 42.95 40.88 44.22 43.75 38.52 36.30 36.70 44.83 49.39 47.76 44.66 44.91 42.33 37.12 31.27 33.02 37.71 42.79 37.51 43.65 53.02 64.09 63.46 63.67 64.45 63.33 66.38
50.29 55.15 54.25 56.63 56.89 56.30 47.97 40.21 39.73 43.86 46.41 45.57 45.89 43.16 42.11 44.58 43.72 43.52 41.25 41.41 44.33 43.77 36.94 37.03 38.68 46.66 47.83 48.23 48.60 44.97 41.81 46.53 39.49 41.65 39.40 41.90 44.27 48.61 50.80 53.44 62.12 60.97 62.79 64.45 67.01
49.63 52.91 55.52 57.49 57.01 52.74 45.38 43.51 43.95 47.40 47.28 47.11 41.72 45.06 41.00 42.88 42.75 41.42 41.65 45.40 45.12 46.81 44.43 40.59 34.49 42.70 45.94 47.30 48.50 44.96 47.81 39.99 40.34 32.76 33.05 40.05 41.84 42.92 46.56 49.07 60.58 62.51 63.19 64.97 66.64
51.91 51.95 55.87 57.28 55.59 49.45 43.73 44.63 46.54 48.97 48.54 45.14 43.91 43.11 43.02 42.74 43.02 41.54 42.51 43.77 45.97 45.40 45.39 42.31 37.60 38.89 43.41 40.92 41.50 44.03 43.97 42.81 42.81 41.46 37.10 34.35 40.12 48.23 53.41 51.72 57.18 61.68 63.26 65.06 65.33
53.15 48.33 55.22 56.79 47.97 48.87 43.72 45.87 45.43 47.34 48.67 46.62 47.02 44.93 43.02 43.51 41.53 41.39 40.34 42.46 46.57 45.49 40.42 41.44 36.17 33.37 38.57 45.38 46.56 44.68 42.90 43.01 39.66 38.08 40.78 39.85 42.53 54.01 55.06 57.37 55.90 61.28 63.04 64.27 65.19
49.93 51.85 56.03 55.27 44.12 43.91 46.45 46.14 46.55 45.33 44.83 44.98 44.37 45.13 44.83 41.50 37.97 42.35 43.85 46.56 46.58 44.78 39.28 40.29 34.80 29.68 34.62 38.14 42.71 41.25 43.27 43.69 44.80 41.29 38.15 37.49 41.90 54.64 55.47 55.21 57.47 60.84 61.96 63.77 63.72
51.01 46.30 51.60 52.05 50.03 45.89 45.02 44.45 43.75 47.18 45.45 46.61 44.80 45.21 42.92 40.29 40.74 39.22 41.79 45.08 45.86 45.49 48.85 43.64 33.61 30.98 28.70 34.26 39.26 37.99 41.21 42.96 42.23 38.56 39.80 41.73 44.82 50.43 52.71 53.85 56.64 58.66 61.89 63.00 62.79
52.23 46.96 49.49 43.36 45.75 45.69 45.70 45.19 43.31 42.01 45.97 45.97 43.35 42.81 40.90 36.98 38.72 39.19 42.13 42.15 44.69 48.43 43.14 39.12 31.11 34.39 36.90 39.51 40.23 39.55 40.11 41.41 39.92 41.89 38.93 41.26 44.66 48.73 52.55 55.07 55.81 57.70 59.87 61.26 62.65
49.45 47.83 49.60 46.21 47.49 46.30 44.35 42.56 42.37 43.26 43.56 41.64 41.16 42.85 42.10 36.87 39.10 36.94 39.13 38.57 37.42 41.93 39.47 40.04 32.76 35.40 34.27 39.51 39.94 38.19 40.54 41.59 41.80 43.09 42.29 42.99 46.44 51.79 54.59 55.61 54.66 55.38 57.39 57.31 58.50
55.04 55.23 51.15 46.24 44.93 42.97 41.62 42.41 42.82 44.55 44.87 45.07 43.64 41.61 41.82 42.50 44.35 43.28 42.81 41.89 40.89 38.04 36.95 36.14 36.06 31.92 27.71 36.57 36.80 33.06 38.45 40.35 41.80 43.80 43.70 39.86 46.91 51.89 52.53 54.38 54.23 54.26 54.90 56.46 57.14

GFSSW_sfc_wetblb_084.txt.gz
Wetbulb
57.76 57.87 57.77 57.92 58.03 58.29 58.44 58.72 59.02 59.04 59.08 59.06 59.16 58.98 59.15 59.57 59.35 56.24 50.62 54.88 56.38 65.80 68.72 63.35 62.32 58.68 59.26 62.88 66.40 67.45 57.66 54.58 58.22 58.46 58.58 62.17 62.49 66.99 69.16 65.85 67.24 68.05 66.82 67.64 69.46
57.63 57.48 57.43 57.59 57.74 57.92 58.13 58.30 58.58 58.60 58.56 58.66 58.57 58.70 58.76 59.54 54.95 51.82 59.19 63.80 66.46 67.76 55.26 54.50 54.26 57.65 54.06 56.97 60.18 61.45 54.32 57.54 63.10 63.45 61.26 62.37 61.35 63.97 64.85 64.96 64.56 66.55 68.17 69.24 69.22
57.29 57.32 57.20 57.28 57.57 57.63 57.83 57.99 58.07 57.78 57.86 58.33 58.48 58.23 58.53 58.47 51.40 56.45 66.47 66.98 70.35 67.91 56.66 54.36 55.10 57.13 53.85 55.81 57.71 59.04 56.76 63.26 63.67 63.93 64.20 62.57 63.79 64.92 64.34 62.23 64.93 64.62 66.04 67.85 68.06
56.89 56.93 57.08 57.08 57.32 57.39 57.64 57.51 57.58 57.50 57.60 58.48 58.51 58.08 58.87 54.40 48.00 59.39 70.11 68.60 70.91 59.27 55.71 52.85 50.69 48.29 53.05 53.47 58.42 54.86 60.31 63.01 64.34 65.07 63.39 63.08 65.26 63.55 65.79 65.38 67.68 68.10 67.90 68.12 67.20
56.56 56.43 56.76 56.82 56.91 56.99 57.16 57.00 56.87 56.98 57.73 60.28 58.76 57.99 55.45 50.06 53.02 63.16 71.42 70.29 64.51 56.30 52.73 51.11 49.66 50.01 50.87 54.89 57.39 56.33 58.66 61.84 64.28 64.29 64.96 64.90 64.72 65.09 64.25 67.32 69.19 68.84 68.39 67.77 67.57
56.28 56.26 56.48 56.52 56.49 56.66 56.50 56.50 56.23 56.46 57.74 60.90 58.94 59.08 50.22 44.58 58.56 66.56 65.77 64.19 60.09 53.39 51.44 51.61 52.62 55.56 55.29 55.77 55.35 57.92 57.90 58.92 63.78 64.30 64.87 63.74 64.37 62.55 64.39 68.01 67.24 67.60 67.22 67.30 67.70
56.08 56.23 56.31 56.09 56.10 56.00 55.93 55.59 55.90 56.32 57.12 60.92 60.11 57.68 51.67 50.24 60.22 65.72 63.32 59.32 58.57 52.05 51.09 53.28 54.29 54.05 57.73 54.92 58.69 57.97 51.33 51.75 61.46 64.34 63.81 65.85 61.54 59.99 65.99 67.10 65.67 66.48 66.29 67.08 67.48
56.11 55.97 55.80 55.60 55.62 55.37 54.98 54.83 55.33 56.43 57.22 60.72 60.65 55.65 49.59 61.68 59.05 57.20 60.55 58.98 60.26 54.73 53.75 55.06 57.32 55.90 57.13 58.52 54.59 50.87 46.80 43.01 54.40 62.93 64.41 63.51 56.72 63.81 66.10 67.07 64.81 65.52 66.30 66.84 66.65
55.95 55.79 55.75 55.55 55.54 55.01 54.52 54.54 56.08 57.49 58.38 60.74 54.97 52.15 51.85 62.84 52.37 54.86 55.07 54.54 61.08 57.36 54.16 58.23 54.73 51.25 53.90 49.18 45.47 45.99 42.24 43.63 47.02 63.27 62.95 61.76 58.05 62.54 66.72 66.68 64.34 64.62 65.90 66.17 66.18
55.50 55.50 55.42 55.16 54.71 54.15 53.89 54.30 55.31 56.29 58.91 60.59 58.43 50.13 53.53 52.07 51.44 53.14 54.08 57.27 58.24 57.07 54.03 51.65 50.21 48.25 47.90 44.32 38.36 41.93 41.15 41.26 43.38 48.17 60.84 59.42 59.92 61.59 64.35 65.65 65.25 65.10 65.72 65.94 65.78
55.42 55.08 54.79 54.50 54.22 53.44 51.18 47.57 45.66 46.64 52.74 52.24 51.44 53.24 51.48 49.85 52.35 51.72 54.21 53.46 54.92 51.73 46.71 50.82 46.42 43.56 48.11 48.03 48.01 47.02 44.83 44.57 48.45 50.82 48.09 57.60 60.02 61.25 61.67 64.45 62.81 64.20 64.96 65.25 66.39
54.97 54.85 54.58 54.28 53.54 52.96 49.67 45.12 47.09 48.61 42.91 50.69 53.86 54.05 56.63 47.82 46.66 50.88 50.90 48.72 51.84 47.74 49.57 48.11 43.73 50.21 52.02 51.28 49.29 47.56 45.30 44.52 47.24 50.25 46.59 58.18 59.14 62.08 62.38 63.69 61.50 61.61 64.33 65.28 66.15
54.71 54.54 54.07 53.56 52.83 50.94 47.64 49.16 52.70 49.12 40.89 46.06 48.21 49.34 47.26 46.55 45.96 50.42 50.56 49.50 50.85 48.50 48.67 45.60 49.48 54.06 52.35 49.48 48.30 45.32 42.48 44.79 44.62 47.90 56.55 57.82 56.59 59.61 62.41 63.56 64.30 63.99 65.79 66.18 65.78
54.58 54.32 53.50 52.04 49.34 47.91 49.39 51.79 51.00 49.24 36.09 42.81 43.88 47.42 46.81 46.59 44.20 53.45 52.88 49.58 49.38 49.21 49.84 46.90 51.52 49.99 50.22 48.60 48.44 40.69 48.25 48.22 47.06 43.11 38.50 51.15 40.02 53.16 57.89 57.91 60.25 64.04 64.37 64.71 64.83
54.28 53.97 52.77 51.60 44.93 47.21 52.79 53.79 50.18 47.02 30.70 46.86 44.20 49.15 45.34 43.07 46.12 47.05 51.61 48.64 44.95 46.63 45.14 43.80 47.37 47.46 46.87 48.21 49.94 46.59 50.05 47.12 46.29 41.69 39.10 40.73 39.35 46.78 55.55 54.36 56.70 60.35 63.14 64.34 65.89
53.93 53.30 52.28 49.19 46.71 49.73 52.47 51.54 48.21 35.67 33.29 42.14 45.61 43.43 42.00 42.49 45.07 48.97 48.17 48.15 49.52 45.68 44.97 45.21 49.48 48.36 47.23 50.36 50.13 50.75 46.59 44.50 41.24 39.02 34.60 38.25 38.34 41.79 52.57 55.54 57.73 59.51 62.56 64.48 65.52
52.61 51.69 50.57 51.42 47.52 51.18 51.73 46.76 35.60 31.05 44.10 41.84 39.53 41.41 40.47 39.77 42.67 44.85 43.82 41.55 38.84 35.53 35.37 42.05 43.53 45.73 48.13 44.48 47.37 46.19 39.92 33.79 33.38 33.11 33.14 36.95 37.65 39.98 55.51 58.63 59.74 59.52 61.00 64.02 66.04
51.25 50.17 49.88 51.70 49.18 50.01 47.26 41.36 32.99 41.91 40.48 45.34 44.51 43.30 40.41 41.61 40.18 42.55 40.87 38.27 43.06 39.69 34.86 34.31 35.16 41.99 45.82 41.74 41.09 41.43 40.29 34.89 30.41 30.88 34.34 39.47 35.95 41.86 50.08 60.13 61.44 62.66 63.06 62.00 63.35
50.31 48.18 48.80 51.16 52.37 49.30 43.42 35.20 32.94 39.50 44.03 43.51 43.37 40.82 39.43 42.56 41.87 41.34 39.72 39.85 41.93 40.46 34.60 33.35 35.86 44.79 46.17 45.99 43.41 42.58 37.84 42.07 36.58 35.43 34.35 37.36 42.58 48.05 55.13 54.72 59.34 60.80 62.67 63.23 65.38
46.12 46.97 48.71 54.92 52.02 47.15 40.57 37.34 39.37 44.64 45.34 45.01 39.21 41.68 37.40 40.35 40.34 38.90 38.41 41.63 42.53 44.37 40.39 36.96 32.43 39.73 44.35 45.31 44.94 40.70 42.74 37.92 35.79 31.05 29.85 36.31 38.06 40.26 49.22 52.65 56.30 59.60 61.67 64.25 64.47
48.37 46.69 51.99 51.44 50.68 44.18 36.32 37.93 43.15 46.44 46.39 42.66 40.40 38.98 38.05 38.22 38.52 37.33 37.16 41.56 44.31 43.69 41.56 35.54 34.16 36.33 40.98 37.75 37.41 38.98 37.50 36.78 37.84 36.20 32.57 31.99 36.82 50.01 50.77 54.62 54.87 57.85 61.21 63.47 64.12
45.97 41.06 50.67 51.45 42.79 39.39 36.85 40.74 45.10 43.72 45.11 43.84 43.17 41.66 38.83 39.49 37.61 36.70 37.19 40.43 45.48 42.81 37.73 37.33 32.12 29.62 35.03 41.67 43.77 41.22 37.70 35.56 31.93 33.85 35.73 35.06 37.56 51.93 54.48 55.73 56.71 59.07 61.44 62.74 65.54
43.84 44.84 51.33 49.92 36.43 35.82 39.44 42.81 43.49 42.66 42.23 42.12 41.34 42.01 40.78 37.81 35.64 38.91 40.93 44.69 45.70 41.77 36.13 37.62 30.13 25.97 30.17 34.46 38.26 36.86 40.16 36.29 35.68 33.64 33.83 35.71 37.63 53.63 54.77 55.27 56.59 57.51 61.02 62.30 63.37
44.50 39.56 43.75 44.15 40.72 38.68 37.90 39.29 40.05 45.76 43.75 43.88 41.78 41.25 38.93 36.48 37.31 36.28 38.85 43.59 45.00 44.11 49.33 41.60 28.83 27.75 24.21 29.52 34.51 34.61 38.31 40.18 34.28 29.33 32.06 34.33 38.67 49.02 52.44 53.31 54.94 56.44 58.06 59.01 60.40
44.23 40.57 41.51 37.44 39.19 40.01 39.83 40.48 40.46 39.22 43.02 42.49 39.59 40.64 36.80 32.47 33.87 34.85 37.80 38.45 42.67 46.36 40.90 35.82 28.77 31.24 32.75 37.16 37.74 37.25 37.80 38.86 35.68 35.74 31.04 36.72 39.07 48.40 51.15 52.23 53.99 56.68 57.32 57.68 57.41
42.40 41.38 42.35 38.17 39.80 39.22 38.21 36.78 39.89 40.69 40.38 38.27 37.51 40.49 38.25 33.74 33.77 32.66 35.10 33.90 32.99 38.07 34.24 36.37 30.18 31.05 30.49 37.10 36.79 35.04 37.44 38.93 39.21 40.54 42.37 41.34 44.05 50.12 52.40 53.61 53.23 54.95 56.33 56.41 56.44
48.27 47.48 43.68 39.91 37.70 36.03 35.43 37.51 40.36 41.09 42.08 42.61 40.65 37.82 38.21 39.60 40.74 38.31 38.95 37.66 36.71 33.82 33.18 33.23 31.68 28.43 24.89 33.49 33.11 28.07 34.65 38.86 40.24 43.75 44.03 41.89 44.38 46.40 51.30 50.80 50.64 52.22 54.65 55.74 56.65

GFSSW_sfc_wetblb_087.txt.gz
Wetbulb
57.59 57.54 57.54 57.66 57.83 57.96 58.18 58.24 58.58 58.62 58.54 58.58 58.62 58.63 58.59 58.76 58.66 56.12 49.95 52.93 55.22 65.00 71.92 68.35 64.30 60.30 60.92 61.35 65.20 66.70 57.81 53.03 56.84 58.50 59.18 63.49 61.80 65.77 68.20 65.38 66.82 67.80 66.04 66.91 69.22
57.36 57.41 57.42 57.39 57.70 57.66 57.87 57.98 58.08 58.34 58.08 57.95 58.06 58.37 58.50 58.69 54.18 51.40 57.99 62.07 63.95 68.73 57.39 60.14 55.64 55.52 52.35 55.56 60.03 60.68 54.92 56.22 61.81 62.65 61.56 63.20 62.28 63.17 64.51 64.54 64.73 65.09 67.14 68.30 69.39
57.09 57.13 56.96 57.28 57.57 57.53 57.55 57.59 57.75 57.72 57.76 57.54 57.79 57.88 58.22 57.49 50.19 55.52 64.77 64.98 66.30 67.44 54.69 55.64 55.61 56.50 51.42 54.40 56.46 58.51 56.07 61.16 63.35 63.78 63.89 61.93 61.74 65.36 64.62 62.14 63.94 63.27 65.08 67.20 67.76
56.74 56.75 56.95 57.00 57.26 57.26 57.22 57.11 57.18 57.19 57.36 57.68 59.02 57.99 58.30 52.93 45.06 58.02 68.02 67.19 69.87 63.97 54.67 51.72 49.82 49.96 50.84 52.30 56.54 53.41 58.83 62.78 63.56 64.80 63.05 61.97 64.78 63.66 64.85 65.10 67.60 67.03 67.03 66.83 66.53
56.64 56.45 56.44 56.46 56.62 56.67 56.59 56.40 56.47 56.61 56.84 58.65 59.95 57.89 54.05 47.37 51.06 63.29 68.16 68.51 65.59 54.70 52.73 49.68 48.07 47.99 48.43 51.86 55.33 54.23 56.68 62.08 64.35 64.40 64.05 65.53 63.09 62.80 64.89 67.59 69.09 67.97 67.33 66.19 66.33
56.22 56.17 56.09 56.11 56.19 56.26 56.15 55.86 55.87 56.09 56.70 58.12 60.10 58.63 48.60 41.02 54.70 66.62 65.22 63.61 58.64 52.27 50.71 50.55 49.83 51.33 50.94 53.32 53.36 56.89 56.99 57.10 63.21 62.75 64.02 63.29 63.54 64.30 65.35 68.25 67.48 67.11 66.19 66.58 66.21
55.70 55.78 55.68 55.80 55.76 55.76 55.59 55.36 55.46 55.79 56.30 57.81 60.41 57.10 50.38 47.73 61.45 64.46 63.16 57.78 57.48 52.22 49.63 50.62 52.63 54.25 54.97 54.09 57.20 56.86 53.66 55.07 61.09 62.93 61.91 64.92 60.01 60.59 66.04 67.56 67.03 66.67 66.23 66.85 66.83
55.35 55.41 55.43 55.27 55.35 55.21 55.06 54.69 55.12 56.03 56.82 58.38 60.66 54.27 47.98 58.62 57.76 62.37 60.53 58.07 57.40 52.01 51.28 52.28 54.39 53.08 53.38 56.48 54.20 48.74 46.38 41.89 56.32 63.06 64.33 63.20 56.10 63.33 66.19 66.14 64.84 65.89 66.23 66.63 66.82
55.62 55.32 55.22 55.15 55.06 55.02 54.53 54.43 55.82 57.17 58.10 60.68 54.59 50.79 50.42 61.56 53.37 54.48 61.14 54.50 55.26 52.44 51.45 57.00 53.95 49.66 50.88 48.49 43.92 44.93 42.13 42.91 51.13 62.88 62.64 61.13 57.13 62.54 65.88 65.35 63.95 64.80 65.33 65.73 66.02
55.55 55.43 55.30 55.28 55.04 54.35 53.86 54.08 55.27 57.94 59.01 59.78 58.09 47.78 50.99 50.16 51.20 52.89 54.65 56.35 57.79 55.39 52.86 50.62 48.67 45.73 46.12 44.14 38.74 41.32 40.93 40.25 42.90 58.94 61.60 58.87 58.26 61.72 63.90 65.35 63.73 64.11 64.24 64.93 65.46
55.53 55.00 54.87 54.61 54.22 53.41 50.92 46.88 44.18 43.70 52.72 48.40 50.53 51.13 53.58 51.53 51.32 50.52 53.49 54.40 53.73 50.30 44.68 47.52 45.50 42.68 46.69 47.79 47.63 45.89 43.42 42.66 46.55 49.31 52.38 58.34 57.72 60.46 62.17 63.72 63.00 63.64 63.52 64.39 65.22
55.28 54.97 54.65 54.26 53.59 52.91 49.75 45.25 44.88 47.80 41.67 50.04 53.35 54.06 55.62 52.46 45.75 49.24 50.26 49.77 50.61 45.99 47.93 46.19 42.66 48.81 51.07 50.51 48.10 46.04 43.69 43.02 46.75 48.78 45.51 52.16 57.05 59.47 61.72 62.30 63.52 63.30 63.61 64.32 65.01
55.04 54.71 54.12 53.71 52.62 49.43 46.49 47.29 51.24 47.55 39.04 44.61 46.76 47.07 47.94 48.48 45.05 47.52 49.32 47.42 49.73 46.89 47.05 44.26 48.48 53.06 50.85 48.21 47.04 43.44 41.52 43.04 43.99 47.80 58.62 56.87 56.10 57.70 60.15 62.67 64.24 62.85 65.12 65.56 65.08
54.95 54.53 53.74 52.24 47.58 45.95 48.78 49.93 51.61 46.33 35.22 41.76 42.09 46.99 45.69 45.39 45.43 53.57 51.97 49.73 48.44 47.78 47.73 46.33 50.89 50.77 47.62 47.69 47.41 39.78 47.32 47.37 45.86 41.64 37.31 50.28 43.26 54.47 58.53 59.30 61.47 63.06 62.12 64.58 65.58
54.73 54.22 52.93 51.60 44.85 47.04 50.82 50.33 48.39 45.85 29.20 45.45 43.30 48.04 43.56 42.47 45.24 45.70 50.13 48.04 44.61 45.97 44.78 44.51 45.61 46.36 45.37 46.76 49.05 45.77 49.53 46.49 44.92 39.69 37.32 39.54 38.01 44.43 57.43 56.49 58.33 61.31 63.31 64.25 65.88
54.28 53.56 52.33 48.40 45.09 48.40 50.60 48.40 46.50 35.43 31.42 40.67 44.03 41.65 41.33 41.23 43.46 47.36 46.82 47.60 47.63 44.49 43.16 44.17 47.53 46.52 46.18 48.58 49.30 50.21 45.21 42.48 38.82 37.06 33.09 37.00 37.08 38.03 52.72 56.61 58.45 60.62 61.97 64.84 65.14
52.99 51.82 50.73 50.56 46.40 48.37 48.12 45.66 35.39 30.82 43.07 41.51 38.95 39.78 39.14 37.70 41.33 43.72 42.03 40.26 37.28 34.61 34.11 40.13 41.64 43.82 45.09 41.94 45.04 44.04 38.40 32.92 31.91 31.74 31.97 34.86 36.47 38.21 49.58 56.78 59.41 59.62 60.94 63.70 65.99
51.24 50.11 49.97 51.00 47.11 48.42 46.08 40.72 31.39 39.86 38.43 43.61 43.33 41.51 39.04 39.53 40.05 41.36 39.33 36.81 41.21 37.56 33.56 32.56 33.85 40.68 45.08 40.40 37.96 39.18 37.97 33.76 29.18 29.53 32.75 36.33 35.48 41.67 53.18 54.91 57.27 59.03 61.63 63.20 64.19
50.16 47.04 47.33 49.33 51.33 47.26 42.94 33.35 32.12 36.99 41.93 41.93 41.53 38.76 38.09 42.04 40.43 39.99 36.65 36.33 39.82 38.02 33.16 31.76 34.02 43.32 44.74 44.68 42.01 39.28 35.43 38.93 33.93 32.23 33.76 35.58 39.52 46.75 54.36 55.00 56.59 56.98 58.95 61.31 62.65
46.54 46.85 48.20 52.12 50.06 45.67 39.71 35.54 37.28 42.58 43.82 42.78 37.27 39.61 35.40 38.46 38.48 36.41 36.45 39.86 40.75 41.92 37.53 34.68 31.36 37.99 42.52 43.56 43.42 39.21 39.86 35.22 34.18 29.62 28.46 34.41 35.93 41.92 50.34 52.54 56.16 58.38 59.36 60.25 62.09
47.28 44.84 49.64 48.64 48.57 42.73 34.80 35.17 40.28 44.04 44.77 41.11 38.37 37.43 36.34 36.20 36.35 34.35 35.07 40.19 42.95 42.14 39.45 33.94 33.13 35.68 39.09 36.89 36.14 36.16 34.35 33.16 33.94 33.54 30.52 30.66 38.27 50.05 52.76 53.10 54.33 56.32 59.63 59.54 62.25
45.28 41.35 51.40 48.87 41.48 35.45 35.55 38.73 43.89 41.91 43.57 41.98 41.27 39.32 37.24 37.84 35.48 34.82 35.77 38.76 44.33 40.41 36.21 35.24 30.58 28.60 32.26 38.86 42.02 40.12 34.45 31.97 29.45 29.72 32.21 32.64 38.51 51.68 53.34 54.16 55.07 55.51 56.35 58.96 61.24
43.86 43.25 49.50 47.73 36.13 34.26 38.06 41.26 42.21 41.46 40.50 40.69 39.23 39.68 39.03 34.98 33.24 37.04 39.09 43.20 43.46 39.65 34.15 35.83 27.94 24.65 28.26 33.09 36.80 34.64 37.43 33.16 31.68 29.58 28.42 30.07 35.31 52.73 53.59 54.26 54.73 54.26 55.73 57.09 59.26
42.17 38.75 42.37 42.06 37.51 37.20 35.85 37.05 38.28 44.18 41.82 41.67 39.72 39.34 37.02 34.53 35.14 34.12 36.63 42.38 44.50 44.26 48.12 39.96 26.99 26.04 23.41 27.01 32.38 32.84 36.43 37.11 31.46 28.27 29.36 31.92 34.42 48.15 50.94 51.88 54.10 55.39 55.86 56.33 57.28
41.64 38.71 39.28 35.62 37.84 37.03 37.19 38.26 38.87 37.49 41.17 40.48 38.58 38.58 35.02 30.92 32.08 32.98 36.38 37.30 40.65 43.44 39.16 34.43 28.02 29.08 30.02 33.80 35.43 34.78 35.26 36.18 32.47 32.73 29.83 34.55 42.53 44.47 50.12 51.34 52.95 55.72 56.92 55.74 55.83
41.62 40.96 40.25 35.90 36.80 36.89 36.39 35.04 37.92 39.01 38.39 35.95 36.25 39.19 37.01 32.66 33.12 31.22 33.17 32.49 31.85 36.99 34.34 34.05 29.95 29.41 27.94 34.88 34.36 32.44 37.18 37.70 38.21 40.89 38.85 40.18 41.26 45.52 50.35 49.82 49.70 51.62 55.71 55.33 55.30
46.29 45.30 41.36 38.76 35.44 34.12 33.64 36.11 39.08 39.29 41.19 41.37 39.03 36.24 36.07 37.31 39.37 37.33 37.41 36.22 34.41 32.76 31.31 31.44 29.63 26.61 22.72 31.26 30.50 27.26 34.21 39.44 40.58 40.83 41.56 38.65 42.10 44.98 47.56 46.70 47.02 48.30 50.18 53.69 54.63

GFSSW_sfc_wetblb_090.txt.gz
Wetbulb
57.55 57.56 57.58 57.62 57.65 58.01 58.06 58.10 58.16 58.37 58.31 58.16 58.03 57.51 57.94 57.70 57.57 55.47 48.35 51.84 54.54 66.39 67.81 67.02 63.74 59.70 60.22 61.15 64.34 65.88 57.27 52.91 56.28 57.90 58.86 63.45 62.66 64.98 67.32 64.92 66.82 67.62 65.14 66.32 69.27
57.42 57.37 57.40 57.27 57.45 57.63 57.69 57.64 57.66 57.89 57.80 57.72 57.13 57.05 56.97 57.84 52.47 50.08 57.17 61.53 63.60 70.11 65.77 61.40 57.06 55.10 52.65 56.64 61.14 59.60 54.14 56.00 61.11 61.87 60.71 62.63 61.98 63.66 64.35 64.12 63.48 64.21 66.58 68.60 69.02
57.25 57.20 57.13 57.01 57.28 57.22 57.30 57.19 57.16 57.28 57.42 57.32 57.72 57.58 57.19 57.22 46.69 53.80 64.03 64.20 65.90 67.88 61.36 57.80 56.04 54.34 50.77 53.78 55.73 59.16 56.24 59.62 63.20 63.91 63.50 62.53 61.24 65.39 63.48 62.15 63.61 62.74 64.98 67.19 67.36
56.95 56.76 56.74 56.72 56.85 56.91 56.95 56.86 56.74 56.77 57.02 57.09 58.35 58.39 57.69 51.32 45.76 57.65 67.13 66.09 67.46 62.66 53.18 52.42 52.71 50.98 49.93 50.61 55.31 52.34 58.97 61.33 63.12 65.10 63.29 61.37 64.03 60.98 63.18 64.78 66.55 66.13 67.31 67.04 66.23
55.69 55.90 56.08 55.86 56.26 56.49 56.53 56.52 56.24 56.21 56.54 57.16 58.87 57.75 53.09 44.92 48.62 64.11 67.32 66.57 63.81 58.42 51.44 49.14 48.69 48.30 48.74 51.63 54.56 53.42 55.63 59.88 63.86 63.61 63.58 64.70 63.56 63.70 64.16 67.54 67.47 67.22 67.36 66.42 66.28
55.59 55.59 55.52 55.62 55.95 56.17 56.18 55.85 55.69 55.88 56.32 56.93 59.12 58.19 47.01 38.87 54.89 65.38 64.40 63.31 56.44 51.81 50.55 49.30 49.51 50.38 49.88 51.44 52.53 55.67 55.86 56.58 62.58 62.32 64.68 62.69 62.49 63.93 65.81 68.16 66.80 65.93 65.64 66.28 66.11
55.49 55.40 55.54 55.65 55.75 55.79 55.73 55.42 55.52 55.73 56.09 56.81 59.44 56.69 48.49 45.37 61.89 63.16 62.19 58.80 55.23 51.45 48.82 49.77 52.05 50.62 52.96 52.62 56.49 55.38 51.17 54.84 59.98 61.85 61.80 64.77 60.49 61.30 66.24 67.29 65.17 64.75 65.10 65.92 66.18
55.35 55.23 55.65 55.63 55.63 55.28 54.78 54.53 55.09 55.79 56.20 57.46 60.42 53.16 43.78 55.47 60.35 61.61 58.53 55.59 56.44 50.26 50.22 50.67 53.06 51.50 51.30 54.54 52.27 47.39 45.74 41.21 56.47 61.40 63.43 62.12 56.23 62.64 66.51 66.34 64.62 64.49 65.05 65.12 65.12
55.08 55.14 55.36 55.34 55.23 54.45 53.57 54.16 56.30 57.43 57.72 60.00 53.92 48.89 49.05 61.02 55.20 58.48 58.52 56.22 52.37 49.42 50.66 55.31 51.38 48.49 49.67 46.83 44.02 44.90 41.22 40.97 53.99 62.10 62.29 61.69 57.62 63.12 65.87 65.49 65.16 64.29 64.43 64.95 65.04
55.67 55.49 55.21 55.24 55.08 53.61 52.98 53.86 59.17 58.91 59.05 59.27 57.75 46.66 49.97 49.36 51.05 54.21 59.26 57.62 54.41 51.19 50.83 48.93 47.31 44.30 44.92 43.69 39.70 41.11 40.29 40.27 42.97 57.31 60.08 59.34 57.25 61.86 64.49 64.85 64.75 64.69 64.36 64.87 64.96
55.59 55.45 55.10 54.80 54.31 53.31 50.59 46.93 43.02 42.37 51.81 46.12 49.58 48.98 51.23 53.71 49.89 49.34 53.23 54.10 53.16 49.97 43.31 45.42 43.21 40.88 45.01 47.13 46.52 45.22 43.19 41.90 45.22 55.19 57.51 57.48 56.43 59.47 62.85 63.46 63.26 63.77 63.99 64.53 65.02
55.43 55.00 54.82 54.53 53.79 53.13 48.03 45.64 45.47 45.72 40.83 48.16 52.26 52.48 54.13 51.13 46.04 47.67 52.91 50.50 49.36 44.21 46.21 44.90 41.35 47.98 50.06 49.43 46.99 44.96 42.99 42.10 45.50 49.09 48.21 47.48 52.01 58.85 61.08 62.26 63.30 63.30 63.26 64.07 64.89
55.12 54.80 53.78 53.25 52.84 48.71 44.91 46.49 49.54 45.36 37.98 43.35 46.35 46.68 45.78 50.13 45.19 46.03 48.86 49.29 48.83 45.63 45.29 43.65 47.70 51.55 49.97 47.52 46.30 42.60 41.24 41.95 43.28 47.20 56.83 54.70 51.46 55.63 59.83 61.96 63.64 64.20 64.50 64.36 64.56
55.04 53.92 53.00 51.89 47.29 45.64 47.54 49.42 49.09 45.42 34.73 40.32 41.00 46.10 45.05 44.93 44.24 51.79 51.23 49.76 48.19 46.28 46.95 46.04 49.75 50.43 46.72 46.40 46.89 38.70 47.07 47.13 45.08 40.67 36.82 48.55 36.43 49.58 56.73 58.20 60.59 62.81 62.60 63.85 64.33
54.21 53.67 52.30 51.43 44.74 46.37 49.75 47.95 46.95 45.04 27.70 43.61 42.07 46.28 42.25 41.39 45.72 45.52 49.00 47.47 44.79 47.53 46.50 44.85 46.25 45.94 44.73 46.22 48.27 45.39 47.80 45.76 44.26 39.49 36.28 39.93 36.53 39.70 54.88 55.59 57.98 60.62 62.83 63.19 64.77
53.88 53.04 52.02 47.59 44.12 47.27 48.51 46.02 45.33 34.74 30.13 40.47 43.07 40.02 40.07 40.80 42.61 45.87 45.49 46.51 46.21 43.27 42.67 42.87 45.74 45.15 45.37 47.51 49.06 48.49 43.40 40.68 37.57 35.93 32.95 35.87 36.19 36.04 50.08 52.29 57.31 60.26 62.08 63.68 64.48
52.96 51.69 50.06 49.71 45.45 47.08 46.11 44.56 34.94 30.10 41.62 40.25 39.09 41.33 37.62 37.80 40.95 42.45 40.87 39.28 36.27 34.28 33.27 39.19 40.20 42.30 43.95 40.64 43.21 42.59 37.56 31.39 31.29 31.07 31.75 32.94 35.62 41.44 49.13 53.15 54.71 55.20 58.89 63.50 65.17
51.38 49.62 49.81 50.40 47.19 47.57 45.12 39.88 30.62 38.36 36.95 41.85 41.67 40.43 38.59 39.23 38.93 39.50 38.05 36.22 39.91 36.19 32.57 31.59 33.11 39.50 44.04 39.26 36.63 38.25 37.13 32.77 28.33 27.92 32.20 34.97 33.88 43.08 54.14 56.13 58.26 59.86 59.60 60.05 63.83
50.17 46.78 46.64 49.07 50.58 45.92 42.21 32.22 30.68 35.32 40.35 41.03 39.91 37.48 36.79 40.27 39.21 37.99 35.47 34.90 38.08 36.71 32.42 31.82 33.23 41.97 43.32 42.87 40.49 37.47 34.05 35.77 32.53 30.17 32.79 34.58 40.85 47.10 54.85 54.56 55.87 56.22 58.36 59.22 61.31
47.07 46.58 46.61 48.90 48.09 43.97 38.46 34.33 35.31 40.94 41.71 40.79 37.35 38.78 34.27 36.62 36.51 34.82 35.08 38.45 39.27 39.87 35.88 33.82 30.94 36.67 41.13 42.52 41.97 38.22 38.41 34.35 33.18 28.83 28.13 33.02 39.38 43.32 49.77 51.83 54.62 54.68 56.15 58.54 60.70
46.10 43.09 47.73 46.39 46.24 42.04 33.71 34.03 38.90 42.46 43.01 39.16 36.65 36.01 35.42 35.70 34.80 32.83 34.14 38.39 41.74 40.82 38.16 32.89 32.69 34.77 37.36 34.69 32.68 35.04 32.94 32.50 33.31 31.78 29.81 29.90 38.69 49.86 51.45 53.29 53.06 54.47 56.70 58.69 60.93
43.77 39.92 48.85 46.29 40.00 33.62 34.18 36.86 42.61 40.76 41.93 40.37 39.40 37.78 36.52 36.20 34.63 33.55 34.25 37.16 41.91 38.59 34.90 34.92 29.91 27.33 29.71 37.31 38.81 36.84 33.24 30.53 32.12 30.25 29.99 33.83 37.66 51.84 53.18 54.34 54.98 54.26 55.97 58.55 60.10
42.58 40.86 46.95 45.81 34.77 33.03 36.53 39.27 40.62 40.11 38.80 38.95 37.87 38.29 36.42 32.60 32.66 35.68 37.70 42.27 43.21 39.10 32.94 34.13 27.20 24.05 27.99 32.49 35.59 33.89 35.88 31.00 30.14 29.10 28.03 33.22 37.30 52.04 52.88 53.25 54.85 54.67 54.89 56.09 58.58
41.00 38.11 40.97 39.89 35.42 35.29 34.02 35.24 36.61 42.79 40.19 39.88 38.54 37.58 35.40 33.28 33.72 32.44 35.48 41.01 41.86 43.39 47.33 39.02 26.18 25.28 24.70 26.94 31.27 31.57 34.98 35.01 30.36 28.50 28.59 31.52 39.32 46.16 48.17 50.06 51.48 54.66 55.68 55.40 55.72
40.12 37.29 37.53 34.36 36.71 35.31 35.58 36.14 37.40 36.33 39.57 38.78 37.79 37.21 33.87 30.24 31.76 32.07 35.10 36.36 40.20 42.56 37.93 33.56 27.41 27.94 28.72 33.07 34.04 33.51 33.95 34.43 31.94 32.21 30.53 33.97 42.87 43.87 48.32 47.50 48.43 50.80 54.28 54.14 54.68
42.21 40.18 37.25 34.45 35.21 34.93 35.40 32.91 36.61 36.94 36.83 34.40 35.59 37.76 35.72 32.17 32.23 30.82 32.34 31.58 31.73 35.99 32.62 32.44 30.35 28.71 27.24 33.66 33.07 33.28 37.10 37.44 39.03 40.11 38.19 40.90 39.51 48.28 48.29 47.80 46.34 47.14 49.21 52.02 53.43
44.89 43.52 40.21 37.22 34.29 32.39 32.65 34.70 37.85 37.53 39.09 39.95 38.02 35.23 34.92 36.10 37.26 36.29 35.49 34.01 33.71 32.59 30.14 29.94 28.43 24.90 21.82 30.27 30.06 26.62 32.98 39.00 39.19 39.89 40.43 37.44 40.59 46.00 46.18 45.12 45.10 45.54 46.34 47.66 49.93

GFSSW_sfc_wetblb_093.txt.gz
Wetbulb
57.65 57.55 57.19 57.27 57.56 57.78 57.90 57.97 57.95 58.03 58.05 58.19 57.85 56.68 56.47 56.40 56.90 55.81 50.91 55.97 56.98 65.72 70.10 69.17 64.63 66.11 65.73 67.26 66.22 66.91 60.48 56.76 57.55 58.76 60.10 64.03 62.91 65.83 67.85 65.24 67.37 67.53 65.91 67.44 69.27
57.21 57.05 57.03 56.70 57.02 57.12 57.48 57.60 57.51 57.68 57.65 57.80 57.53 56.94 56.22 56.42 53.92 51.40 57.88 60.80 63.21 69.51 65.13 62.13 58.94 60.95 58.21 62.36 65.78 63.47 60.58 58.20 62.66 62.93 61.35 63.25 62.94 64.73 64.61 64.42 64.17 65.40 67.60 68.58 69.18
56.30 56.07 56.22 56.33 56.72 57.05 57.09 57.00 57.16 57.07 57.04 57.36 57.64 58.10 56.67 57.00 51.60 56.47 63.87 63.83 65.53 69.26 65.54 61.77 60.24 57.83 55.34 59.87 61.83 62.89 59.92 61.68 63.50 64.55 64.21 62.68 62.94 65.21 64.15 62.66 64.50 63.87 65.25 67.22 67.62
56.31 56.19 56.02 56.21 56.35 56.83 56.67 56.76 56.79 56.56 56.80 56.98 57.22 58.50 57.53 55.72 48.95 60.02 65.95 67.16 71.07 64.03 61.95 58.55 57.55 55.54 55.09 56.54 61.41 57.50 60.48 63.13 64.18 65.32 63.85 61.48 64.61 63.25 64.10 64.99 67.32 67.42 66.87 66.94 66.84
55.96 55.94 55.88 56.14 56.30 56.49 56.65 56.61 56.39 56.20 56.43 56.79 57.14 58.03 56.39 50.16 50.06 66.65 66.81 68.69 64.60 59.46 57.76 56.13 54.77 55.84 53.81 57.22 59.17 58.62 59.48 60.78 64.95 65.50 64.50 64.87 63.25 62.81 64.01 67.27 67.81 67.49 66.81 66.57 67.22
55.77 55.31 55.67 55.61 56.09 56.28 56.07 55.95 55.70 55.70 56.04 56.68 57.14 58.37 52.19 45.17 59.93 65.71 64.71 64.47 61.03 56.62 54.71 56.58 55.41 56.90 55.71 56.57 57.84 59.42 60.06 60.02 64.92 64.97 64.94 63.36 63.52 64.62 65.71 67.99 66.84 66.39 66.12 67.20 68.15
55.33 55.29 55.16 55.56 55.93 55.69 55.35 54.68 54.53 55.23 55.93 56.43 57.46 57.23 51.09 48.12 63.46 64.96 64.17 61.21 58.51 56.13 54.02 54.43 57.55 55.36 57.16 56.62 59.68 58.69 55.75 58.70 60.51 63.81 63.84 65.23 60.21 61.02 66.91 67.44 65.64 66.57 66.97 67.70 68.55
55.19 55.19 55.44 55.60 55.33 54.95 54.31 53.96 54.22 55.85 56.06 56.63 59.07 56.99 48.63 57.57 65.73 62.96 61.55 59.27 57.43 56.40 55.56 55.64 56.51 57.23 56.72 58.43 55.60 53.55 52.80 51.06 60.98 62.92 63.64 64.17 57.39 63.45 67.33 67.13 65.45 66.42 66.98 67.39 68.50
55.02 55.65 55.24 55.05 54.78 54.06 53.50 54.34 57.96 58.08 57.74 59.40 57.40 55.30 53.27 62.14 59.01 61.55 61.17 57.33 56.69 55.89 56.20 55.93 55.12 54.74 54.76 54.05 52.31 52.40 51.18 48.58 57.52 63.37 63.24 62.64 59.02 64.89 67.54 66.78 65.23 64.95 66.62 67.19 67.99
55.83 55.67 55.12 54.57 54.18 53.42 53.40 54.08 58.82 60.43 59.84 60.32 58.85 52.01 54.63 53.75 56.45 60.99 61.27 58.45 54.89 54.43 53.35 51.83 52.20 52.10 53.61 53.11 49.19 50.05 48.32 49.36 52.68 61.00 62.52 60.94 59.81 63.80 66.31 66.24 65.09 65.70 66.32 66.86 67.31
55.85 55.56 54.61 53.98 53.48 53.04 52.96 54.57 50.13 50.17 56.66 50.96 52.41 51.78 52.82 56.55 55.36 57.49 60.05 58.32 55.40 54.15 48.76 50.55 48.95 48.45 52.58 54.31 53.04 51.57 50.47 49.21 50.69 59.60 60.96 58.90 59.47 61.96 65.02 65.74 65.81 65.44 66.03 66.76 67.09
55.62 54.61 54.26 53.40 52.88 53.16 51.71 52.25 51.49 51.25 47.19 50.82 52.55 53.84 55.67 56.26 49.24 53.33 59.72 54.78 54.45 48.85 51.12 48.69 47.32 52.57 54.70 53.57 51.87 51.52 50.33 49.32 50.59 55.14 58.76 52.91 54.09 61.15 64.12 65.47 66.39 66.05 65.89 66.68 67.59
54.92 54.85 54.02 52.89 52.85 52.06 50.93 52.49 53.99 51.88 46.49 47.10 49.94 50.28 50.66 54.32 49.28 50.31 56.02 55.55 54.00 49.72 49.50 47.10 50.97 54.03 52.97 52.41 51.40 51.02 50.49 49.28 48.81 50.00 58.77 58.17 55.77 59.30 62.33 65.18 66.65 67.38 67.83 67.84 67.80
54.33 54.67 53.57 51.93 50.19 51.19 52.42 53.81 53.16 51.55 44.04 44.59 46.84 49.29 50.15 51.09 48.08 52.79 55.11 56.23 53.08 49.87 50.98 50.96 54.24 52.96 52.14 51.45 52.78 50.13 52.18 51.06 49.78 48.55 46.06 56.19 46.30 56.25 60.06 61.41 64.18 65.96 66.80 67.26 68.10
54.69 53.91 52.70 51.19 50.81 52.54 53.81 52.83 51.57 50.41 34.18 46.33 47.02 51.11 48.13 48.51 50.65 48.86 52.39 52.51 51.67 51.36 51.81 49.64 51.43 51.68 51.03 51.85 53.21 50.55 52.60 51.62 50.16 48.93 47.10 50.75 47.45 50.42 60.21 58.05 58.91 63.87 66.45 67.53 67.71
53.71 52.78 51.90 50.05 50.16 53.05 52.85 51.75 51.59 42.17 33.81 43.79 46.77 45.14 45.50 46.30 47.35 49.35 49.89 51.45 50.35 49.93 49.99 46.91 49.21 49.86 51.33 51.63 53.13 52.56 49.42 47.77 47.55 47.55 43.44 45.39 45.96 49.33 52.33 54.53 57.96 61.07 63.07 66.78 67.87
52.65 51.27 50.60 51.67 52.59 52.88 52.40 52.37 43.05 37.15 45.59 42.81 43.63 45.54 44.32 43.50 45.40 46.07 45.58 44.83 44.28 44.92 45.59 44.86 44.83 46.79 47.83 47.40 50.20 50.72 48.12 42.50 41.66 41.67 42.23 44.71 48.12 51.01 55.97 57.80 58.17 59.84 61.89 63.95 66.43
50.94 50.18 51.87 53.14 54.73 53.10 52.09 48.24 37.41 40.60 41.53 45.68 45.02 45.07 42.57 44.32 43.85 44.21 43.60 43.10 45.46 43.68 42.18 41.90 39.53 44.66 47.20 45.58 46.13 48.69 48.45 43.85 38.22 39.22 42.22 44.93 45.83 49.94 56.98 59.41 60.38 61.30 61.84 63.26 64.27
50.10 53.39 53.83 53.73 54.21 52.82 50.68 40.18 38.34 40.57 43.21 43.03 44.48 42.46 42.27 43.61 44.15 43.58 41.99 41.97 43.51 43.79 42.40 41.33 40.12 45.45 46.13 46.70 46.08 45.49 45.43 45.88 43.58 42.33 43.33 44.47 48.47 53.45 56.85 57.44 58.72 58.14 59.23 60.07 64.95
54.31 53.51 52.66 52.93 53.05 51.55 46.85 38.83 41.97 44.31 44.02 44.14 40.30 42.31 40.22 41.20 41.82 41.78 41.29 43.00 42.86 44.32 44.81 42.64 39.72 43.27 44.61 46.46 47.02 46.24 45.73 43.66 45.31 39.33 38.84 43.50 45.97 47.50 51.84 54.26 56.19 55.62 57.53 59.75 62.00
52.39 51.63 53.79 51.45 52.72 49.30 42.03 41.67 43.41 45.86 45.41 43.35 41.00 40.50 40.36 40.36 40.88 39.83 39.62 42.09 43.91 44.37 45.65 43.74 43.12 41.58 44.33 41.46 40.11 44.31 44.13 43.61 45.32 43.22 41.57 40.31 44.84 52.56 52.45 53.87 53.74 53.82 55.77 58.72 60.99
51.39 47.89 53.51 52.86 47.11 43.50 42.32 42.30 42.99 44.04 45.59 44.42 44.04 41.70 40.36 40.27 39.40 39.62 38.92 41.84 45.67 43.63 40.96 42.52 41.89 38.14 38.92 42.60 43.47 43.36 41.08 41.22 43.58 41.15 42.68 46.46 44.32 54.52 54.01 54.22 55.79 54.32 54.70 56.84 59.26
50.04 48.82 53.67 53.20 42.95 42.40 43.94 43.12 44.29 43.63 42.87 42.96 41.61 42.47 41.63 39.65 38.37 40.59 41.47 44.52 46.71 44.91 41.04 42.35 38.09 36.85 37.57 41.56 43.02 40.82 41.36 41.81 40.91 43.05 42.15 43.01 43.26 52.67 52.72 51.74 52.89 54.36 55.13 55.95 57.10
49.34 46.06 49.09 47.42 44.02 43.65 42.26 41.89 41.47 44.76 42.51 43.82 42.43 42.95 41.65 40.13 41.69 39.82 40.55 43.28 44.97 46.45 46.80 44.33 38.63 36.71 37.68 38.02 40.08 38.44 38.88 40.64 41.22 41.75 40.82 43.16 45.53 48.78 48.40 48.37 49.87 52.67 55.17 56.06 57.17
47.57 44.06 44.20 42.47 43.34 43.10 43.02 42.02 40.92 40.45 43.29 44.54 42.72 41.36 40.75 38.76 40.09 39.36 41.16 42.41 44.21 44.51 43.75 43.27 37.00 38.46 38.50 39.03 38.84 37.95 37.84 38.77 40.23 40.84 40.87 45.25 45.24 46.57 47.47 47.97 48.30 50.38 52.60 54.13 56.06
49.60 47.38 44.57 42.67 41.99 43.14 41.16 40.99 40.52 40.95 41.86 41.09 40.96 41.64 42.11 40.16 40.72 39.27 41.32 41.47 41.02 43.27 41.81 41.91 37.57 38.72 35.77 38.50 38.89 38.27 40.69 40.61 41.47 43.16 45.44 47.25 44.66 48.16 49.16 49.58 50.46 50.94 51.56 50.83 52.22
50.34 49.01 48.95 40.85 41.40 41.84 41.92 41.45 41.67 42.78 43.67 43.89 43.02 42.32 41.63 42.10 44.02 43.86 43.66 43.08 43.49 42.22 40.13 40.22 39.03 36.77 33.14 36.47 37.36 34.22 39.63 42.02 42.78 44.29 45.88 44.71 45.14 47.75 46.11 46.33 47.95 48.91 49.52 50.08 51.00

GFSSW_sfc_wetblb_099.txt.gz
Wetbulb
57.52 57.65 57.58 57.47 57.62 57.71 57.90 58.27 58.33 58.37 58.39 58.54 58.50 58.48 57.52 57.24 56.92 58.63 55.13 62.13 62.95 68.74 71.05 69.26 69.91 68.33 70.45 69.32 69.66 71.82 62.15 58.63 60.50 60.27 63.50 65.72 64.84 68.45 70.92 68.05 68.20 70.10 68.62 69.14 71.15
57.50 57.26 57.36 57.38 57.47 57.68 57.66 57.71 57.75 58.07 58.11 58.06 58.09 58.09 58.78 57.65 58.07 56.02 65.15 66.05 65.54 71.41 69.50 66.34 64.27 66.67 66.65 67.33 68.06 67.18 59.88 62.33 65.58 65.03 65.18 66.51 66.65 67.41 66.99 66.84 67.27 68.61 69.15 69.97 70.88
57.26 57.13 56.93 57.15 57.37 57.61 57.68 57.64 57.69 57.52 57.62 57.59 57.89 57.96 59.12 58.62 57.88 58.06 68.38 67.57 67.03 70.26 68.76 65.95 64.51 65.73 63.10 65.69 66.39 66.98 60.18 66.09 66.24 66.38 67.12 66.30 66.63 65.87 66.41 64.74 67.03 65.91 67.36 69.06 70.02
57.11 56.97 56.92 56.70 56.91 57.00 57.58 57.48 56.91 57.14 57.02 57.44 57.74 57.92 59.19 60.77 53.21 65.95 66.73 67.56 68.04 68.83 67.79 62.68 61.37 60.36 58.40 58.76 66.14 63.33 66.00 65.96 66.76 67.01 66.98 65.27 66.23 63.76 66.57 66.37 69.53 68.43 69.16 69.03 69.33
56.92 56.71 56.55 56.42 56.50 56.70 56.91 56.74 56.31 56.25 56.40 57.16 57.89 58.18 59.44 56.60 57.23 67.68 66.39 66.47 63.57 66.75 64.87 61.22 59.12 58.83 56.02 58.21 63.44 64.11 64.49 65.38 68.17 67.50 67.08 65.97 62.99 63.68 65.57 68.62 71.02 71.21 68.98 68.40 68.88
56.23 56.14 56.15 56.12 56.43 56.45 56.49 56.13 55.91 55.74 55.97 56.86 57.94 58.39 57.99 52.80 63.88 65.78 64.19 61.37 62.66 65.54 62.96 61.87 59.65 59.96 57.71 58.35 62.47 65.58 64.72 64.30 66.76 67.06 67.21 64.72 63.36 64.74 66.85 69.58 70.11 69.82 68.03 68.56 68.63
56.19 56.07 55.67 56.15 56.36 56.36 56.08 55.50 55.29 55.46 55.88 56.64 58.22 59.30 58.15 55.54 65.34 66.05 64.67 61.19 63.76 63.99 60.81 61.49 60.36 58.41 59.05 58.79 65.00 65.36 62.92 62.74 64.75 66.66 64.66 66.61 62.44 62.39 67.43 68.87 68.13 67.86 67.99 68.11 68.71
55.62 56.08 56.17 56.21 56.08 55.75 55.29 55.07 56.10 56.68 56.24 57.02 58.58 60.08 55.61 61.77 65.72 64.39 64.46 61.91 63.44 63.90 61.64 61.27 60.37 59.16 58.91 61.99 63.27 62.58 62.55 58.09 62.89 63.74 65.84 65.30 58.09 65.03 67.70 68.09 66.83 67.36 67.50 67.59 68.42
56.32 55.91 56.05 55.75 55.79 55.07 54.61 54.97 58.96 59.40 58.16 58.25 60.20 60.58 55.56 65.33 61.26 63.64 63.19 59.89 60.40 61.23 61.27 60.39 59.08 57.30 58.65 57.83 57.67 61.28 56.99 57.16 59.53 64.87 64.57 61.72 59.53 63.90 66.54 67.73 66.25 66.85 66.93 67.46 68.67
56.28 56.40 55.91 55.88 54.81 54.30 53.87 54.85 58.86 59.12 60.09 62.31 63.78 58.81 60.41 57.19 60.86 61.54 62.60 60.21 58.17 58.34 57.26 56.35 55.83 54.50 56.44 56.63 52.25 56.52 56.76 58.10 58.55 62.21 64.02 61.09 59.44 63.58 65.65 66.64 65.85 66.53 66.85 67.71 68.70
56.65 56.33 55.29 55.30 54.25 53.46 55.15 61.06 58.89 58.83 59.55 57.81 55.12 56.75 56.14 60.04 62.35 60.02 62.26 60.46 57.77 56.03 52.70 54.12 51.64 50.35 54.04 55.62 57.60 58.69 57.32 56.68 59.95 63.52 62.45 58.89 59.50 62.62 66.72 66.57 66.67 65.88 65.86 66.37 67.45
56.41 55.95 55.40 55.08 54.09 53.67 56.66 58.14 56.58 57.46 52.65 57.77 56.64 57.39 58.43 60.33 56.19 58.40 61.11 57.25 55.77 50.51 54.33 51.63 49.25 53.72 55.91 56.94 57.06 58.71 57.07 56.60 61.01 64.04 60.17 57.84 57.87 61.47 64.74 65.67 67.21 67.98 66.72 67.17 68.17
55.98 54.95 54.91 54.22 53.79 55.82 59.94 57.41 60.44 59.26 52.62 52.29 55.73 55.75 56.26 57.37 54.98 56.17 58.83 57.40 53.17 51.39 51.93 50.96 51.90 54.92 55.39 55.51 56.03 58.13 56.49 55.98 56.38 61.89 59.48 57.01 56.95 59.52 63.97 66.07 67.30 68.26 68.16 68.88 68.12
55.72 55.05 54.11 53.14 51.22 60.50 58.02 60.07 60.64 59.62 49.26 49.05 51.52 53.93 55.53 56.29 53.82 59.79 59.76 58.25 53.99 50.78 52.37 52.60 54.47 53.89 55.04 55.79 56.96 54.08 58.33 57.28 56.66 56.12 53.59 58.42 48.84 57.44 61.99 64.17 66.53 67.61 68.06 67.77 67.81
55.05 54.38 53.69 51.25 59.76 58.20 59.63 60.79 60.31 58.27 40.44 49.87 51.35 57.33 55.79 53.15 53.98 55.30 60.13 58.42 54.83 52.15 53.50 51.27 52.17 53.00 54.00 55.67 56.59 55.11 58.89 56.82 55.88 54.90 56.97 54.81 53.76 53.48 61.49 60.58 63.64 66.99 68.41 68.22 68.47
54.40 53.87 53.18 57.07 60.52 60.15 60.69 60.73 58.31 47.00 39.94 47.11 50.80 49.81 50.34 51.90 52.51 55.79 56.39 58.06 58.77 55.16 53.87 53.71 56.14 56.67 56.67 58.12 57.88 58.60 56.78 57.25 56.39 54.33 50.32 56.23 53.88 52.85 57.01 60.05 63.53 66.45 67.76 68.92 69.27
53.44 52.40 53.95 60.76 58.93 61.34 61.51 58.32 47.30 42.93 49.97 46.80 46.75 49.02 48.58 49.74 50.39 51.80 51.62 51.49 52.19 49.56 49.19 53.22 53.80 57.57 57.07 55.93 57.84 57.07 54.73 48.80 47.56 47.67 47.70 56.37 53.77 55.03 60.19 61.69 62.17 63.12 64.80 67.92 69.76
51.68 51.39 58.32 60.86 62.35 61.83 60.27 53.45 43.49 46.83 47.24 50.10 48.65 48.30 47.23 50.85 50.32 51.22 51.07 49.89 53.20 53.64 50.25 48.44 47.60 53.15 57.05 55.98 54.34 54.75 53.97 48.97 43.94 45.05 47.58 53.88 52.49 55.17 62.44 61.76 61.72 61.51 63.13 66.08 68.55
50.68 61.06 61.92 62.77 62.32 61.45 56.13 47.14 45.82 47.93 49.18 47.71 48.41 45.66 47.22 48.31 49.46 50.09 49.95 49.94 51.37 52.99 48.99 48.81 48.12 53.18 53.28 55.87 54.38 54.22 51.20 54.73 50.72 51.76 48.53 52.75 55.81 59.68 62.05 62.14 60.92 59.39 60.48 62.39 66.86
60.76 60.59 61.41 61.38 61.88 59.11 53.21 44.71 48.84 50.39 50.32 49.72 44.94 46.69 44.70 47.23 46.73 47.77 47.91 50.59 50.28 51.83 53.91 51.55 46.67 51.43 52.30 54.05 54.52 53.15 55.79 49.95 50.68 45.84 44.63 51.08 52.68 53.76 56.13 57.51 58.35 57.27 57.75 60.54 64.88
59.66 56.27 60.21 62.77 60.68 55.90 48.49 49.40 49.53 51.54 51.49 49.65 47.89 45.95 46.50 46.49 47.36 46.69 47.04 49.22 50.37 51.07 53.22 52.33 50.87 48.63 50.80 50.73 50.73 51.78 51.35 52.48 52.61 51.12 47.31 46.86 51.28 59.07 57.57 56.22 57.34 56.22 57.03 58.74 61.37
57.55 52.61 60.32 60.70 53.11 53.61 51.03 50.50 45.84 50.15 52.19 50.58 50.77 48.11 46.98 47.10 46.84 46.82 46.20 48.65 50.17 51.00 49.62 51.97 50.30 46.97 48.12 51.43 52.24 52.68 51.83 52.79 48.47 48.69 50.57 49.62 46.94 57.42 58.75 59.15 58.10 56.57 56.49 57.80 59.11
56.56 55.11 59.32 58.08 49.72 49.31 50.60 48.95 49.63 49.00 49.63 49.83 48.98 50.37 50.50 48.01 45.09 47.54 48.08 49.53 49.92 50.30 50.29 51.23 48.26 45.45 45.45 48.31 50.54 49.84 52.10 52.74 52.86 52.49 50.13 47.58 47.88 58.21 57.97 57.84 57.94 56.90 56.72 57.60 57.82
56.21 51.89 54.11 56.28 54.48 50.64 48.47 48.09 46.92 48.84 48.63 50.10 49.68 51.34 49.95 48.65 50.42 47.03 47.10 48.62 50.19 49.16 49.50 52.43 48.50 47.53 43.30 46.60 49.34 47.58 48.79 50.93 51.08 48.47 49.68 50.91 49.22 53.67 55.47 56.06 56.30 56.79 57.82 58.50 58.88
56.67 51.63 53.97 50.79 50.87 50.55 50.73 48.65 46.04 45.95 48.53 50.09 48.53 48.90 49.20 47.62 47.98 47.57 48.51 48.16 49.36 48.89 51.02 51.07 46.61 47.47 47.78 46.99 47.80 47.85 47.40 47.16 48.26 50.35 48.58 52.63 50.97 54.24 57.05 57.05 57.47 58.34 58.24 58.58 58.87
55.42 53.80 53.07 51.92 50.64 50.59 46.15 47.92 45.86 46.09 47.81 46.37 47.32 47.58 48.86 48.43 49.23 47.59 48.93 49.51 48.93 50.24 50.58 50.60 46.83 48.12 46.01 46.42 46.21 45.04 46.92 47.17 47.46 49.03 50.32 53.95 50.27 56.33 57.66 59.45 58.59 57.93 57.85 58.18 58.56
59.74 56.88 55.38 46.90 49.13 48.46 49.02 47.95 46.69 47.72 48.51 49.49 48.42 48.26 47.81 48.93 51.35 52.50 52.57 52.08 51.65 50.09 48.77 48.99 47.67 46.08 42.80 46.73 45.44 42.64 46.46 47.38 48.38 49.39 50.91 50.99 53.55 55.63 55.36 56.75 57.34 57.62 57.87 57.70 57.74

GFSSW_sfc_wetblb_102.txt.gz
Wetbulb
58.34 57.93 57.89 57.96 58.00 58.09 58.28 58.54 58.52 58.60 58.73 58.79 58.77 58.96 59.03 59.39 58.51 57.23 52.60 61.25 62.80 70.41 70.60 63.96 64.09 65.54 68.02 67.45 70.06 70.21 60.17 58.08 60.22 61.49 63.36 66.80 65.11 68.67 70.36 67.59 68.47 69.01 67.29 68.68 70.48
57.72 57.67 57.52 57.63 57.60 57.89 58.11 58.19 58.34 58.39 58.30 58.32 58.53 58.75 58.81 59.80 56.70 54.69 64.56 69.23 69.68 70.77 65.38 63.61 64.30 66.64 63.79 65.68 67.18 65.33 58.82 59.45 65.42 65.90 64.33 65.37 65.13 66.93 66.89 66.65 67.19 65.79 68.28 69.45 69.99
57.53 57.63 57.16 57.20 57.41 57.34 57.50 57.55 57.96 57.85 57.97 57.85 58.14 58.62 58.72 59.75 56.17 55.89 70.07 69.38 69.11 69.34 66.42 67.19 66.66 64.58 62.93 65.13 65.45 64.36 60.17 64.90 66.34 67.38 66.28 66.36 66.41 67.70 65.87 64.62 66.42 64.28 66.30 68.41 68.86
57.14 57.45 57.21 57.07 57.13 57.06 57.23 57.38 57.69 57.18 57.45 57.69 57.87 58.70 58.86 58.87 54.46 63.55 70.08 69.49 69.03 60.47 66.33 65.59 63.07 60.88 62.07 61.12 64.44 61.21 65.13 66.46 67.31 67.45 65.83 65.70 67.41 65.61 65.84 66.79 67.53 67.66 68.10 68.32 67.86
56.71 56.77 56.80 56.78 56.67 56.82 56.99 57.03 57.18 56.94 56.87 57.18 57.80 58.62 58.60 55.89 55.78 66.77 67.63 67.54 58.59 59.07 64.73 63.52 59.58 59.82 58.61 59.08 60.66 63.54 64.76 67.02 67.24 67.53 66.70 66.51 64.90 65.26 65.67 68.89 69.41 68.26 68.28 67.83 67.68
56.15 56.21 56.15 56.19 56.59 56.78 56.71 56.38 56.26 56.22 56.66 57.03 57.68 58.25 56.40 53.61 64.19 65.73 62.32 58.84 56.43 61.29 64.94 63.19 59.66 60.52 58.52 57.79 58.12 64.31 64.39 65.31 66.80 66.62 65.65 63.54 63.22 63.93 66.19 69.24 69.03 67.43 67.40 67.69 67.53
56.22 56.11 56.24 56.49 56.52 56.66 56.45 56.07 55.65 56.06 56.64 57.05 57.70 58.81 57.11 56.43 64.62 65.22 62.49 58.08 58.75 63.67 63.17 63.09 62.02 59.36 58.28 56.93 60.80 64.57 61.90 63.51 65.10 65.14 64.68 65.44 61.46 61.53 67.53 68.69 68.23 67.19 67.19 67.18 67.50
56.29 56.06 56.44 56.24 56.29 56.01 55.66 55.46 56.00 57.71 57.47 57.28 58.20 59.08 56.06 61.74 64.52 64.25 63.05 58.88 61.90 65.27 63.70 62.64 62.13 58.45 57.75 59.73 60.87 60.71 62.16 57.24 64.55 65.46 65.88 64.42 57.56 62.58 67.01 67.09 66.74 66.43 66.45 66.62 67.30
55.93 56.08 56.52 56.56 55.73 55.17 55.14 55.04 57.59 60.21 59.11 57.88 57.68 58.39 56.58 65.35 61.07 63.45 62.34 58.81 60.74 62.61 62.19 61.28 59.26 56.28 56.89 54.62 55.73 59.73 55.63 56.76 58.92 65.61 64.06 62.95 58.99 62.72 66.19 67.00 65.41 65.78 65.83 66.09 66.94
56.92 56.94 56.68 56.14 55.13 54.88 54.79 54.65 59.23 58.44 58.90 59.87 62.16 56.92 60.19 57.20 60.30 62.40 62.95 61.10 59.10 59.38 58.13 56.63 55.25 52.70 53.70 53.86 49.73 54.48 55.96 57.82 57.92 62.38 63.46 60.99 59.67 62.40 64.08 65.23 65.06 65.53 65.80 66.05 66.62
57.04 56.70 56.31 55.74 55.56 54.44 54.42 60.32 58.07 58.31 59.40 57.24 57.00 58.05 59.36 59.76 61.93 60.11 60.77 58.73 58.08 56.76 52.69 55.01 50.34 48.54 51.66 54.52 56.91 57.19 57.45 57.07 59.02 64.55 62.30 60.30 59.57 60.44 63.00 65.97 64.61 64.72 65.44 65.78 66.70
56.44 56.23 55.91 55.36 54.79 54.30 55.04 58.47 56.57 58.15 52.64 58.26 57.61 57.30 58.74 60.20 56.00 57.87 61.41 55.66 53.29 50.88 53.90 51.83 48.12 52.46 53.84 55.43 54.53 54.89 55.80 56.67 60.10 63.18 61.36 60.03 57.76 61.17 63.15 63.89 65.89 65.17 65.47 65.94 66.42
55.61 55.56 55.40 54.63 54.00 54.26 58.23 59.08 59.75 58.90 51.85 54.36 55.88 56.04 56.54 59.06 56.39 55.88 58.54 57.33 54.04 50.94 51.06 50.56 51.11 53.53 53.06 53.09 53.11 54.28 55.26 55.17 56.97 60.43 59.43 58.29 55.43 56.08 60.33 61.65 63.94 67.01 67.20 67.53 67.64
55.62 55.16 54.75 53.60 51.82 59.50 58.20 59.52 59.73 58.88 48.99 49.63 51.22 54.26 56.22 56.51 53.27 59.04 58.58 57.00 54.00 51.35 51.24 51.64 54.33 52.08 52.26 52.04 54.53 52.68 59.13 57.28 59.78 56.51 52.51 60.09 49.90 56.59 59.73 61.30 63.10 65.49 67.59 67.24 67.66
55.76 55.05 54.41 53.02 57.83 58.27 59.96 60.09 60.05 57.23 40.49 50.30 51.52 57.81 55.98 53.00 54.57 56.17 59.10 56.88 53.76 51.03 52.12 49.79 51.89 51.39 51.29 53.07 55.93 55.09 58.75 57.64 57.13 55.94 55.28 55.90 53.69 55.62 59.18 57.53 61.35 64.09 67.46 68.37 68.33
55.19 54.71 53.80 55.95 57.62 59.94 60.57 60.14 57.41 46.13 40.05 47.60 51.20 50.45 50.81 52.29 53.12 56.18 55.51 58.18 58.03 55.12 52.49 52.70 55.36 54.26 53.92 56.64 57.67 58.32 56.63 57.25 56.15 53.95 50.29 55.11 54.86 54.10 55.17 58.53 63.53 66.41 67.38 68.56 69.04
53.84 52.86 53.42 60.46 58.38 61.53 60.74 57.34 46.09 41.73 50.90 47.02 47.94 49.58 49.30 49.04 50.67 52.62 51.95 52.00 51.04 49.20 49.06 51.29 52.22 54.62 56.19 54.45 57.54 55.71 54.23 48.66 47.44 47.32 46.53 56.74 54.43 56.14 58.86 60.20 61.05 63.65 64.51 66.68 68.85
52.35 51.07 56.38 60.34 62.62 62.25 59.77 53.04 41.43 46.45 47.54 51.13 49.66 48.53 46.41 48.87 50.17 50.42 50.86 49.23 52.58 53.30 50.18 46.90 47.01 52.51 56.59 55.29 54.05 54.35 54.32 49.51 43.64 44.57 47.17 56.41 51.79 55.27 61.54 61.73 62.00 63.44 64.63 66.36 67.90
51.22 60.25 59.88 62.83 63.53 61.39 55.45 43.97 42.58 46.16 51.07 47.81 48.56 45.93 45.52 49.63 50.65 49.27 49.42 49.57 51.01 53.85 47.94 48.06 48.83 55.68 55.89 57.28 56.47 53.79 51.55 55.47 50.64 51.18 47.99 52.78 55.74 59.02 60.90 60.21 60.57 60.39 62.24 63.92 66.44
57.89 58.92 60.57 61.49 61.11 59.04 52.96 42.22 50.28 51.59 50.27 49.72 45.62 47.14 45.09 47.41 48.23 48.69 48.67 52.04 50.95 53.41 54.12 51.47 47.32 53.77 53.68 55.27 55.28 53.96 55.80 49.62 50.97 44.54 44.17 50.83 52.17 53.29 56.09 56.84 57.93 57.82 58.76 60.99 64.13
57.80 55.80 60.70 61.19 59.66 54.28 48.24 46.85 49.60 51.71 51.43 49.49 48.52 46.94 47.02 46.14 47.79 46.79 47.23 50.77 51.81 51.70 53.52 52.14 50.47 49.46 52.42 50.22 50.10 51.59 50.43 52.02 51.92 50.69 46.02 46.54 50.06 58.87 58.45 57.84 56.53 56.84 57.35 58.86 61.45
57.36 51.81 61.00 60.08 52.13 53.39 49.76 50.76 47.68 50.75 51.77 50.80 50.53 49.06 48.21 48.18 46.82 46.51 46.51 49.42 51.37 51.69 49.14 52.68 49.91 46.85 48.31 52.38 53.38 52.76 51.89 52.49 48.36 48.14 50.41 48.96 48.84 58.59 59.78 59.29 58.53 57.13 56.70 58.55 60.63
56.05 56.20 58.38 57.24 49.38 50.09 51.16 49.42 50.54 49.79 50.07 50.10 49.19 50.13 50.05 48.17 45.71 47.47 48.75 50.31 50.80 50.43 49.05 51.40 48.71 44.43 46.17 49.28 51.66 50.01 51.80 52.42 52.41 52.21 49.36 46.65 48.99 58.73 58.69 57.82 58.11 58.16 57.76 57.46 60.22
56.22 51.33 53.78 54.03 54.28 50.91 48.61 48.10 47.64 49.37 49.66 51.02 50.72 51.28 49.03 48.19 49.37 46.69 47.74 49.46 50.37 50.17 53.25 54.35 47.89 46.70 41.53 45.96 49.39 47.71 49.91 51.55 50.94 47.87 48.88 50.50 50.22 52.78 55.06 55.15 56.76 58.34 58.98 58.77 58.53
56.73 51.80 54.05 50.35 50.51 50.75 50.44 49.07 46.41 46.29 48.43 50.00 49.34 49.53 49.22 46.19 47.15 47.42 48.85 48.81 49.95 49.17 51.45 49.91 45.14 47.44 48.25 49.52 48.32 48.81 48.49 49.85 48.67 50.24 48.45 51.07 51.59 53.00 54.93 56.06 57.09 58.84 58.61 58.32 58.60
54.07 53.30 52.44 51.52 50.85 50.92 46.84 48.40 46.11 46.37 48.72 46.84 47.09 48.41 49.59 48.53 48.37 46.88 49.57 49.54 48.48 50.87 49.99 50.87 45.43 47.52 46.17 48.12 47.44 46.31 48.12 48.13 48.04 48.62 53.93 54.19 52.53 57.17 57.79 58.09 57.19 57.54 57.66 57.65 58.17
58.06 56.60 55.09 48.05 50.01 48.94 49.78 48.92 47.44 48.09 48.87 49.92 49.00 48.40 47.35 50.01 52.09 52.80 53.35 52.78 52.28 50.51 49.37 49.14 47.51 45.36 41.96 46.71 46.31 43.12 46.61 47.59 48.15 49.62 51.60 50.91 54.74 57.57 55.73 56.14 56.60 57.23 57.61 57.49 58.05

GFSSW_sfc_wetblb_105.txt.gz
Wetbulb
57.83 57.70 57.70 57.39 57.74 58.13 58.31 58.51 58.62 58.73 58.75 58.68 58.74 58.82 59.39 59.49 59.49 56.21 49.80 56.24 58.54 66.47 70.33 60.93 58.97 58.51 60.54 63.99 67.38 68.10 59.69 56.85 58.97 59.97 62.25 66.92 65.57 69.02 69.10 65.86 66.31 66.99 65.83 67.06 69.72
57.51 57.51 57.55 57.34 57.38 57.48 57.41 58.00 58.17 58.40 58.35 58.42 58.35 58.58 59.18 59.49 55.72 51.79 60.16 67.45 70.51 69.87 57.54 59.06 56.88 59.52 57.69 60.59 62.89 62.92 57.52 57.53 63.19 64.76 63.95 66.02 66.22 66.97 66.13 65.75 65.99 65.18 67.40 68.32 69.70
57.38 57.19 57.06 57.04 57.49 57.24 57.15 57.34 57.73 58.18 57.97 57.85 58.20 58.46 59.26 58.44 53.21 52.68 68.92 67.47 70.29 68.84 57.21 62.81 61.53 61.41 59.60 60.40 61.58 62.12 58.30 60.17 61.45 65.53 66.14 64.82 65.90 67.88 65.63 61.89 63.19 62.98 65.11 66.66 68.30
56.94 56.89 56.76 57.08 56.86 56.70 57.07 57.24 57.33 57.45 57.55 57.61 57.72 58.29 59.39 55.80 51.50 60.22 72.27 69.42 70.72 60.60 56.20 59.37 62.20 58.81 56.85 56.91 62.85 62.44 63.91 63.84 66.50 66.74 65.85 65.10 66.54 64.95 65.31 64.79 66.52 66.09 66.53 66.57 66.95
56.59 56.33 56.29 56.16 56.56 56.85 56.76 56.77 56.62 56.62 56.85 57.34 57.60 58.29 56.53 52.23 51.92 64.07 70.53 69.62 60.24 54.93 54.46 60.12 60.01 57.62 55.03 58.45 60.00 62.18 63.34 64.24 66.95 66.13 65.58 66.96 64.91 64.82 64.57 68.07 67.60 67.23 66.99 65.59 65.38
56.24 56.24 56.12 56.35 56.40 56.79 56.60 56.37 56.02 56.18 56.20 57.14 57.46 58.30 53.82 48.13 64.30 65.02 61.49 59.92 55.25 51.79 56.04 61.32 61.10 58.56 56.54 57.17 53.65 63.06 64.55 63.99 65.94 65.05 65.02 64.10 64.36 64.60 66.35 69.00 66.45 66.19 65.66 65.23 64.98
56.13 56.11 56.09 56.26 56.24 56.36 56.17 55.78 55.84 55.79 56.25 57.26 57.40 57.33 53.01 52.01 63.18 62.56 59.49 54.27 53.11 53.12 59.46 63.76 64.06 56.29 55.99 53.04 56.22 63.63 60.84 62.89 64.10 63.51 63.00 64.43 60.27 61.63 67.46 68.55 66.86 65.44 65.30 65.47 65.03
56.04 56.20 56.42 56.22 56.24 55.93 55.42 55.79 55.73 56.65 57.31 57.67 57.52 55.65 49.87 60.37 58.70 62.20 59.78 55.75 54.73 56.80 61.09 63.24 61.17 56.84 52.51 54.87 54.64 53.92 59.27 55.60 61.54 63.23 63.77 63.05 56.25 62.92 67.02 66.61 66.13 66.19 65.30 65.14 65.55
56.05 56.16 55.99 56.47 56.63 55.99 55.38 55.46 56.61 60.10 60.45 58.06 54.32 52.53 52.11 63.13 57.29 60.77 60.19 55.24 54.98 57.54 60.52 63.94 57.66 51.51 52.96 49.14 46.97 51.32 50.01 55.03 59.51 63.90 62.31 61.31 57.31 62.80 65.89 65.52 65.30 65.00 64.53 64.33 65.29
56.52 56.21 56.14 56.51 56.02 55.49 55.01 54.99 56.93 57.70 57.96 57.72 57.21 52.09 55.18 56.11 57.73 60.04 60.74 58.24 56.32 57.49 57.49 54.52 50.79 46.65 46.91 44.51 41.01 46.66 49.67 56.53 57.39 61.71 62.08 59.69 59.31 61.40 64.02 64.67 64.20 64.15 63.64 63.26 64.87
55.90 55.78 56.12 56.16 55.60 54.81 53.78 55.62 52.92 53.19 56.28 51.95 53.27 56.13 56.95 58.98 59.35 58.98 60.00 57.25 55.81 53.72 48.53 50.17 44.57 41.97 45.43 48.55 50.55 51.79 53.38 55.08 59.53 62.81 59.71 58.25 58.25 59.13 62.96 64.31 64.18 63.51 61.55 62.51 63.93
55.39 55.13 55.07 55.57 54.91 54.40 51.93 52.56 56.41 53.22 48.94 56.05 56.33 57.36 58.73 56.59 54.52 56.81 58.36 52.91 51.27 47.40 50.47 46.83 43.64 48.86 50.66 51.04 50.88 50.56 51.54 55.98 59.81 62.23 59.38 58.57 57.57 60.32 62.44 63.29 64.02 64.22 61.82 63.58 63.34
56.06 55.44 54.62 54.85 54.24 50.74 53.34 56.08 59.96 54.87 46.46 50.88 55.21 54.45 53.81 56.26 53.66 53.44 55.43 53.74 49.16 47.38 48.27 45.60 48.39 52.01 49.93 48.97 48.67 49.05 46.82 55.23 56.88 57.51 60.04 56.99 54.83 56.69 60.97 62.84 63.38 63.56 65.40 65.13 63.85
56.06 55.75 54.97 53.86 51.86 55.86 55.04 58.56 59.16 55.46 41.87 48.58 50.08 52.22 54.69 54.59 52.47 58.09 57.39 54.54 51.35 47.35 47.99 46.89 51.68 50.57 48.41 47.89 48.98 44.04 55.54 58.13 55.22 53.64 50.04 56.62 45.67 53.79 57.61 58.81 60.61 61.88 64.60 64.12 64.58
55.94 55.37 54.53 53.27 50.58 53.20 57.64 55.84 54.74 52.60 34.60 49.57 49.14 55.86 53.93 49.89 50.65 53.32 57.48 54.00 49.93 49.59 48.89 46.08 48.08 48.59 47.45 48.93 50.87 48.82 60.37 57.87 55.44 52.00 53.34 52.70 48.65 52.84 57.21 56.25 58.85 61.68 61.77 63.81 65.30
55.19 54.81 53.31 53.19 52.48 54.64 57.78 58.90 53.37 40.52 37.66 46.36 50.22 49.07 48.74 49.94 50.89 54.59 54.02 53.98 54.15 51.29 50.73 48.65 51.96 50.61 49.54 51.78 52.08 55.61 53.69 56.14 54.32 52.29 47.58 52.04 49.98 51.27 54.89 57.06 58.32 60.36 60.98 64.67 65.87
53.90 53.14 51.72 56.59 53.79 59.07 58.62 53.95 40.91 36.65 50.35 46.11 45.54 47.58 46.78 46.17 48.49 51.97 50.39 47.29 45.16 41.44 43.80 48.17 48.23 51.10 52.59 48.51 52.40 53.01 46.59 41.15 41.92 44.67 43.93 52.82 49.58 51.20 57.52 57.31 58.16 58.31 60.73 66.44 67.44
52.46 51.59 52.81 56.38 58.29 59.75 57.04 49.91 39.58 46.12 46.48 51.14 48.98 47.37 44.43 46.55 46.53 49.58 47.90 45.26 49.83 48.19 45.39 41.57 40.71 48.82 52.67 49.10 47.76 48.41 46.15 42.32 40.69 39.70 41.14 50.25 47.35 52.87 59.03 61.31 62.40 63.18 64.42 65.64 66.82
51.54 56.56 56.63 58.56 58.64 58.10 52.24 42.44 42.28 46.28 49.71 48.35 47.38 44.30 42.65 48.59 48.59 48.50 45.82 45.68 47.88 48.19 42.83 44.23 43.61 52.00 53.54 53.92 53.10 49.07 44.73 49.77 43.55 44.00 41.04 48.83 54.15 58.31 59.28 59.20 60.43 61.12 62.60 63.04 64.09
52.14 54.62 55.30 60.19 61.83 57.43 49.25 44.18 46.83 51.56 51.59 48.56 43.97 46.13 43.36 45.15 45.72 45.58 45.72 48.92 50.10 51.08 50.79 48.46 40.70 50.40 52.82 53.57 52.96 48.26 49.71 42.68 42.75 36.72 35.81 46.71 50.43 51.05 54.13 55.90 57.10 57.75 59.11 61.53 63.62
54.06 50.71 58.24 61.15 56.76 51.16 45.70 46.43 50.46 53.00 50.13 48.76 46.75 45.94 46.10 44.69 45.76 44.49 45.00 49.43 51.27 49.37 49.29 46.10 43.62 46.58 50.40 45.97 46.10 46.60 44.05 44.65 44.21 42.86 37.96 42.19 45.58 57.26 55.02 55.46 55.63 56.39 58.05 60.33 61.94
54.27 48.25 58.97 59.15 47.36 50.30 46.57 49.78 49.31 49.10 51.29 49.90 49.54 48.92 46.32 47.07 45.03 42.49 45.74 46.94 50.07 48.90 45.58 47.03 45.01 42.74 43.97 49.61 49.86 47.67 45.40 45.03 40.29 39.70 45.32 46.87 46.72 58.13 57.11 55.92 55.63 55.50 57.61 60.09 62.58
50.79 53.80 58.18 53.70 43.94 47.39 50.05 48.63 48.89 48.12 48.66 49.14 48.60 49.20 48.00 45.71 44.14 46.65 47.76 50.84 49.55 49.05 44.46 46.22 41.63 37.96 41.13 43.02 46.31 43.90 47.15 44.31 44.20 44.37 42.97 42.21 47.14 57.68 57.28 56.51 56.49 54.94 56.95 59.05 60.24
52.07 49.76 51.94 51.32 51.14 48.41 46.23 47.21 46.07 48.88 48.52 49.53 49.59 49.56 47.71 44.85 46.55 44.85 46.94 48.93 49.13 47.66 55.62 51.66 43.37 41.60 35.48 39.92 44.63 43.13 46.43 47.24 43.83 39.88 46.18 48.48 49.58 52.23 54.24 54.35 56.20 56.26 56.71 57.83 58.87
54.72 50.75 52.86 47.04 47.63 48.01 48.38 47.80 46.63 45.56 48.19 49.33 48.91 48.40 46.39 43.35 44.46 45.30 48.27 46.58 48.86 51.22 49.42 45.67 40.81 43.13 43.89 47.11 47.41 45.11 45.51 47.24 42.76 44.32 45.70 48.60 49.21 52.42 53.92 54.50 56.15 57.00 56.60 56.28 57.70
52.78 49.49 51.49 48.32 49.64 47.44 45.69 45.50 45.83 45.80 47.55 46.22 45.47 47.99 46.85 45.87 45.67 44.18 47.46 44.26 43.63 46.91 43.97 47.18 41.09 43.22 41.07 46.25 46.39 43.89 45.44 46.70 46.39 51.92 51.21 51.26 49.52 54.44 55.57 56.21 56.39 56.17 56.30 55.80 55.26
57.37 57.06 53.11 48.14 47.28 45.95 46.94 47.32 46.63 48.16 48.69 48.88 47.89 47.70 45.73 46.45 48.35 48.06 48.46 48.94 48.39 45.01 44.73 43.97 43.31 40.66 36.74 44.17 43.48 39.00 42.98 44.55 45.02 46.12 53.04 48.33 51.27 54.96 54.01 54.67 55.21 55.86 56.21 55.62 55.19

GFSSW_sfc_wetblb_108.txt.gz
Wetbulb
57.30 57.38 57.40 57.38 57.22 57.22 57.26 57.32 57.66 58.24 58.11 58.53 58.82 58.32 58.65 59.55 59.36 56.36 47.59 52.73 55.78 68.14 70.41 61.16 62.93 57.64 56.37 58.24 66.58 68.14 59.11 54.62 56.30 59.33 61.11 66.47 63.80 66.93 69.02 64.39 65.08 66.22 65.18 67.20 69.99
57.15 56.98 57.00 57.09 57.09 57.14 57.05 57.10 57.33 58.22 57.90 57.89 57.99 58.19 58.57 59.40 55.74 51.35 58.02 63.65 67.04 69.14 58.94 55.07 55.49 55.18 52.78 56.00 57.96 62.23 55.99 57.32 61.53 62.73 62.60 65.35 65.09 64.71 64.35 62.98 63.99 64.46 67.73 69.32 69.62
57.11 56.98 56.76 56.79 57.18 56.80 56.76 56.92 57.03 57.06 57.38 57.14 57.76 57.91 58.40 58.53 51.35 52.20 67.50 67.45 68.29 70.36 55.95 55.01 58.66 56.62 53.27 56.69 59.11 60.44 56.59 61.41 61.00 62.66 62.90 65.23 64.98 67.45 63.17 62.04 62.60 62.57 65.85 67.75 68.06
56.62 56.44 56.27 56.33 56.60 56.57 56.73 56.84 56.79 56.76 56.64 56.56 57.51 57.90 58.57 54.29 49.52 59.83 71.04 67.74 71.17 62.30 54.90 53.77 55.29 54.93 55.40 55.58 60.05 58.45 63.81 64.00 65.66 66.43 64.46 64.23 66.34 64.12 64.49 64.18 65.78 65.89 67.15 67.85 67.83
56.44 56.22 56.31 56.26 56.23 56.55 56.69 56.49 56.48 56.18 56.19 56.26 57.47 57.75 55.38 49.74 49.76 61.70 72.43 69.30 65.19 55.99 52.37 52.99 56.80 56.80 54.11 55.83 57.77 61.30 63.54 64.66 65.90 66.33 66.62 66.91 64.73 63.67 63.71 66.24 67.14 66.90 67.70 67.18 66.45
56.21 56.23 56.11 56.13 56.25 56.29 56.29 56.06 55.61 55.56 55.89 56.02 57.36 57.72 51.32 42.94 60.27 65.04 63.16 59.04 54.45 50.71 50.75 55.18 59.18 60.18 55.73 54.95 53.91 57.78 64.59 65.36 65.25 64.59 66.14 64.32 63.54 64.24 64.15 66.27 66.41 65.64 64.92 66.57 66.48
56.16 56.07 56.24 56.09 56.13 56.33 55.91 55.53 55.23 55.59 56.09 56.13 57.23 56.47 51.95 48.98 61.56 62.18 58.36 54.29 52.19 49.59 54.64 54.72 58.43 58.79 54.85 51.65 55.01 65.22 60.49 61.44 63.82 63.63 63.61 64.29 60.04 61.01 67.05 68.30 64.44 64.69 64.81 64.81 67.05
56.26 56.25 55.93 56.05 56.09 55.97 55.75 55.99 55.76 56.46 57.40 56.70 57.53 53.72 45.39 58.32 56.88 60.01 57.17 53.34 52.70 49.67 51.92 58.64 61.13 58.39 52.33 52.15 52.76 57.71 58.88 56.21 62.36 61.83 63.88 61.51 54.96 62.91 66.83 66.48 63.77 64.53 64.55 64.16 67.45
55.85 55.87 55.75 55.81 56.24 56.29 55.86 55.71 56.16 58.31 60.45 58.32 51.02 48.50 46.59 61.25 55.11 55.70 57.74 53.91 51.80 50.30 52.56 58.45 58.45 52.54 50.83 46.79 43.65 45.41 49.50 53.67 56.43 62.28 61.37 60.02 56.02 62.03 66.14 66.02 65.04 64.74 63.44 63.66 65.74
55.90 55.47 55.16 55.71 55.94 55.40 55.14 55.32 55.71 57.54 57.46 56.96 56.10 48.35 53.43 53.96 54.21 58.14 58.25 55.37 51.60 51.90 53.81 53.84 49.19 45.19 44.35 42.47 37.95 41.78 48.08 53.27 56.31 60.45 60.80 58.25 57.34 62.01 64.88 64.88 63.49 63.99 64.71 64.09 65.12
55.86 55.36 54.62 54.36 55.30 54.29 51.50 51.95 50.75 50.21 52.80 47.91 50.07 53.57 56.11 56.04 57.41 57.03 58.84 53.79 52.45 51.40 46.54 48.83 43.50 40.90 44.36 44.90 46.56 46.00 50.35 56.42 59.09 61.09 59.79 57.32 57.21 60.32 63.32 63.33 62.00 63.42 64.09 63.10 65.06
55.80 55.43 54.84 54.04 54.73 53.44 50.38 47.89 53.10 51.75 44.97 54.58 54.33 55.52 57.60 55.65 52.16 55.47 57.32 51.42 49.60 46.10 47.77 45.13 41.76 46.83 48.53 48.53 47.25 46.16 47.13 52.80 58.52 59.80 58.78 57.43 56.76 59.76 62.32 62.46 62.82 63.32 63.42 61.85 64.78
56.10 55.22 54.79 54.79 54.00 48.45 49.14 51.36 55.61 53.59 42.94 48.16 53.74 52.40 52.69 54.18 52.15 52.78 53.84 50.56 48.39 45.11 46.41 42.74 46.82 50.91 48.96 46.94 45.81 44.68 43.94 53.49 55.76 58.71 59.18 57.08 55.42 56.37 61.11 62.45 63.59 64.53 64.53 65.29 64.01
55.86 55.72 54.80 53.56 50.64 50.74 50.81 54.47 54.36 52.82 37.59 44.39 46.06 52.02 53.12 53.93 50.30 56.39 55.12 52.35 48.37 45.36 45.79 44.65 50.51 49.40 47.31 46.12 45.67 40.14 48.61 57.29 55.24 53.72 48.22 56.63 46.78 53.25 58.00 59.90 62.00 63.28 63.70 64.76 63.52
55.72 55.28 54.03 52.29 47.52 47.93 53.23 51.65 54.39 48.08 31.78 48.74 48.15 54.00 51.53 49.33 49.54 52.07 56.27 52.29 48.33 47.76 45.36 44.11 46.04 45.77 45.79 47.04 47.99 45.49 59.16 56.99 55.29 52.34 51.34 51.81 48.45 48.03 57.08 57.31 59.40 61.83 63.13 64.42 64.81
55.13 54.55 53.34 50.48 48.67 50.93 52.59 53.20 48.90 37.87 32.79 45.76 49.24 47.42 46.55 47.54 48.75 51.93 52.59 51.69 52.34 48.39 47.17 47.15 51.57 47.67 47.25 49.94 49.36 59.16 56.43 54.15 53.51 49.94 44.46 51.01 48.77 50.19 52.93 55.71 59.65 62.04 63.09 64.79 64.16
53.74 52.70 51.40 53.63 49.22 53.04 53.35 49.22 38.60 32.80 48.33 45.53 43.55 45.28 45.03 43.88 46.26 49.93 48.07 44.93 42.79 40.31 39.61 46.65 48.42 48.47 49.41 45.71 48.22 51.22 48.58 39.20 40.66 41.89 40.60 49.24 49.92 49.81 56.06 58.48 60.08 60.90 62.40 63.46 63.95
52.15 51.02 50.30 52.95 52.22 53.10 51.50 45.06 36.11 44.63 43.95 48.39 46.99 45.75 42.26 43.70 42.51 47.95 45.94 43.06 45.43 43.98 40.11 39.16 39.55 45.14 49.42 46.70 45.14 46.10 46.03 40.15 36.24 37.61 41.40 49.54 47.08 54.00 57.37 59.28 59.71 61.59 63.70 64.46 65.98
51.17 48.17 49.71 52.46 54.02 52.92 47.45 37.96 38.15 43.16 47.68 47.02 45.15 41.89 38.82 46.32 46.48 45.96 42.95 42.16 44.72 44.47 40.30 39.05 41.74 49.82 51.34 50.87 49.56 45.29 45.62 47.28 43.04 43.87 42.62 49.16 53.63 57.16 58.72 58.29 60.95 61.20 63.28 63.23 64.56
47.73 47.91 48.80 55.13 56.29 51.21 43.87 39.94 43.05 49.35 49.80 47.36 40.88 43.96 39.52 41.98 42.63 43.33 42.54 46.68 46.88 47.71 44.77 43.50 39.00 44.72 50.46 51.01 50.89 49.08 49.92 43.56 42.84 36.25 36.36 45.42 49.59 50.35 55.11 57.18 58.91 58.91 60.14 62.30 64.45
49.12 44.50 52.05 53.93 54.54 46.38 38.86 41.13 47.61 51.62 51.26 45.14 43.92 42.33 42.01 41.31 41.67 41.07 43.75 47.10 47.24 46.50 46.81 43.26 39.98 42.80 47.15 43.85 44.18 45.34 43.12 43.98 42.24 40.07 35.97 39.94 46.55 56.84 55.98 56.43 55.79 57.20 59.86 61.20 63.15
48.61 43.58 53.70 53.53 44.88 41.83 39.97 45.66 49.07 46.34 48.25 47.34 47.12 45.07 43.40 43.83 41.69 41.06 42.52 46.43 51.22 47.21 42.82 43.45 39.11 36.69 41.35 48.35 48.04 46.07 43.26 41.96 39.01 39.27 41.46 43.23 48.10 56.57 56.22 56.24 56.76 57.29 58.91 61.77 62.81
45.37 47.09 55.27 50.45 39.81 39.61 44.51 46.10 45.87 45.24 44.57 45.64 45.70 46.59 47.95 43.43 39.69 44.03 46.77 51.73 51.92 46.07 40.53 43.08 36.98 34.59 38.38 41.98 47.01 42.24 44.35 41.96 40.36 39.57 42.00 40.86 47.41 56.84 55.37 54.84 56.32 56.95 59.11 60.34 61.35
46.60 44.82 46.80 45.57 43.65 42.64 40.79 41.68 42.18 46.55 46.01 46.17 46.25 45.61 45.61 42.14 43.28 43.51 46.35 49.13 49.06 47.17 55.87 49.10 36.89 37.41 34.06 37.72 42.30 41.62 43.16 43.54 39.87 39.32 43.98 45.59 50.03 53.15 53.61 53.12 54.81 56.44 58.64 59.87 60.41
49.11 46.92 45.07 41.78 42.93 41.46 42.88 43.12 43.22 41.42 45.23 44.97 43.73 44.85 42.42 37.90 40.81 42.36 46.20 45.60 46.96 51.58 47.21 43.50 38.43 39.44 43.18 44.12 44.64 44.16 43.19 43.70 43.78 43.39 40.28 48.44 49.10 52.26 53.44 53.49 54.81 56.62 57.80 58.30 59.12
47.43 45.89 47.97 43.07 41.74 42.54 41.37 39.70 43.02 43.08 43.48 41.56 42.73 44.85 45.19 40.25 41.07 40.19 42.30 40.51 40.74 44.51 42.25 41.73 40.06 42.07 41.20 45.42 44.28 41.81 43.44 45.21 51.17 50.88 49.92 49.86 49.69 54.41 56.07 56.19 55.36 55.64 56.83 56.61 57.78
52.93 50.90 49.04 45.15 44.70 40.71 40.29 41.90 44.48 44.85 45.21 46.42 46.51 43.29 42.43 43.16 45.90 45.61 47.62 45.02 43.10 41.85 41.22 40.23 39.28 38.48 36.51 42.20 41.20 36.65 41.04 41.63 45.28 51.72 51.17 47.34 50.35 54.71 54.24 54.67 54.97 54.96 54.66 54.95 56.87

GFSSW_sfc_wetblb_111.txt.gz
Wetbulb
56.93 56.99 56.84 56.88 56.93 56.91 56.92 56.99 57.05 56.99 57.87 57.53 57.49 57.87 58.19 58.60 58.82 56.25 47.71 51.44 54.47 67.53 71.47 66.06 62.72 58.00 54.73 56.54 64.40 67.78 58.03 54.46 56.57 58.62 59.69 64.38 62.21 66.78 67.16 63.37 64.72 65.68 64.44 65.62 69.66
57.04 56.85 56.71 56.73 56.67 56.83 56.71 56.55 56.66 56.77 57.21 57.05 57.02 57.78 58.00 58.82 54.30 51.46 56.78 61.57 64.79 71.19 58.50 55.80 55.72 55.12 50.56 53.66 58.39 61.88 55.04 57.17 61.49 62.97 61.33 63.76 64.59 64.27 62.68 62.17 62.24 63.27 65.99 68.84 69.56
56.62 56.35 56.20 56.15 56.31 56.39 56.35 56.58 56.59 56.53 56.55 56.42 56.58 57.70 57.82 57.69 48.52 50.06 64.10 65.03 68.41 67.55 55.59 54.06 56.44 54.46 50.53 54.12 55.66 60.93 56.07 61.32 62.09 64.64 64.72 63.41 63.90 65.52 61.74 60.26 62.10 61.76 64.73 67.53 67.75
56.60 56.49 56.28 56.20 56.35 56.33 56.58 56.42 56.44 56.30 56.06 56.00 56.22 57.50 58.08 52.31 41.74 57.81 70.06 67.77 68.82 64.43 55.28 52.08 52.10 51.79 51.72 53.59 58.36 56.91 61.36 62.60 64.28 63.89 62.33 63.29 64.91 62.82 63.03 63.01 65.80 66.40 67.03 67.06 66.35
56.69 56.33 56.23 56.19 56.25 56.23 56.24 56.24 56.05 55.89 55.66 55.72 55.81 57.34 54.05 46.92 46.98 55.34 72.15 67.77 65.83 56.60 51.77 51.55 53.41 54.69 52.56 54.60 58.71 58.39 61.97 64.57 65.89 64.75 64.88 65.84 63.93 63.58 63.13 65.17 67.49 67.48 67.29 66.38 66.44
56.87 56.46 56.30 56.40 56.08 56.44 56.24 55.87 55.32 55.30 55.39 55.56 55.65 57.23 49.30 38.36 53.00 63.68 63.04 62.83 58.95 51.64 50.08 53.42 56.70 58.08 55.95 54.50 53.74 57.34 63.15 64.72 65.27 65.30 65.18 62.62 62.86 62.90 64.02 67.15 66.11 66.25 65.92 66.29 66.60
56.16 56.39 56.04 56.34 55.99 56.08 55.87 55.28 55.05 55.28 55.78 55.43 56.42 56.09 50.95 45.30 60.56 60.98 59.22 54.73 52.25 49.56 48.21 52.11 57.57 57.69 56.27 53.24 53.96 63.13 59.18 62.82 63.72 64.27 63.19 64.50 60.49 59.68 64.41 65.18 64.83 65.60 65.74 66.22 66.11
56.22 56.10 55.68 55.74 55.80 55.77 55.59 56.05 55.87 55.70 56.19 56.05 57.20 52.27 44.02 54.24 55.66 58.20 55.20 52.55 51.46 47.41 50.12 54.39 57.17 57.20 55.18 54.85 57.58 58.35 57.81 54.85 61.87 62.46 63.12 61.29 54.90 61.63 66.77 65.40 63.40 64.86 65.62 65.31 65.81
56.51 55.72 55.47 55.28 55.06 55.86 55.71 55.51 56.36 56.93 58.70 57.82 49.37 47.52 44.85 58.69 53.83 54.20 56.90 52.74 49.98 47.47 48.80 55.63 56.50 53.09 49.58 45.58 42.67 44.89 46.75 52.44 55.88 62.70 62.26 59.57 55.25 61.17 65.71 63.98 62.77 62.93 63.94 65.02 65.10
56.06 55.55 55.03 54.35 54.03 54.94 54.72 55.21 56.19 57.58 57.05 56.35 55.28 46.85 51.28 52.27 53.02 55.02 56.56 53.61 49.22 49.74 51.72 51.12 48.86 44.23 42.63 41.82 36.95 40.57 46.55 52.04 53.93 58.59 60.87 57.93 56.35 61.36 63.99 62.68 62.00 63.88 63.04 64.01 65.58
55.87 55.36 54.93 54.34 53.45 54.06 50.92 51.96 49.76 48.31 50.93 45.73 47.51 51.96 54.48 55.33 56.20 55.51 56.60 51.77 51.09 50.57 46.13 47.89 42.69 40.09 43.51 44.63 45.39 44.41 43.59 50.50 58.00 60.73 59.41 57.58 56.89 60.07 62.41 63.05 62.74 63.03 63.65 64.00 64.85
56.13 55.20 54.73 54.33 53.84 53.17 48.66 45.60 49.70 49.63 45.48 52.68 52.71 53.55 55.86 54.08 51.43 53.06 55.53 49.14 48.05 44.86 46.56 44.27 40.31 45.74 47.64 47.22 46.01 44.64 43.69 52.31 57.65 59.35 58.84 57.44 57.34 59.64 61.51 61.61 62.63 62.33 63.25 63.22 64.88
56.01 55.57 54.86 54.53 53.13 48.39 47.27 49.52 53.04 51.38 42.33 46.64 52.32 51.54 51.19 53.03 50.84 51.05 53.65 50.02 46.81 44.02 44.09 42.21 45.55 49.40 47.62 45.43 45.01 41.66 43.50 47.50 54.85 58.39 59.41 57.63 55.33 57.44 60.68 62.33 62.65 63.06 64.57 64.53 63.70
55.79 55.61 54.77 53.22 48.20 49.21 48.65 50.77 52.29 50.98 36.78 42.74 45.35 51.06 51.22 52.46 49.12 55.57 54.46 51.00 46.70 44.96 44.99 43.94 48.63 48.31 45.48 44.94 45.06 37.14 46.40 49.45 56.05 52.44 48.50 56.22 46.65 54.77 57.35 58.84 60.40 61.72 62.61 63.18 63.02
55.53 55.17 53.92 51.83 46.35 46.91 49.73 50.40 50.32 46.71 30.80 46.83 46.44 53.19 49.64 50.11 49.80 50.70 54.31 51.49 46.55 45.09 43.71 42.75 44.12 44.37 44.32 45.70 46.66 43.73 51.58 48.83 54.88 50.21 49.15 51.08 48.23 47.40 56.82 56.39 58.67 60.06 61.35 64.06 63.08
55.06 54.54 53.24 49.54 47.37 50.04 52.28 50.36 47.32 37.38 33.55 45.46 47.87 44.90 47.40 45.91 47.09 51.29 51.51 51.69 51.38 47.45 45.75 45.84 49.46 47.58 46.09 47.78 47.79 57.77 54.65 52.42 50.64 48.45 42.89 48.47 49.35 48.24 53.51 55.97 58.30 60.91 62.84 64.43 64.26
53.79 52.77 51.46 52.63 48.58 50.66 51.06 48.98 38.56 32.87 45.87 44.44 43.40 43.62 43.92 43.72 44.97 48.32 47.17 44.65 41.98 37.84 37.58 44.59 46.05 48.10 48.49 43.12 47.44 54.05 45.64 40.42 41.10 40.27 40.23 46.24 49.00 49.82 55.26 58.49 60.29 60.82 62.31 64.31 64.49
51.98 51.00 50.25 52.13 51.22 52.34 49.73 44.60 34.70 43.38 42.31 47.33 46.02 43.50 41.64 42.55 41.72 45.22 43.95 41.95 43.47 41.94 38.26 37.53 38.15 44.86 47.56 45.13 42.78 49.60 45.30 40.07 35.36 37.56 39.76 47.99 45.05 50.76 57.36 59.62 60.67 62.89 63.44 64.52 64.59
50.98 47.26 48.24 50.84 52.73 51.22 47.32 37.64 37.43 41.86 45.90 45.85 42.89 41.07 39.97 44.69 44.58 44.61 41.12 41.79 43.18 42.18 38.24 36.88 39.78 48.36 48.40 48.48 48.04 44.29 43.02 45.91 40.56 39.13 41.57 46.17 52.97 56.85 58.34 58.60 59.88 61.07 62.24 63.09 65.05
47.11 46.18 46.61 54.22 54.87 50.73 44.06 39.27 41.90 47.43 48.09 45.99 39.05 42.04 37.42 40.82 42.07 41.61 41.46 45.29 44.37 45.59 43.12 41.15 37.78 43.17 48.35 49.48 48.58 46.26 47.80 40.60 38.79 34.62 35.20 43.48 46.86 50.20 53.78 55.65 58.19 58.45 60.28 61.36 63.50
47.07 44.02 49.52 54.26 52.93 47.32 39.98 40.25 45.89 49.77 50.43 43.66 41.79 40.45 39.44 40.20 40.31 39.52 40.91 45.73 46.32 45.48 45.64 41.23 39.01 42.12 45.39 42.62 41.49 44.44 41.68 40.27 40.42 37.91 36.91 38.39 44.04 55.21 55.51 55.91 56.74 58.63 60.28 61.60 63.18
44.40 41.86 51.28 52.07 45.54 39.82 39.48 43.87 47.36 44.13 47.84 45.87 45.42 43.51 41.10 41.76 39.90 39.21 40.38 44.53 49.42 45.64 41.37 41.17 37.56 36.31 40.86 46.18 46.16 43.39 41.33 40.57 38.14 37.01 42.45 41.55 46.79 56.56 57.41 57.14 57.26 57.98 60.58 62.12 63.17
43.17 42.66 51.67 49.87 40.39 38.97 40.60 44.85 44.03 43.79 43.66 44.59 44.15 44.58 43.48 39.74 37.93 41.81 44.25 49.29 49.14 45.34 40.45 40.61 35.82 34.22 38.47 41.89 43.60 41.10 41.61 38.56 38.27 41.07 40.94 40.51 46.52 56.20 56.35 56.58 57.57 57.18 60.46 60.97 61.34
44.42 42.50 44.86 45.22 41.74 40.39 40.83 40.78 40.40 45.21 44.00 44.70 44.69 44.27 41.99 40.22 41.57 39.80 43.92 47.74 47.77 44.43 55.34 47.04 35.45 36.55 33.62 35.93 39.15 39.20 42.42 40.73 38.43 40.48 42.63 45.91 50.11 52.61 53.10 53.55 55.84 58.32 59.61 59.74 59.47
47.26 44.42 42.63 40.49 41.12 39.44 40.18 41.23 41.65 40.70 43.10 43.44 43.51 44.31 41.01 37.40 39.49 40.79 44.17 43.93 45.70 50.44 45.39 41.43 36.14 36.91 41.53 42.44 42.02 41.62 42.15 42.38 39.26 41.52 41.62 47.85 49.57 52.09 53.35 54.07 56.22 58.09 58.95 58.77 58.27
45.27 43.75 44.89 42.09 40.42 39.94 39.01 37.64 41.77 41.22 41.21 40.96 40.78 42.90 42.14 39.13 40.32 39.01 41.98 40.83 41.54 43.41 41.20 39.45 35.93 38.15 38.70 45.23 42.73 40.09 42.29 43.49 49.12 50.53 49.27 50.69 49.56 54.90 55.12 55.34 56.34 57.33 58.10 58.12 58.14
49.98 48.53 46.70 43.97 41.85 38.82 37.96 40.00 43.44 43.06 44.51 45.33 44.46 41.49 40.93 41.24 42.65 43.94 43.54 42.61 40.88 39.64 40.69 39.78 36.65 35.19 32.43 42.63 41.81 36.70 40.24 40.61 48.50 50.72 50.95 47.49 51.24 54.59 53.50 53.64 54.40 55.92 56.90 57.06 56.67

GFSSW_sfc_wetblb_114.txt.gz
Wetbulb
57.14 56.99 57.06 56.84 56.84 56.72 56.74 56.93 56.58 56.58 56.59 57.01 56.85 56.75 57.67 57.78 58.16 54.82 46.00 50.68 53.53 64.66 68.61 64.34 60.21 56.78 57.31 58.70 65.76 66.07 56.97 55.47 57.17 57.57 58.90 63.72 61.80 65.77 65.90 62.30 63.94 64.84 63.79 65.72 69.07
56.72 56.48 56.33 56.31 56.35 56.50 56.49 56.35 56.56 56.60 56.62 56.57 56.27 56.33 57.33 57.91 52.28 49.84 56.44 60.93 63.76 71.51 62.71 57.81 55.62 53.66 49.00 52.31 58.46 61.62 54.88 57.28 61.27 61.92 60.17 64.29 63.50 62.94 62.35 61.48 61.54 62.50 65.94 68.57 69.65
56.92 56.68 56.66 56.29 56.39 56.57 56.57 56.72 56.45 56.39 56.33 56.06 56.14 55.98 57.31 57.05 46.59 45.11 62.76 63.87 66.79 67.88 57.85 56.94 56.02 52.55 49.96 52.78 54.50 61.10 56.06 61.71 62.07 63.86 63.32 64.10 63.25 64.07 61.88 60.16 60.70 61.32 64.98 67.55 68.02
56.70 56.84 56.51 56.53 56.35 56.35 56.61 56.34 56.15 55.81 55.73 55.79 55.71 56.07 57.72 52.37 37.52 56.39 65.90 66.48 68.18 61.91 53.02 52.80 52.63 50.65 51.11 51.55 56.04 57.72 60.82 62.20 62.85 65.66 63.13 62.82 64.22 62.02 62.94 63.43 64.20 65.27 66.92 67.22 66.63
56.50 56.22 56.35 56.11 56.30 56.25 56.17 56.15 55.81 55.44 55.32 55.63 55.68 56.42 52.26 44.64 44.89 55.06 70.72 66.80 64.10 57.27 51.65 50.33 53.19 53.27 51.07 53.86 57.42 57.00 59.41 63.53 65.20 64.85 63.93 65.10 63.17 62.67 61.50 64.93 66.01 67.03 67.10 66.36 66.21
56.14 56.04 55.80 55.91 55.85 56.02 56.08 55.77 55.07 54.73 55.21 55.55 55.05 57.24 48.18 36.97 49.91 63.17 63.38 62.24 58.83 51.03 49.64 52.48 54.26 56.92 54.90 54.07 53.80 57.08 61.83 64.41 64.48 62.96 64.76 62.58 62.66 62.34 63.18 65.43 65.64 65.85 65.33 65.75 65.99
56.03 56.11 55.84 55.47 55.67 55.65 55.60 55.24 55.07 55.19 55.27 55.41 55.78 55.79 48.91 42.37 55.71 60.96 60.15 56.53 53.72 49.24 47.93 50.33 58.10 57.16 55.64 52.34 56.64 62.20 59.31 63.08 63.43 63.37 62.16 63.25 60.43 59.27 64.93 64.85 64.98 64.77 65.10 65.71 66.25
56.18 55.69 55.47 55.31 54.95 54.94 55.14 55.42 55.48 55.31 55.32 55.43 56.81 51.30 41.05 51.82 54.49 57.45 52.91 51.08 50.85 47.06 49.71 51.17 58.26 56.31 54.38 53.89 56.73 58.13 56.49 54.15 61.40 61.97 62.88 61.15 55.45 61.62 64.91 64.57 63.84 64.68 64.89 65.39 65.83
55.78 55.61 55.12 54.74 54.10 53.76 54.67 55.44 55.77 56.45 56.57 57.29 48.80 45.66 42.74 57.52 53.78 53.95 54.27 51.35 49.17 46.44 47.10 55.94 55.77 51.78 49.34 44.73 43.47 47.23 47.84 51.99 57.01 62.13 61.25 59.19 55.06 61.15 64.96 63.77 63.25 64.10 64.61 64.81 64.41
55.64 55.18 54.93 54.59 53.82 53.10 54.29 54.72 57.96 57.29 56.64 56.39 54.53 45.55 49.93 50.99 53.52 53.06 55.21 50.93 47.81 47.74 48.47 48.90 46.96 43.51 42.16 41.64 37.31 42.10 45.89 48.81 51.69 58.63 60.43 58.24 56.49 60.13 63.11 63.11 63.00 63.68 64.63 63.73 64.03
56.00 55.19 54.68 54.23 53.55 52.89 49.95 51.10 47.59 45.58 49.33 44.37 44.55 49.51 52.54 54.76 54.58 53.73 55.78 51.86 48.97 46.78 44.81 46.46 42.51 40.89 42.85 44.16 44.55 43.45 42.24 44.18 57.80 60.23 58.89 57.16 57.02 59.28 61.65 62.30 61.96 62.93 62.83 63.61 63.99
56.13 55.45 54.88 54.37 53.41 53.16 48.79 44.39 47.99 49.74 43.78 51.05 51.49 51.23 53.78 53.03 49.94 52.15 53.88 47.71 46.68 44.39 46.27 42.96 39.47 44.58 47.03 46.14 44.92 43.38 41.92 50.68 57.59 59.94 58.25 57.64 57.31 59.70 61.25 61.31 62.03 62.93 63.30 63.09 64.05
55.97 55.73 55.42 53.92 52.92 48.39 45.97 48.23 51.30 49.69 41.49 45.95 50.62 50.11 50.18 52.21 49.56 50.05 52.70 48.91 45.95 43.44 43.79 41.71 44.20 47.62 46.81 44.56 43.74 40.52 39.79 50.07 53.47 57.90 59.09 57.74 55.47 57.48 60.72 61.93 62.57 63.72 64.24 64.60 64.32
55.75 55.58 54.90 52.68 46.47 47.87 47.36 50.93 50.35 49.58 36.41 42.08 44.19 50.38 50.86 51.15 48.26 54.24 53.72 50.24 45.52 43.69 44.48 43.10 47.49 47.24 44.42 44.16 44.33 36.63 45.21 49.44 55.40 50.91 46.86 54.88 45.97 54.55 58.48 59.24 60.76 61.69 62.82 63.83 64.62
55.69 55.14 53.76 51.60 45.29 46.86 49.34 48.52 47.44 45.05 29.96 46.04 45.16 51.65 48.48 48.82 49.76 49.32 53.10 50.51 44.37 44.53 43.70 42.46 42.69 43.34 42.92 44.79 45.82 43.18 51.24 48.86 55.51 48.78 47.18 48.90 45.05 48.91 57.28 56.65 58.44 60.82 62.38 64.07 63.45
55.12 54.54 52.91 49.41 47.96 50.44 52.38 48.78 45.78 37.01 32.58 44.10 46.25 44.47 46.28 46.18 46.37 50.31 50.04 50.47 50.15 46.01 44.35 44.58 47.67 46.32 45.65 47.01 47.04 56.65 53.15 50.73 48.90 47.05 40.73 45.76 44.96 46.45 53.75 56.01 58.55 61.00 61.94 63.36 64.49
53.65 52.55 51.14 51.91 46.82 50.70 50.62 48.66 37.57 32.98 44.53 43.19 41.90 42.70 43.79 42.41 44.68 47.37 46.14 43.06 41.41 37.68 37.22 42.98 44.58 46.80 47.73 42.58 47.31 50.98 46.43 40.10 38.76 40.14 39.97 43.35 47.05 47.07 54.38 58.01 59.98 60.23 61.35 62.99 65.33
51.96 50.83 50.22 51.27 50.51 51.59 50.11 45.37 33.26 41.87 41.07 46.28 43.89 41.41 40.93 42.81 42.49 44.28 43.01 40.77 42.61 40.97 37.03 37.13 36.78 44.26 46.33 45.21 43.22 47.50 45.21 39.85 34.49 36.18 39.12 47.92 44.02 48.87 57.69 58.92 60.62 61.79 61.36 63.17 64.89
50.76 45.73 46.47 49.31 52.05 50.40 47.01 36.66 37.18 41.10 45.24 44.86 41.82 39.95 39.48 43.92 43.47 43.59 40.54 40.35 42.12 41.44 37.54 36.33 38.30 47.09 47.39 46.04 48.59 46.34 43.83 45.23 39.63 37.65 40.70 44.36 50.90 55.93 57.87 59.11 60.17 60.40 61.84 62.34 64.17
45.99 45.49 45.69 51.41 52.06 49.28 43.90 38.39 41.32 46.20 47.37 44.52 38.67 40.54 36.12 40.00 41.07 40.84 40.69 44.18 43.08 44.22 41.30 39.73 36.35 41.97 46.98 47.70 47.00 45.78 47.61 40.32 37.83 33.62 32.84 43.33 45.66 46.86 54.59 56.59 59.50 60.33 60.85 62.40 64.16
44.90 43.72 47.73 51.73 49.44 47.12 39.36 38.64 44.55 48.14 49.26 43.47 40.22 39.21 38.15 38.29 39.41 38.62 40.08 44.46 45.64 44.89 42.68 40.45 38.58 41.18 43.45 41.39 40.54 42.63 40.15 39.23 39.64 37.65 35.70 36.95 42.49 55.14 54.80 56.92 57.11 58.76 59.86 61.28 63.57
41.87 42.60 49.15 49.96 43.68 38.03 38.32 42.11 46.16 43.55 47.92 45.26 44.72 42.02 39.92 40.84 38.27 38.04 40.00 43.14 48.04 44.82 39.36 39.92 37.47 35.28 39.32 44.16 44.20 41.40 40.02 38.85 37.41 35.87 39.73 39.84 42.07 56.12 57.72 57.90 58.24 58.95 60.94 61.38 62.52
42.44 41.73 49.94 48.67 40.02 38.04 38.96 43.97 42.37 43.17 41.75 43.56 43.01 43.19 42.06 38.90 36.10 40.25 42.76 47.67 48.28 43.45 39.13 40.18 35.15 33.49 37.87 40.57 42.01 39.38 40.85 36.85 36.82 41.04 40.40 38.49 40.64 56.36 57.33 56.67 58.70 59.15 60.19 61.59 61.51
44.13 41.01 43.36 42.75 39.62 38.91 39.58 39.45 39.51 45.06 43.66 43.14 43.13 43.33 41.11 39.48 38.91 38.53 41.82 45.93 45.91 44.33 53.16 45.74 35.37 36.46 33.61 35.00 37.88 38.21 40.46 40.07 37.64 37.70 40.17 41.27 47.68 53.00 54.34 54.16 56.95 59.61 60.36 60.82 60.98
44.54 42.03 42.03 39.78 40.91 38.52 39.16 39.23 40.72 39.11 42.53 43.29 42.10 42.21 39.97 36.82 38.26 38.82 42.11 41.58 43.89 48.70 42.42 39.90 35.96 37.14 40.05 41.21 41.53 40.65 40.12 41.05 38.18 38.86 40.22 44.02 47.27 52.36 53.37 53.69 57.42 59.50 59.27 58.45 58.52
44.07 43.14 43.49 41.21 41.12 37.63 37.15 36.54 39.94 39.41 40.91 39.81 40.02 41.42 40.86 38.13 38.82 37.48 39.09 38.34 38.93 42.27 38.93 37.61 35.63 36.81 38.13 43.96 42.92 39.75 40.83 42.80 48.75 48.94 47.89 48.50 46.66 53.58 53.98 55.93 57.26 58.47 58.44 57.63 57.70
48.16 47.32 45.07 41.54 37.57 37.92 36.69 38.31 41.34 41.50 43.46 43.92 42.51 40.07 39.19 39.41 40.82 40.76 41.95 40.31 38.53 40.01 39.95 38.65 38.61 36.02 32.42 39.79 42.43 38.68 39.04 40.58 44.04 50.44 50.14 45.78 48.56 53.57 52.53 55.02 56.95 58.04 58.43 57.96 57.17

GFSSW_sfc_wetblb_117.txt.gz
Wetbulb
56.74 56.59 56.80 56.42 56.44 56.46 56.55 56.53 56.51 56.63 56.86 56.67 56.47 56.10 56.44 57.24 57.51 56.30 49.05 55.59 56.55 66.16 69.19 64.99 61.77 61.15 65.31 64.88 68.28 66.20 59.34 56.17 57.18 58.78 59.62 64.17 61.59 64.75 66.93 63.90 65.03 66.18 65.59 67.54 70.03
57.02 57.13 57.20 56.55 56.31 56.31 56.33 56.57 56.48 56.57 56.40 56.27 56.25 55.89 56.73 57.04 54.06 51.06 57.88 60.28 62.91 68.81 62.82 59.09 55.84 57.44 56.60 58.53 63.51 63.80 57.98 58.35 61.86 62.38 61.33 63.20 63.43 63.58 62.72 63.02 63.31 64.83 67.71 69.14 70.07
57.09 57.11 56.90 56.65 56.58 56.38 56.42 56.62 56.54 56.24 55.99 56.26 55.80 55.72 57.06 56.99 50.31 47.82 62.02 63.21 65.74 69.76 63.13 59.65 58.54 56.16 55.60 58.21 60.31 63.50 57.86 62.20 62.70 64.50 64.15 63.12 63.10 64.06 62.31 60.81 63.35 63.68 65.95 68.23 68.33
56.76 56.73 56.39 56.45 56.60 56.40 56.38 56.35 56.21 55.91 55.48 55.66 55.53 55.44 57.16 55.42 43.09 61.38 65.17 66.31 69.53 60.45 60.01 58.49 56.13 55.26 56.20 57.55 59.89 59.40 62.20 63.36 64.11 65.29 64.09 62.84 62.86 61.89 63.47 63.81 65.61 66.83 67.58 67.55 66.67
56.65 56.24 56.02 55.89 55.80 56.08 56.08 56.11 55.88 55.12 55.13 55.51 55.71 55.61 55.54 49.15 46.80 54.48 65.68 67.10 67.26 58.27 57.14 56.10 54.20 56.62 56.99 57.64 59.13 58.83 60.43 63.64 65.33 65.69 64.46 64.94 62.10 61.51 61.72 65.40 67.16 67.66 67.52 67.15 67.67
56.32 56.20 55.92 55.75 55.87 55.83 55.60 55.49 55.28 54.77 55.06 55.42 55.47 56.56 52.80 42.69 54.80 64.92 65.40 64.71 62.72 56.15 54.15 57.31 56.19 60.30 59.00 58.08 59.52 60.49 63.38 64.86 64.86 65.25 64.86 62.24 61.61 62.44 62.84 66.24 66.51 66.75 67.02 68.05 68.62
56.02 56.22 55.63 55.15 55.14 55.18 55.03 54.84 54.66 55.05 55.12 55.36 55.64 56.58 51.56 46.65 57.35 65.02 62.27 59.86 59.96 55.35 53.05 56.55 59.96 60.37 60.11 56.15 62.06 64.66 62.16 63.98 63.80 64.73 62.99 62.78 59.34 59.81 64.11 66.43 65.75 66.40 67.31 68.05 68.85
55.59 55.83 55.51 54.81 54.25 54.06 54.10 54.48 54.83 54.91 54.99 55.31 56.47 55.67 46.80 51.95 58.88 60.77 58.06 56.10 54.05 53.83 54.70 55.04 60.79 60.98 59.77 58.58 60.90 61.72 61.83 58.57 62.84 63.95 63.71 62.47 54.49 60.58 64.90 64.54 63.81 65.92 66.91 67.52 68.61
55.40 55.65 55.26 54.83 53.94 53.41 53.16 54.27 54.97 55.73 56.07 57.18 54.57 52.55 46.02 60.00 55.44 58.87 57.33 54.23 55.70 53.67 53.49 55.02 57.39 57.49 54.90 53.95 56.86 56.68 55.27 56.80 59.99 63.55 61.93 60.83 58.64 62.38 64.96 63.98 63.34 64.23 66.13 67.15 68.15
55.45 55.54 55.09 54.41 53.81 53.04 53.37 55.15 58.97 58.23 57.14 57.10 55.67 50.68 54.26 52.73 56.42 56.55 57.78 54.88 52.43 51.87 51.64 53.29 54.96 54.62 51.92 50.38 49.60 53.90 51.97 55.09 56.50 61.48 62.02 59.58 59.40 62.91 64.53 63.34 63.55 64.05 65.59 66.98 67.54
56.34 55.82 55.01 54.48 54.15 53.08 52.76 55.92 52.68 51.84 53.09 50.30 49.62 51.55 54.23 57.72 57.14 55.22 55.41 53.17 52.33 50.65 49.59 52.54 52.76 51.70 52.61 51.17 50.93 51.32 49.35 52.10 58.89 62.26 61.08 59.50 59.84 61.80 63.98 63.40 63.12 63.55 64.06 66.56 66.99
56.18 56.03 54.87 54.68 53.86 52.91 50.76 50.80 53.43 54.09 49.62 52.92 53.03 52.30 54.48 56.09 52.81 54.21 57.16 50.86 48.44 46.30 50.86 51.16 51.18 53.00 51.64 50.81 50.18 49.39 48.48 56.22 59.35 61.46 60.82 59.76 58.89 61.80 63.53 63.31 63.98 63.13 63.15 64.67 66.97
56.05 55.89 54.86 53.61 52.63 50.75 50.37 52.14 55.46 55.24 49.41 49.67 53.16 53.05 53.66 55.73 53.18 53.14 55.31 52.28 48.65 49.76 50.58 51.19 51.94 50.53 50.33 48.98 48.90 48.63 48.46 55.51 56.35 60.00 60.89 59.72 57.74 59.33 62.56 63.48 63.74 63.77 64.41 65.05 66.16
55.79 55.57 54.17 52.77 49.34 52.18 51.82 54.64 54.53 54.68 45.52 46.56 49.39 53.38 54.34 54.72 52.13 56.63 56.96 54.25 51.08 50.01 50.49 52.46 50.93 49.58 49.30 48.63 49.59 47.92 49.88 54.51 58.00 56.03 52.00 58.28 50.14 56.53 59.69 60.96 62.01 62.58 63.34 63.74 66.08
55.57 54.43 53.21 52.37 50.87 51.05 52.88 54.44 53.03 50.53 36.23 49.63 49.86 56.13 54.17 52.66 53.83 53.52 57.71 54.34 50.50 49.75 50.58 48.61 48.66 49.04 48.33 49.31 50.61 49.01 51.52 52.64 55.87 55.37 54.06 54.84 52.60 54.63 58.78 58.64 60.32 62.60 63.75 64.41 65.37
55.06 53.68 52.78 50.99 51.02 54.42 55.62 53.58 50.74 43.55 36.66 46.66 49.02 49.69 50.57 51.30 51.80 53.29 54.30 55.02 52.97 50.68 50.52 49.66 51.55 50.73 50.59 50.90 51.41 58.00 54.74 55.73 56.13 54.52 46.78 52.19 52.47 52.51 55.94 59.34 61.47 63.61 64.61 65.08 65.10
53.61 51.82 51.46 53.28 52.26 54.60 54.66 52.44 44.39 39.82 47.74 45.78 46.84 48.51 49.53 47.57 49.30 51.79 50.74 49.41 47.72 45.10 45.93 48.95 49.45 51.67 51.35 49.47 52.78 57.06 53.67 47.65 46.57 46.48 46.07 52.38 51.38 54.36 58.57 60.55 63.14 63.36 64.17 65.62 65.18
51.48 50.76 51.81 53.27 55.03 54.27 54.61 51.28 39.58 44.75 45.02 49.53 46.59 47.43 46.55 47.43 46.94 48.34 48.71 47.08 48.41 48.14 45.75 43.50 41.44 48.94 51.49 50.97 48.72 53.41 52.30 46.53 40.96 43.51 46.80 53.05 49.68 54.32 59.61 61.45 63.41 65.28 65.63 64.88 65.73
50.63 51.32 52.12 53.47 54.10 54.10 53.37 43.89 43.21 45.51 48.33 47.33 46.81 44.97 45.28 47.43 47.65 47.59 46.64 47.77 49.05 49.75 45.75 44.62 44.79 50.75 51.21 50.92 52.89 51.39 48.86 53.03 48.86 49.14 48.42 51.53 53.81 58.59 59.65 60.66 62.19 63.90 64.37 63.73 66.00
51.57 52.02 52.01 54.92 55.28 54.85 50.35 42.03 46.52 48.49 50.26 48.07 43.80 45.30 43.47 45.39 45.98 46.61 46.28 48.69 47.21 48.63 49.10 48.42 44.26 49.33 51.08 52.29 51.58 53.41 54.44 46.91 49.20 43.43 42.16 48.36 50.52 53.39 55.86 58.64 61.50 62.49 63.31 64.23 66.03
51.57 51.53 53.36 55.92 54.46 54.03 46.24 45.14 47.62 49.99 50.97 47.59 45.56 45.04 45.23 45.19 46.10 45.52 45.55 48.35 48.97 48.31 49.72 48.87 47.99 47.95 49.89 49.41 48.68 49.67 49.66 49.53 50.39 48.61 44.82 44.74 49.95 58.33 58.54 59.57 60.67 62.54 63.68 64.45 65.44
50.19 49.34 54.02 54.58 50.48 46.49 46.78 46.12 45.89 47.64 49.89 49.53 48.99 47.43 46.00 46.03 45.71 45.76 45.82 47.78 51.37 49.98 47.11 48.32 48.94 46.48 47.21 49.99 49.41 49.35 48.65 50.05 47.22 45.39 49.33 49.55 49.49 58.54 59.84 60.84 61.53 61.72 63.48 65.40 66.14
50.50 50.76 55.64 54.19 47.59 48.28 47.00 46.97 46.23 46.30 45.68 47.98 47.31 48.56 48.33 46.22 44.80 46.59 47.16 50.81 51.11 48.47 47.27 48.73 46.37 43.13 45.07 47.74 48.83 47.07 47.33 47.45 48.25 52.22 49.33 46.07 49.21 58.31 60.74 59.99 60.08 60.21 62.53 64.32 65.51
51.52 48.42 50.70 50.08 47.20 46.69 46.58 45.00 44.74 47.28 46.77 47.75 47.41 48.65 47.87 47.06 47.93 46.30 47.00 48.92 49.45 51.10 51.78 53.03 46.15 45.71 41.63 45.03 46.48 44.58 45.68 46.82 47.55 47.73 49.35 49.65 52.03 54.99 57.21 58.71 58.71 60.45 61.93 62.30 63.48
51.03 48.49 48.35 47.17 47.92 45.84 46.41 44.90 44.39 43.97 47.74 48.16 46.96 46.14 46.62 45.32 46.27 46.10 47.46 47.61 48.11 50.06 48.58 49.47 45.51 45.67 45.63 46.22 46.06 45.33 45.51 49.73 47.01 47.92 48.94 51.78 52.93 56.14 57.48 58.12 58.88 60.92 61.55 60.92 60.78
51.73 50.82 50.15 48.39 46.70 45.42 43.71 45.04 44.54 44.68 47.08 46.22 45.48 45.28 47.71 45.44 45.64 45.07 46.81 47.37 46.56 49.31 48.02 47.14 45.20 46.33 44.83 46.61 47.01 44.30 46.49 49.25 50.50 50.71 51.56 51.83 53.31 57.99 60.54 60.27 59.07 59.56 59.44 60.32 60.29
53.95 53.15 51.30 43.95 44.94 46.13 45.09 45.41 45.85 47.39 47.87 48.20 47.09 46.79 45.83 45.57 47.07 48.02 49.76 48.10 46.70 47.70 47.24 47.43 46.96 45.23 41.94 45.20 45.99 42.90 45.71 47.57 51.24 53.41 53.35 51.06 54.05 58.14 58.06 57.83 58.38 58.78 59.76 59.71 59.78

GFSSW_sfc_wetblb_120.txt.gz
Wetbulb
57.58 57.67 57.47 57.03 56.68 56.72 56.97 56.95 56.74 56.74 57.07 57.05 56.76 56.77 56.35 57.71 57.77 58.63 52.25 57.56 59.80 66.96 68.47 65.87 64.38 68.77 71.68 68.19 69.22 68.44 62.84 57.83 60.11 61.08 62.44 66.28 62.62 66.67 68.51 66.54 66.70 67.61 67.01 69.67 71.82
57.66 57.85 57.77 57.56 56.86 56.76 56.59 56.76 56.70 56.85 56.67 56.32 56.53 56.14 56.10 57.29 57.27 53.41 61.77 62.26 63.35 69.46 64.85 61.44 59.84 66.29 66.22 66.36 66.88 66.78 63.29 58.36 63.15 64.28 63.61 65.22 64.80 65.74 65.28 65.42 65.45 65.96 69.20 70.70 71.07
57.29 57.37 57.24 57.24 56.82 56.94 56.76 56.55 56.57 56.81 56.25 56.42 56.31 56.22 55.97 58.27 54.68 50.85 65.81 63.44 64.98 69.71 65.13 61.85 59.96 62.97 62.62 64.82 65.82 65.33 61.39 61.58 61.57 65.03 66.72 63.08 63.15 66.54 65.00 63.35 65.78 65.30 67.40 68.94 69.61
57.12 56.85 56.68 56.56 56.50 56.79 56.86 56.54 56.41 56.30 55.82 55.80 56.07 56.52 56.41 58.56 46.86 61.89 65.86 65.34 67.73 66.46 63.59 60.43 58.17 57.12 61.39 62.19 64.73 62.49 64.38 64.83 64.94 66.67 66.00 64.73 65.40 64.89 65.70 65.47 67.90 68.00 68.76 68.92 68.38
56.98 57.00 56.77 55.93 56.16 56.38 56.29 56.40 56.05 55.63 55.43 55.54 56.01 56.39 57.97 53.56 51.49 64.85 66.12 68.75 63.90 62.77 60.32 58.94 56.49 56.59 59.68 63.25 63.83 62.60 64.76 65.54 66.97 65.43 65.20 65.63 62.08 62.91 63.86 66.60 68.37 68.52 68.55 68.26 67.82
56.35 56.62 56.61 55.78 55.63 55.89 55.90 55.61 55.24 55.02 55.09 55.85 56.15 56.27 56.39 47.82 58.61 66.28 61.72 66.85 62.88 60.76 59.44 59.78 56.89 60.27 62.99 62.76 62.81 63.38 63.64 64.87 66.43 65.46 66.29 62.32 63.11 62.20 63.03 67.00 67.07 67.72 67.75 68.36 68.58
56.12 56.18 56.39 55.62 55.14 55.01 55.00 55.02 55.06 55.22 55.56 55.73 56.34 58.47 54.77 49.90 59.46 67.17 61.89 63.83 62.18 60.60 58.76 59.92 60.00 63.20 63.99 61.66 61.73 62.14 62.40 64.71 65.38 65.17 63.75 63.83 58.70 59.18 63.98 66.76 66.43 67.22 68.10 68.80 69.61
55.63 55.99 55.77 55.15 54.64 54.09 54.02 54.12 55.12 55.23 55.33 55.71 56.61 58.61 50.84 55.19 65.55 63.18 61.53 61.84 61.50 58.70 59.10 60.35 62.44 64.07 63.36 63.63 64.35 62.08 62.93 59.75 64.06 64.31 62.12 61.35 56.17 61.77 66.53 66.08 65.81 66.97 67.94 68.66 69.83
56.15 55.80 55.54 54.85 54.33 53.76 53.17 53.87 55.39 55.84 56.19 57.38 58.21 55.98 48.51 59.12 59.81 59.10 58.95 56.06 57.58 56.41 57.24 57.36 61.25 62.39 61.18 59.54 59.69 61.18 57.29 58.94 61.09 65.52 62.74 61.48 56.97 61.77 66.50 65.52 65.89 67.27 68.05 68.56 69.60
55.93 56.08 55.30 54.79 54.21 53.47 53.47 55.70 57.82 57.31 58.38 59.16 58.47 54.59 54.81 54.24 59.35 57.88 57.85 55.74 54.47 54.86 53.59 55.03 58.15 58.65 59.10 57.56 54.65 56.45 57.48 59.97 60.01 64.05 63.73 61.54 60.68 62.91 64.37 64.13 64.72 66.13 67.10 68.59 69.24
56.33 55.89 55.39 54.92 54.37 53.55 55.18 60.25 58.10 56.76 56.17 55.10 52.03 53.67 56.21 59.51 60.52 57.74 58.20 55.96 54.81 53.60 50.14 54.49 53.99 53.97 57.34 57.59 56.80 59.34 57.45 57.76 61.70 64.71 62.68 60.37 61.31 62.60 63.44 62.99 62.51 63.93 65.92 68.18 68.65
56.20 56.04 55.49 54.71 53.78 52.67 55.73 56.26 56.87 57.12 52.66 57.09 56.35 55.39 57.26 59.41 54.86 56.87 58.06 53.16 51.45 48.88 52.75 53.04 52.25 57.31 59.30 55.60 54.89 56.86 55.35 58.05 61.15 64.20 63.46 61.19 60.45 64.31 65.08 63.04 61.80 63.53 65.46 67.72 68.52
55.98 55.79 54.86 54.03 52.34 53.88 56.97 57.10 59.72 59.17 53.43 53.08 55.57 55.92 56.66 57.46 54.60 54.64 56.08 53.55 50.67 49.67 52.00 49.55 53.26 58.05 54.86 53.99 53.84 54.27 54.13 58.18 58.05 61.99 63.08 61.71 58.89 61.50 64.28 66.07 64.64 64.24 64.81 65.87 67.68
56.08 54.81 53.99 53.17 51.67 59.61 56.84 59.32 60.05 58.31 49.24 49.19 52.62 55.23 56.81 56.93 52.90 58.54 57.03 52.57 50.03 49.36 52.13 52.40 55.44 54.98 55.06 54.16 55.40 53.63 54.10 58.25 59.85 58.27 53.53 62.17 52.65 59.00 62.37 62.94 63.88 65.17 63.71 64.20 67.48
55.83 54.50 53.15 51.80 58.03 56.59 57.33 60.32 59.50 56.09 39.48 51.02 52.51 58.86 58.42 55.53 55.85 55.58 58.28 56.02 50.68 51.98 53.75 52.20 53.22 52.93 52.44 53.34 54.67 53.69 54.00 54.59 56.35 55.08 55.25 57.14 54.55 58.97 62.93 60.35 62.64 65.23 63.92 65.10 65.57
54.70 53.72 52.70 54.87 57.55 58.98 60.56 59.07 57.17 46.23 38.96 48.10 51.74 52.41 53.21 54.56 54.63 55.93 56.42 57.87 55.97 53.54 54.57 53.26 56.39 54.31 54.06 55.03 54.58 55.66 53.79 55.24 56.22 54.24 49.24 53.79 54.59 56.68 59.32 60.81 62.83 64.60 66.58 66.74 65.58
53.04 52.09 52.77 58.03 57.17 60.67 59.96 57.47 48.46 44.04 50.20 47.42 48.75 52.13 52.32 51.97 52.44 53.18 52.84 51.40 49.98 47.95 48.86 51.20 51.79 54.49 54.05 51.61 53.56 55.22 53.60 48.96 47.70 48.31 47.70 55.48 53.76 56.18 61.91 63.37 64.32 65.87 66.39 67.67 66.92
51.64 50.50 55.09 58.36 61.15 58.92 57.66 53.99 43.35 46.53 47.63 51.44 49.82 51.81 49.55 51.08 51.68 52.32 51.49 48.88 51.47 50.59 49.19 47.37 45.63 51.36 53.92 52.29 50.90 53.55 54.28 49.52 44.50 46.44 49.15 56.26 50.89 57.17 63.01 64.83 66.50 68.02 68.04 68.47 68.23
50.88 58.74 58.78 59.61 59.18 59.43 56.35 48.68 46.76 48.30 50.59 48.80 49.30 48.79 49.20 50.25 50.38 50.69 50.89 50.17 50.64 52.17 48.26 46.91 46.51 52.26 53.09 53.88 53.88 51.75 50.26 55.22 50.86 52.71 50.32 54.12 56.05 61.42 63.21 63.41 64.78 65.87 67.63 66.83 68.21
59.26 58.05 57.05 59.80 59.71 58.41 54.07 45.82 49.45 52.02 52.21 51.07 46.60 49.06 47.29 48.59 48.64 49.82 49.49 51.91 50.91 52.29 54.44 51.19 47.11 51.60 52.20 54.47 53.98 53.43 55.44 48.88 50.37 46.17 45.05 50.96 52.44 55.77 60.52 61.76 64.11 65.23 66.72 67.73 68.03
58.29 54.18 58.60 60.44 60.14 57.31 50.22 49.13 50.37 53.37 53.01 50.37 48.67 48.01 48.65 48.28 49.43 48.87 48.86 51.44 51.56 51.74 53.59 53.05 51.17 50.25 53.34 51.53 50.19 50.85 50.81 51.81 51.65 50.46 47.30 46.66 50.98 61.98 61.73 63.27 64.26 65.61 67.32 68.09 68.53
57.69 51.59 60.07 61.08 53.73 55.02 49.95 50.09 47.14 51.17 53.06 51.93 51.98 50.77 49.72 49.66 48.99 48.82 48.39 51.09 53.33 53.36 50.57 53.78 51.66 48.41 49.65 53.34 54.16 54.22 51.76 52.41 48.05 48.34 51.11 50.76 51.64 62.86 63.79 63.86 65.70 66.18 67.53 68.62 69.00
57.47 54.93 60.07 59.02 50.63 49.64 51.18 49.28 50.79 49.93 50.67 50.45 49.58 51.62 51.92 49.57 48.13 50.22 50.93 52.89 52.34 51.92 52.11 53.80 49.85 46.31 47.42 50.60 52.48 51.58 52.30 53.06 53.01 52.68 50.23 47.43 49.69 62.86 63.72 63.81 65.65 66.00 66.61 67.84 67.50
57.29 51.01 55.71 57.34 56.57 52.27 49.59 48.25 47.55 50.81 50.76 51.63 50.89 52.22 50.97 49.56 51.73 49.86 50.16 51.25 52.20 53.00 52.06 52.85 51.07 48.90 45.17 48.15 51.84 49.39 49.89 51.56 51.44 48.51 49.32 50.62 53.06 59.43 62.15 62.65 64.02 64.71 64.26 65.80 66.72
58.55 53.57 54.30 50.97 52.60 53.19 52.29 49.22 46.89 45.85 50.81 51.87 50.38 50.35 49.42 47.83 48.84 48.75 50.41 50.96 51.40 52.83 52.70 52.60 48.86 50.14 49.66 49.30 49.26 49.26 49.46 50.81 50.96 51.17 49.39 50.92 52.79 56.25 62.30 63.50 63.75 63.31 63.16 63.55 64.77
57.33 56.97 56.81 54.77 51.63 51.95 48.06 49.12 47.50 47.77 48.85 47.83 48.51 49.67 50.30 48.77 49.60 48.48 50.38 51.27 49.82 51.81 51.41 51.39 48.87 50.02 48.02 49.34 49.39 47.57 49.46 51.17 51.72 52.29 53.01 53.74 54.50 61.30 64.47 65.27 62.23 62.96 63.17 64.07 64.50
60.92 60.80 57.09 47.92 51.28 50.78 50.53 49.59 49.12 50.81 50.87 51.27 50.03 49.57 47.98 48.88 50.90 51.81 53.00 52.22 52.14 51.59 49.38 49.97 49.93 47.90 45.07 48.87 48.61 46.01 48.88 50.19 52.30 55.27 54.85 52.65 58.03 62.00 62.36 60.86 61.72 62.04 63.24 63.24 63.81

GFSSW_sfc_wetblb_123.txt.gz
Wetbulb
58.47 58.54 58.44 57.76 57.49 57.17 57.13 57.28 57.26 57.36 57.40 57.61 57.57 57.32 57.42 57.33 57.94 59.53 54.03 61.26 63.07 68.50 69.28 68.03 66.58 68.36 73.10 69.74 70.19 69.54 62.90 60.28 60.47 61.39 63.14 67.47 65.72 68.58 70.02 67.40 67.76 68.29 68.04 69.97 71.38
57.81 58.15 57.85 57.23 57.34 57.42 57.27 57.13 57.36 57.36 57.23 57.06 57.27 57.19 57.26 57.02 58.66 56.06 65.74 66.67 65.69 70.18 66.58 64.24 61.42 68.99 69.82 68.45 68.75 66.13 62.19 61.81 65.81 65.89 65.12 66.14 65.71 66.98 66.73 66.41 66.07 66.71 69.70 70.70 71.35
57.84 57.68 57.47 57.37 56.89 57.21 57.44 57.17 57.07 57.26 56.98 56.95 57.10 56.88 57.37 58.18 57.85 54.87 68.38 68.19 66.38 68.95 65.44 64.54 63.01 68.67 66.54 67.70 66.63 66.80 62.45 63.57 63.07 66.94 67.28 64.79 65.35 67.32 65.70 64.23 65.81 66.22 67.72 69.63 69.70
57.62 57.78 57.35 56.56 56.68 57.03 56.91 57.00 57.14 57.00 56.53 56.61 56.72 57.01 57.41 59.47 51.07 64.36 67.62 68.50 67.06 65.13 64.93 62.34 59.90 62.58 63.06 62.78 67.18 62.48 64.97 64.65 64.43 66.59 65.30 64.34 65.36 65.50 66.35 66.06 68.53 69.03 69.03 69.25 68.63
56.97 56.97 57.49 56.86 56.32 56.49 56.68 56.57 56.55 56.47 56.01 56.19 56.78 57.17 58.42 55.79 55.02 65.68 67.60 66.39 61.93 64.09 63.25 61.49 58.57 58.90 61.18 64.71 66.61 63.88 65.52 65.51 66.23 67.09 67.02 66.67 65.36 64.25 65.06 67.28 68.98 68.80 68.67 68.36 68.04
56.54 56.78 57.01 56.39 56.00 56.28 56.25 56.06 55.73 55.58 55.85 56.30 56.98 56.67 58.05 51.75 58.94 65.39 61.52 58.84 58.87 62.57 61.63 61.34 59.23 59.76 62.19 64.68 63.65 66.17 65.98 65.58 66.85 66.59 64.65 62.41 61.80 62.37 65.09 67.95 67.55 67.50 67.59 67.79 67.62
56.19 56.44 56.50 56.06 55.57 55.47 55.27 55.19 55.32 55.61 56.32 56.62 56.92 58.72 57.22 54.00 59.79 66.99 63.29 60.37 60.50 62.19 59.80 61.09 61.27 58.95 66.04 64.04 65.77 65.55 63.18 65.86 64.77 66.15 64.29 65.28 60.30 58.88 63.79 66.71 65.90 66.62 67.58 67.73 68.00
56.50 56.34 56.48 55.96 55.16 54.94 54.46 54.48 54.98 55.93 56.30 56.43 57.23 59.68 56.03 56.98 66.47 66.28 63.48 62.60 62.47 62.95 61.79 61.92 61.52 61.74 65.18 65.98 64.00 62.06 63.03 59.74 64.74 65.71 64.89 63.89 57.33 60.59 63.97 66.05 65.34 66.40 66.96 67.49 68.82
56.65 56.45 56.03 55.88 55.00 54.53 53.98 54.20 55.69 56.58 57.18 57.55 59.02 59.32 53.03 59.50 62.23 63.54 62.87 60.05 59.84 60.08 60.62 60.23 59.83 62.06 64.61 60.64 60.73 60.92 56.63 57.79 61.59 65.63 64.23 62.29 58.35 62.31 63.58 65.46 64.83 65.59 66.43 66.92 68.62
56.79 56.69 56.10 55.85 55.45 54.59 54.28 55.54 57.64 57.15 58.40 60.52 59.99 55.44 57.18 53.69 60.86 60.49 61.46 60.63 56.89 56.60 55.73 55.30 56.46 59.55 61.27 59.28 53.09 56.04 56.93 59.18 60.62 63.65 63.57 61.68 58.74 62.09 65.59 64.47 64.41 64.91 66.00 66.41 67.68
56.62 56.61 56.29 55.55 55.26 54.65 55.19 61.74 59.76 58.87 59.44 57.00 53.73 56.33 53.52 60.00 61.23 57.93 58.12 55.75 55.33 54.51 51.41 53.67 52.61 55.21 58.60 60.43 58.32 59.02 57.99 55.17 59.80 65.87 63.62 61.08 60.31 62.36 63.75 64.73 64.98 64.14 66.21 65.96 66.91
56.60 56.35 55.75 55.58 54.35 53.89 56.52 58.53 57.86 58.87 54.43 57.10 56.21 57.18 58.91 60.29 55.57 57.46 58.51 53.55 52.28 49.73 53.15 51.81 50.58 56.28 60.07 59.92 57.87 57.46 57.11 57.15 62.21 65.00 62.99 61.27 59.40 62.49 64.01 63.38 63.64 63.37 63.71 65.63 67.45
56.45 55.63 54.71 54.40 53.52 54.41 59.92 59.62 62.13 61.04 54.85 54.10 55.43 56.36 56.80 58.91 55.58 55.53 57.20 55.49 52.05 49.98 51.52 50.67 52.98 56.72 58.60 58.12 55.42 57.07 56.64 57.99 58.94 63.39 63.73 60.88 58.74 59.53 62.51 64.29 63.03 63.85 65.76 65.93 67.99
56.20 55.34 54.68 53.70 51.63 61.96 58.71 61.90 61.85 61.14 51.06 49.74 52.90 56.47 57.96 57.12 54.44 58.62 57.94 54.96 52.61 49.66 51.91 52.48 55.05 56.67 56.97 55.89 56.77 53.73 57.75 57.93 55.76 59.82 55.11 62.93 52.61 58.91 60.76 61.96 63.17 63.67 64.45 64.85 65.06
55.30 54.61 53.85 52.17 58.61 58.18 59.86 62.08 61.67 60.16 41.64 52.13 53.72 60.21 58.81 54.73 55.38 55.50 58.51 54.99 50.21 50.71 52.64 51.29 53.23 54.03 54.71 55.35 57.92 54.16 58.37 57.23 58.67 57.83 57.33 57.68 53.35 54.90 62.30 60.44 62.33 64.13 65.07 66.79 64.37
55.01 53.87 53.03 57.02 59.53 60.82 62.08 61.80 60.32 49.25 40.68 49.31 53.88 53.91 54.19 55.90 55.47 55.66 54.60 58.10 56.35 52.95 54.02 54.50 57.54 56.36 55.87 57.06 56.84 58.23 56.15 56.05 56.97 56.44 50.66 56.04 55.52 53.87 59.67 62.58 63.97 64.21 65.39 66.09 65.51
53.69 52.64 53.38 60.18 59.12 62.25 61.84 58.82 50.02 44.01 51.73 48.41 50.44 53.43 53.05 52.66 53.81 52.44 52.52 52.61 50.74 49.02 49.77 53.21 53.48 55.89 56.15 54.21 56.22 56.00 54.31 49.56 47.78 49.26 49.06 55.53 54.76 57.36 61.04 64.96 66.39 65.67 66.40 66.72 66.46
52.05 51.17 56.45 59.96 62.37 61.43 59.47 54.47 45.29 47.92 49.01 52.39 51.81 52.47 50.38 52.74 52.61 52.57 52.45 50.52 53.33 52.58 50.00 49.01 47.09 53.06 55.07 53.87 52.41 53.33 54.26 50.75 45.98 47.52 50.36 56.75 52.34 57.84 64.63 66.26 67.46 68.64 68.41 68.13 67.00
51.25 61.05 60.83 60.96 60.95 60.95 56.66 48.39 47.06 49.75 51.05 49.89 50.74 49.57 49.39 51.39 51.86 52.41 51.93 51.12 51.91 53.28 49.39 48.95 49.00 54.22 54.40 54.89 54.60 52.51 51.28 56.33 51.28 52.46 50.36 52.17 56.95 62.63 64.33 65.06 66.20 66.40 68.30 68.04 67.58
60.65 58.20 57.96 60.60 61.48 58.30 54.99 46.47 50.89 53.28 52.80 51.96 47.34 50.68 47.72 49.61 49.94 50.99 51.26 53.36 51.80 53.39 55.63 51.87 48.22 52.25 53.35 54.33 54.33 53.32 55.79 50.25 51.90 46.68 45.95 50.54 53.39 49.04 60.49 62.24 64.89 65.83 67.80 67.98 68.68
60.24 55.53 59.99 62.04 61.30 57.73 50.04 50.73 51.80 54.41 54.37 51.80 50.56 50.07 49.78 49.75 49.99 50.13 50.54 52.58 53.53 53.06 54.78 54.08 51.66 50.73 52.64 50.96 50.83 51.16 51.06 52.95 52.50 51.70 47.55 46.97 52.36 60.08 62.70 63.89 64.58 66.22 67.74 68.20 68.41
60.08 53.56 61.70 63.13 55.62 55.83 51.55 51.77 48.70 52.60 54.29 52.34 53.01 51.81 50.51 50.38 50.37 50.35 49.79 51.97 54.61 54.95 50.79 54.39 52.46 49.40 50.57 54.37 54.51 54.54 51.68 52.90 48.94 48.59 50.71 49.73 50.18 61.54 63.76 64.78 66.16 66.74 68.55 69.13 68.95
59.04 56.62 61.77 60.59 51.64 51.28 52.78 51.22 52.00 51.26 52.04 51.71 50.81 52.58 53.01 50.73 49.14 50.15 51.73 54.36 54.33 54.26 53.95 54.36 51.30 47.51 48.09 52.29 54.35 52.60 53.80 53.15 52.31 52.38 50.12 48.62 51.32 64.52 64.30 64.90 66.82 67.07 68.53 69.11 69.85
58.82 52.71 56.71 58.46 57.64 53.14 51.17 50.00 48.58 50.70 51.48 52.36 51.63 53.01 51.58 50.15 52.24 50.03 50.96 52.47 53.66 54.22 55.80 56.36 51.73 50.50 43.24 48.74 52.46 50.35 51.11 52.68 52.50 49.40 50.36 50.57 55.06 60.84 62.76 64.23 66.50 67.49 68.88 68.09 68.91
59.66 54.87 56.65 51.59 53.40 54.10 53.12 50.03 47.53 48.23 51.75 52.73 50.89 51.08 51.05 49.38 49.51 49.73 51.64 52.54 53.72 53.00 54.53 53.62 49.78 51.38 51.17 51.46 51.70 51.44 51.27 51.49 50.55 51.49 49.56 51.33 52.56 56.66 62.02 64.80 66.43 67.83 68.44 68.10 67.48
58.74 57.80 56.97 56.32 54.24 53.70 49.75 50.10 47.90 48.94 50.20 49.28 49.56 49.84 51.32 50.47 51.45 49.54 51.10 51.62 50.80 53.55 52.80 53.65 48.74 50.64 49.13 50.90 50.41 48.93 50.94 51.41 51.92 52.36 52.08 52.65 52.54 61.01 62.19 67.15 66.08 64.53 65.08 65.63 67.09
63.32 62.39 59.42 51.14 53.96 52.74 51.55 50.16 49.89 51.71 51.17 51.42 50.56 50.47 49.19 50.70 52.69 54.05 54.44 55.05 54.11 52.93 51.83 51.03 49.77 48.67 45.65 49.59 49.26 46.82 49.82 50.74 52.08 54.29 54.03 51.18 58.11 62.86 61.74 64.73 64.86 63.38 64.12 64.88 65.95

GFSSW_sfc_wetblb_126.txt.gz
Wetbulb
58.04 58.45 58.08 57.78 57.68 57.80 57.59 57.51 57.59 57.82 58.21 58.06 58.04 58.24 58.07 58.15 57.93 57.97 53.15 60.92 63.59 71.66 69.94 64.57 67.15 70.04 71.91 69.71 71.07 70.23 60.48 58.21 59.74 59.79 62.03 66.76 64.93 67.05 68.55 66.58 67.10 67.67 67.07 68.28 69.78
58.10 58.01 57.95 58.01 57.17 57.66 58.14 57.66 57.55 57.70 57.70 57.89 57.95 57.86 58.03 58.06 56.69 54.49 65.52 69.32 68.75 70.90 65.11 64.46 63.12 66.37 67.29 68.52 68.43 65.46 58.74 58.96 60.88 64.63 64.03 66.36 65.84 66.72 65.16 64.86 65.22 66.27 68.02 69.00 69.53
57.63 58.17 57.68 57.15 57.10 57.13 57.30 57.53 57.68 57.87 57.72 57.59 57.44 57.50 57.79 58.30 56.97 56.92 70.74 69.68 68.68 67.47 64.46 66.00 63.67 65.41 65.19 68.16 67.07 65.25 58.36 61.38 61.62 65.17 66.89 65.71 65.06 67.98 65.06 62.46 65.01 65.12 66.26 68.34 68.11
57.43 57.39 57.69 57.48 57.13 56.92 56.96 57.30 57.68 57.75 57.40 57.16 57.12 57.49 57.97 57.60 52.81 63.05 68.74 69.89 69.64 58.12 63.12 63.57 61.72 61.70 64.30 62.39 65.96 62.84 66.57 63.73 65.81 66.89 66.21 64.58 65.45 65.47 65.31 65.45 68.23 68.07 68.22 68.09 67.42
56.99 57.06 56.94 56.88 56.55 56.63 56.86 56.87 56.99 57.14 57.02 56.80 57.12 57.84 57.82 56.13 54.74 65.96 69.92 67.88 57.92 56.60 60.92 61.81 59.40 58.89 59.80 63.86 65.29 63.57 64.55 65.43 66.96 66.64 65.68 67.23 64.74 65.03 65.10 67.61 68.79 68.32 68.18 67.17 67.32
57.00 56.65 56.86 56.67 56.30 56.36 56.47 56.51 56.37 56.48 56.57 56.91 57.57 57.74 55.75 53.27 60.28 64.46 62.58 59.95 55.79 57.36 61.15 62.83 60.54 60.37 58.56 63.53 62.58 66.15 65.60 65.90 66.85 65.56 66.43 63.52 61.78 63.93 64.90 67.62 67.02 66.98 66.63 66.97 67.18
57.01 56.68 56.87 56.71 56.27 55.95 55.78 55.56 55.93 56.21 56.54 57.52 57.95 57.94 56.22 55.85 59.45 64.61 60.39 56.47 57.42 59.34 60.81 62.60 62.60 59.41 60.17 63.09 66.52 65.84 63.30 65.50 65.48 64.69 62.74 63.98 59.54 59.07 64.10 66.59 65.52 65.74 66.15 66.65 67.18
57.15 56.90 56.97 56.75 56.21 55.77 55.21 54.95 55.12 55.96 56.80 57.52 57.61 58.34 55.64 59.78 62.31 63.66 62.33 58.26 58.35 61.28 61.70 62.15 62.14 59.67 58.36 64.55 64.07 61.99 62.58 59.20 63.92 65.13 64.29 63.65 55.41 60.76 63.60 65.51 64.24 65.03 65.50 65.98 67.18
57.27 57.23 56.72 56.53 56.24 55.72 55.07 54.97 55.94 56.84 57.85 58.25 57.61 57.51 55.64 60.68 57.02 64.18 62.70 59.83 60.02 60.56 61.79 61.55 60.39 57.87 60.46 60.01 58.66 59.38 57.46 58.82 61.00 65.45 63.67 62.74 57.04 61.13 63.43 62.93 64.06 64.55 65.21 65.82 66.85
57.16 57.05 56.91 56.51 56.06 56.06 55.33 55.54 58.51 57.41 58.13 60.15 59.59 56.25 57.68 53.39 58.72 62.01 62.06 61.28 58.11 58.52 57.83 56.74 56.15 54.34 58.23 58.74 53.02 55.35 56.54 58.32 59.32 63.08 63.14 60.99 60.15 60.10 61.49 61.63 62.68 64.47 65.39 65.84 66.66
56.80 56.86 56.48 56.20 56.03 54.98 55.25 60.69 58.93 57.45 60.54 56.34 55.32 56.21 55.39 57.64 61.62 59.38 60.67 59.58 57.36 55.28 51.03 53.82 50.66 50.39 57.06 60.20 59.46 59.48 57.47 56.63 59.71 61.88 62.38 60.67 59.85 60.31 61.48 62.01 63.80 65.17 64.51 65.09 66.22
56.71 56.68 56.26 54.93 55.08 54.14 55.40 57.72 57.38 58.57 53.34 59.49 57.46 55.84 58.80 60.11 54.88 56.01 58.05 53.93 52.81 49.06 52.12 51.15 48.14 53.97 59.26 60.53 59.03 58.31 56.53 57.71 57.79 59.34 62.10 60.47 59.06 61.15 62.74 64.32 65.01 64.54 64.80 65.60 66.18
56.63 56.35 55.60 55.10 54.75 53.83 58.27 59.65 61.89 60.71 54.67 56.14 55.58 55.26 56.88 58.71 54.43 54.89 55.70 53.19 50.54 49.35 50.19 49.66 50.84 54.10 56.07 57.59 56.48 57.13 56.08 57.62 53.79 57.75 60.24 60.59 57.64 59.94 62.39 64.15 64.13 64.11 63.47 63.66 66.30
56.33 55.19 54.45 54.04 52.49 60.79 59.81 62.61 61.93 61.39 50.34 50.07 52.08 55.47 56.50 57.55 54.18 58.24 57.42 55.14 52.65 49.07 50.74 51.23 54.14 52.72 53.66 55.17 58.64 53.95 59.35 58.91 54.67 54.15 52.65 60.67 51.29 57.23 60.39 60.50 63.03 62.95 61.68 63.35 66.18
55.37 54.67 53.81 52.97 55.92 57.10 60.38 61.33 61.72 59.90 40.33 51.52 52.96 59.62 57.74 54.01 55.56 55.25 57.82 55.46 50.98 50.68 50.84 50.07 51.79 52.68 52.41 55.13 58.56 55.30 58.83 57.78 56.66 55.75 53.59 57.25 53.20 56.08 60.30 58.12 60.61 62.07 63.30 64.34 67.09
55.04 54.53 53.94 57.19 57.41 59.30 61.21 61.79 60.05 49.49 39.65 50.12 54.06 52.89 53.31 53.74 54.77 55.64 54.41 56.30 55.04 51.08 51.76 52.11 55.59 54.72 55.96 57.80 58.09 58.58 57.09 57.25 55.82 52.94 48.63 54.85 55.19 51.02 57.47 59.12 61.39 63.66 64.03 64.64 67.24
53.75 53.11 53.46 58.83 58.49 62.20 61.83 59.25 49.97 43.35 52.59 48.52 50.09 53.08 52.04 51.95 53.30 52.91 50.70 50.50 50.05 45.98 47.13 50.92 53.29 56.02 56.85 54.19 56.81 55.68 53.88 47.75 47.15 48.63 48.33 56.29 54.45 54.38 60.07 63.62 64.22 63.97 65.68 65.83 67.71
52.36 51.62 55.64 59.11 60.77 61.70 60.01 54.44 41.74 50.51 49.38 52.81 52.17 52.11 49.96 52.47 52.63 51.52 49.81 49.39 53.32 50.86 49.44 47.66 46.74 53.26 55.61 54.03 52.98 53.27 53.20 48.81 44.60 45.82 48.27 55.38 51.81 56.85 63.89 63.18 65.56 67.54 67.85 67.12 67.32
51.53 60.58 59.24 61.82 61.41 60.76 56.55 48.27 48.00 50.05 50.88 49.20 51.90 47.55 48.95 52.05 51.77 50.77 51.02 49.92 51.94 53.23 48.53 47.77 48.46 54.81 55.37 55.23 55.42 52.71 49.71 54.14 50.00 50.19 48.34 52.61 56.03 61.95 61.82 61.26 64.66 66.49 67.23 66.19 67.53
57.91 60.74 58.21 61.43 61.65 58.96 54.11 48.29 51.78 53.08 52.95 53.35 46.95 51.18 48.08 49.91 49.80 50.87 50.40 52.60 51.37 53.63 54.66 52.13 48.10 52.99 53.86 54.82 54.37 52.80 54.80 48.78 49.94 44.88 44.41 50.14 52.47 55.04 58.08 56.75 64.77 66.06 66.10 67.24 67.48
57.69 57.00 59.25 62.05 61.49 56.69 51.75 50.12 51.40 54.07 54.56 51.87 50.45 49.30 49.67 49.37 50.15 50.28 49.76 53.04 53.87 52.71 54.26 53.47 51.22 50.29 53.01 50.81 49.37 50.21 49.44 51.57 51.82 50.49 46.70 45.67 51.63 60.44 56.53 57.62 58.59 62.83 67.57 67.95 67.45
59.26 54.87 61.00 62.54 55.14 56.55 52.29 52.08 50.01 52.44 54.10 53.02 53.53 52.76 50.61 51.48 50.68 50.25 50.32 52.35 54.81 54.79 50.65 53.31 51.36 48.68 50.65 53.69 53.73 52.76 50.71 50.71 48.37 48.27 49.91 49.29 49.82 61.20 58.91 58.61 60.22 60.61 67.68 69.43 68.99
57.55 56.36 61.54 61.31 52.15 51.94 52.56 51.48 52.12 51.73 52.29 52.36 51.09 52.60 53.51 51.71 49.35 51.23 50.36 54.52 54.47 54.33 52.93 54.28 50.25 46.70 48.72 52.40 53.06 50.65 52.18 52.29 50.82 51.78 50.64 46.98 51.14 61.45 58.49 57.49 61.37 65.08 67.99 69.63 69.96
58.33 51.09 56.51 58.27 58.16 54.08 50.98 50.05 48.46 50.58 51.73 52.93 52.44 53.22 51.36 50.30 53.74 51.28 51.45 52.37 53.72 54.33 58.69 57.75 51.09 48.91 43.40 49.26 52.96 51.28 51.25 53.01 51.03 47.19 47.76 49.24 55.55 59.79 59.59 61.26 64.33 66.82 69.34 69.50 69.81
58.60 54.90 55.87 51.78 54.01 53.45 53.07 50.23 48.05 48.38 51.79 52.72 50.84 51.82 51.60 50.12 50.96 50.77 52.57 52.67 52.93 52.76 54.13 53.02 48.90 50.72 51.02 52.12 51.91 51.82 51.57 50.95 50.08 51.35 49.15 50.79 51.09 56.09 60.29 57.49 55.29 65.66 69.17 68.84 69.06
58.97 57.92 57.68 56.18 55.68 53.53 49.98 50.45 47.95 49.46 51.02 49.70 49.81 50.11 51.25 49.73 50.90 50.05 51.55 51.82 51.28 53.35 51.67 53.61 48.68 50.28 48.47 51.04 51.09 49.65 51.37 52.38 51.50 51.26 51.25 51.41 50.97 61.72 59.35 58.41 55.15 56.68 67.14 67.17 67.82
63.68 63.68 58.75 52.69 53.64 52.59 51.78 50.80 49.90 51.68 51.24 51.29 50.78 50.15 50.02 51.22 52.32 52.89 53.38 53.43 54.85 52.85 52.24 51.30 49.49 48.47 45.11 49.40 48.99 46.47 50.15 50.82 51.70 52.96 53.72 51.83 57.09 61.65 58.18 55.96 54.01 59.25 65.21 67.11 67.95

GFSSW_sfc_wetblb_129.txt.gz
Wetbulb
57.98 57.92 57.89 58.12 57.54 57.58 57.71 57.62 57.73 58.07 58.39 58.45 58.34 58.44 58.70 58.88 58.40 55.95 50.11 56.18 59.29 70.58 70.74 63.77 61.68 63.47 65.13 68.00 68.87 66.39 58.26 55.90 56.42 58.93 60.87 65.70 63.47 66.43 67.42 64.64 65.55 66.10 64.58 66.93 69.19
58.21 57.87 57.75 57.49 57.18 57.20 57.39 57.64 57.73 58.20 58.34 58.19 58.17 58.07 58.24 58.73 54.75 51.90 60.73 69.98 70.79 71.89 57.69 62.47 59.36 63.71 63.23 66.33 67.13 63.29 56.79 56.62 59.60 61.54 62.31 64.57 63.32 65.58 63.96 63.02 63.70 64.66 66.69 68.80 69.46
57.88 57.88 57.54 57.60 57.58 57.54 57.37 57.48 58.30 58.28 58.23 58.12 57.97 57.97 58.22 57.63 52.80 53.82 70.70 69.07 70.26 69.18 56.73 63.27 63.50 62.30 60.49 65.99 65.52 60.62 57.83 59.60 60.61 63.37 64.78 64.87 62.83 66.74 63.06 60.87 63.18 62.52 64.56 66.43 67.42
57.76 57.29 57.41 57.11 56.94 56.86 57.35 57.68 57.87 57.84 57.94 57.87 57.63 57.78 58.66 54.67 49.72 59.31 71.86 70.20 70.11 57.52 55.06 58.99 59.81 56.70 58.12 61.27 65.75 60.64 62.25 60.40 61.58 64.49 65.03 64.35 65.90 64.23 64.67 63.50 65.67 65.37 66.81 66.17 65.79
57.23 57.20 57.14 56.92 57.09 57.00 56.90 57.12 57.63 57.30 57.14 57.14 57.53 58.06 55.96 51.88 52.17 64.06 70.56 69.49 59.51 52.83 52.74 58.59 57.59 56.42 54.90 61.77 64.10 60.20 60.12 61.12 65.46 65.02 65.48 65.13 62.27 63.64 64.11 66.59 66.75 66.61 66.94 65.22 65.53
57.66 57.47 57.18 57.41 57.07 56.97 56.86 56.62 56.66 56.77 56.73 57.10 57.91 58.19 52.39 46.64 61.78 63.89 62.63 62.17 54.52 50.35 53.30 58.40 58.83 58.38 55.18 62.36 62.40 64.37 63.46 63.54 65.61 65.27 65.45 62.57 61.61 64.40 64.60 66.69 65.83 65.80 64.51 65.37 66.14
57.81 57.51 57.57 57.26 57.22 56.74 56.48 56.17 56.07 56.21 56.76 57.48 58.00 57.02 52.95 52.56 58.72 62.22 59.53 56.93 51.53 51.08 54.25 59.36 61.38 57.85 55.93 59.73 65.85 65.03 61.84 63.28 64.02 63.77 62.20 64.00 59.10 59.54 63.23 65.78 64.47 64.74 63.98 65.50 66.43
57.72 57.52 57.46 57.14 57.01 56.87 56.35 55.78 55.68 56.06 56.44 57.56 57.86 54.97 50.06 60.12 59.31 59.12 57.35 53.87 52.93 53.55 55.08 60.12 60.81 57.06 53.81 55.69 62.63 61.29 61.05 56.88 61.88 63.55 63.34 62.75 54.85 60.76 62.66 64.25 62.64 63.85 64.31 65.06 66.14
57.42 57.33 57.29 57.02 56.98 56.59 56.22 55.97 56.53 57.95 57.70 58.11 53.91 51.52 50.38 59.57 53.97 57.83 60.22 55.47 52.69 53.37 55.55 60.65 57.87 53.35 54.35 51.43 54.81 58.06 54.63 56.76 59.39 64.10 61.98 61.24 56.60 60.72 63.80 62.61 62.12 62.01 63.04 64.36 65.71
57.41 57.33 57.11 56.36 56.38 55.99 55.37 55.65 58.09 58.17 58.36 58.44 57.37 50.09 55.24 52.89 53.05 55.30 61.20 59.52 54.82 54.66 55.18 54.64 51.88 48.42 49.12 47.53 48.80 52.06 54.52 56.29 57.30 61.68 61.50 59.30 58.34 60.35 61.28 61.65 61.67 63.39 63.03 62.62 64.72
57.37 56.90 56.94 56.34 54.98 54.87 53.87 54.19 54.43 52.88 55.27 52.80 53.17 53.46 54.68 57.45 56.35 58.65 58.84 57.23 54.96 51.79 47.64 50.97 45.47 43.55 48.05 51.66 55.99 57.98 55.24 56.99 57.32 59.99 60.93 59.00 57.25 58.37 60.18 62.00 62.30 63.50 61.16 63.41 65.04
57.00 56.66 56.29 55.71 55.26 54.85 52.15 51.96 55.84 56.60 48.83 57.64 57.69 56.03 56.17 56.78 53.75 55.96 57.53 52.97 50.73 46.02 48.94 45.78 43.19 49.17 52.63 53.34 57.00 57.22 55.53 55.25 56.38 58.19 59.49 59.01 57.83 58.71 60.49 61.59 62.89 63.36 62.74 63.63 65.19
56.58 55.33 54.71 54.08 54.57 51.66 53.15 55.39 59.56 58.64 48.65 53.88 57.48 53.06 53.63 55.57 53.16 51.83 53.10 51.46 49.40 46.41 46.33 43.66 47.23 51.14 50.88 51.89 55.05 53.79 52.66 54.61 55.02 56.58 58.41 58.07 56.12 57.47 60.07 63.80 64.06 63.56 63.05 63.99 65.16
56.24 54.76 54.27 53.34 51.64 55.85 55.41 59.82 60.07 59.15 45.04 50.51 50.24 52.51 54.00 54.74 51.92 56.48 54.58 50.27 48.02 44.96 46.27 45.80 50.44 49.91 49.08 49.74 55.81 52.42 58.46 57.30 55.25 53.10 48.16 55.86 48.80 55.88 58.47 59.81 62.57 62.83 60.39 61.81 64.37
55.51 54.33 53.79 53.65 51.04 52.17 56.86 58.52 57.15 54.90 38.14 50.00 50.19 56.77 54.72 51.02 53.04 52.97 55.90 51.81 47.42 47.76 45.85 45.08 47.92 48.44 47.72 50.69 56.69 55.33 59.00 56.84 55.36 52.12 50.23 50.75 49.65 54.17 58.69 57.15 58.90 61.86 60.58 61.94 63.67
55.44 54.10 53.75 53.53 52.43 54.94 58.12 58.08 56.50 45.47 39.58 49.97 53.09 51.28 50.67 51.56 52.21 54.23 52.45 53.55 53.22 49.11 48.03 47.15 51.73 50.38 50.66 53.64 57.45 58.94 57.89 56.66 55.33 52.95 46.37 51.49 50.91 51.20 55.75 57.83 59.30 61.94 60.39 61.99 63.53
54.25 53.10 52.56 56.32 54.41 58.59 57.10 55.11 45.54 40.22 51.73 48.74 47.64 50.39 49.91 48.95 50.73 51.35 49.15 46.83 44.88 39.43 40.24 46.16 47.70 50.90 54.08 51.23 53.74 54.78 52.01 43.36 43.47 44.40 44.44 51.98 52.34 52.53 57.90 60.99 60.93 61.23 61.54 61.46 63.74
52.51 51.88 52.79 56.30 58.16 57.99 55.87 49.63 41.03 48.88 48.92 52.63 52.01 51.64 48.57 51.06 50.93 51.12 47.78 45.47 48.69 47.52 42.12 40.16 40.43 49.81 53.38 49.76 48.00 49.64 46.77 42.88 39.99 40.04 42.78 50.52 49.50 54.19 59.41 62.78 63.93 63.33 62.96 63.24 63.30
51.51 55.25 55.81 58.30 57.58 57.57 51.53 44.89 44.93 48.51 51.48 50.53 50.79 47.68 47.54 50.32 50.74 49.70 45.89 46.07 48.97 49.78 43.29 42.02 43.61 52.56 53.58 53.14 50.62 48.08 44.67 50.02 44.06 45.13 42.50 46.98 54.76 59.17 61.26 59.12 59.48 60.86 64.15 63.01 62.83
52.41 56.66 58.07 59.12 59.90 54.83 48.67 44.86 49.84 52.61 52.51 52.16 45.93 49.78 45.77 47.22 48.17 47.41 47.14 50.34 49.82 51.47 50.07 47.43 42.30 49.71 51.98 52.38 51.67 49.28 49.18 41.43 41.53 36.35 38.73 46.72 49.73 49.99 54.86 58.05 58.98 57.13 56.69 64.14 63.79
55.41 53.12 58.84 60.35 58.68 52.73 46.15 49.31 51.60 52.84 52.97 50.29 49.56 47.96 48.14 48.33 47.12 47.51 48.23 51.72 53.53 51.23 50.40 46.44 45.02 47.29 49.98 46.35 45.09 44.92 42.80 43.66 43.67 43.13 39.00 40.81 44.54 57.71 57.39 58.86 56.45 57.03 58.88 61.58 64.31
57.49 51.76 58.27 59.58 50.76 52.72 50.14 50.46 50.84 50.85 52.85 52.03 52.52 51.54 49.76 49.80 48.23 47.88 47.86 50.73 55.11 53.21 48.01 50.06 43.33 41.32 44.73 49.90 50.71 47.60 44.48 43.99 39.23 39.75 41.77 42.21 46.54 58.75 58.15 59.18 58.70 58.29 61.09 63.91 64.56
53.69 55.67 59.43 58.57 48.37 50.52 52.70 50.81 50.38 49.05 50.49 50.91 51.41 52.36 51.54 48.95 47.39 50.20 51.48 55.27 53.72 51.93 47.28 49.16 45.40 41.57 44.49 47.37 49.46 45.08 47.33 46.87 43.19 41.31 38.90 40.34 45.85 57.21 57.17 57.88 59.72 59.89 61.26 62.48 65.91
54.61 51.39 54.38 56.07 55.27 52.25 50.35 49.67 47.42 50.00 50.42 51.82 51.17 51.49 50.99 49.72 49.91 48.48 50.11 53.11 52.65 51.91 60.01 54.32 45.67 42.83 40.32 43.83 46.94 47.18 49.93 50.11 44.54 38.16 39.60 47.20 51.04 53.56 57.37 57.22 56.96 59.32 60.36 62.33 63.80
56.39 54.32 57.51 50.11 52.14 53.05 51.53 49.47 48.35 47.67 51.32 51.85 51.09 50.22 49.88 46.48 47.78 48.49 51.30 51.49 53.39 55.61 50.96 47.83 42.10 44.15 46.30 49.57 50.16 49.58 49.24 49.56 46.17 44.53 41.59 46.61 49.41 53.19 55.47 57.56 57.09 58.96 62.20 64.30 64.75
54.54 56.26 57.85 55.75 54.88 53.02 47.90 47.95 47.61 49.06 48.93 48.34 48.50 49.89 51.75 46.93 47.96 45.71 48.55 49.22 47.74 51.20 47.26 48.58 42.05 44.21 44.23 48.85 50.88 48.58 49.53 49.62 49.65 49.32 52.53 53.88 51.32 56.92 58.66 56.96 54.88 56.36 58.02 60.93 63.51
61.80 62.01 57.79 53.63 52.60 50.76 51.07 51.37 49.39 52.05 52.10 50.44 49.35 48.75 48.46 48.76 49.65 47.23 46.94 46.90 50.89 47.88 47.34 46.91 44.49 42.03 38.90 47.63 46.81 43.75 48.91 49.56 50.21 52.38 53.27 48.35 52.84 55.66 53.30 53.54 52.98 55.23 58.90 61.85 64.91